GFSSGP_prec_precacc24_027.txt.gz
Total_Precipitation_Accumulation
0.00 0.00 0.00 0.00 0.00 0.00 0.00 0.00 0.00 0.00 0.00 0.00 0.00 0.00 0.00 0.00 0.00 0.00 0.00 0.00 0.00 0.00 0.01 0.01 0.03 0.04 0.01 0.01 0.00 0.01 0.02 0.03 0.03 0.04 0.03 0.03 0.01 0.00 0.01 0.00 0.00 0.00 0.01 0.05 0.04 0.01 0.00 0.00 0.00
0.00 0.00 0.00 0.00 0.00 0.00 0.00 0.00 0.00 0.00 0.00 0.00 0.00 0.00 0.00 0.00 0.00 0.00 0.00 0.00 0.00 0.00 0.00 0.00 0.02 0.03 0.01 0.00 0.00 0.01 0.02 0.02 0.02 0.02 0.02 0.00 0.00 0.01 0.02 0.00 0.00 0.00 0.01 0.01 0.00 0.00 0.00 0.00 0.00
0.00 0.00 0.00 0.00 0.00 0.00 0.00 0.00 0.00 0.00 0.00 0.00 0.00 0.00 0.00 0.00 0.00 0.00 0.00 0.00 0.00 0.00 0.00 0.00 0.02 0.03 0.01 0.00 0.00 0.01 0.01 0.02 0.02 0.02 0.00 0.00 0.00 0.01 0.00 0.00 0.00 0.00 0.00 0.00 0.00 0.00 0.00 0.00 0.00
0.00 0.00 0.00 0.00 0.00 0.00 0.00 0.00 0.00 0.00 0.00 0.00 0.00 0.00 0.00 0.00 0.00 0.00 0.00 0.00 0.00 0.00 0.00 0.00 0.02 0.02 0.02 0.02 0.01 0.01 0.01 0.01 0.02 0.00 0.00 0.00 0.00 0.02 0.01 0.00 0.00 0.00 0.00 0.00 0.00 0.00 0.00 0.00 0.00
0.00 0.00 0.00 0.00 0.00 0.00 0.00 0.00 0.00 0.00 0.00 0.00 0.00 0.00 0.00 0.00 0.00 0.00 0.00 0.00 0.00 0.00 0.00 0.01 0.02 0.03 0.03 0.03 0.02 0.02 0.01 0.02 0.01 0.00 0.00 0.00 0.00 0.02 0.05 0.01 0.00 0.00 0.00 0.01 0.00 0.01 0.02 0.00 0.01
0.00 0.00 0.00 0.00 0.00 0.00 0.00 0.00 0.00 0.00 0.00 0.00 0.00 0.00 0.00 0.00 0.00 0.00 0.00 0.00 0.00 0.00 0.01 0.02 0.02 0.03 0.03 0.03 0.03 0.02 0.00 0.01 0.00 0.00 0.00 0.00 0.00 0.01 0.02 0.03 0.00 0.00 0.01 0.01 0.01 0.04 0.02 0.01 0.01
0.00 0.00 0.00 0.00 0.00 0.00 0.00 0.00 0.00 0.00 0.00 0.00 0.00 0.00 0.00 0.00 0.00 0.00 0.00 0.00 0.00 0.00 0.01 0.03 0.01 0.01 0.03 0.03 0.02 0.01 0.00 0.01 0.01 0.01 0.00 0.00 0.00 0.00 0.01 0.05 0.04 0.02 0.02 0.02 0.05 0.02 0.02 0.01 0.01
0.00 0.00 0.00 0.00 0.00 0.00 0.00 0.00 0.00 0.00 0.00 0.00 0.00 0.00 0.00 0.00 0.00 0.00 0.00 0.00 0.01 0.04 0.07 0.05 0.01 0.00 0.01 0.02 0.01 0.01 0.00 0.00 0.00 0.01 0.01 0.00 0.00 0.01 0.01 0.01 0.03 0.01 0.03 0.02 0.01 0.01 0.01 0.00 0.00
0.00 0.00 0.00 0.00 0.00 0.00 0.00 0.00 0.00 0.00 0.00 0.00 0.00 0.00 0.00 0.00 0.00 0.00 0.00 0.00 0.01 0.05 0.07 0.07 0.02 0.00 0.01 0.02 0.01 0.00 0.00 0.00 0.00 0.00 0.01 0.00 0.00 0.01 0.00 0.00 0.00 0.00 0.01 0.00 0.00 0.00 0.00 0.00 0.00
0.00 0.00 0.00 0.00 0.00 0.00 0.00 0.00 0.00 0.00 0.00 0.00 0.00 0.00 0.00 0.00 0.00 0.00 0.00 0.00 0.00 0.03 0.05 0.08 0.05 0.00 0.01 0.02 0.01 0.00 0.00 0.00 0.00 0.00 0.00 0.00 0.00 0.00 0.00 0.00 0.00 0.00 0.00 0.00 0.00 0.00 0.00 0.00 0.00
0.00 0.00 0.00 0.00 0.00 0.00 0.00 0.00 0.00 0.00 0.00 0.00 0.00 0.00 0.00 0.00 0.00 0.00 0.00 0.00 0.00 0.02 0.03 0.05 0.07 0.02 0.01 0.01 0.01 0.00 0.00 0.00 0.00 0.00 0.00 0.00 0.00 0.00 0.00 0.00 0.00 0.00 0.00 0.00 0.00 0.00 0.00 0.00 0.00
0.00 0.00 0.00 0.00 0.00 0.00 0.00 0.00 0.00 0.00 0.00 0.00 0.00 0.00 0.00 0.00 0.00 0.00 0.00 0.01 0.01 0.01 0.01 0.03 0.04 0.03 0.04 0.04 0.02 0.00 0.00 0.00 0.00 0.00 0.00 0.00 0.00 0.00 0.00 0.00 0.00 0.00 0.00 0.00 0.00 0.00 0.00 0.00 0.00
0.00 0.00 0.00 0.00 0.00 0.00 0.00 0.00 0.00 0.00 0.00 0.00 0.00 0.00 0.00 0.00 0.00 0.00 0.00 0.00 0.01 0.02 0.02 0.03 0.03 0.01 0.02 0.02 0.06 0.02 0.01 0.00 0.00 0.00 0.00 0.00 0.00 0.00 0.00 0.00 0.00 0.00 0.00 0.00 0.00 0.00 0.00 0.00 0.00
0.00 0.00 0.00 0.00 0.00 0.00 0.00 0.00 0.00 0.00 0.00 0.00 0.00 0.00 0.00 0.00 0.00 0.00 0.00 0.00 0.00 0.02 0.02 0.07 0.05 0.04 0.01 0.01 0.04 0.08 0.05 0.04 0.01 0.00 0.00 0.00 0.00 0.00 0.00 0.00 0.00 0.00 0.00 0.00 0.00 0.00 0.00 0.00 0.00
0.00 0.00 0.00 0.00 0.00 0.00 0.00 0.00 0.00 0.00 0.00 0.00 0.00 0.00 0.00 0.00 0.00 0.00 0.00 0.00 0.00 0.00 0.04 0.04 0.08 0.10 0.04 0.05 0.06 0.06 0.08 0.07 0.04 0.01 0.00 0.00 0.00 0.00 0.00 0.00 0.00 0.00 0.00 0.00 0.00 0.00 0.00 0.00 0.00
0.00 0.00 0.00 0.00 0.00 0.00 0.00 0.00 0.00 0.00 0.00 0.00 0.00 0.00 0.00 0.00 0.00 0.00 0.00 0.00 0.00 0.00 0.00 0.02 0.09 0.06 0.04 0.10 0.19 0.16 0.14 0.11 0.04 0.02 0.01 0.00 0.00 0.00 0.00 0.00 0.00 0.00 0.00 0.00 0.00 0.00 0.00 0.00 0.00
0.00 0.00 0.00 0.00 0.00 0.00 0.00 0.00 0.00 0.00 0.00 0.00 0.00 0.00 0.00 0.00 0.00 0.00 0.00 0.00 0.00 0.00 0.00 0.00 0.02 0.02 0.04 0.14 0.17 0.22 0.14 0.08 0.09 0.07 0.02 0.01 0.01 0.00 0.00 0.00 0.00 0.00 0.00 0.00 0.00 0.00 0.00 0.00 0.00
0.00 0.00 0.00 0.00 0.00 0.00 0.00 0.00 0.00 0.00 0.00 0.00 0.00 0.00 0.00 0.00 0.00 0.00 0.00 0.00 0.00 0.00 0.00 0.00 0.00 0.01 0.06 0.23 0.25 0.26 0.11 0.08 0.07 0.06 0.03 0.05 0.04 0.03 0.00 0.00 0.00 0.00 0.00 0.00 0.00 0.00 0.00 0.00 0.00
0.00 0.00 0.00 0.00 0.00 0.00 0.00 0.00 0.00 0.00 0.00 0.00 0.00 0.00 0.00 0.00 0.00 0.00 0.00 0.00 0.00 0.00 0.00 0.00 0.00 0.01 0.06 0.08 0.08 0.13 0.08 0.09 0.09 0.06 0.09 0.12 0.06 0.05 0.03 0.02 0.00 0.00 0.00 0.00 0.00 0.00 0.00 0.00 0.00
0.00 0.00 0.00 0.00 0.00 0.00 0.00 0.00 0.00 0.00 0.00 0.00 0.00 0.00 0.00 0.00 0.00 0.00 0.00 0.00 0.00 0.00 0.00 0.00 0.00 0.00 0.01 0.05 0.11 0.17 0.19 0.12 0.08 0.12 0.05 0.08 0.04 0.05 0.04 0.05 0.02 0.01 0.00 0.00 0.00 0.00 0.00 0.00 0.00
0.00 0.00 0.00 0.00 0.00 0.00 0.00 0.00 0.00 0.00 0.00 0.00 0.00 0.00 0.00 0.00 0.00 0.00 0.00 0.00 0.00 0.00 0.00 0.00 0.00 0.00 0.01 0.06 0.12 0.19 0.24 0.16 0.09 0.05 0.02 0.05 0.06 0.05 0.07 0.16 0.11 0.01 0.00 0.00 0.00 0.00 0.00 0.00 0.00
0.00 0.00 0.00 0.00 0.00 0.00 0.00 0.00 0.00 0.00 0.00 0.00 0.00 0.00 0.00 0.00 0.00 0.00 0.00 0.00 0.00 0.00 0.00 0.00 0.00 0.00 0.03 0.07 0.07 0.07 0.05 0.06 0.06 0.07 0.16 0.20 0.17 0.14 0.10 0.15 0.16 0.06 0.01 0.01 0.00 0.00 0.00 0.00 0.00
0.00 0.00 0.00 0.00 0.00 0.00 0.00 0.01 0.00 0.00 0.00 0.00 0.00 0.00 0.00 0.00 0.00 0.00 0.00 0.00 0.00 0.00 0.00 0.00 0.00 0.00 0.01 0.08 0.08 0.09 0.05 0.06 0.07 0.13 0.19 0.18 0.17 0.19 0.17 0.14 0.14 0.12 0.04 0.04 0.01 0.00 0.00 0.00 0.00
0.00 0.00 0.00 0.00 0.01 0.02 0.00 0.00 0.00 0.00 0.00 0.00 0.00 0.00 0.00 0.00 0.00 0.00 0.00 0.00 0.00 0.00 0.00 0.00 0.00 0.00 0.01 0.02 0.06 0.07 0.06 0.04 0.09 0.09 0.11 0.13 0.14 0.13 0.12 0.11 0.11 0.15 0.13 0.09 0.06 0.03 0.02 0.01 0.00
0.00 0.01 0.01 0.03 0.05 0.01 0.00 0.00 0.00 0.00 0.00 0.00 0.00 0.00 0.00 0.00 0.00 0.00 0.00 0.00 0.00 0.00 0.00 0.00 0.00 0.00 0.00 0.00 0.02 0.03 0.04 0.06 0.08 0.12 0.14 0.11 0.10 0.07 0.07 0.12 0.11 0.11 0.12 0.11 0.09 0.07 0.04 0.03 0.02
0.00 0.01 0.01 0.00 0.00 0.00 0.00 0.00 0.00 0.00 0.00 0.00 0.00 0.00 0.00 0.00 0.00 0.00 0.00 0.00 0.00 0.00 0.00 0.00 0.00 0.00 0.00 0.01 0.01 0.04 0.05 0.08 0.11 0.14 0.11 0.10 0.10 0.11 0.14 0.14 0.15 0.14 0.12 0.09 0.07 0.05 0.04 0.02 0.01
0.01 0.01 0.01 0.07 0.06 0.10 0.02 0.00 0.00 0.00 0.00 0.00 0.00 0.00 0.00 0.00 0.00 0.00 0.00 0.00 0.00 0.00 0.00 0.00 0.00 0.00 0.01 0.03 0.07 0.06 0.05 0.08 0.08 0.10 0.10 0.10 0.10 0.11 0.15 0.14 0.14 0.14 0.14 0.11 0.07 0.06 0.04 0.02 0.01
0.00 0.00 0.03 0.10 0.07 0.05 0.00 0.00 0.00 0.00 0.00 0.00 0.00 0.00 0.00 0.00 0.00 0.00 0.00 0.00 0.00 0.00 0.00 0.00 0.00 0.02 0.03 0.06 0.10 0.03 0.05 0.07 0.07 0.07 0.05 0.06 0.09 0.10 0.09 0.09 0.11 0.13 0.13 0.10 0.08 0.05 0.02 0.01 0.02
0.00 0.03 0.03 0.06 0.06 0.07 0.03 0.00 0.00 0.00 0.00 0.00 0.00 0.00 0.00 0.00 0.00 0.00 0.00 0.00 0.00 0.00 0.00 0.00 0.01 0.04 0.06 0.05 0.03 0.02 0.04 0.06 0.07 0.07 0.05 0.05 0.07 0.07 0.07 0.08 0.08 0.09 0.08 0.07 0.06 0.06 0.02 0.01 0.01
0.00 0.00 0.03 0.20 0.07 0.13 0.06 0.03 0.00 0.00 0.00 0.00 0.00 0.00 0.00 0.00 0.00 0.00 0.00 0.00 0.00 0.00 0.00 0.00 0.05 0.07 0.03 0.02 0.02 0.02 0.03 0.04 0.05 0.05 0.07 0.07 0.07 0.05 0.05 0.05 0.04 0.04 0.06 0.08 0.07 0.07 0.06 0.05 0.05

GFSSGP_prec_precacc24_030.txt.gz
Total_Precipitation_Accumulation
0.00 0.00 0.00 0.00 0.00 0.00 0.00 0.00 0.00 0.00 0.00 0.00 0.00 0.00 0.00 0.00 0.00 0.00 0.00 0.00 0.00 0.00 0.01 0.01 0.02 0.03 0.02 0.01 0.01 0.02 0.03 0.04 0.03 0.04 0.03 0.03 0.01 0.00 0.00 0.00 0.00 0.00 0.04 0.07 0.05 0.02 0.00 0.00 0.00
0.00 0.00 0.00 0.00 0.00 0.00 0.00 0.00 0.00 0.00 0.00 0.00 0.00 0.00 0.00 0.00 0.00 0.00 0.00 0.00 0.00 0.00 0.00 0.00 0.02 0.02 0.01 0.00 0.01 0.02 0.03 0.04 0.03 0.03 0.02 0.00 0.00 0.01 0.00 0.00 0.00 0.00 0.01 0.01 0.00 0.00 0.00 0.00 0.00
0.00 0.00 0.00 0.00 0.00 0.00 0.00 0.00 0.00 0.00 0.00 0.00 0.00 0.00 0.00 0.00 0.00 0.00 0.00 0.00 0.00 0.00 0.00 0.00 0.02 0.02 0.01 0.00 0.00 0.01 0.02 0.03 0.03 0.02 0.00 0.00 0.00 0.00 0.00 0.00 0.00 0.00 0.00 0.00 0.00 0.00 0.00 0.00 0.00
0.00 0.00 0.00 0.00 0.00 0.00 0.00 0.00 0.00 0.00 0.00 0.00 0.00 0.00 0.00 0.00 0.00 0.00 0.00 0.00 0.00 0.00 0.00 0.00 0.01 0.02 0.01 0.01 0.01 0.01 0.02 0.03 0.02 0.00 0.00 0.00 0.00 0.00 0.00 0.00 0.00 0.00 0.00 0.00 0.00 0.00 0.00 0.00 0.00
0.00 0.00 0.00 0.00 0.00 0.00 0.00 0.00 0.00 0.00 0.00 0.00 0.00 0.00 0.00 0.00 0.00 0.00 0.00 0.00 0.00 0.00 0.00 0.01 0.01 0.02 0.02 0.01 0.01 0.01 0.01 0.03 0.02 0.00 0.00 0.00 0.00 0.01 0.01 0.00 0.00 0.00 0.00 0.01 0.01 0.01 0.02 0.00 0.00
0.00 0.00 0.00 0.00 0.00 0.00 0.00 0.00 0.00 0.00 0.00 0.00 0.00 0.00 0.00 0.00 0.00 0.00 0.00 0.00 0.00 0.00 0.01 0.02 0.01 0.01 0.01 0.01 0.01 0.01 0.01 0.02 0.01 0.00 0.00 0.00 0.00 0.00 0.00 0.01 0.00 0.00 0.01 0.01 0.02 0.04 0.02 0.01 0.01
0.00 0.00 0.00 0.00 0.00 0.00 0.00 0.00 0.00 0.00 0.00 0.00 0.00 0.00 0.00 0.00 0.00 0.00 0.00 0.00 0.00 0.00 0.01 0.03 0.01 0.01 0.01 0.01 0.01 0.01 0.01 0.02 0.02 0.01 0.00 0.00 0.00 0.00 0.00 0.01 0.02 0.02 0.02 0.04 0.07 0.02 0.01 0.00 0.00
0.00 0.00 0.00 0.00 0.00 0.00 0.00 0.00 0.00 0.00 0.00 0.00 0.00 0.00 0.00 0.00 0.00 0.00 0.00 0.00 0.01 0.05 0.07 0.05 0.01 0.00 0.00 0.01 0.00 0.00 0.00 0.01 0.01 0.01 0.01 0.00 0.00 0.01 0.01 0.01 0.02 0.01 0.04 0.03 0.00 0.00 0.00 0.00 0.00
0.00 0.00 0.00 0.00 0.00 0.00 0.00 0.00 0.00 0.00 0.00 0.00 0.00 0.00 0.00 0.00 0.00 0.00 0.01 0.00 0.01 0.05 0.08 0.07 0.02 0.00 0.00 0.00 0.00 0.00 0.00 0.00 0.00 0.01 0.01 0.00 0.00 0.01 0.00 0.00 0.00 0.00 0.01 0.00 0.00 0.00 0.00 0.00 0.00
0.00 0.00 0.00 0.00 0.00 0.00 0.00 0.00 0.00 0.00 0.00 0.00 0.00 0.00 0.00 0.00 0.00 0.00 0.01 0.01 0.01 0.04 0.05 0.08 0.05 0.00 0.00 0.01 0.00 0.00 0.00 0.00 0.00 0.00 0.00 0.00 0.00 0.01 0.00 0.00 0.00 0.00 0.00 0.00 0.00 0.00 0.00 0.00 0.00
0.00 0.00 0.00 0.00 0.00 0.00 0.00 0.00 0.00 0.00 0.00 0.00 0.00 0.00 0.00 0.00 0.00 0.00 0.00 0.00 0.00 0.02 0.03 0.05 0.07 0.02 0.01 0.01 0.01 0.00 0.00 0.00 0.00 0.00 0.00 0.00 0.00 0.00 0.01 0.00 0.01 0.00 0.00 0.00 0.00 0.00 0.00 0.00 0.00
0.00 0.00 0.00 0.00 0.00 0.00 0.00 0.00 0.00 0.00 0.00 0.00 0.00 0.00 0.00 0.00 0.00 0.01 0.01 0.02 0.01 0.01 0.01 0.03 0.04 0.03 0.03 0.03 0.02 0.00 0.00 0.00 0.00 0.00 0.00 0.00 0.00 0.00 0.01 0.01 0.01 0.01 0.00 0.00 0.00 0.00 0.00 0.00 0.00
0.00 0.00 0.00 0.00 0.00 0.00 0.00 0.00 0.00 0.00 0.00 0.00 0.00 0.00 0.00 0.00 0.00 0.00 0.00 0.00 0.01 0.02 0.02 0.03 0.03 0.01 0.02 0.02 0.06 0.02 0.02 0.00 0.00 0.00 0.00 0.00 0.00 0.00 0.00 0.00 0.01 0.01 0.00 0.00 0.00 0.00 0.00 0.00 0.00
0.00 0.00 0.00 0.00 0.00 0.00 0.00 0.00 0.00 0.00 0.00 0.00 0.00 0.00 0.00 0.00 0.00 0.00 0.00 0.00 0.00 0.02 0.02 0.07 0.05 0.04 0.01 0.00 0.05 0.08 0.06 0.06 0.02 0.00 0.00 0.00 0.00 0.00 0.00 0.00 0.00 0.00 0.00 0.00 0.00 0.00 0.00 0.00 0.00
0.00 0.00 0.00 0.00 0.00 0.00 0.00 0.00 0.00 0.00 0.00 0.00 0.00 0.00 0.00 0.00 0.00 0.00 0.00 0.00 0.00 0.00 0.04 0.04 0.08 0.10 0.04 0.05 0.06 0.07 0.10 0.11 0.05 0.01 0.00 0.00 0.00 0.00 0.00 0.00 0.00 0.00 0.00 0.00 0.00 0.00 0.00 0.00 0.00
0.00 0.00 0.00 0.00 0.00 0.00 0.00 0.00 0.00 0.00 0.00 0.00 0.00 0.00 0.00 0.00 0.00 0.00 0.00 0.00 0.00 0.00 0.00 0.02 0.09 0.06 0.04 0.09 0.17 0.16 0.15 0.12 0.05 0.03 0.01 0.02 0.01 0.00 0.00 0.00 0.00 0.00 0.00 0.00 0.00 0.00 0.00 0.00 0.00
0.00 0.00 0.00 0.00 0.00 0.00 0.00 0.00 0.00 0.00 0.00 0.00 0.00 0.00 0.00 0.00 0.00 0.00 0.00 0.00 0.00 0.00 0.00 0.00 0.02 0.02 0.04 0.13 0.16 0.22 0.14 0.08 0.08 0.08 0.03 0.02 0.01 0.01 0.00 0.00 0.00 0.00 0.00 0.00 0.00 0.00 0.00 0.00 0.00
0.00 0.00 0.00 0.00 0.00 0.00 0.00 0.00 0.00 0.00 0.00 0.00 0.00 0.00 0.00 0.00 0.00 0.00 0.00 0.00 0.00 0.00 0.00 0.00 0.00 0.01 0.06 0.22 0.24 0.23 0.11 0.08 0.07 0.06 0.03 0.07 0.07 0.07 0.04 0.01 0.00 0.00 0.00 0.00 0.00 0.00 0.00 0.00 0.00
0.00 0.00 0.00 0.00 0.00 0.00 0.00 0.00 0.00 0.00 0.00 0.00 0.00 0.00 0.00 0.00 0.00 0.00 0.00 0.00 0.00 0.00 0.00 0.00 0.00 0.01 0.06 0.07 0.06 0.09 0.08 0.09 0.09 0.06 0.12 0.15 0.08 0.08 0.07 0.07 0.03 0.00 0.00 0.00 0.00 0.00 0.00 0.00 0.00
0.00 0.00 0.00 0.00 0.00 0.00 0.00 0.00 0.00 0.00 0.00 0.00 0.00 0.00 0.00 0.00 0.00 0.00 0.00 0.00 0.00 0.00 0.00 0.00 0.00 0.00 0.01 0.02 0.06 0.13 0.16 0.12 0.09 0.13 0.07 0.09 0.05 0.05 0.08 0.09 0.06 0.02 0.00 0.00 0.00 0.00 0.00 0.00 0.00
0.00 0.00 0.00 0.00 0.00 0.00 0.00 0.00 0.00 0.00 0.00 0.00 0.00 0.00 0.00 0.00 0.00 0.00 0.00 0.00 0.00 0.00 0.00 0.00 0.00 0.00 0.01 0.04 0.10 0.16 0.23 0.15 0.09 0.05 0.02 0.05 0.06 0.06 0.09 0.21 0.15 0.04 0.01 0.00 0.00 0.00 0.00 0.00 0.00
0.00 0.00 0.00 0.00 0.00 0.00 0.00 0.00 0.00 0.00 0.00 0.00 0.00 0.00 0.00 0.00 0.00 0.00 0.00 0.00 0.00 0.00 0.00 0.00 0.00 0.00 0.02 0.05 0.04 0.05 0.04 0.05 0.06 0.07 0.16 0.20 0.18 0.19 0.15 0.18 0.18 0.11 0.03 0.03 0.01 0.00 0.00 0.00 0.00
0.00 0.00 0.00 0.00 0.00 0.00 0.00 0.00 0.00 0.00 0.00 0.00 0.00 0.00 0.00 0.00 0.00 0.00 0.00 0.00 0.00 0.00 0.00 0.00 0.00 0.00 0.01 0.05 0.04 0.07 0.05 0.06 0.07 0.13 0.19 0.18 0.18 0.21 0.21 0.19 0.19 0.16 0.06 0.06 0.05 0.02 0.00 0.00 0.00
0.00 0.00 0.00 0.00 0.00 0.01 0.00 0.00 0.00 0.00 0.00 0.00 0.00 0.00 0.00 0.00 0.00 0.00 0.00 0.00 0.00 0.00 0.00 0.00 0.00 0.00 0.01 0.01 0.02 0.05 0.05 0.04 0.09 0.09 0.11 0.13 0.14 0.14 0.15 0.15 0.15 0.19 0.18 0.12 0.09 0.09 0.05 0.02 0.00
0.00 0.00 0.00 0.01 0.02 0.00 0.00 0.00 0.00 0.00 0.00 0.00 0.00 0.00 0.00 0.00 0.00 0.00 0.00 0.00 0.00 0.00 0.00 0.00 0.00 0.00 0.00 0.00 0.00 0.02 0.03 0.05 0.08 0.12 0.14 0.11 0.10 0.07 0.08 0.13 0.14 0.15 0.18 0.19 0.16 0.13 0.10 0.07 0.04
0.00 0.00 0.00 0.00 0.00 0.00 0.00 0.00 0.00 0.00 0.00 0.00 0.00 0.00 0.00 0.00 0.00 0.00 0.00 0.00 0.00 0.00 0.00 0.00 0.00 0.00 0.00 0.01 0.01 0.02 0.03 0.07 0.11 0.14 0.11 0.10 0.10 0.11 0.15 0.15 0.16 0.17 0.18 0.17 0.16 0.14 0.11 0.08 0.06
0.00 0.00 0.00 0.01 0.00 0.01 0.00 0.00 0.00 0.00 0.00 0.00 0.00 0.00 0.00 0.00 0.00 0.00 0.00 0.00 0.00 0.00 0.00 0.00 0.00 0.00 0.01 0.03 0.06 0.04 0.04 0.07 0.08 0.10 0.10 0.11 0.10 0.12 0.15 0.14 0.15 0.16 0.17 0.17 0.17 0.16 0.13 0.09 0.05
0.00 0.00 0.01 0.03 0.01 0.00 0.00 0.00 0.00 0.00 0.00 0.00 0.00 0.00 0.00 0.00 0.00 0.00 0.00 0.00 0.00 0.00 0.00 0.00 0.00 0.02 0.03 0.05 0.09 0.02 0.05 0.07 0.07 0.07 0.05 0.06 0.09 0.10 0.10 0.10 0.12 0.14 0.15 0.14 0.13 0.12 0.09 0.08 0.06
0.00 0.01 0.01 0.03 0.02 0.03 0.02 0.00 0.00 0.00 0.00 0.00 0.00 0.00 0.00 0.00 0.00 0.00 0.00 0.00 0.00 0.00 0.00 0.00 0.01 0.04 0.05 0.05 0.03 0.02 0.04 0.06 0.07 0.07 0.05 0.05 0.07 0.07 0.07 0.08 0.09 0.09 0.09 0.09 0.09 0.10 0.17 0.24 0.30
0.00 0.00 0.01 0.09 0.03 0.09 0.05 0.02 0.00 0.00 0.00 0.00 0.00 0.00 0.00 0.00 0.00 0.00 0.00 0.00 0.00 0.00 0.00 0.00 0.05 0.07 0.02 0.02 0.02 0.02 0.03 0.04 0.05 0.05 0.07 0.07 0.07 0.05 0.05 0.05 0.04 0.04 0.06 0.08 0.09 0.08 0.08 0.09 0.14

GFSSGP_prec_precacc24_033.txt.gz
Total_Precipitation_Accumulation
0.00 0.00 0.00 0.00 0.00 0.00 0.00 0.00 0.00 0.00 0.00 0.00 0.00 0.00 0.00 0.00 0.00 0.00 0.00 0.00 0.00 0.00 0.01 0.01 0.02 0.02 0.02 0.02 0.02 0.03 0.04 0.05 0.04 0.05 0.04 0.03 0.01 0.00 0.00 0.00 0.00 0.03 0.08 0.12 0.07 0.02 0.00 0.00 0.00
0.00 0.00 0.00 0.00 0.00 0.00 0.00 0.00 0.00 0.00 0.00 0.00 0.00 0.00 0.00 0.00 0.00 0.00 0.00 0.00 0.00 0.00 0.00 0.00 0.01 0.02 0.01 0.01 0.01 0.03 0.04 0.05 0.04 0.03 0.02 0.00 0.00 0.00 0.00 0.00 0.01 0.02 0.02 0.01 0.00 0.00 0.00 0.00 0.00
0.00 0.00 0.00 0.00 0.00 0.00 0.00 0.00 0.00 0.00 0.00 0.00 0.00 0.00 0.00 0.00 0.00 0.00 0.00 0.00 0.00 0.00 0.00 0.00 0.01 0.02 0.01 0.00 0.00 0.02 0.03 0.04 0.04 0.02 0.00 0.00 0.00 0.00 0.00 0.00 0.00 0.00 0.00 0.00 0.00 0.00 0.00 0.00 0.00
0.00 0.00 0.00 0.00 0.00 0.00 0.00 0.00 0.00 0.00 0.00 0.00 0.00 0.00 0.00 0.00 0.00 0.00 0.00 0.00 0.00 0.00 0.00 0.00 0.01 0.02 0.01 0.01 0.01 0.01 0.02 0.04 0.03 0.01 0.00 0.00 0.00 0.00 0.00 0.00 0.00 0.00 0.00 0.00 0.00 0.00 0.00 0.00 0.00
0.00 0.00 0.00 0.00 0.00 0.00 0.00 0.00 0.00 0.00 0.00 0.00 0.00 0.00 0.00 0.00 0.00 0.00 0.00 0.00 0.00 0.00 0.00 0.00 0.01 0.01 0.02 0.01 0.00 0.01 0.02 0.04 0.03 0.00 0.00 0.00 0.00 0.00 0.00 0.00 0.00 0.00 0.00 0.01 0.01 0.01 0.00 0.00 0.00
0.00 0.00 0.00 0.00 0.00 0.00 0.00 0.00 0.00 0.00 0.00 0.00 0.00 0.00 0.00 0.00 0.00 0.00 0.00 0.00 0.00 0.00 0.01 0.01 0.01 0.01 0.00 0.00 0.00 0.01 0.02 0.03 0.02 0.00 0.00 0.00 0.00 0.00 0.00 0.00 0.00 0.00 0.01 0.01 0.02 0.04 0.01 0.01 0.00
0.03 0.00 0.00 0.00 0.00 0.00 0.00 0.00 0.00 0.00 0.00 0.00 0.00 0.00 0.00 0.00 0.00 0.00 0.00 0.00 0.00 0.00 0.01 0.03 0.00 0.00 0.00 0.00 0.00 0.00 0.01 0.03 0.02 0.01 0.00 0.00 0.00 0.00 0.00 0.00 0.00 0.01 0.01 0.05 0.07 0.02 0.00 0.00 0.00
0.02 0.01 0.01 0.00 0.00 0.00 0.00 0.00 0.00 0.00 0.00 0.00 0.00 0.00 0.00 0.00 0.00 0.00 0.00 0.00 0.01 0.05 0.07 0.05 0.01 0.00 0.00 0.00 0.00 0.00 0.01 0.02 0.01 0.01 0.01 0.00 0.00 0.01 0.01 0.00 0.01 0.00 0.04 0.03 0.00 0.00 0.00 0.00 0.00
0.00 0.01 0.00 0.00 0.00 0.00 0.00 0.00 0.00 0.00 0.00 0.00 0.00 0.00 0.00 0.00 0.00 0.00 0.01 0.00 0.01 0.05 0.08 0.07 0.02 0.00 0.00 0.00 0.00 0.00 0.00 0.01 0.01 0.01 0.01 0.00 0.00 0.01 0.00 0.00 0.00 0.01 0.02 0.00 0.00 0.00 0.00 0.00 0.00
0.00 0.00 0.00 0.00 0.00 0.00 0.00 0.00 0.00 0.00 0.00 0.00 0.00 0.00 0.00 0.00 0.00 0.00 0.01 0.01 0.01 0.04 0.05 0.08 0.05 0.00 0.00 0.00 0.00 0.00 0.00 0.00 0.00 0.00 0.00 0.00 0.00 0.01 0.00 0.00 0.00 0.01 0.00 0.00 0.00 0.00 0.00 0.00 0.00
0.00 0.00 0.00 0.00 0.00 0.00 0.00 0.00 0.00 0.00 0.00 0.00 0.00 0.00 0.00 0.00 0.00 0.00 0.00 0.00 0.00 0.02 0.03 0.05 0.07 0.02 0.01 0.00 0.00 0.00 0.00 0.00 0.00 0.00 0.00 0.00 0.00 0.01 0.01 0.00 0.01 0.00 0.00 0.00 0.00 0.00 0.00 0.00 0.00
0.00 0.00 0.00 0.00 0.00 0.00 0.00 0.00 0.00 0.00 0.00 0.00 0.00 0.00 0.00 0.00 0.00 0.01 0.01 0.02 0.01 0.01 0.01 0.03 0.04 0.03 0.03 0.03 0.02 0.00 0.00 0.00 0.00 0.00 0.00 0.00 0.00 0.00 0.01 0.01 0.01 0.01 0.00 0.00 0.00 0.00 0.00 0.00 0.00
0.00 0.00 0.00 0.00 0.00 0.00 0.00 0.00 0.00 0.00 0.00 0.00 0.00 0.00 0.00 0.00 0.00 0.00 0.00 0.00 0.01 0.02 0.02 0.03 0.03 0.01 0.02 0.02 0.05 0.02 0.02 0.00 0.00 0.00 0.00 0.00 0.00 0.00 0.00 0.01 0.02 0.01 0.00 0.00 0.00 0.00 0.00 0.00 0.00
0.00 0.00 0.00 0.00 0.00 0.00 0.00 0.00 0.00 0.00 0.00 0.00 0.00 0.00 0.00 0.00 0.00 0.00 0.00 0.00 0.00 0.02 0.02 0.07 0.06 0.04 0.01 0.00 0.05 0.08 0.06 0.06 0.02 0.00 0.00 0.00 0.00 0.00 0.00 0.00 0.00 0.01 0.00 0.00 0.00 0.00 0.00 0.00 0.00
0.00 0.00 0.00 0.00 0.00 0.00 0.00 0.00 0.00 0.00 0.00 0.00 0.00 0.00 0.00 0.00 0.00 0.00 0.00 0.00 0.00 0.00 0.04 0.04 0.08 0.10 0.03 0.05 0.06 0.06 0.10 0.11 0.05 0.01 0.00 0.00 0.00 0.00 0.00 0.00 0.00 0.00 0.00 0.00 0.00 0.00 0.00 0.00 0.00
0.00 0.00 0.00 0.00 0.00 0.00 0.00 0.00 0.00 0.00 0.00 0.00 0.00 0.00 0.00 0.00 0.00 0.00 0.00 0.00 0.00 0.00 0.00 0.02 0.09 0.06 0.04 0.09 0.17 0.16 0.14 0.11 0.04 0.03 0.01 0.02 0.01 0.00 0.00 0.00 0.00 0.00 0.00 0.00 0.00 0.00 0.00 0.00 0.00
0.00 0.00 0.00 0.00 0.00 0.00 0.00 0.00 0.00 0.00 0.00 0.00 0.00 0.00 0.00 0.00 0.00 0.00 0.00 0.00 0.00 0.00 0.00 0.00 0.02 0.02 0.04 0.13 0.16 0.22 0.15 0.08 0.08 0.08 0.03 0.02 0.01 0.01 0.01 0.00 0.00 0.00 0.00 0.00 0.00 0.00 0.00 0.00 0.00
0.00 0.00 0.00 0.00 0.00 0.00 0.00 0.00 0.00 0.00 0.00 0.00 0.00 0.00 0.00 0.00 0.00 0.00 0.00 0.00 0.00 0.00 0.00 0.00 0.00 0.01 0.06 0.22 0.23 0.23 0.11 0.04 0.06 0.06 0.03 0.07 0.07 0.07 0.05 0.01 0.00 0.00 0.00 0.00 0.00 0.00 0.00 0.00 0.00
0.00 0.00 0.00 0.00 0.00 0.00 0.00 0.00 0.00 0.00 0.00 0.00 0.00 0.00 0.00 0.00 0.00 0.00 0.00 0.00 0.00 0.00 0.00 0.00 0.00 0.01 0.06 0.07 0.05 0.08 0.05 0.06 0.09 0.06 0.12 0.15 0.08 0.08 0.07 0.08 0.03 0.00 0.00 0.00 0.00 0.00 0.00 0.00 0.00
0.00 0.00 0.00 0.00 0.00 0.00 0.00 0.00 0.00 0.00 0.00 0.00 0.00 0.00 0.00 0.00 0.00 0.00 0.00 0.00 0.00 0.00 0.00 0.00 0.00 0.00 0.01 0.02 0.05 0.11 0.13 0.09 0.08 0.14 0.08 0.09 0.05 0.05 0.08 0.09 0.06 0.02 0.00 0.00 0.00 0.00 0.00 0.00 0.00
0.00 0.00 0.00 0.00 0.00 0.00 0.00 0.00 0.00 0.00 0.00 0.00 0.00 0.00 0.00 0.00 0.00 0.00 0.00 0.00 0.00 0.00 0.00 0.00 0.00 0.00 0.01 0.04 0.10 0.16 0.22 0.14 0.08 0.05 0.02 0.05 0.07 0.06 0.10 0.21 0.16 0.05 0.02 0.02 0.01 0.00 0.00 0.00 0.00
0.00 0.00 0.00 0.00 0.00 0.00 0.00 0.00 0.00 0.00 0.00 0.00 0.00 0.00 0.00 0.00 0.00 0.00 0.00 0.00 0.00 0.00 0.00 0.00 0.00 0.00 0.02 0.05 0.04 0.05 0.04 0.03 0.05 0.06 0.16 0.20 0.18 0.20 0.18 0.23 0.24 0.14 0.06 0.07 0.03 0.01 0.02 0.00 0.00
0.00 0.00 0.00 0.00 0.00 0.00 0.00 0.00 0.00 0.00 0.00 0.00 0.00 0.00 0.00 0.00 0.00 0.00 0.00 0.00 0.00 0.00 0.00 0.00 0.00 0.00 0.01 0.05 0.04 0.06 0.04 0.05 0.06 0.12 0.19 0.18 0.18 0.21 0.22 0.22 0.21 0.20 0.11 0.15 0.11 0.05 0.03 0.02 0.01
0.00 0.00 0.00 0.00 0.00 0.00 0.00 0.00 0.00 0.00 0.00 0.00 0.00 0.00 0.00 0.00 0.00 0.00 0.00 0.00 0.00 0.00 0.00 0.00 0.00 0.00 0.01 0.01 0.02 0.05 0.04 0.03 0.08 0.09 0.11 0.13 0.14 0.14 0.15 0.17 0.16 0.22 0.23 0.18 0.15 0.14 0.10 0.07 0.03
0.00 0.00 0.00 0.00 0.01 0.00 0.00 0.00 0.00 0.00 0.00 0.00 0.00 0.00 0.00 0.00 0.00 0.00 0.00 0.00 0.00 0.00 0.00 0.00 0.00 0.00 0.00 0.00 0.00 0.02 0.01 0.02 0.07 0.12 0.14 0.11 0.10 0.07 0.08 0.14 0.15 0.16 0.20 0.21 0.21 0.18 0.15 0.14 0.10
0.00 0.00 0.00 0.00 0.00 0.00 0.00 0.00 0.00 0.00 0.00 0.00 0.00 0.00 0.00 0.00 0.00 0.00 0.00 0.00 0.00 0.00 0.00 0.00 0.00 0.00 0.00 0.01 0.01 0.01 0.02 0.05 0.10 0.13 0.11 0.10 0.10 0.11 0.15 0.15 0.17 0.18 0.19 0.19 0.19 0.18 0.16 0.15 0.13
0.01 0.00 0.00 0.00 0.00 0.00 0.00 0.00 0.00 0.00 0.00 0.00 0.00 0.00 0.00 0.00 0.00 0.00 0.00 0.00 0.00 0.00 0.00 0.00 0.00 0.00 0.01 0.03 0.06 0.03 0.03 0.06 0.08 0.10 0.10 0.11 0.10 0.12 0.15 0.14 0.15 0.17 0.18 0.19 0.20 0.20 0.18 0.16 0.13
0.00 0.00 0.00 0.00 0.00 0.00 0.00 0.00 0.00 0.00 0.00 0.00 0.00 0.00 0.00 0.00 0.00 0.00 0.00 0.00 0.00 0.00 0.00 0.00 0.00 0.02 0.03 0.05 0.08 0.02 0.05 0.07 0.07 0.07 0.05 0.06 0.09 0.10 0.10 0.10 0.12 0.15 0.16 0.16 0.16 0.16 0.14 0.14 0.13
0.00 0.00 0.00 0.00 0.00 0.00 0.00 0.00 0.00 0.00 0.00 0.00 0.00 0.00 0.00 0.00 0.00 0.00 0.00 0.00 0.00 0.00 0.00 0.00 0.01 0.04 0.05 0.05 0.03 0.02 0.03 0.05 0.07 0.07 0.05 0.05 0.07 0.07 0.07 0.08 0.09 0.09 0.09 0.09 0.11 0.14 0.22 0.30 0.35
0.00 0.00 0.00 0.01 0.00 0.01 0.02 0.01 0.00 0.00 0.00 0.00 0.00 0.00 0.00 0.00 0.00 0.00 0.00 0.00 0.00 0.00 0.00 0.00 0.05 0.07 0.02 0.02 0.01 0.02 0.03 0.03 0.05 0.05 0.07 0.07 0.07 0.05 0.05 0.05 0.04 0.04 0.06 0.09 0.10 0.10 0.12 0.15 0.19

GFSSGP_prec_precacc24_036.txt.gz
Total_Precipitation_Accumulation
0.00 0.00 0.00 0.00 0.00 0.00 0.00 0.00 0.00 0.00 0.00 0.00 0.00 0.00 0.00 0.00 0.00 0.00 0.00 0.00 0.00 0.00 0.01 0.01 0.02 0.02 0.03 0.03 0.02 0.03 0.05 0.07 0.05 0.06 0.04 0.02 0.01 0.00 0.00 0.00 0.01 0.05 0.10 0.14 0.07 0.02 0.00 0.00 0.00
0.00 0.00 0.00 0.00 0.00 0.00 0.00 0.00 0.00 0.00 0.00 0.00 0.00 0.00 0.00 0.00 0.00 0.00 0.00 0.00 0.00 0.00 0.00 0.00 0.01 0.02 0.02 0.01 0.02 0.03 0.05 0.07 0.05 0.03 0.02 0.00 0.00 0.00 0.00 0.00 0.02 0.04 0.03 0.01 0.00 0.00 0.00 0.00 0.00
0.00 0.00 0.00 0.00 0.00 0.00 0.00 0.00 0.00 0.00 0.00 0.00 0.00 0.00 0.00 0.00 0.00 0.00 0.00 0.00 0.00 0.00 0.00 0.00 0.01 0.01 0.01 0.00 0.00 0.02 0.04 0.05 0.04 0.02 0.00 0.00 0.00 0.00 0.00 0.01 0.00 0.00 0.00 0.00 0.00 0.00 0.00 0.00 0.00
0.00 0.00 0.00 0.00 0.00 0.00 0.00 0.00 0.00 0.00 0.00 0.00 0.00 0.00 0.00 0.00 0.00 0.00 0.00 0.00 0.00 0.00 0.00 0.00 0.01 0.01 0.01 0.00 0.01 0.02 0.04 0.05 0.04 0.01 0.00 0.00 0.00 0.00 0.00 0.00 0.00 0.00 0.00 0.00 0.00 0.00 0.00 0.00 0.00
0.01 0.00 0.00 0.00 0.00 0.00 0.00 0.00 0.00 0.00 0.00 0.00 0.00 0.00 0.00 0.00 0.00 0.00 0.00 0.00 0.00 0.00 0.00 0.00 0.01 0.01 0.01 0.00 0.00 0.01 0.03 0.05 0.03 0.00 0.00 0.00 0.00 0.00 0.00 0.00 0.00 0.00 0.00 0.01 0.01 0.01 0.00 0.00 0.00
0.05 0.00 0.00 0.00 0.00 0.00 0.00 0.00 0.00 0.00 0.00 0.00 0.00 0.00 0.00 0.00 0.00 0.00 0.00 0.00 0.00 0.00 0.01 0.00 0.01 0.00 0.00 0.00 0.00 0.01 0.02 0.05 0.02 0.00 0.00 0.00 0.00 0.00 0.00 0.00 0.00 0.00 0.01 0.01 0.02 0.04 0.01 0.00 0.00
0.07 0.02 0.00 0.00 0.00 0.00 0.00 0.00 0.00 0.00 0.00 0.00 0.00 0.00 0.00 0.00 0.00 0.00 0.00 0.00 0.00 0.00 0.01 0.02 0.00 0.00 0.00 0.00 0.00 0.00 0.02 0.04 0.03 0.01 0.00 0.00 0.00 0.00 0.00 0.00 0.00 0.00 0.01 0.05 0.07 0.01 0.00 0.00 0.00
0.04 0.05 0.03 0.00 0.00 0.00 0.00 0.00 0.00 0.00 0.00 0.00 0.00 0.00 0.03 0.00 0.00 0.00 0.00 0.00 0.01 0.05 0.07 0.05 0.01 0.00 0.00 0.00 0.00 0.00 0.01 0.02 0.02 0.01 0.01 0.00 0.00 0.01 0.01 0.00 0.00 0.00 0.05 0.03 0.00 0.00 0.00 0.00 0.00
0.01 0.16 0.12 0.00 0.00 0.00 0.00 0.00 0.00 0.00 0.00 0.00 0.00 0.00 0.00 0.00 0.00 0.00 0.01 0.00 0.01 0.05 0.08 0.07 0.02 0.00 0.00 0.00 0.00 0.00 0.01 0.01 0.01 0.01 0.01 0.00 0.00 0.01 0.00 0.00 0.00 0.01 0.02 0.00 0.00 0.00 0.00 0.00 0.00
0.00 0.03 0.06 0.01 0.00 0.00 0.00 0.00 0.00 0.00 0.00 0.00 0.00 0.00 0.00 0.00 0.00 0.00 0.01 0.01 0.01 0.04 0.05 0.08 0.05 0.00 0.00 0.00 0.00 0.00 0.00 0.01 0.00 0.00 0.00 0.00 0.00 0.01 0.00 0.00 0.00 0.01 0.00 0.00 0.00 0.00 0.00 0.00 0.00
0.00 0.00 0.00 0.01 0.01 0.00 0.00 0.00 0.00 0.00 0.00 0.00 0.00 0.00 0.00 0.00 0.00 0.00 0.00 0.00 0.00 0.02 0.03 0.05 0.07 0.02 0.01 0.00 0.00 0.00 0.00 0.00 0.00 0.00 0.00 0.00 0.00 0.01 0.01 0.00 0.01 0.00 0.00 0.00 0.00 0.00 0.00 0.00 0.00
0.00 0.00 0.00 0.01 0.00 0.00 0.00 0.00 0.00 0.00 0.00 0.00 0.00 0.00 0.00 0.00 0.00 0.01 0.01 0.02 0.01 0.01 0.01 0.03 0.04 0.02 0.03 0.03 0.01 0.00 0.00 0.00 0.00 0.00 0.00 0.00 0.00 0.00 0.01 0.01 0.01 0.01 0.00 0.00 0.00 0.00 0.00 0.00 0.00
0.00 0.00 0.00 0.00 0.00 0.00 0.00 0.00 0.00 0.00 0.00 0.00 0.00 0.00 0.00 0.00 0.00 0.00 0.00 0.00 0.01 0.02 0.02 0.03 0.03 0.01 0.02 0.01 0.04 0.02 0.02 0.00 0.00 0.00 0.00 0.00 0.00 0.00 0.00 0.01 0.02 0.01 0.00 0.00 0.00 0.00 0.00 0.00 0.00
0.00 0.00 0.00 0.00 0.00 0.00 0.00 0.00 0.00 0.00 0.00 0.00 0.00 0.00 0.00 0.00 0.00 0.00 0.00 0.00 0.00 0.02 0.02 0.07 0.06 0.04 0.01 0.00 0.04 0.08 0.06 0.06 0.02 0.00 0.00 0.00 0.00 0.00 0.00 0.00 0.01 0.01 0.00 0.00 0.00 0.00 0.00 0.00 0.00
0.00 0.00 0.00 0.00 0.00 0.00 0.00 0.00 0.00 0.00 0.00 0.00 0.00 0.00 0.00 0.00 0.00 0.00 0.00 0.00 0.00 0.00 0.04 0.04 0.08 0.10 0.03 0.04 0.05 0.06 0.10 0.10 0.04 0.01 0.00 0.00 0.00 0.00 0.00 0.00 0.00 0.00 0.00 0.00 0.00 0.00 0.00 0.00 0.00
0.00 0.00 0.00 0.00 0.00 0.00 0.00 0.00 0.00 0.00 0.00 0.00 0.00 0.00 0.00 0.00 0.00 0.00 0.00 0.00 0.00 0.00 0.00 0.02 0.09 0.06 0.04 0.08 0.16 0.15 0.14 0.10 0.03 0.02 0.01 0.02 0.01 0.00 0.00 0.00 0.00 0.00 0.00 0.00 0.00 0.00 0.00 0.00 0.00
0.00 0.00 0.00 0.00 0.00 0.00 0.00 0.00 0.00 0.00 0.00 0.00 0.00 0.00 0.00 0.00 0.00 0.00 0.00 0.00 0.00 0.00 0.00 0.00 0.02 0.02 0.04 0.13 0.15 0.22 0.14 0.06 0.07 0.07 0.03 0.02 0.02 0.01 0.01 0.00 0.00 0.00 0.00 0.00 0.00 0.00 0.00 0.00 0.00
0.00 0.00 0.00 0.00 0.00 0.00 0.00 0.00 0.00 0.00 0.00 0.00 0.00 0.00 0.00 0.00 0.00 0.00 0.00 0.00 0.00 0.00 0.00 0.00 0.00 0.01 0.06 0.20 0.23 0.22 0.10 0.04 0.06 0.06 0.04 0.07 0.08 0.09 0.06 0.02 0.00 0.00 0.00 0.00 0.00 0.00 0.00 0.00 0.00
0.00 0.00 0.00 0.00 0.00 0.00 0.00 0.00 0.00 0.00 0.00 0.00 0.00 0.00 0.00 0.00 0.00 0.00 0.00 0.00 0.00 0.00 0.00 0.00 0.00 0.01 0.06 0.07 0.05 0.08 0.05 0.05 0.07 0.07 0.13 0.16 0.09 0.09 0.10 0.09 0.06 0.00 0.00 0.00 0.00 0.00 0.00 0.00 0.00
0.00 0.00 0.00 0.00 0.00 0.00 0.00 0.00 0.00 0.00 0.00 0.00 0.00 0.00 0.00 0.00 0.00 0.00 0.00 0.00 0.00 0.00 0.00 0.00 0.00 0.00 0.01 0.02 0.05 0.10 0.13 0.08 0.08 0.13 0.09 0.12 0.08 0.06 0.08 0.10 0.11 0.06 0.01 0.01 0.01 0.00 0.00 0.00 0.00
0.00 0.00 0.00 0.00 0.00 0.00 0.00 0.00 0.00 0.00 0.00 0.00 0.00 0.00 0.00 0.00 0.00 0.00 0.00 0.00 0.00 0.00 0.00 0.00 0.00 0.00 0.01 0.03 0.09 0.16 0.21 0.14 0.08 0.05 0.01 0.05 0.11 0.11 0.13 0.25 0.19 0.08 0.05 0.04 0.08 0.03 0.01 0.01 0.00
0.00 0.00 0.00 0.00 0.00 0.00 0.00 0.00 0.00 0.00 0.00 0.00 0.00 0.00 0.00 0.00 0.00 0.00 0.00 0.00 0.00 0.00 0.00 0.00 0.00 0.00 0.02 0.05 0.04 0.04 0.04 0.03 0.05 0.05 0.12 0.19 0.18 0.21 0.21 0.28 0.29 0.18 0.09 0.10 0.12 0.10 0.04 0.01 0.01
0.00 0.00 0.00 0.00 0.00 0.00 0.00 0.00 0.00 0.00 0.00 0.00 0.00 0.00 0.00 0.00 0.00 0.00 0.00 0.00 0.00 0.00 0.00 0.00 0.00 0.00 0.00 0.04 0.04 0.06 0.04 0.05 0.06 0.12 0.17 0.18 0.18 0.21 0.22 0.22 0.22 0.23 0.14 0.18 0.18 0.12 0.06 0.05 0.03
0.00 0.00 0.00 0.00 0.00 0.00 0.00 0.00 0.00 0.00 0.00 0.00 0.00 0.00 0.00 0.00 0.00 0.00 0.00 0.00 0.00 0.00 0.00 0.00 0.00 0.00 0.00 0.01 0.02 0.05 0.04 0.03 0.08 0.08 0.10 0.13 0.14 0.15 0.16 0.17 0.16 0.24 0.26 0.21 0.19 0.21 0.15 0.10 0.06
0.00 0.00 0.01 0.01 0.00 0.00 0.00 0.00 0.00 0.00 0.00 0.00 0.00 0.00 0.00 0.00 0.00 0.00 0.00 0.00 0.00 0.00 0.00 0.00 0.00 0.00 0.00 0.00 0.00 0.02 0.01 0.02 0.06 0.09 0.13 0.11 0.10 0.08 0.08 0.14 0.16 0.17 0.21 0.24 0.25 0.23 0.19 0.16 0.13
0.00 0.00 0.01 0.00 0.00 0.00 0.00 0.00 0.00 0.00 0.00 0.00 0.00 0.00 0.00 0.00 0.00 0.00 0.00 0.00 0.00 0.00 0.00 0.00 0.00 0.00 0.00 0.01 0.01 0.01 0.02 0.05 0.09 0.12 0.10 0.10 0.10 0.11 0.15 0.15 0.17 0.19 0.20 0.21 0.21 0.22 0.20 0.18 0.17
0.01 0.00 0.00 0.00 0.00 0.00 0.00 0.00 0.00 0.00 0.00 0.00 0.00 0.00 0.00 0.00 0.00 0.00 0.00 0.00 0.00 0.00 0.00 0.00 0.00 0.00 0.01 0.03 0.06 0.03 0.03 0.05 0.05 0.08 0.09 0.10 0.10 0.12 0.15 0.15 0.15 0.18 0.20 0.21 0.22 0.22 0.20 0.19 0.18
0.00 0.00 0.00 0.00 0.00 0.00 0.00 0.00 0.00 0.00 0.00 0.00 0.00 0.00 0.00 0.00 0.00 0.00 0.00 0.00 0.00 0.00 0.00 0.00 0.00 0.01 0.02 0.05 0.08 0.02 0.04 0.06 0.06 0.05 0.05 0.05 0.09 0.10 0.10 0.10 0.12 0.15 0.18 0.19 0.20 0.20 0.18 0.20 0.20
0.00 0.00 0.00 0.00 0.00 0.00 0.00 0.00 0.00 0.00 0.00 0.00 0.00 0.00 0.00 0.00 0.00 0.00 0.00 0.00 0.00 0.00 0.00 0.00 0.00 0.03 0.05 0.05 0.03 0.02 0.03 0.05 0.06 0.07 0.05 0.05 0.07 0.07 0.07 0.08 0.09 0.09 0.09 0.10 0.13 0.17 0.27 0.36 0.41
0.00 0.00 0.00 0.00 0.00 0.00 0.00 0.00 0.00 0.00 0.00 0.00 0.00 0.00 0.00 0.00 0.00 0.00 0.00 0.00 0.00 0.00 0.00 0.00 0.02 0.06 0.02 0.02 0.01 0.02 0.03 0.03 0.04 0.05 0.06 0.07 0.07 0.05 0.05 0.05 0.04 0.04 0.06 0.09 0.10 0.11 0.13 0.17 0.23

GFSSGP_prec_precacc24_042.txt.gz
Total_Precipitation_Accumulation
0.00 0.00 0.00 0.00 0.00 0.00 0.00 0.00 0.00 0.00 0.00 0.00 0.00 0.00 0.00 0.00 0.00 0.00 0.00 0.00 0.00 0.00 0.01 0.01 0.02 0.03 0.03 0.04 0.02 0.04 0.06 0.08 0.07 0.07 0.02 0.00 0.00 0.00 0.00 0.00 0.02 0.08 0.13 0.15 0.07 0.02 0.00 0.00 0.00
0.00 0.00 0.00 0.00 0.00 0.00 0.00 0.00 0.00 0.00 0.00 0.00 0.00 0.00 0.00 0.00 0.00 0.00 0.00 0.00 0.00 0.00 0.00 0.00 0.02 0.02 0.02 0.01 0.02 0.03 0.06 0.09 0.06 0.02 0.01 0.00 0.00 0.00 0.02 0.03 0.05 0.06 0.03 0.01 0.00 0.00 0.00 0.00 0.00
0.00 0.00 0.00 0.00 0.00 0.00 0.00 0.00 0.00 0.00 0.00 0.00 0.00 0.00 0.00 0.00 0.00 0.00 0.00 0.00 0.00 0.00 0.00 0.00 0.02 0.03 0.01 0.01 0.01 0.04 0.07 0.06 0.05 0.02 0.00 0.00 0.00 0.01 0.02 0.02 0.01 0.00 0.00 0.00 0.00 0.00 0.00 0.00 0.00
0.00 0.00 0.00 0.00 0.00 0.00 0.00 0.00 0.00 0.00 0.00 0.00 0.00 0.00 0.00 0.00 0.00 0.00 0.00 0.00 0.00 0.00 0.00 0.00 0.01 0.01 0.00 0.01 0.01 0.04 0.06 0.06 0.04 0.01 0.00 0.00 0.00 0.01 0.01 0.00 0.00 0.00 0.00 0.00 0.00 0.00 0.00 0.00 0.00
0.02 0.01 0.00 0.00 0.00 0.00 0.00 0.00 0.00 0.00 0.00 0.00 0.00 0.00 0.00 0.00 0.00 0.00 0.00 0.00 0.00 0.00 0.00 0.00 0.01 0.01 0.00 0.01 0.01 0.02 0.04 0.06 0.03 0.00 0.00 0.00 0.00 0.00 0.00 0.00 0.00 0.00 0.00 0.01 0.00 0.00 0.00 0.00 0.00
0.13 0.06 0.01 0.00 0.00 0.00 0.00 0.00 0.00 0.00 0.00 0.00 0.00 0.00 0.00 0.00 0.00 0.00 0.00 0.00 0.00 0.00 0.00 0.00 0.00 0.00 0.00 0.00 0.01 0.02 0.03 0.05 0.02 0.00 0.00 0.00 0.00 0.00 0.00 0.00 0.00 0.00 0.01 0.01 0.02 0.04 0.01 0.00 0.00
0.15 0.18 0.03 0.00 0.00 0.00 0.00 0.00 0.00 0.00 0.00 0.00 0.00 0.01 0.05 0.02 0.01 0.02 0.00 0.00 0.00 0.00 0.00 0.00 0.00 0.00 0.00 0.00 0.00 0.02 0.03 0.05 0.03 0.01 0.00 0.00 0.00 0.00 0.00 0.00 0.00 0.00 0.01 0.05 0.07 0.01 0.00 0.00 0.00
0.04 0.16 0.10 0.00 0.00 0.00 0.00 0.00 0.00 0.00 0.00 0.00 0.00 0.01 0.07 0.02 0.00 0.02 0.02 0.00 0.00 0.01 0.02 0.00 0.00 0.00 0.00 0.00 0.00 0.01 0.02 0.03 0.02 0.01 0.01 0.00 0.00 0.00 0.00 0.00 0.00 0.01 0.05 0.03 0.00 0.00 0.00 0.00 0.00
0.05 0.26 0.21 0.02 0.01 0.01 0.00 0.00 0.00 0.00 0.00 0.00 0.00 0.00 0.01 0.01 0.01 0.03 0.02 0.01 0.02 0.03 0.02 0.00 0.00 0.00 0.00 0.00 0.00 0.00 0.01 0.01 0.01 0.01 0.01 0.00 0.00 0.00 0.00 0.00 0.00 0.01 0.03 0.00 0.00 0.00 0.00 0.00 0.00
0.14 0.14 0.07 0.01 0.00 0.01 0.01 0.00 0.00 0.00 0.00 0.00 0.00 0.01 0.00 0.02 0.04 0.07 0.02 0.02 0.01 0.02 0.01 0.01 0.00 0.00 0.00 0.00 0.00 0.00 0.00 0.01 0.00 0.00 0.00 0.00 0.00 0.01 0.00 0.00 0.00 0.01 0.00 0.00 0.00 0.00 0.00 0.00 0.00
0.05 0.03 0.00 0.01 0.04 0.11 0.03 0.01 0.00 0.00 0.00 0.00 0.00 0.00 0.00 0.05 0.10 0.09 0.04 0.00 0.00 0.01 0.01 0.01 0.00 0.00 0.00 0.00 0.00 0.00 0.00 0.00 0.00 0.00 0.00 0.00 0.00 0.01 0.01 0.00 0.01 0.00 0.00 0.00 0.00 0.00 0.00 0.00 0.00
0.00 0.00 0.00 0.03 0.13 0.09 0.03 0.01 0.00 0.00 0.00 0.00 0.00 0.00 0.00 0.02 0.02 0.03 0.02 0.02 0.01 0.01 0.01 0.01 0.00 0.00 0.00 0.01 0.01 0.00 0.00 0.00 0.00 0.00 0.00 0.00 0.00 0.00 0.01 0.01 0.01 0.01 0.00 0.00 0.00 0.00 0.00 0.00 0.00
0.00 0.00 0.00 0.04 0.05 0.06 0.09 0.04 0.00 0.00 0.00 0.00 0.00 0.00 0.00 0.00 0.00 0.01 0.01 0.00 0.01 0.01 0.02 0.02 0.01 0.00 0.00 0.00 0.03 0.02 0.02 0.00 0.00 0.00 0.00 0.00 0.00 0.00 0.00 0.01 0.02 0.01 0.00 0.00 0.00 0.00 0.00 0.00 0.00
0.00 0.00 0.00 0.02 0.01 0.02 0.09 0.04 0.02 0.00 0.00 0.00 0.00 0.00 0.00 0.00 0.00 0.00 0.00 0.00 0.00 0.02 0.02 0.05 0.02 0.03 0.00 0.00 0.03 0.07 0.05 0.06 0.02 0.00 0.00 0.00 0.00 0.00 0.00 0.00 0.01 0.01 0.00 0.00 0.00 0.00 0.00 0.00 0.00
0.00 0.00 0.00 0.00 0.00 0.00 0.00 0.04 0.01 0.00 0.00 0.00 0.00 0.00 0.00 0.00 0.00 0.00 0.00 0.00 0.00 0.00 0.04 0.03 0.06 0.06 0.01 0.02 0.03 0.04 0.08 0.10 0.04 0.01 0.00 0.00 0.00 0.00 0.00 0.00 0.00 0.00 0.00 0.00 0.00 0.00 0.00 0.00 0.00
0.02 0.00 0.00 0.00 0.00 0.00 0.00 0.00 0.00 0.00 0.00 0.00 0.00 0.00 0.00 0.00 0.00 0.00 0.00 0.00 0.00 0.00 0.01 0.02 0.07 0.04 0.02 0.05 0.11 0.12 0.12 0.10 0.03 0.02 0.00 0.02 0.01 0.00 0.00 0.00 0.00 0.00 0.00 0.00 0.00 0.00 0.00 0.00 0.00
0.04 0.00 0.00 0.00 0.00 0.00 0.00 0.00 0.00 0.00 0.00 0.00 0.00 0.00 0.00 0.00 0.00 0.00 0.00 0.00 0.00 0.00 0.00 0.00 0.00 0.01 0.02 0.08 0.10 0.16 0.13 0.06 0.06 0.06 0.03 0.02 0.02 0.01 0.01 0.00 0.00 0.00 0.00 0.00 0.00 0.00 0.00 0.00 0.00
0.00 0.00 0.00 0.00 0.00 0.00 0.00 0.00 0.00 0.00 0.00 0.00 0.00 0.00 0.00 0.00 0.00 0.00 0.00 0.00 0.00 0.00 0.00 0.00 0.00 0.00 0.02 0.09 0.15 0.12 0.08 0.05 0.06 0.08 0.06 0.10 0.10 0.12 0.08 0.02 0.01 0.00 0.00 0.00 0.00 0.00 0.01 0.00 0.00
0.00 0.00 0.00 0.00 0.00 0.00 0.00 0.00 0.00 0.00 0.00 0.00 0.00 0.00 0.00 0.00 0.00 0.00 0.00 0.00 0.00 0.00 0.00 0.00 0.00 0.00 0.01 0.02 0.03 0.03 0.03 0.08 0.12 0.15 0.22 0.24 0.15 0.16 0.20 0.16 0.10 0.01 0.00 0.00 0.02 0.03 0.06 0.05 0.06
0.00 0.00 0.00 0.00 0.00 0.00 0.00 0.00 0.00 0.00 0.00 0.00 0.00 0.00 0.00 0.00 0.00 0.00 0.00 0.00 0.00 0.00 0.00 0.00 0.00 0.00 0.00 0.00 0.00 0.01 0.03 0.04 0.07 0.12 0.09 0.14 0.11 0.12 0.15 0.17 0.17 0.15 0.06 0.06 0.12 0.13 0.12 0.07 0.07
0.00 0.00 0.00 0.00 0.00 0.00 0.00 0.00 0.00 0.00 0.00 0.00 0.00 0.00 0.00 0.00 0.00 0.00 0.00 0.00 0.00 0.00 0.00 0.00 0.00 0.00 0.00 0.00 0.01 0.04 0.05 0.04 0.05 0.04 0.01 0.03 0.11 0.13 0.18 0.32 0.25 0.14 0.14 0.12 0.17 0.18 0.18 0.11 0.08
0.00 0.00 0.00 0.00 0.00 0.00 0.00 0.00 0.00 0.00 0.00 0.00 0.00 0.00 0.00 0.00 0.00 0.00 0.00 0.00 0.00 0.00 0.00 0.00 0.00 0.00 0.00 0.01 0.01 0.01 0.00 0.00 0.00 0.01 0.03 0.13 0.17 0.20 0.21 0.30 0.35 0.27 0.15 0.14 0.15 0.20 0.18 0.14 0.10
0.00 0.00 0.00 0.00 0.00 0.00 0.00 0.00 0.00 0.00 0.00 0.00 0.00 0.00 0.00 0.00 0.00 0.00 0.00 0.00 0.00 0.00 0.00 0.00 0.00 0.00 0.00 0.00 0.01 0.01 0.02 0.02 0.02 0.04 0.08 0.13 0.17 0.21 0.22 0.22 0.23 0.26 0.21 0.25 0.24 0.20 0.17 0.17 0.15
0.00 0.00 0.00 0.00 0.00 0.00 0.00 0.00 0.00 0.00 0.00 0.00 0.00 0.00 0.00 0.00 0.00 0.00 0.00 0.00 0.00 0.00 0.00 0.00 0.00 0.00 0.00 0.00 0.01 0.02 0.03 0.02 0.05 0.05 0.06 0.09 0.12 0.14 0.16 0.18 0.18 0.26 0.31 0.30 0.30 0.33 0.29 0.24 0.19
0.00 0.00 0.01 0.01 0.00 0.00 0.00 0.00 0.00 0.00 0.00 0.00 0.00 0.00 0.00 0.00 0.00 0.00 0.00 0.00 0.00 0.00 0.00 0.00 0.00 0.00 0.00 0.00 0.00 0.01 0.01 0.01 0.04 0.07 0.08 0.07 0.07 0.06 0.07 0.16 0.17 0.18 0.23 0.27 0.32 0.30 0.29 0.30 0.26
0.00 0.00 0.01 0.00 0.00 0.00 0.00 0.00 0.00 0.00 0.00 0.00 0.00 0.00 0.00 0.00 0.00 0.00 0.00 0.00 0.00 0.00 0.00 0.00 0.00 0.00 0.00 0.00 0.00 0.01 0.01 0.03 0.05 0.07 0.07 0.06 0.06 0.08 0.13 0.14 0.16 0.18 0.20 0.21 0.23 0.24 0.24 0.24 0.24
0.02 0.00 0.00 0.00 0.00 0.00 0.00 0.00 0.00 0.00 0.00 0.00 0.00 0.00 0.00 0.00 0.00 0.00 0.00 0.00 0.00 0.00 0.00 0.00 0.00 0.00 0.00 0.00 0.00 0.00 0.01 0.01 0.02 0.04 0.05 0.06 0.06 0.07 0.11 0.12 0.14 0.17 0.20 0.22 0.24 0.24 0.22 0.22 0.23
0.00 0.00 0.02 0.00 0.00 0.00 0.00 0.00 0.00 0.00 0.00 0.00 0.00 0.00 0.00 0.00 0.00 0.00 0.00 0.00 0.00 0.00 0.00 0.00 0.00 0.00 0.00 0.00 0.00 0.00 0.00 0.01 0.01 0.01 0.01 0.01 0.04 0.06 0.08 0.09 0.11 0.14 0.17 0.19 0.20 0.21 0.19 0.22 0.22
0.01 0.01 0.01 0.01 0.00 0.00 0.00 0.00 0.00 0.00 0.00 0.00 0.00 0.00 0.00 0.00 0.00 0.00 0.00 0.00 0.00 0.00 0.00 0.00 0.00 0.00 0.00 0.00 0.00 0.00 0.00 0.00 0.01 0.02 0.02 0.02 0.04 0.04 0.05 0.06 0.07 0.08 0.09 0.10 0.13 0.16 0.27 0.36 0.42
0.01 0.00 0.01 0.01 0.00 0.00 0.00 0.00 0.00 0.00 0.00 0.00 0.00 0.00 0.00 0.00 0.00 0.00 0.00 0.00 0.00 0.00 0.00 0.00 0.00 0.00 0.00 0.00 0.00 0.00 0.00 0.00 0.01 0.01 0.03 0.04 0.03 0.03 0.03 0.03 0.03 0.02 0.03 0.06 0.10 0.11 0.13 0.17 0.23

GFSSGP_prec_precacc24_045.txt.gz
Total_Precipitation_Accumulation
0.00 0.00 0.00 0.00 0.00 0.00 0.00 0.00 0.00 0.00 0.00 0.00 0.00 0.00 0.00 0.00 0.00 0.00 0.00 0.00 0.00 0.00 0.00 0.01 0.02 0.03 0.04 0.04 0.03 0.05 0.06 0.09 0.07 0.07 0.02 0.00 0.00 0.00 0.00 0.01 0.04 0.08 0.13 0.14 0.07 0.02 0.00 0.00 0.00
0.00 0.00 0.00 0.00 0.00 0.00 0.00 0.00 0.00 0.00 0.00 0.00 0.00 0.00 0.00 0.00 0.00 0.00 0.00 0.00 0.00 0.00 0.00 0.01 0.02 0.03 0.03 0.01 0.02 0.04 0.08 0.09 0.06 0.02 0.00 0.00 0.00 0.01 0.02 0.04 0.07 0.06 0.03 0.01 0.00 0.00 0.00 0.00 0.00
0.00 0.00 0.00 0.00 0.00 0.00 0.00 0.00 0.00 0.00 0.00 0.00 0.00 0.00 0.00 0.00 0.00 0.00 0.00 0.00 0.00 0.00 0.00 0.00 0.02 0.03 0.01 0.01 0.01 0.04 0.08 0.06 0.04 0.01 0.00 0.00 0.00 0.02 0.04 0.03 0.01 0.00 0.00 0.00 0.00 0.00 0.00 0.00 0.00
0.00 0.00 0.00 0.00 0.00 0.00 0.00 0.00 0.00 0.00 0.00 0.00 0.00 0.00 0.00 0.00 0.00 0.00 0.00 0.00 0.00 0.00 0.00 0.01 0.01 0.01 0.00 0.01 0.01 0.04 0.06 0.06 0.04 0.01 0.00 0.00 0.00 0.02 0.01 0.00 0.00 0.00 0.00 0.00 0.00 0.00 0.00 0.00 0.00
0.02 0.01 0.00 0.00 0.00 0.00 0.00 0.00 0.00 0.00 0.00 0.00 0.00 0.00 0.00 0.00 0.00 0.00 0.00 0.00 0.00 0.00 0.00 0.00 0.01 0.01 0.00 0.01 0.01 0.02 0.04 0.06 0.03 0.00 0.00 0.00 0.00 0.01 0.00 0.00 0.00 0.00 0.00 0.00 0.00 0.00 0.00 0.00 0.00
0.13 0.06 0.01 0.00 0.00 0.00 0.00 0.00 0.00 0.00 0.00 0.00 0.00 0.00 0.00 0.00 0.00 0.00 0.00 0.00 0.00 0.00 0.00 0.00 0.01 0.00 0.00 0.01 0.01 0.02 0.03 0.05 0.02 0.00 0.00 0.00 0.00 0.01 0.00 0.00 0.00 0.00 0.01 0.00 0.02 0.03 0.00 0.00 0.00
0.15 0.18 0.03 0.00 0.00 0.00 0.00 0.00 0.00 0.00 0.00 0.00 0.00 0.01 0.05 0.02 0.01 0.02 0.00 0.00 0.00 0.00 0.00 0.00 0.00 0.00 0.00 0.00 0.00 0.02 0.03 0.05 0.03 0.01 0.00 0.00 0.00 0.00 0.00 0.00 0.00 0.00 0.01 0.04 0.06 0.01 0.00 0.00 0.00
0.05 0.16 0.10 0.00 0.00 0.00 0.00 0.00 0.00 0.00 0.00 0.00 0.00 0.01 0.07 0.02 0.00 0.02 0.02 0.00 0.00 0.00 0.00 0.00 0.00 0.00 0.00 0.00 0.00 0.01 0.02 0.03 0.02 0.01 0.01 0.00 0.00 0.00 0.00 0.00 0.00 0.01 0.05 0.03 0.00 0.00 0.00 0.00 0.00
0.08 0.27 0.21 0.02 0.02 0.02 0.00 0.00 0.00 0.00 0.00 0.00 0.00 0.00 0.01 0.01 0.01 0.03 0.02 0.01 0.02 0.01 0.00 0.00 0.00 0.00 0.00 0.00 0.00 0.00 0.01 0.01 0.01 0.01 0.01 0.00 0.00 0.00 0.00 0.00 0.00 0.02 0.03 0.00 0.00 0.00 0.00 0.00 0.00
0.28 0.22 0.08 0.01 0.00 0.02 0.01 0.00 0.00 0.00 0.00 0.01 0.02 0.01 0.00 0.02 0.05 0.08 0.03 0.02 0.01 0.01 0.00 0.00 0.00 0.00 0.00 0.00 0.00 0.00 0.00 0.01 0.00 0.00 0.00 0.00 0.00 0.01 0.00 0.00 0.00 0.01 0.00 0.00 0.00 0.00 0.00 0.00 0.00
0.09 0.06 0.00 0.01 0.06 0.15 0.03 0.01 0.00 0.00 0.00 0.00 0.03 0.01 0.04 0.09 0.11 0.09 0.04 0.00 0.00 0.00 0.00 0.00 0.00 0.00 0.00 0.00 0.00 0.00 0.00 0.00 0.00 0.00 0.00 0.00 0.00 0.01 0.01 0.00 0.01 0.00 0.00 0.00 0.00 0.00 0.00 0.00 0.00
0.01 0.00 0.00 0.03 0.14 0.10 0.04 0.03 0.00 0.00 0.00 0.00 0.02 0.05 0.03 0.02 0.02 0.03 0.03 0.02 0.01 0.00 0.00 0.00 0.00 0.00 0.00 0.01 0.01 0.00 0.00 0.00 0.00 0.00 0.00 0.00 0.00 0.00 0.01 0.01 0.01 0.01 0.00 0.00 0.00 0.00 0.00 0.00 0.00
0.02 0.00 0.01 0.05 0.07 0.07 0.11 0.09 0.01 0.00 0.00 0.00 0.01 0.03 0.02 0.00 0.01 0.01 0.02 0.00 0.00 0.00 0.00 0.01 0.00 0.00 0.00 0.00 0.01 0.02 0.02 0.00 0.00 0.00 0.00 0.00 0.00 0.00 0.00 0.01 0.02 0.01 0.00 0.00 0.00 0.00 0.00 0.00 0.00
0.01 0.01 0.02 0.05 0.03 0.05 0.11 0.07 0.12 0.00 0.00 0.00 0.01 0.01 0.01 0.01 0.00 0.01 0.00 0.00 0.00 0.01 0.00 0.01 0.01 0.01 0.00 0.00 0.03 0.06 0.05 0.06 0.02 0.00 0.00 0.00 0.00 0.00 0.00 0.00 0.01 0.01 0.00 0.00 0.00 0.00 0.00 0.00 0.00
0.01 0.03 0.04 0.02 0.03 0.03 0.03 0.13 0.18 0.01 0.00 0.00 0.03 0.02 0.00 0.00 0.00 0.00 0.00 0.01 0.00 0.00 0.03 0.01 0.02 0.03 0.01 0.01 0.02 0.04 0.07 0.09 0.04 0.01 0.00 0.00 0.00 0.00 0.00 0.00 0.00 0.00 0.00 0.00 0.00 0.00 0.00 0.00 0.00
0.02 0.02 0.01 0.00 0.01 0.01 0.02 0.03 0.02 0.01 0.00 0.00 0.00 0.00 0.00 0.00 0.00 0.00 0.00 0.00 0.00 0.00 0.01 0.02 0.04 0.01 0.00 0.01 0.03 0.09 0.11 0.10 0.02 0.02 0.00 0.02 0.01 0.00 0.00 0.00 0.00 0.00 0.00 0.00 0.00 0.00 0.00 0.00 0.00
0.04 0.00 0.00 0.00 0.00 0.00 0.00 0.00 0.01 0.00 0.00 0.00 0.00 0.00 0.00 0.00 0.00 0.00 0.00 0.00 0.00 0.00 0.00 0.00 0.00 0.00 0.00 0.02 0.04 0.12 0.10 0.05 0.05 0.06 0.03 0.02 0.02 0.01 0.01 0.00 0.00 0.00 0.00 0.00 0.00 0.00 0.00 0.00 0.00
0.00 0.00 0.00 0.00 0.00 0.00 0.00 0.00 0.01 0.01 0.00 0.00 0.00 0.00 0.00 0.00 0.00 0.00 0.00 0.00 0.00 0.00 0.00 0.00 0.00 0.00 0.00 0.02 0.08 0.06 0.04 0.03 0.04 0.08 0.06 0.10 0.10 0.12 0.08 0.02 0.01 0.00 0.00 0.00 0.00 0.00 0.01 0.00 0.00
0.00 0.00 0.00 0.00 0.00 0.00 0.00 0.00 0.00 0.01 0.00 0.00 0.00 0.00 0.00 0.00 0.00 0.00 0.00 0.00 0.00 0.00 0.00 0.00 0.00 0.00 0.00 0.00 0.01 0.01 0.02 0.05 0.10 0.14 0.23 0.27 0.18 0.19 0.21 0.16 0.10 0.02 0.00 0.01 0.03 0.06 0.12 0.12 0.14
0.00 0.00 0.00 0.00 0.00 0.00 0.00 0.00 0.00 0.00 0.00 0.00 0.00 0.00 0.00 0.00 0.00 0.00 0.00 0.00 0.00 0.00 0.00 0.00 0.00 0.00 0.00 0.00 0.00 0.00 0.00 0.00 0.03 0.08 0.09 0.14 0.12 0.14 0.17 0.19 0.20 0.16 0.07 0.06 0.13 0.15 0.15 0.10 0.16
0.00 0.00 0.00 0.00 0.00 0.00 0.00 0.00 0.00 0.00 0.00 0.00 0.00 0.00 0.00 0.00 0.00 0.00 0.00 0.00 0.00 0.00 0.00 0.00 0.00 0.00 0.00 0.00 0.00 0.01 0.02 0.01 0.01 0.01 0.00 0.03 0.11 0.13 0.19 0.32 0.25 0.14 0.14 0.12 0.18 0.18 0.19 0.15 0.13
0.00 0.00 0.00 0.00 0.00 0.00 0.00 0.00 0.00 0.00 0.00 0.00 0.00 0.00 0.00 0.00 0.00 0.00 0.00 0.00 0.00 0.00 0.00 0.00 0.00 0.00 0.00 0.00 0.00 0.00 0.00 0.00 0.00 0.00 0.01 0.06 0.12 0.18 0.21 0.30 0.35 0.26 0.15 0.14 0.15 0.20 0.19 0.15 0.11
0.00 0.00 0.00 0.00 0.00 0.00 0.00 0.00 0.00 0.00 0.00 0.00 0.00 0.00 0.00 0.00 0.00 0.00 0.00 0.00 0.00 0.00 0.00 0.00 0.00 0.00 0.00 0.00 0.00 0.00 0.01 0.01 0.01 0.01 0.01 0.06 0.12 0.16 0.19 0.22 0.22 0.25 0.20 0.25 0.24 0.20 0.17 0.17 0.17
0.00 0.00 0.00 0.00 0.00 0.00 0.00 0.00 0.00 0.00 0.00 0.00 0.00 0.00 0.00 0.00 0.00 0.00 0.00 0.00 0.00 0.00 0.00 0.00 0.00 0.00 0.00 0.00 0.00 0.00 0.00 0.00 0.01 0.02 0.03 0.05 0.08 0.11 0.13 0.16 0.17 0.25 0.30 0.30 0.31 0.33 0.30 0.25 0.19
0.00 0.00 0.01 0.01 0.00 0.00 0.00 0.00 0.00 0.00 0.00 0.00 0.00 0.00 0.00 0.00 0.00 0.00 0.00 0.00 0.00 0.00 0.00 0.00 0.00 0.00 0.00 0.00 0.00 0.00 0.00 0.00 0.01 0.04 0.04 0.04 0.05 0.04 0.05 0.12 0.15 0.17 0.22 0.26 0.31 0.30 0.29 0.30 0.26
0.00 0.00 0.01 0.00 0.00 0.00 0.00 0.00 0.00 0.00 0.00 0.00 0.00 0.00 0.00 0.00 0.00 0.00 0.00 0.00 0.00 0.00 0.00 0.00 0.00 0.00 0.00 0.00 0.00 0.00 0.00 0.01 0.02 0.04 0.03 0.03 0.03 0.05 0.09 0.11 0.14 0.16 0.19 0.20 0.22 0.24 0.24 0.24 0.24
0.02 0.00 0.00 0.00 0.00 0.00 0.00 0.00 0.00 0.00 0.00 0.00 0.00 0.00 0.00 0.00 0.00 0.00 0.00 0.00 0.00 0.00 0.00 0.00 0.00 0.00 0.00 0.00 0.00 0.00 0.00 0.01 0.01 0.02 0.02 0.04 0.04 0.06 0.09 0.10 0.12 0.15 0.18 0.20 0.23 0.23 0.22 0.22 0.23
0.00 0.00 0.02 0.00 0.00 0.00 0.00 0.00 0.00 0.00 0.00 0.00 0.00 0.00 0.00 0.00 0.00 0.00 0.00 0.00 0.00 0.00 0.00 0.00 0.00 0.00 0.00 0.00 0.00 0.00 0.00 0.00 0.00 0.00 0.00 0.00 0.02 0.04 0.06 0.08 0.10 0.13 0.16 0.18 0.20 0.21 0.19 0.21 0.22
0.01 0.01 0.01 0.01 0.00 0.00 0.00 0.00 0.00 0.00 0.00 0.00 0.00 0.00 0.00 0.00 0.00 0.00 0.00 0.00 0.00 0.00 0.00 0.00 0.00 0.00 0.00 0.00 0.00 0.00 0.00 0.00 0.00 0.00 0.00 0.00 0.01 0.02 0.03 0.05 0.07 0.08 0.08 0.10 0.12 0.16 0.27 0.36 0.42
0.01 0.00 0.01 0.01 0.00 0.00 0.00 0.00 0.00 0.00 0.00 0.00 0.00 0.00 0.00 0.00 0.00 0.00 0.00 0.00 0.00 0.00 0.00 0.00 0.00 0.00 0.00 0.00 0.00 0.00 0.00 0.00 0.00 0.00 0.00 0.00 0.00 0.01 0.02 0.02 0.02 0.02 0.02 0.04 0.06 0.06 0.08 0.14 0.22

GFSSGP_prec_precacc24_048.txt.gz
Total_Precipitation_Accumulation
0.00 0.00 0.00 0.00 0.00 0.00 0.00 0.00 0.00 0.00 0.00 0.00 0.00 0.00 0.00 0.00 0.00 0.00 0.00 0.00 0.00 0.00 0.00 0.01 0.02 0.03 0.04 0.05 0.03 0.04 0.06 0.08 0.06 0.05 0.01 0.00 0.00 0.00 0.00 0.02 0.04 0.08 0.13 0.12 0.05 0.01 0.00 0.00 0.00
0.00 0.00 0.00 0.00 0.00 0.00 0.00 0.00 0.00 0.00 0.00 0.00 0.00 0.00 0.00 0.00 0.00 0.00 0.00 0.00 0.00 0.00 0.00 0.01 0.02 0.03 0.03 0.01 0.02 0.04 0.08 0.09 0.05 0.01 0.00 0.00 0.00 0.01 0.02 0.05 0.07 0.06 0.03 0.00 0.00 0.00 0.00 0.00 0.00
0.00 0.00 0.00 0.00 0.00 0.00 0.00 0.00 0.00 0.00 0.00 0.00 0.00 0.00 0.00 0.00 0.00 0.00 0.00 0.00 0.00 0.00 0.00 0.01 0.02 0.04 0.01 0.01 0.01 0.05 0.08 0.06 0.03 0.01 0.00 0.00 0.01 0.02 0.04 0.04 0.01 0.00 0.00 0.00 0.00 0.00 0.00 0.00 0.00
0.00 0.00 0.00 0.00 0.00 0.00 0.00 0.00 0.00 0.00 0.00 0.00 0.00 0.00 0.00 0.00 0.00 0.00 0.00 0.00 0.00 0.00 0.00 0.01 0.02 0.01 0.00 0.01 0.02 0.05 0.05 0.05 0.03 0.00 0.00 0.00 0.01 0.03 0.02 0.00 0.00 0.00 0.00 0.00 0.00 0.00 0.00 0.00 0.00
0.02 0.01 0.00 0.00 0.00 0.00 0.00 0.00 0.00 0.00 0.00 0.00 0.00 0.00 0.00 0.00 0.00 0.00 0.00 0.00 0.00 0.00 0.00 0.01 0.02 0.01 0.00 0.01 0.03 0.02 0.04 0.05 0.02 0.00 0.00 0.00 0.01 0.02 0.00 0.00 0.00 0.00 0.00 0.00 0.00 0.00 0.00 0.00 0.00
0.13 0.06 0.01 0.00 0.00 0.00 0.00 0.00 0.00 0.00 0.00 0.00 0.00 0.00 0.00 0.00 0.00 0.00 0.00 0.00 0.00 0.00 0.00 0.00 0.01 0.01 0.00 0.02 0.02 0.02 0.03 0.05 0.02 0.00 0.00 0.00 0.01 0.01 0.00 0.00 0.00 0.00 0.01 0.00 0.02 0.02 0.00 0.00 0.00
0.15 0.18 0.03 0.00 0.00 0.00 0.00 0.00 0.00 0.00 0.00 0.00 0.00 0.01 0.05 0.02 0.01 0.02 0.00 0.00 0.00 0.00 0.00 0.00 0.00 0.00 0.00 0.01 0.00 0.02 0.03 0.05 0.02 0.00 0.00 0.00 0.00 0.00 0.00 0.00 0.00 0.00 0.01 0.04 0.04 0.00 0.00 0.00 0.00
0.07 0.16 0.10 0.00 0.00 0.00 0.00 0.00 0.00 0.00 0.00 0.00 0.00 0.01 0.07 0.02 0.00 0.02 0.02 0.01 0.00 0.00 0.00 0.00 0.00 0.00 0.00 0.00 0.00 0.01 0.02 0.02 0.01 0.01 0.00 0.00 0.00 0.00 0.00 0.00 0.00 0.01 0.04 0.03 0.00 0.00 0.00 0.00 0.00
0.16 0.32 0.21 0.02 0.02 0.02 0.00 0.00 0.00 0.00 0.00 0.00 0.00 0.00 0.01 0.01 0.01 0.03 0.03 0.01 0.02 0.01 0.00 0.00 0.00 0.00 0.00 0.00 0.00 0.00 0.01 0.01 0.00 0.00 0.01 0.00 0.00 0.00 0.00 0.00 0.00 0.02 0.03 0.00 0.00 0.00 0.00 0.00 0.00
0.41 0.39 0.09 0.01 0.00 0.02 0.01 0.00 0.00 0.00 0.00 0.02 0.04 0.05 0.02 0.03 0.06 0.10 0.04 0.02 0.01 0.01 0.00 0.00 0.00 0.00 0.00 0.00 0.00 0.00 0.00 0.01 0.00 0.00 0.00 0.00 0.00 0.01 0.00 0.00 0.00 0.01 0.00 0.00 0.00 0.00 0.00 0.00 0.00
0.33 0.17 0.00 0.01 0.06 0.15 0.03 0.01 0.00 0.00 0.00 0.00 0.03 0.07 0.11 0.16 0.16 0.13 0.06 0.01 0.00 0.00 0.00 0.00 0.00 0.00 0.00 0.00 0.00 0.00 0.00 0.00 0.00 0.00 0.00 0.00 0.00 0.01 0.01 0.00 0.01 0.00 0.00 0.00 0.00 0.00 0.00 0.00 0.00
0.05 0.04 0.01 0.03 0.14 0.10 0.05 0.03 0.00 0.00 0.00 0.00 0.02 0.08 0.11 0.10 0.07 0.06 0.04 0.03 0.01 0.00 0.00 0.00 0.00 0.00 0.00 0.01 0.01 0.00 0.00 0.00 0.00 0.00 0.00 0.00 0.00 0.00 0.01 0.01 0.01 0.01 0.00 0.00 0.00 0.00 0.00 0.00 0.00
0.02 0.00 0.03 0.07 0.07 0.07 0.11 0.10 0.01 0.00 0.00 0.00 0.01 0.03 0.04 0.06 0.08 0.06 0.03 0.01 0.00 0.00 0.00 0.01 0.00 0.00 0.00 0.00 0.01 0.02 0.02 0.00 0.00 0.00 0.00 0.00 0.00 0.00 0.00 0.01 0.02 0.01 0.00 0.00 0.00 0.00 0.00 0.00 0.00
0.02 0.02 0.05 0.06 0.03 0.05 0.11 0.07 0.14 0.00 0.00 0.00 0.01 0.02 0.04 0.08 0.08 0.08 0.02 0.00 0.00 0.00 0.00 0.00 0.01 0.01 0.00 0.00 0.03 0.05 0.03 0.05 0.02 0.00 0.00 0.00 0.00 0.00 0.00 0.00 0.01 0.01 0.00 0.00 0.00 0.00 0.00 0.00 0.00
0.04 0.09 0.09 0.05 0.03 0.04 0.05 0.17 0.21 0.01 0.00 0.00 0.03 0.04 0.01 0.04 0.04 0.03 0.04 0.01 0.01 0.00 0.00 0.00 0.00 0.01 0.00 0.01 0.01 0.02 0.06 0.08 0.04 0.01 0.00 0.00 0.00 0.00 0.00 0.00 0.00 0.00 0.00 0.00 0.00 0.00 0.00 0.00 0.00
0.06 0.09 0.07 0.02 0.03 0.05 0.11 0.07 0.02 0.03 0.00 0.00 0.00 0.00 0.00 0.00 0.01 0.03 0.02 0.00 0.00 0.00 0.01 0.01 0.01 0.00 0.00 0.00 0.01 0.05 0.07 0.06 0.01 0.01 0.00 0.02 0.01 0.00 0.00 0.00 0.00 0.00 0.00 0.00 0.00 0.00 0.00 0.00 0.00
0.05 0.01 0.00 0.00 0.00 0.00 0.03 0.01 0.01 0.04 0.02 0.00 0.00 0.00 0.00 0.00 0.00 0.00 0.00 0.00 0.00 0.00 0.00 0.00 0.00 0.00 0.00 0.04 0.03 0.09 0.06 0.03 0.03 0.04 0.02 0.01 0.02 0.01 0.01 0.00 0.00 0.00 0.00 0.00 0.00 0.00 0.00 0.00 0.00
0.00 0.00 0.00 0.00 0.00 0.00 0.00 0.00 0.01 0.01 0.04 0.00 0.00 0.00 0.00 0.00 0.00 0.00 0.00 0.00 0.00 0.00 0.00 0.00 0.00 0.00 0.00 0.02 0.03 0.04 0.04 0.03 0.04 0.06 0.05 0.09 0.10 0.12 0.08 0.02 0.01 0.00 0.00 0.00 0.00 0.00 0.01 0.00 0.01
0.00 0.00 0.00 0.00 0.00 0.00 0.00 0.00 0.00 0.01 0.02 0.02 0.00 0.00 0.00 0.00 0.00 0.00 0.00 0.00 0.00 0.00 0.00 0.00 0.00 0.00 0.00 0.00 0.00 0.01 0.02 0.05 0.08 0.12 0.20 0.24 0.18 0.18 0.19 0.15 0.10 0.02 0.00 0.01 0.03 0.06 0.12 0.14 0.18
0.00 0.00 0.00 0.00 0.00 0.00 0.00 0.00 0.00 0.00 0.00 0.00 0.00 0.00 0.00 0.00 0.00 0.00 0.00 0.00 0.00 0.00 0.00 0.00 0.00 0.00 0.00 0.00 0.00 0.00 0.00 0.00 0.02 0.06 0.07 0.10 0.11 0.12 0.15 0.18 0.19 0.16 0.07 0.06 0.13 0.15 0.15 0.10 0.17
0.00 0.00 0.00 0.00 0.00 0.00 0.00 0.00 0.00 0.00 0.00 0.00 0.00 0.00 0.00 0.00 0.00 0.00 0.00 0.00 0.00 0.00 0.00 0.00 0.00 0.00 0.00 0.00 0.00 0.00 0.00 0.00 0.01 0.00 0.00 0.01 0.08 0.13 0.18 0.28 0.24 0.13 0.13 0.12 0.18 0.18 0.20 0.15 0.13
0.00 0.00 0.00 0.00 0.00 0.00 0.00 0.00 0.00 0.00 0.00 0.00 0.00 0.00 0.00 0.00 0.00 0.00 0.00 0.00 0.00 0.00 0.00 0.00 0.00 0.00 0.00 0.00 0.00 0.00 0.00 0.00 0.00 0.00 0.00 0.01 0.04 0.12 0.16 0.26 0.34 0.26 0.15 0.13 0.15 0.20 0.19 0.16 0.12
0.00 0.00 0.00 0.00 0.00 0.00 0.00 0.00 0.00 0.00 0.00 0.00 0.00 0.00 0.00 0.00 0.00 0.00 0.00 0.00 0.00 0.00 0.00 0.00 0.00 0.00 0.00 0.00 0.00 0.00 0.00 0.00 0.00 0.00 0.00 0.01 0.05 0.07 0.10 0.16 0.19 0.22 0.19 0.24 0.24 0.20 0.17 0.18 0.18
0.00 0.00 0.00 0.00 0.00 0.00 0.00 0.00 0.00 0.00 0.00 0.00 0.00 0.00 0.00 0.00 0.00 0.00 0.00 0.00 0.00 0.00 0.00 0.00 0.00 0.00 0.00 0.00 0.00 0.00 0.00 0.00 0.00 0.00 0.01 0.01 0.02 0.06 0.08 0.12 0.13 0.20 0.26 0.29 0.30 0.32 0.30 0.26 0.21
0.00 0.00 0.01 0.02 0.00 0.00 0.00 0.00 0.00 0.00 0.00 0.00 0.00 0.00 0.00 0.00 0.00 0.00 0.00 0.00 0.00 0.00 0.00 0.00 0.00 0.00 0.00 0.00 0.00 0.00 0.00 0.00 0.00 0.01 0.02 0.00 0.01 0.01 0.03 0.08 0.10 0.12 0.18 0.24 0.29 0.29 0.30 0.30 0.27
0.00 0.00 0.01 0.00 0.00 0.00 0.00 0.00 0.00 0.00 0.00 0.00 0.00 0.00 0.00 0.00 0.00 0.00 0.00 0.00 0.00 0.00 0.00 0.00 0.00 0.00 0.00 0.00 0.00 0.00 0.00 0.00 0.00 0.00 0.01 0.00 0.00 0.00 0.04 0.06 0.10 0.12 0.16 0.18 0.20 0.22 0.23 0.23 0.24
0.02 0.00 0.00 0.00 0.00 0.00 0.00 0.00 0.00 0.00 0.00 0.00 0.00 0.00 0.00 0.00 0.00 0.00 0.00 0.00 0.00 0.00 0.00 0.00 0.00 0.00 0.00 0.00 0.00 0.00 0.00 0.00 0.00 0.00 0.01 0.01 0.01 0.02 0.02 0.04 0.08 0.12 0.15 0.18 0.21 0.21 0.21 0.21 0.23
0.00 0.00 0.02 0.00 0.00 0.00 0.00 0.00 0.00 0.00 0.00 0.00 0.00 0.00 0.00 0.00 0.00 0.00 0.00 0.00 0.00 0.00 0.00 0.00 0.00 0.00 0.00 0.00 0.00 0.00 0.00 0.00 0.00 0.00 0.00 0.00 0.00 0.01 0.02 0.03 0.04 0.09 0.14 0.17 0.19 0.20 0.18 0.21 0.21
0.01 0.01 0.01 0.01 0.00 0.00 0.00 0.00 0.00 0.00 0.00 0.00 0.00 0.00 0.00 0.00 0.00 0.00 0.00 0.00 0.00 0.00 0.00 0.00 0.00 0.00 0.00 0.00 0.00 0.00 0.00 0.00 0.00 0.00 0.00 0.00 0.00 0.00 0.01 0.01 0.02 0.04 0.07 0.09 0.12 0.16 0.26 0.35 0.41
0.01 0.00 0.01 0.01 0.00 0.00 0.00 0.00 0.00 0.00 0.00 0.00 0.00 0.00 0.00 0.00 0.00 0.00 0.00 0.00 0.00 0.00 0.00 0.00 0.00 0.00 0.00 0.00 0.00 0.00 0.00 0.00 0.00 0.00 0.00 0.00 0.00 0.00 0.00 0.00 0.00 0.01 0.02 0.04 0.06 0.06 0.08 0.13 0.18

GFSSGP_prec_precacc24_051.txt.gz
Total_Precipitation_Accumulation
0.00 0.00 0.00 0.00 0.00 0.00 0.00 0.00 0.00 0.00 0.00 0.00 0.00 0.00 0.00 0.00 0.00 0.00 0.00 0.00 0.00 0.00 0.00 0.00 0.02 0.02 0.03 0.05 0.03 0.04 0.05 0.07 0.06 0.04 0.01 0.00 0.00 0.00 0.01 0.02 0.04 0.08 0.12 0.10 0.04 0.01 0.00 0.00 0.00
0.00 0.00 0.00 0.00 0.00 0.00 0.00 0.00 0.00 0.00 0.00 0.00 0.00 0.00 0.00 0.00 0.00 0.00 0.00 0.00 0.00 0.00 0.00 0.01 0.01 0.03 0.03 0.01 0.01 0.03 0.07 0.07 0.04 0.01 0.00 0.00 0.00 0.01 0.03 0.05 0.07 0.06 0.02 0.00 0.00 0.00 0.00 0.00 0.00
0.00 0.00 0.00 0.00 0.00 0.00 0.00 0.00 0.00 0.00 0.00 0.00 0.00 0.00 0.00 0.00 0.00 0.00 0.00 0.00 0.00 0.00 0.00 0.01 0.02 0.04 0.02 0.01 0.01 0.04 0.07 0.04 0.02 0.00 0.00 0.00 0.01 0.03 0.06 0.05 0.01 0.00 0.00 0.00 0.00 0.00 0.00 0.00 0.00
0.00 0.00 0.00 0.00 0.00 0.00 0.00 0.00 0.00 0.00 0.00 0.00 0.00 0.00 0.00 0.00 0.00 0.00 0.00 0.00 0.00 0.00 0.00 0.02 0.03 0.02 0.01 0.01 0.02 0.05 0.05 0.04 0.02 0.00 0.00 0.01 0.02 0.04 0.03 0.00 0.00 0.00 0.00 0.00 0.00 0.00 0.00 0.00 0.00
0.02 0.01 0.00 0.00 0.00 0.00 0.00 0.00 0.00 0.00 0.00 0.00 0.00 0.00 0.00 0.00 0.00 0.00 0.00 0.00 0.00 0.00 0.00 0.01 0.03 0.01 0.00 0.01 0.03 0.02 0.04 0.04 0.01 0.00 0.00 0.01 0.03 0.03 0.00 0.00 0.00 0.00 0.00 0.00 0.00 0.00 0.00 0.00 0.00
0.13 0.06 0.01 0.00 0.00 0.00 0.00 0.00 0.00 0.00 0.00 0.00 0.00 0.00 0.00 0.00 0.00 0.01 0.00 0.00 0.00 0.00 0.00 0.00 0.02 0.01 0.00 0.02 0.03 0.01 0.03 0.04 0.02 0.00 0.00 0.01 0.02 0.02 0.00 0.00 0.00 0.00 0.00 0.00 0.02 0.00 0.00 0.00 0.00
0.15 0.18 0.03 0.00 0.00 0.00 0.00 0.00 0.00 0.00 0.00 0.00 0.00 0.01 0.05 0.02 0.01 0.02 0.00 0.00 0.00 0.00 0.00 0.00 0.01 0.00 0.00 0.02 0.01 0.02 0.03 0.04 0.02 0.00 0.00 0.00 0.00 0.01 0.01 0.00 0.00 0.00 0.00 0.03 0.02 0.00 0.00 0.00 0.00
0.11 0.16 0.10 0.00 0.00 0.00 0.00 0.00 0.00 0.00 0.00 0.00 0.00 0.01 0.07 0.02 0.00 0.02 0.02 0.01 0.00 0.00 0.00 0.00 0.00 0.00 0.00 0.02 0.01 0.02 0.02 0.02 0.01 0.00 0.00 0.00 0.00 0.00 0.00 0.00 0.00 0.01 0.03 0.02 0.00 0.00 0.00 0.00 0.00
0.26 0.40 0.21 0.02 0.02 0.02 0.00 0.00 0.00 0.00 0.00 0.00 0.00 0.00 0.01 0.02 0.05 0.05 0.02 0.01 0.01 0.00 0.00 0.00 0.00 0.00 0.00 0.00 0.01 0.01 0.01 0.01 0.00 0.00 0.00 0.00 0.00 0.00 0.00 0.00 0.00 0.02 0.02 0.00 0.00 0.00 0.00 0.00 0.00
0.61 0.63 0.13 0.01 0.00 0.02 0.01 0.00 0.00 0.00 0.00 0.02 0.04 0.05 0.03 0.10 0.15 0.15 0.06 0.02 0.01 0.00 0.00 0.00 0.00 0.00 0.00 0.00 0.00 0.00 0.00 0.01 0.00 0.00 0.00 0.00 0.00 0.01 0.00 0.00 0.00 0.01 0.00 0.00 0.00 0.00 0.00 0.00 0.00
0.56 0.33 0.02 0.01 0.06 0.15 0.03 0.01 0.00 0.00 0.00 0.00 0.03 0.07 0.11 0.22 0.23 0.15 0.08 0.01 0.00 0.00 0.00 0.00 0.00 0.00 0.00 0.00 0.00 0.00 0.00 0.00 0.00 0.00 0.00 0.00 0.00 0.01 0.01 0.00 0.00 0.00 0.00 0.00 0.00 0.00 0.00 0.00 0.00
0.09 0.11 0.04 0.05 0.15 0.10 0.05 0.03 0.00 0.00 0.00 0.00 0.02 0.08 0.11 0.11 0.11 0.13 0.12 0.07 0.01 0.00 0.00 0.00 0.00 0.00 0.00 0.00 0.00 0.00 0.00 0.00 0.00 0.00 0.00 0.00 0.00 0.00 0.01 0.01 0.01 0.01 0.00 0.00 0.00 0.00 0.00 0.00 0.00
0.04 0.01 0.07 0.09 0.09 0.08 0.11 0.10 0.01 0.00 0.00 0.00 0.01 0.03 0.04 0.07 0.10 0.12 0.14 0.06 0.02 0.00 0.00 0.00 0.00 0.00 0.00 0.00 0.00 0.01 0.01 0.00 0.00 0.00 0.00 0.00 0.00 0.00 0.00 0.01 0.02 0.01 0.00 0.00 0.00 0.00 0.00 0.00 0.00
0.04 0.05 0.07 0.07 0.07 0.08 0.11 0.07 0.14 0.00 0.00 0.00 0.01 0.02 0.04 0.08 0.09 0.10 0.07 0.09 0.08 0.02 0.00 0.00 0.00 0.00 0.00 0.00 0.01 0.00 0.01 0.02 0.00 0.00 0.00 0.00 0.00 0.00 0.00 0.00 0.01 0.01 0.00 0.00 0.00 0.00 0.00 0.00 0.00
0.07 0.14 0.16 0.10 0.07 0.09 0.08 0.18 0.21 0.01 0.00 0.00 0.03 0.04 0.01 0.04 0.04 0.04 0.11 0.12 0.10 0.04 0.00 0.00 0.00 0.00 0.00 0.00 0.00 0.00 0.03 0.04 0.01 0.00 0.00 0.00 0.00 0.00 0.00 0.00 0.00 0.00 0.00 0.00 0.00 0.00 0.00 0.00 0.00
0.10 0.18 0.14 0.08 0.05 0.07 0.13 0.08 0.02 0.03 0.00 0.00 0.00 0.00 0.00 0.00 0.01 0.04 0.05 0.06 0.05 0.04 0.02 0.00 0.00 0.00 0.00 0.00 0.00 0.01 0.01 0.00 0.00 0.01 0.00 0.02 0.01 0.00 0.00 0.00 0.00 0.00 0.00 0.00 0.00 0.00 0.00 0.00 0.00
0.07 0.03 0.05 0.04 0.02 0.00 0.03 0.01 0.01 0.04 0.05 0.00 0.00 0.00 0.00 0.00 0.00 0.00 0.00 0.05 0.06 0.03 0.01 0.00 0.00 0.00 0.00 0.04 0.01 0.03 0.03 0.01 0.00 0.01 0.01 0.00 0.01 0.01 0.01 0.00 0.00 0.00 0.00 0.00 0.00 0.00 0.00 0.00 0.00
0.00 0.00 0.00 0.02 0.01 0.00 0.00 0.00 0.01 0.01 0.04 0.00 0.00 0.00 0.00 0.00 0.00 0.00 0.00 0.00 0.00 0.00 0.00 0.00 0.00 0.00 0.00 0.01 0.01 0.03 0.03 0.03 0.03 0.03 0.03 0.06 0.07 0.09 0.08 0.02 0.01 0.00 0.00 0.00 0.00 0.00 0.01 0.00 0.01
0.00 0.00 0.00 0.00 0.00 0.00 0.00 0.00 0.00 0.01 0.03 0.03 0.00 0.00 0.00 0.00 0.00 0.00 0.00 0.00 0.00 0.00 0.00 0.00 0.00 0.00 0.00 0.00 0.00 0.00 0.01 0.04 0.08 0.11 0.16 0.16 0.14 0.14 0.19 0.15 0.10 0.02 0.00 0.01 0.03 0.06 0.12 0.14 0.18
0.00 0.00 0.00 0.00 0.00 0.01 0.00 0.00 0.00 0.00 0.00 0.01 0.00 0.00 0.00 0.00 0.00 0.00 0.00 0.00 0.00 0.00 0.00 0.00 0.00 0.00 0.00 0.00 0.00 0.00 0.00 0.00 0.01 0.03 0.06 0.07 0.09 0.09 0.14 0.14 0.17 0.16 0.07 0.06 0.13 0.15 0.15 0.10 0.17
0.00 0.00 0.00 0.00 0.00 0.00 0.00 0.00 0.00 0.00 0.00 0.00 0.00 0.00 0.00 0.00 0.00 0.00 0.00 0.00 0.00 0.00 0.00 0.00 0.00 0.00 0.00 0.00 0.00 0.00 0.00 0.00 0.00 0.00 0.00 0.01 0.05 0.09 0.13 0.17 0.15 0.13 0.14 0.12 0.18 0.19 0.20 0.16 0.13
0.00 0.00 0.00 0.00 0.00 0.00 0.00 0.00 0.00 0.00 0.00 0.00 0.00 0.00 0.00 0.00 0.00 0.00 0.00 0.00 0.00 0.00 0.00 0.00 0.00 0.00 0.00 0.00 0.00 0.00 0.00 0.00 0.00 0.00 0.00 0.00 0.01 0.06 0.12 0.16 0.20 0.21 0.14 0.13 0.15 0.20 0.19 0.16 0.12
0.00 0.00 0.00 0.00 0.00 0.00 0.00 0.00 0.00 0.00 0.00 0.00 0.00 0.00 0.00 0.00 0.00 0.00 0.00 0.00 0.00 0.00 0.00 0.00 0.00 0.00 0.00 0.00 0.00 0.00 0.00 0.00 0.00 0.00 0.00 0.00 0.01 0.03 0.06 0.08 0.09 0.14 0.16 0.21 0.23 0.20 0.17 0.18 0.18
0.00 0.00 0.00 0.00 0.00 0.00 0.00 0.00 0.00 0.00 0.00 0.00 0.00 0.00 0.00 0.00 0.00 0.00 0.00 0.00 0.00 0.00 0.00 0.00 0.00 0.00 0.00 0.00 0.00 0.00 0.00 0.00 0.00 0.00 0.00 0.00 0.00 0.02 0.04 0.08 0.07 0.12 0.18 0.22 0.25 0.30 0.29 0.26 0.22
0.00 0.00 0.02 0.02 0.00 0.00 0.00 0.00 0.00 0.00 0.00 0.00 0.00 0.00 0.00 0.00 0.00 0.00 0.00 0.00 0.00 0.00 0.00 0.00 0.00 0.00 0.00 0.00 0.00 0.00 0.00 0.00 0.00 0.00 0.00 0.00 0.00 0.01 0.02 0.05 0.06 0.08 0.12 0.16 0.24 0.24 0.26 0.28 0.25
0.00 0.00 0.01 0.00 0.00 0.00 0.00 0.00 0.00 0.00 0.00 0.00 0.00 0.00 0.00 0.00 0.00 0.00 0.00 0.00 0.00 0.00 0.00 0.00 0.00 0.00 0.00 0.00 0.00 0.00 0.00 0.00 0.00 0.00 0.00 0.00 0.00 0.00 0.01 0.01 0.02 0.05 0.09 0.12 0.16 0.19 0.20 0.21 0.23
0.02 0.00 0.00 0.00 0.00 0.00 0.00 0.00 0.00 0.00 0.00 0.00 0.00 0.00 0.00 0.00 0.00 0.00 0.00 0.00 0.00 0.00 0.00 0.00 0.00 0.00 0.00 0.00 0.00 0.00 0.00 0.00 0.00 0.00 0.00 0.00 0.00 0.00 0.00 0.01 0.02 0.04 0.06 0.11 0.16 0.17 0.18 0.20 0.22
0.00 0.00 0.02 0.00 0.00 0.00 0.00 0.00 0.00 0.00 0.00 0.00 0.00 0.00 0.00 0.00 0.00 0.00 0.00 0.00 0.00 0.00 0.00 0.00 0.00 0.00 0.00 0.00 0.00 0.00 0.00 0.00 0.00 0.00 0.00 0.00 0.00 0.00 0.01 0.01 0.01 0.02 0.05 0.09 0.13 0.16 0.17 0.20 0.20
0.01 0.01 0.01 0.01 0.00 0.00 0.00 0.00 0.00 0.00 0.00 0.00 0.00 0.00 0.00 0.00 0.00 0.00 0.00 0.00 0.00 0.00 0.00 0.00 0.00 0.00 0.00 0.00 0.00 0.00 0.00 0.00 0.00 0.00 0.00 0.00 0.00 0.00 0.00 0.00 0.00 0.00 0.02 0.04 0.07 0.11 0.25 0.35 0.41
0.01 0.00 0.01 0.01 0.00 0.00 0.00 0.00 0.00 0.00 0.00 0.00 0.00 0.00 0.00 0.00 0.00 0.00 0.00 0.00 0.00 0.00 0.00 0.00 0.00 0.00 0.00 0.00 0.00 0.00 0.00 0.00 0.00 0.00 0.00 0.00 0.00 0.00 0.00 0.00 0.00 0.00 0.00 0.01 0.03 0.04 0.07 0.12 0.18

GFSSGP_prec_precacc24_057.txt.gz
Total_Precipitation_Accumulation
0.00 0.00 0.00 0.00 0.00 0.00 0.00 0.00 0.00 0.00 0.00 0.00 0.00 0.00 0.00 0.00 0.00 0.00 0.00 0.00 0.00 0.00 0.00 0.01 0.02 0.03 0.04 0.06 0.04 0.03 0.04 0.06 0.04 0.03 0.01 0.02 0.01 0.01 0.01 0.02 0.03 0.05 0.05 0.03 0.00 0.00 0.00 0.00 0.00
0.00 0.00 0.00 0.00 0.00 0.00 0.00 0.00 0.00 0.00 0.00 0.00 0.00 0.00 0.00 0.00 0.00 0.00 0.00 0.00 0.00 0.00 0.00 0.01 0.02 0.03 0.04 0.01 0.02 0.02 0.05 0.05 0.02 0.00 0.00 0.01 0.01 0.02 0.03 0.05 0.06 0.04 0.01 0.00 0.00 0.00 0.00 0.00 0.00
0.00 0.00 0.00 0.00 0.00 0.00 0.00 0.00 0.00 0.00 0.00 0.00 0.00 0.00 0.00 0.00 0.00 0.00 0.00 0.00 0.00 0.00 0.00 0.01 0.02 0.04 0.02 0.00 0.01 0.03 0.05 0.02 0.01 0.00 0.00 0.01 0.02 0.04 0.06 0.05 0.01 0.00 0.00 0.00 0.00 0.00 0.00 0.00 0.00
0.00 0.00 0.00 0.00 0.00 0.00 0.00 0.00 0.00 0.00 0.00 0.00 0.00 0.00 0.00 0.00 0.00 0.00 0.00 0.00 0.00 0.00 0.00 0.02 0.03 0.03 0.01 0.01 0.02 0.05 0.03 0.02 0.01 0.00 0.00 0.02 0.05 0.06 0.03 0.00 0.00 0.00 0.00 0.00 0.00 0.00 0.00 0.00 0.00
0.02 0.01 0.00 0.00 0.00 0.00 0.00 0.00 0.00 0.00 0.00 0.00 0.00 0.00 0.00 0.00 0.00 0.00 0.00 0.00 0.00 0.00 0.00 0.02 0.04 0.02 0.00 0.01 0.04 0.01 0.02 0.02 0.00 0.00 0.00 0.03 0.06 0.04 0.01 0.00 0.00 0.00 0.00 0.00 0.00 0.00 0.00 0.00 0.00
0.13 0.06 0.01 0.00 0.00 0.00 0.00 0.00 0.00 0.00 0.00 0.00 0.00 0.00 0.00 0.00 0.00 0.01 0.00 0.00 0.00 0.00 0.01 0.01 0.04 0.02 0.01 0.03 0.03 0.01 0.01 0.02 0.00 0.00 0.02 0.06 0.04 0.03 0.00 0.00 0.00 0.00 0.00 0.00 0.00 0.00 0.00 0.00 0.00
0.13 0.18 0.03 0.00 0.00 0.00 0.00 0.00 0.00 0.00 0.00 0.00 0.00 0.01 0.05 0.03 0.03 0.03 0.01 0.00 0.00 0.00 0.01 0.01 0.02 0.01 0.01 0.04 0.01 0.02 0.02 0.02 0.00 0.00 0.01 0.01 0.00 0.01 0.01 0.00 0.00 0.00 0.00 0.00 0.00 0.00 0.00 0.00 0.00
0.10 0.15 0.10 0.00 0.00 0.00 0.00 0.00 0.00 0.00 0.00 0.00 0.00 0.01 0.07 0.02 0.02 0.04 0.03 0.01 0.00 0.01 0.01 0.01 0.01 0.00 0.01 0.04 0.02 0.02 0.02 0.01 0.00 0.00 0.00 0.00 0.00 0.00 0.00 0.00 0.00 0.00 0.01 0.00 0.00 0.00 0.00 0.00 0.00
0.31 0.45 0.24 0.03 0.02 0.02 0.00 0.00 0.00 0.00 0.00 0.00 0.00 0.00 0.02 0.03 0.07 0.08 0.04 0.01 0.01 0.01 0.01 0.01 0.01 0.00 0.01 0.03 0.01 0.02 0.01 0.00 0.00 0.00 0.00 0.00 0.00 0.00 0.00 0.00 0.00 0.01 0.01 0.00 0.00 0.00 0.00 0.00 0.00
0.68 0.69 0.15 0.02 0.00 0.02 0.01 0.00 0.00 0.00 0.00 0.02 0.04 0.05 0.03 0.14 0.17 0.16 0.06 0.02 0.00 0.00 0.01 0.01 0.01 0.00 0.01 0.02 0.00 0.01 0.00 0.00 0.00 0.00 0.00 0.00 0.00 0.00 0.00 0.00 0.00 0.00 0.00 0.00 0.00 0.00 0.00 0.00 0.00
0.67 0.37 0.04 0.02 0.07 0.15 0.03 0.01 0.00 0.00 0.00 0.00 0.03 0.07 0.12 0.25 0.26 0.16 0.08 0.01 0.00 0.00 0.00 0.00 0.01 0.00 0.01 0.01 0.00 0.00 0.00 0.00 0.00 0.00 0.00 0.00 0.00 0.00 0.00 0.00 0.00 0.00 0.00 0.00 0.00 0.00 0.00 0.00 0.00
0.24 0.18 0.06 0.08 0.16 0.10 0.05 0.03 0.00 0.00 0.00 0.00 0.02 0.08 0.12 0.16 0.14 0.17 0.14 0.07 0.01 0.00 0.00 0.00 0.00 0.00 0.01 0.01 0.00 0.00 0.00 0.00 0.00 0.00 0.00 0.00 0.00 0.00 0.00 0.00 0.00 0.00 0.00 0.00 0.00 0.00 0.00 0.00 0.00
0.13 0.07 0.11 0.17 0.16 0.09 0.11 0.10 0.01 0.00 0.00 0.00 0.01 0.03 0.04 0.08 0.12 0.16 0.15 0.08 0.04 0.01 0.00 0.00 0.00 0.00 0.00 0.00 0.00 0.00 0.00 0.00 0.00 0.00 0.00 0.00 0.00 0.00 0.00 0.00 0.00 0.00 0.00 0.00 0.00 0.00 0.00 0.00 0.00
0.14 0.11 0.12 0.12 0.16 0.11 0.12 0.08 0.14 0.00 0.00 0.00 0.01 0.02 0.04 0.09 0.10 0.10 0.07 0.10 0.14 0.06 0.03 0.01 0.00 0.00 0.00 0.00 0.00 0.00 0.00 0.00 0.00 0.00 0.00 0.00 0.00 0.00 0.00 0.00 0.00 0.00 0.00 0.00 0.00 0.00 0.00 0.00 0.00
0.16 0.23 0.27 0.14 0.09 0.12 0.13 0.20 0.21 0.01 0.00 0.00 0.03 0.04 0.01 0.05 0.05 0.04 0.11 0.13 0.13 0.10 0.07 0.02 0.00 0.00 0.00 0.00 0.00 0.00 0.00 0.00 0.00 0.00 0.00 0.00 0.00 0.00 0.00 0.00 0.00 0.00 0.00 0.00 0.00 0.00 0.00 0.00 0.00
0.18 0.36 0.25 0.11 0.08 0.10 0.18 0.12 0.02 0.03 0.00 0.00 0.00 0.00 0.00 0.00 0.01 0.04 0.05 0.06 0.07 0.07 0.07 0.04 0.00 0.00 0.00 0.00 0.00 0.00 0.00 0.00 0.00 0.00 0.00 0.00 0.00 0.00 0.00 0.00 0.00 0.00 0.00 0.00 0.00 0.00 0.00 0.00 0.00
0.11 0.08 0.10 0.10 0.05 0.02 0.04 0.02 0.01 0.04 0.05 0.00 0.00 0.00 0.00 0.00 0.00 0.00 0.00 0.05 0.07 0.06 0.07 0.06 0.05 0.02 0.01 0.04 0.00 0.01 0.00 0.01 0.00 0.00 0.00 0.00 0.00 0.00 0.00 0.00 0.00 0.00 0.00 0.00 0.00 0.00 0.00 0.00 0.00
0.00 0.00 0.02 0.05 0.05 0.04 0.02 0.01 0.01 0.01 0.04 0.00 0.00 0.00 0.00 0.00 0.00 0.00 0.00 0.00 0.00 0.01 0.02 0.04 0.03 0.03 0.04 0.02 0.01 0.02 0.01 0.02 0.03 0.03 0.03 0.03 0.03 0.05 0.03 0.01 0.01 0.01 0.00 0.00 0.01 0.01 0.03 0.01 0.01
0.00 0.00 0.01 0.04 0.07 0.05 0.03 0.02 0.00 0.01 0.03 0.03 0.00 0.00 0.00 0.00 0.00 0.00 0.00 0.00 0.00 0.00 0.00 0.00 0.01 0.01 0.00 0.00 0.00 0.00 0.00 0.04 0.07 0.11 0.12 0.13 0.12 0.11 0.14 0.09 0.07 0.02 0.01 0.01 0.04 0.07 0.12 0.14 0.18
0.00 0.00 0.00 0.02 0.05 0.09 0.06 0.02 0.00 0.00 0.00 0.01 0.00 0.00 0.00 0.00 0.00 0.00 0.00 0.00 0.00 0.00 0.00 0.00 0.00 0.00 0.00 0.00 0.00 0.00 0.00 0.00 0.00 0.01 0.03 0.06 0.08 0.08 0.10 0.11 0.14 0.14 0.07 0.07 0.14 0.16 0.16 0.11 0.17
0.00 0.00 0.00 0.01 0.03 0.05 0.02 0.02 0.00 0.00 0.00 0.00 0.00 0.00 0.00 0.00 0.00 0.00 0.00 0.00 0.00 0.00 0.00 0.00 0.00 0.00 0.00 0.00 0.00 0.00 0.00 0.00 0.00 0.00 0.00 0.00 0.05 0.08 0.10 0.12 0.09 0.09 0.12 0.10 0.19 0.21 0.23 0.19 0.14
0.00 0.00 0.00 0.00 0.00 0.00 0.00 0.00 0.00 0.00 0.00 0.00 0.00 0.00 0.00 0.00 0.00 0.00 0.00 0.00 0.00 0.00 0.00 0.00 0.00 0.00 0.00 0.00 0.00 0.00 0.00 0.00 0.00 0.00 0.00 0.00 0.00 0.01 0.03 0.07 0.11 0.13 0.09 0.07 0.12 0.19 0.17 0.16 0.12
0.00 0.00 0.00 0.00 0.00 0.00 0.00 0.00 0.00 0.00 0.00 0.00 0.00 0.00 0.00 0.00 0.00 0.00 0.00 0.00 0.00 0.00 0.00 0.00 0.00 0.00 0.00 0.00 0.00 0.00 0.00 0.00 0.00 0.00 0.00 0.00 0.00 0.00 0.00 0.00 0.02 0.06 0.10 0.10 0.14 0.16 0.14 0.15 0.17
0.00 0.00 0.00 0.00 0.00 0.00 0.00 0.00 0.00 0.00 0.00 0.00 0.00 0.00 0.00 0.00 0.00 0.00 0.00 0.00 0.00 0.00 0.00 0.00 0.00 0.00 0.00 0.00 0.00 0.00 0.00 0.00 0.00 0.00 0.00 0.00 0.00 0.01 0.01 0.02 0.03 0.04 0.07 0.13 0.16 0.20 0.20 0.19 0.19
0.00 0.00 0.02 0.03 0.01 0.00 0.00 0.00 0.00 0.00 0.00 0.00 0.00 0.00 0.00 0.00 0.00 0.00 0.00 0.00 0.00 0.00 0.00 0.00 0.00 0.00 0.00 0.00 0.00 0.00 0.00 0.00 0.00 0.00 0.00 0.00 0.00 0.01 0.02 0.02 0.03 0.03 0.04 0.06 0.11 0.13 0.16 0.18 0.18
0.00 0.00 0.01 0.00 0.00 0.00 0.00 0.00 0.00 0.00 0.00 0.00 0.00 0.00 0.00 0.00 0.00 0.00 0.00 0.00 0.00 0.00 0.00 0.00 0.00 0.00 0.00 0.00 0.00 0.00 0.00 0.00 0.00 0.00 0.00 0.00 0.00 0.00 0.00 0.00 0.00 0.01 0.02 0.02 0.03 0.06 0.08 0.10 0.13
0.02 0.00 0.00 0.00 0.00 0.00 0.00 0.00 0.00 0.00 0.00 0.00 0.00 0.00 0.00 0.00 0.00 0.00 0.00 0.00 0.00 0.00 0.00 0.00 0.00 0.00 0.00 0.00 0.00 0.00 0.00 0.00 0.00 0.00 0.00 0.00 0.00 0.00 0.00 0.00 0.00 0.01 0.02 0.03 0.03 0.04 0.04 0.06 0.11
0.00 0.00 0.02 0.00 0.00 0.00 0.00 0.00 0.00 0.00 0.00 0.00 0.00 0.00 0.00 0.00 0.00 0.00 0.00 0.00 0.00 0.00 0.00 0.00 0.00 0.00 0.00 0.00 0.00 0.00 0.00 0.00 0.00 0.00 0.00 0.00 0.00 0.00 0.00 0.00 0.00 0.00 0.01 0.04 0.05 0.06 0.06 0.08 0.09
0.01 0.01 0.01 0.01 0.00 0.00 0.00 0.00 0.00 0.00 0.00 0.00 0.00 0.00 0.00 0.00 0.00 0.00 0.00 0.00 0.00 0.00 0.00 0.00 0.00 0.00 0.00 0.00 0.00 0.00 0.00 0.00 0.00 0.00 0.00 0.00 0.00 0.00 0.00 0.00 0.00 0.00 0.00 0.01 0.02 0.03 0.05 0.06 0.06
0.01 0.01 0.01 0.01 0.01 0.00 0.00 0.00 0.00 0.00 0.00 0.00 0.00 0.00 0.00 0.00 0.00 0.00 0.00 0.00 0.00 0.00 0.00 0.00 0.00 0.00 0.00 0.00 0.00 0.00 0.00 0.00 0.00 0.00 0.00 0.00 0.00 0.00 0.00 0.00 0.00 0.00 0.00 0.00 0.00 0.00 0.01 0.02 0.04

GFSSGP_prec_precacc24_060.txt.gz
Total_Precipitation_Accumulation
0.00 0.00 0.00 0.00 0.00 0.00 0.00 0.00 0.00 0.00 0.00 0.00 0.00 0.00 0.01 0.00 0.00 0.01 0.00 0.00 0.00 0.00 0.00 0.01 0.02 0.03 0.05 0.05 0.04 0.03 0.04 0.04 0.02 0.02 0.03 0.02 0.01 0.01 0.01 0.02 0.02 0.04 0.03 0.01 0.01 0.00 0.00 0.00 0.00
0.00 0.00 0.00 0.00 0.00 0.00 0.00 0.00 0.00 0.00 0.00 0.00 0.00 0.01 0.01 0.00 0.00 0.00 0.00 0.00 0.00 0.00 0.00 0.01 0.02 0.04 0.04 0.02 0.01 0.02 0.04 0.03 0.01 0.00 0.02 0.02 0.01 0.02 0.03 0.05 0.04 0.02 0.01 0.00 0.00 0.00 0.00 0.00 0.00
0.00 0.00 0.00 0.00 0.00 0.00 0.00 0.00 0.00 0.00 0.00 0.00 0.00 0.00 0.00 0.02 0.01 0.00 0.00 0.00 0.00 0.00 0.00 0.01 0.03 0.05 0.02 0.00 0.01 0.03 0.04 0.01 0.00 0.00 0.01 0.02 0.02 0.04 0.06 0.04 0.01 0.00 0.00 0.00 0.00 0.00 0.00 0.00 0.00
0.00 0.00 0.00 0.00 0.00 0.00 0.00 0.00 0.00 0.00 0.00 0.00 0.00 0.00 0.02 0.07 0.02 0.02 0.00 0.00 0.00 0.00 0.00 0.02 0.03 0.03 0.01 0.01 0.02 0.03 0.02 0.01 0.00 0.00 0.01 0.04 0.05 0.06 0.03 0.00 0.00 0.00 0.00 0.00 0.00 0.00 0.00 0.00 0.00
0.01 0.01 0.00 0.00 0.00 0.00 0.00 0.00 0.00 0.00 0.00 0.00 0.00 0.00 0.05 0.01 0.01 0.02 0.00 0.00 0.00 0.00 0.00 0.02 0.04 0.02 0.00 0.01 0.04 0.01 0.01 0.01 0.00 0.00 0.01 0.05 0.06 0.04 0.01 0.00 0.00 0.00 0.00 0.00 0.00 0.00 0.00 0.00 0.00
0.11 0.06 0.01 0.00 0.00 0.00 0.00 0.00 0.00 0.00 0.00 0.00 0.00 0.06 0.07 0.02 0.01 0.03 0.00 0.00 0.00 0.00 0.01 0.01 0.04 0.02 0.01 0.03 0.03 0.01 0.01 0.01 0.00 0.00 0.03 0.07 0.04 0.03 0.00 0.00 0.00 0.00 0.00 0.00 0.00 0.00 0.00 0.00 0.00
0.15 0.16 0.03 0.00 0.00 0.00 0.00 0.00 0.00 0.00 0.00 0.00 0.00 0.01 0.08 0.04 0.03 0.03 0.01 0.00 0.00 0.00 0.01 0.01 0.02 0.01 0.01 0.04 0.01 0.02 0.01 0.01 0.00 0.00 0.02 0.02 0.00 0.01 0.01 0.00 0.00 0.00 0.00 0.00 0.00 0.00 0.00 0.00 0.00
0.10 0.12 0.08 0.00 0.00 0.00 0.00 0.00 0.00 0.00 0.00 0.00 0.00 0.07 0.11 0.04 0.03 0.04 0.03 0.01 0.00 0.01 0.01 0.01 0.01 0.00 0.01 0.04 0.03 0.02 0.01 0.00 0.00 0.00 0.00 0.00 0.00 0.00 0.00 0.00 0.00 0.00 0.01 0.00 0.00 0.00 0.00 0.00 0.00
0.33 0.35 0.12 0.02 0.02 0.02 0.00 0.00 0.00 0.00 0.00 0.00 0.00 0.04 0.08 0.03 0.11 0.08 0.04 0.01 0.01 0.01 0.01 0.02 0.01 0.00 0.01 0.03 0.01 0.02 0.00 0.00 0.00 0.00 0.00 0.00 0.00 0.00 0.00 0.00 0.00 0.01 0.01 0.00 0.00 0.00 0.00 0.00 0.00
0.77 0.82 0.10 0.01 0.01 0.01 0.01 0.00 0.00 0.00 0.00 0.02 0.04 0.05 0.03 0.17 0.20 0.18 0.07 0.03 0.01 0.01 0.02 0.02 0.01 0.00 0.01 0.02 0.00 0.01 0.00 0.00 0.00 0.00 0.00 0.00 0.00 0.00 0.00 0.00 0.00 0.00 0.00 0.00 0.00 0.00 0.00 0.00 0.00
0.75 0.40 0.06 0.04 0.09 0.15 0.03 0.01 0.00 0.00 0.01 0.00 0.03 0.07 0.12 0.29 0.30 0.20 0.08 0.02 0.01 0.01 0.02 0.01 0.01 0.01 0.02 0.02 0.00 0.00 0.00 0.00 0.00 0.00 0.00 0.00 0.00 0.00 0.00 0.00 0.00 0.00 0.00 0.00 0.00 0.00 0.00 0.00 0.00
0.32 0.18 0.09 0.11 0.19 0.11 0.05 0.03 0.00 0.00 0.00 0.00 0.02 0.08 0.12 0.21 0.18 0.24 0.18 0.12 0.04 0.00 0.00 0.01 0.01 0.01 0.02 0.01 0.00 0.00 0.00 0.00 0.00 0.00 0.00 0.00 0.00 0.00 0.00 0.00 0.00 0.00 0.00 0.00 0.00 0.00 0.00 0.00 0.00
0.19 0.10 0.17 0.26 0.20 0.13 0.12 0.10 0.01 0.00 0.00 0.00 0.01 0.03 0.04 0.09 0.15 0.21 0.20 0.11 0.07 0.04 0.02 0.01 0.00 0.00 0.00 0.01 0.01 0.00 0.00 0.00 0.00 0.00 0.00 0.00 0.00 0.00 0.00 0.00 0.00 0.00 0.00 0.00 0.00 0.00 0.00 0.00 0.00
0.21 0.18 0.18 0.23 0.19 0.18 0.14 0.08 0.14 0.00 0.00 0.00 0.01 0.02 0.04 0.09 0.11 0.13 0.11 0.13 0.17 0.10 0.09 0.04 0.00 0.00 0.00 0.01 0.00 0.00 0.00 0.00 0.00 0.00 0.00 0.00 0.00 0.00 0.00 0.00 0.00 0.00 0.00 0.00 0.00 0.00 0.00 0.00 0.00
0.20 0.30 0.39 0.24 0.15 0.15 0.14 0.20 0.21 0.01 0.00 0.00 0.03 0.04 0.01 0.05 0.05 0.04 0.13 0.19 0.16 0.11 0.10 0.07 0.02 0.01 0.00 0.00 0.00 0.00 0.00 0.00 0.00 0.00 0.00 0.00 0.00 0.00 0.00 0.00 0.00 0.00 0.00 0.00 0.00 0.00 0.00 0.00 0.00
0.21 0.50 0.39 0.20 0.17 0.13 0.19 0.12 0.02 0.03 0.00 0.00 0.00 0.00 0.00 0.00 0.01 0.04 0.06 0.06 0.07 0.09 0.07 0.05 0.02 0.01 0.01 0.00 0.00 0.00 0.00 0.00 0.00 0.00 0.00 0.00 0.00 0.00 0.00 0.00 0.00 0.00 0.00 0.00 0.00 0.00 0.00 0.00 0.00
0.16 0.21 0.30 0.17 0.06 0.04 0.04 0.02 0.01 0.04 0.05 0.00 0.00 0.00 0.00 0.00 0.00 0.00 0.00 0.05 0.07 0.06 0.07 0.06 0.05 0.02 0.01 0.03 0.00 0.00 0.00 0.00 0.00 0.00 0.00 0.00 0.00 0.00 0.00 0.00 0.00 0.00 0.00 0.00 0.00 0.00 0.00 0.00 0.01
0.02 0.02 0.09 0.15 0.07 0.04 0.02 0.01 0.01 0.01 0.04 0.00 0.00 0.00 0.00 0.00 0.00 0.00 0.00 0.00 0.00 0.01 0.03 0.04 0.03 0.03 0.04 0.02 0.01 0.01 0.01 0.01 0.02 0.03 0.02 0.03 0.03 0.03 0.02 0.00 0.00 0.01 0.00 0.00 0.01 0.02 0.03 0.01 0.01
0.00 0.00 0.01 0.05 0.10 0.06 0.03 0.02 0.00 0.01 0.03 0.03 0.00 0.00 0.00 0.00 0.00 0.00 0.00 0.00 0.00 0.01 0.01 0.00 0.02 0.01 0.00 0.00 0.00 0.00 0.00 0.04 0.06 0.08 0.10 0.12 0.11 0.11 0.12 0.07 0.04 0.02 0.01 0.01 0.04 0.07 0.13 0.14 0.19
0.00 0.00 0.02 0.07 0.10 0.11 0.07 0.02 0.00 0.00 0.00 0.01 0.00 0.00 0.00 0.00 0.00 0.00 0.00 0.00 0.00 0.01 0.05 0.00 0.00 0.00 0.00 0.00 0.00 0.00 0.00 0.01 0.00 0.01 0.02 0.03 0.05 0.07 0.09 0.09 0.09 0.11 0.06 0.06 0.13 0.16 0.16 0.12 0.18
0.00 0.00 0.03 0.03 0.06 0.06 0.03 0.02 0.00 0.00 0.00 0.00 0.00 0.00 0.00 0.00 0.00 0.00 0.00 0.00 0.00 0.00 0.02 0.06 0.02 0.00 0.00 0.00 0.00 0.00 0.03 0.02 0.02 0.01 0.00 0.00 0.01 0.03 0.07 0.09 0.07 0.06 0.10 0.08 0.12 0.19 0.23 0.19 0.14
0.00 0.00 0.01 0.01 0.01 0.01 0.00 0.00 0.00 0.00 0.00 0.00 0.00 0.00 0.00 0.00 0.00 0.00 0.00 0.00 0.00 0.00 0.00 0.02 0.08 0.06 0.03 0.02 0.03 0.09 0.09 0.04 0.02 0.00 0.00 0.00 0.00 0.00 0.00 0.02 0.06 0.08 0.07 0.04 0.03 0.11 0.15 0.15 0.11
0.00 0.00 0.01 0.02 0.00 0.00 0.00 0.00 0.00 0.00 0.00 0.00 0.00 0.00 0.00 0.00 0.00 0.00 0.00 0.00 0.00 0.00 0.00 0.00 0.01 0.02 0.03 0.02 0.01 0.02 0.02 0.01 0.00 0.00 0.00 0.00 0.00 0.00 0.00 0.00 0.01 0.03 0.07 0.07 0.07 0.08 0.11 0.13 0.16
0.00 0.00 0.00 0.00 0.00 0.00 0.00 0.00 0.00 0.00 0.00 0.00 0.00 0.00 0.00 0.00 0.00 0.00 0.00 0.00 0.00 0.00 0.00 0.00 0.00 0.00 0.00 0.00 0.00 0.00 0.00 0.00 0.00 0.00 0.00 0.00 0.00 0.00 0.01 0.01 0.02 0.03 0.05 0.09 0.12 0.13 0.16 0.16 0.17
0.00 0.00 0.02 0.03 0.01 0.00 0.00 0.00 0.00 0.00 0.00 0.00 0.00 0.00 0.00 0.00 0.00 0.00 0.00 0.00 0.00 0.00 0.00 0.00 0.00 0.00 0.00 0.00 0.00 0.00 0.00 0.00 0.00 0.00 0.00 0.00 0.00 0.00 0.01 0.02 0.02 0.02 0.02 0.03 0.07 0.09 0.12 0.15 0.16
0.00 0.00 0.00 0.01 0.00 0.00 0.00 0.00 0.00 0.00 0.00 0.00 0.00 0.00 0.00 0.00 0.00 0.00 0.00 0.00 0.00 0.00 0.00 0.00 0.00 0.00 0.00 0.00 0.00 0.00 0.00 0.00 0.00 0.00 0.00 0.00 0.00 0.00 0.00 0.00 0.00 0.00 0.00 0.01 0.01 0.03 0.05 0.07 0.09
0.02 0.01 0.00 0.00 0.00 0.00 0.00 0.00 0.00 0.00 0.00 0.00 0.00 0.00 0.00 0.00 0.00 0.00 0.00 0.00 0.00 0.00 0.00 0.00 0.00 0.00 0.00 0.00 0.00 0.00 0.00 0.00 0.00 0.00 0.00 0.00 0.00 0.00 0.00 0.00 0.00 0.00 0.00 0.01 0.01 0.01 0.01 0.03 0.05
0.00 0.00 0.02 0.00 0.00 0.00 0.00 0.00 0.00 0.00 0.00 0.00 0.00 0.00 0.00 0.00 0.00 0.00 0.00 0.00 0.00 0.00 0.00 0.00 0.00 0.00 0.00 0.00 0.00 0.00 0.00 0.00 0.00 0.00 0.00 0.00 0.00 0.00 0.00 0.00 0.00 0.00 0.00 0.00 0.00 0.01 0.02 0.02 0.02
0.01 0.01 0.01 0.01 0.00 0.00 0.00 0.00 0.00 0.00 0.00 0.00 0.00 0.00 0.00 0.00 0.00 0.00 0.00 0.00 0.00 0.00 0.00 0.00 0.00 0.00 0.00 0.00 0.00 0.00 0.00 0.00 0.00 0.00 0.00 0.00 0.00 0.00 0.00 0.00 0.00 0.00 0.00 0.00 0.00 0.00 0.00 0.00 0.00
0.01 0.01 0.00 0.01 0.01 0.00 0.00 0.00 0.00 0.00 0.00 0.00 0.00 0.00 0.00 0.00 0.00 0.00 0.00 0.00 0.00 0.00 0.00 0.00 0.00 0.00 0.00 0.00 0.00 0.00 0.00 0.00 0.00 0.00 0.00 0.00 0.00 0.00 0.00 0.00 0.00 0.00 0.00 0.00 0.00 0.00 0.00 0.00 0.00

GFSSGP_prec_precacc24_063.txt.gz
Total_Precipitation_Accumulation
0.00 0.00 0.00 0.00 0.00 0.00 0.00 0.00 0.00 0.00 0.00 0.00 0.00 0.00 0.03 0.01 0.00 0.01 0.00 0.00 0.00 0.00 0.00 0.01 0.02 0.03 0.05 0.05 0.04 0.04 0.03 0.03 0.02 0.01 0.02 0.02 0.01 0.01 0.01 0.01 0.02 0.03 0.02 0.01 0.01 0.00 0.00 0.00 0.00
0.00 0.00 0.00 0.00 0.00 0.00 0.00 0.00 0.00 0.00 0.00 0.00 0.00 0.01 0.07 0.01 0.00 0.00 0.00 0.00 0.00 0.00 0.00 0.01 0.02 0.04 0.04 0.02 0.01 0.02 0.03 0.02 0.00 0.01 0.02 0.02 0.01 0.02 0.03 0.03 0.03 0.01 0.00 0.00 0.00 0.00 0.00 0.00 0.00
0.02 0.03 0.00 0.00 0.00 0.00 0.00 0.00 0.00 0.00 0.00 0.00 0.00 0.01 0.13 0.05 0.01 0.00 0.00 0.00 0.00 0.00 0.00 0.01 0.03 0.05 0.02 0.00 0.00 0.01 0.02 0.00 0.00 0.01 0.02 0.02 0.02 0.04 0.05 0.03 0.01 0.00 0.00 0.00 0.00 0.00 0.00 0.00 0.00
0.06 0.06 0.01 0.00 0.00 0.00 0.00 0.00 0.00 0.00 0.00 0.00 0.00 0.01 0.13 0.24 0.04 0.03 0.00 0.00 0.00 0.00 0.00 0.02 0.04 0.03 0.01 0.01 0.01 0.02 0.00 0.00 0.00 0.01 0.02 0.04 0.05 0.05 0.03 0.00 0.00 0.00 0.00 0.00 0.00 0.00 0.00 0.00 0.00
0.16 0.04 0.00 0.00 0.00 0.00 0.00 0.00 0.00 0.00 0.00 0.00 0.00 0.01 0.13 0.19 0.04 0.02 0.00 0.00 0.00 0.00 0.00 0.02 0.05 0.02 0.00 0.01 0.03 0.01 0.00 0.00 0.00 0.00 0.03 0.05 0.06 0.04 0.01 0.00 0.00 0.00 0.00 0.00 0.00 0.00 0.00 0.00 0.00
0.20 0.07 0.00 0.00 0.00 0.00 0.00 0.00 0.00 0.00 0.00 0.00 0.00 0.06 0.12 0.13 0.05 0.04 0.00 0.00 0.00 0.00 0.01 0.01 0.04 0.02 0.01 0.03 0.03 0.00 0.00 0.00 0.00 0.01 0.05 0.07 0.04 0.03 0.00 0.00 0.00 0.00 0.00 0.00 0.00 0.00 0.00 0.00 0.00
0.19 0.05 0.01 0.00 0.00 0.00 0.00 0.00 0.00 0.00 0.00 0.00 0.00 0.01 0.10 0.13 0.11 0.02 0.01 0.02 0.00 0.00 0.01 0.01 0.02 0.01 0.01 0.04 0.01 0.01 0.01 0.00 0.00 0.00 0.03 0.02 0.00 0.01 0.01 0.00 0.00 0.00 0.00 0.00 0.00 0.00 0.00 0.00 0.00
0.20 0.09 0.03 0.00 0.00 0.00 0.00 0.00 0.00 0.00 0.00 0.00 0.01 0.08 0.09 0.07 0.09 0.04 0.03 0.08 0.02 0.01 0.01 0.01 0.01 0.00 0.01 0.04 0.03 0.02 0.01 0.00 0.00 0.00 0.00 0.00 0.00 0.00 0.00 0.00 0.00 0.00 0.00 0.00 0.00 0.00 0.00 0.00 0.00
0.42 0.33 0.05 0.02 0.02 0.02 0.00 0.00 0.00 0.00 0.00 0.00 0.00 0.06 0.07 0.03 0.12 0.15 0.09 0.11 0.06 0.01 0.01 0.02 0.01 0.00 0.01 0.03 0.01 0.02 0.00 0.00 0.00 0.00 0.00 0.00 0.00 0.00 0.00 0.00 0.00 0.01 0.00 0.00 0.00 0.00 0.00 0.00 0.00
0.85 0.80 0.09 0.01 0.02 0.01 0.00 0.00 0.00 0.00 0.00 0.02 0.04 0.05 0.03 0.17 0.19 0.27 0.30 0.15 0.14 0.05 0.04 0.02 0.02 0.00 0.01 0.02 0.00 0.01 0.00 0.00 0.00 0.00 0.00 0.00 0.00 0.00 0.00 0.00 0.00 0.00 0.00 0.00 0.00 0.00 0.00 0.00 0.00
0.91 0.49 0.08 0.07 0.09 0.11 0.02 0.01 0.00 0.00 0.02 0.00 0.03 0.07 0.13 0.32 0.33 0.26 0.21 0.21 0.13 0.16 0.09 0.03 0.02 0.01 0.02 0.02 0.00 0.00 0.00 0.00 0.00 0.00 0.00 0.00 0.00 0.00 0.00 0.00 0.00 0.00 0.00 0.00 0.00 0.00 0.00 0.00 0.00
0.52 0.26 0.13 0.13 0.15 0.05 0.03 0.03 0.00 0.01 0.00 0.00 0.02 0.08 0.13 0.25 0.22 0.34 0.25 0.18 0.19 0.07 0.04 0.03 0.02 0.02 0.02 0.01 0.00 0.00 0.00 0.00 0.00 0.00 0.00 0.00 0.00 0.00 0.00 0.00 0.00 0.00 0.00 0.00 0.00 0.00 0.00 0.00 0.00
0.33 0.31 0.27 0.35 0.22 0.13 0.10 0.09 0.01 0.00 0.00 0.00 0.01 0.03 0.04 0.10 0.18 0.34 0.33 0.22 0.19 0.14 0.04 0.02 0.01 0.02 0.01 0.01 0.01 0.00 0.00 0.00 0.00 0.00 0.00 0.00 0.00 0.00 0.00 0.00 0.00 0.00 0.00 0.00 0.00 0.00 0.00 0.00 0.00
0.28 0.40 0.33 0.43 0.32 0.21 0.13 0.08 0.14 0.00 0.00 0.00 0.01 0.02 0.04 0.10 0.13 0.20 0.19 0.18 0.31 0.22 0.11 0.04 0.01 0.01 0.01 0.01 0.01 0.00 0.00 0.00 0.00 0.00 0.00 0.00 0.00 0.00 0.00 0.00 0.00 0.00 0.00 0.00 0.00 0.00 0.00 0.00 0.00
0.26 0.39 0.52 0.49 0.33 0.25 0.16 0.21 0.21 0.01 0.00 0.00 0.03 0.04 0.01 0.05 0.05 0.05 0.24 0.31 0.22 0.18 0.18 0.08 0.02 0.02 0.01 0.01 0.00 0.00 0.00 0.00 0.00 0.00 0.00 0.00 0.00 0.00 0.00 0.00 0.00 0.00 0.00 0.00 0.00 0.00 0.00 0.00 0.00
0.25 0.64 0.59 0.31 0.47 0.17 0.20 0.13 0.02 0.03 0.00 0.00 0.00 0.00 0.00 0.00 0.02 0.07 0.10 0.11 0.17 0.18 0.11 0.09 0.04 0.08 0.02 0.01 0.00 0.00 0.00 0.00 0.00 0.00 0.00 0.00 0.00 0.00 0.00 0.00 0.00 0.00 0.00 0.00 0.00 0.00 0.00 0.00 0.00
0.16 0.29 0.36 0.29 0.27 0.24 0.05 0.02 0.01 0.04 0.05 0.00 0.00 0.00 0.00 0.00 0.00 0.00 0.01 0.11 0.09 0.08 0.08 0.09 0.06 0.07 0.02 0.03 0.00 0.01 0.01 0.00 0.01 0.00 0.00 0.00 0.00 0.00 0.00 0.00 0.00 0.00 0.00 0.00 0.00 0.00 0.00 0.00 0.01
0.03 0.02 0.10 0.19 0.16 0.10 0.05 0.01 0.01 0.01 0.04 0.00 0.00 0.00 0.00 0.00 0.00 0.00 0.00 0.01 0.08 0.08 0.05 0.09 0.03 0.03 0.04 0.02 0.01 0.01 0.01 0.01 0.00 0.00 0.01 0.02 0.02 0.02 0.01 0.00 0.00 0.01 0.00 0.00 0.01 0.02 0.03 0.01 0.01
0.00 0.00 0.01 0.05 0.14 0.13 0.04 0.02 0.00 0.01 0.03 0.03 0.00 0.00 0.00 0.00 0.00 0.00 0.00 0.00 0.01 0.07 0.15 0.12 0.09 0.03 0.00 0.00 0.00 0.00 0.00 0.02 0.03 0.03 0.06 0.08 0.09 0.09 0.06 0.03 0.01 0.01 0.01 0.01 0.03 0.05 0.13 0.14 0.19
0.01 0.00 0.03 0.07 0.12 0.13 0.07 0.02 0.00 0.00 0.00 0.01 0.00 0.00 0.00 0.00 0.00 0.00 0.00 0.00 0.00 0.05 0.12 0.10 0.12 0.07 0.01 0.00 0.00 0.00 0.00 0.01 0.00 0.01 0.01 0.01 0.02 0.04 0.06 0.05 0.04 0.05 0.04 0.04 0.06 0.12 0.15 0.11 0.17
0.01 0.00 0.05 0.06 0.13 0.10 0.04 0.02 0.00 0.00 0.00 0.00 0.00 0.00 0.00 0.00 0.00 0.00 0.00 0.00 0.00 0.00 0.03 0.07 0.09 0.05 0.07 0.00 0.01 0.02 0.03 0.03 0.04 0.04 0.00 0.00 0.01 0.02 0.03 0.03 0.01 0.01 0.03 0.03 0.06 0.10 0.15 0.16 0.13
0.00 0.00 0.02 0.09 0.06 0.03 0.01 0.00 0.00 0.00 0.00 0.00 0.00 0.00 0.00 0.00 0.00 0.00 0.00 0.00 0.00 0.00 0.00 0.02 0.16 0.18 0.08 0.06 0.09 0.21 0.19 0.12 0.08 0.04 0.00 0.00 0.00 0.00 0.00 0.00 0.00 0.01 0.01 0.01 0.01 0.03 0.07 0.09 0.07
0.02 0.00 0.04 0.08 0.02 0.01 0.00 0.00 0.00 0.00 0.00 0.00 0.00 0.00 0.00 0.00 0.00 0.00 0.00 0.00 0.00 0.00 0.00 0.00 0.06 0.11 0.19 0.24 0.24 0.18 0.13 0.09 0.05 0.03 0.01 0.01 0.00 0.00 0.00 0.00 0.00 0.01 0.02 0.02 0.02 0.02 0.04 0.06 0.11
0.01 0.00 0.08 0.04 0.01 0.00 0.00 0.00 0.00 0.00 0.00 0.00 0.00 0.00 0.00 0.00 0.00 0.00 0.00 0.00 0.00 0.00 0.00 0.00 0.00 0.01 0.05 0.07 0.09 0.10 0.08 0.05 0.04 0.03 0.02 0.00 0.00 0.00 0.00 0.00 0.00 0.01 0.03 0.04 0.04 0.05 0.07 0.08 0.10
0.00 0.00 0.08 0.06 0.01 0.00 0.00 0.00 0.00 0.00 0.00 0.00 0.00 0.00 0.00 0.00 0.00 0.00 0.00 0.00 0.00 0.00 0.00 0.00 0.00 0.00 0.01 0.03 0.03 0.03 0.01 0.02 0.02 0.01 0.00 0.00 0.00 0.00 0.00 0.00 0.00 0.01 0.01 0.01 0.01 0.02 0.04 0.05 0.06
0.00 0.00 0.00 0.01 0.00 0.00 0.00 0.00 0.00 0.00 0.00 0.00 0.00 0.00 0.00 0.00 0.00 0.00 0.00 0.00 0.00 0.00 0.00 0.00 0.00 0.00 0.00 0.00 0.00 0.00 0.00 0.00 0.00 0.00 0.00 0.00 0.00 0.00 0.00 0.00 0.00 0.00 0.00 0.00 0.00 0.01 0.01 0.02 0.03
0.01 0.01 0.00 0.00 0.00 0.00 0.00 0.00 0.00 0.00 0.00 0.00 0.00 0.00 0.00 0.00 0.00 0.00 0.00 0.00 0.00 0.00 0.00 0.00 0.00 0.00 0.00 0.00 0.00 0.00 0.00 0.00 0.00 0.00 0.00 0.00 0.00 0.00 0.00 0.00 0.00 0.00 0.00 0.00 0.00 0.00 0.00 0.00 0.01
0.00 0.00 0.01 0.00 0.00 0.00 0.00 0.00 0.00 0.00 0.00 0.00 0.00 0.00 0.00 0.00 0.00 0.00 0.00 0.00 0.00 0.00 0.00 0.00 0.00 0.00 0.00 0.00 0.00 0.00 0.00 0.00 0.00 0.00 0.00 0.00 0.00 0.00 0.00 0.00 0.00 0.00 0.00 0.00 0.00 0.00 0.00 0.00 0.00
0.00 0.01 0.01 0.01 0.00 0.00 0.00 0.00 0.00 0.00 0.00 0.00 0.00 0.00 0.00 0.00 0.00 0.00 0.00 0.00 0.00 0.00 0.00 0.00 0.00 0.00 0.00 0.00 0.00 0.00 0.00 0.00 0.00 0.00 0.00 0.00 0.00 0.00 0.00 0.00 0.00 0.00 0.00 0.00 0.00 0.00 0.00 0.00 0.00
0.01 0.00 0.00 0.01 0.01 0.00 0.00 0.00 0.00 0.00 0.00 0.00 0.00 0.00 0.00 0.00 0.00 0.00 0.00 0.00 0.00 0.00 0.00 0.00 0.00 0.00 0.00 0.00 0.00 0.00 0.00 0.00 0.00 0.00 0.00 0.00 0.00 0.00 0.00 0.00 0.00 0.00 0.00 0.00 0.00 0.00 0.00 0.00 0.00

GFSSGP_prec_precacc24_066.txt.gz
Total_Precipitation_Accumulation
0.00 0.00 0.00 0.00 0.00 0.00 0.00 0.00 0.00 0.01 0.00 0.00 0.00 0.00 0.03 0.01 0.00 0.01 0.00 0.00 0.00 0.00 0.00 0.01 0.02 0.03 0.05 0.05 0.04 0.03 0.04 0.05 0.02 0.01 0.02 0.02 0.01 0.01 0.01 0.01 0.02 0.01 0.01 0.01 0.01 0.00 0.00 0.00 0.00
0.00 0.01 0.00 0.00 0.00 0.00 0.00 0.00 0.00 0.02 0.01 0.00 0.00 0.02 0.07 0.02 0.00 0.00 0.00 0.00 0.00 0.00 0.00 0.01 0.02 0.04 0.04 0.02 0.01 0.02 0.03 0.01 0.00 0.01 0.02 0.02 0.01 0.01 0.01 0.02 0.01 0.00 0.01 0.00 0.00 0.00 0.00 0.00 0.00
0.05 0.12 0.01 0.00 0.00 0.00 0.00 0.00 0.00 0.00 0.00 0.00 0.00 0.02 0.15 0.05 0.01 0.00 0.00 0.00 0.00 0.00 0.00 0.02 0.03 0.05 0.02 0.00 0.00 0.01 0.02 0.00 0.00 0.01 0.02 0.02 0.02 0.04 0.04 0.02 0.00 0.00 0.00 0.00 0.00 0.00 0.00 0.00 0.00
0.14 0.21 0.05 0.00 0.00 0.00 0.00 0.00 0.00 0.00 0.01 0.00 0.00 0.03 0.20 0.28 0.05 0.04 0.00 0.00 0.00 0.00 0.00 0.02 0.05 0.03 0.01 0.01 0.01 0.02 0.00 0.00 0.00 0.01 0.02 0.04 0.05 0.05 0.03 0.00 0.00 0.00 0.00 0.00 0.00 0.00 0.00 0.00 0.00
0.30 0.14 0.02 0.00 0.00 0.00 0.00 0.00 0.00 0.00 0.00 0.00 0.00 0.06 0.28 0.28 0.07 0.06 0.01 0.00 0.00 0.00 0.00 0.03 0.06 0.03 0.01 0.01 0.03 0.00 0.00 0.00 0.01 0.01 0.03 0.05 0.06 0.04 0.01 0.00 0.00 0.00 0.00 0.00 0.00 0.00 0.00 0.00 0.00
0.34 0.14 0.02 0.00 0.00 0.00 0.00 0.00 0.00 0.00 0.00 0.00 0.00 0.07 0.37 0.43 0.19 0.10 0.01 0.00 0.00 0.00 0.01 0.02 0.05 0.02 0.01 0.03 0.02 0.00 0.00 0.00 0.01 0.02 0.05 0.07 0.04 0.02 0.00 0.00 0.00 0.00 0.00 0.00 0.00 0.00 0.00 0.00 0.00
0.26 0.09 0.02 0.00 0.00 0.00 0.00 0.00 0.00 0.00 0.00 0.00 0.00 0.02 0.23 0.38 0.33 0.12 0.07 0.07 0.00 0.00 0.01 0.02 0.02 0.01 0.01 0.04 0.01 0.00 0.00 0.00 0.01 0.01 0.03 0.02 0.00 0.01 0.01 0.00 0.00 0.00 0.00 0.00 0.00 0.00 0.00 0.00 0.00
0.26 0.15 0.01 0.00 0.00 0.00 0.00 0.00 0.00 0.00 0.00 0.00 0.01 0.08 0.13 0.13 0.17 0.14 0.24 0.21 0.06 0.01 0.01 0.01 0.02 0.00 0.01 0.04 0.03 0.01 0.01 0.00 0.00 0.00 0.00 0.00 0.00 0.00 0.00 0.00 0.00 0.00 0.00 0.00 0.00 0.00 0.00 0.00 0.00
0.49 0.47 0.06 0.00 0.01 0.00 0.00 0.00 0.00 0.00 0.00 0.00 0.00 0.06 0.07 0.04 0.16 0.21 0.31 0.32 0.13 0.04 0.02 0.02 0.01 0.00 0.01 0.03 0.01 0.02 0.00 0.00 0.00 0.00 0.00 0.00 0.00 0.00 0.00 0.00 0.00 0.00 0.00 0.00 0.00 0.00 0.00 0.00 0.00
0.91 1.00 0.14 0.01 0.02 0.01 0.00 0.00 0.00 0.00 0.00 0.03 0.05 0.04 0.03 0.17 0.19 0.36 0.52 0.36 0.32 0.08 0.05 0.03 0.02 0.00 0.01 0.02 0.00 0.01 0.00 0.00 0.00 0.00 0.00 0.00 0.00 0.00 0.00 0.00 0.00 0.00 0.00 0.00 0.00 0.00 0.00 0.00 0.00
0.98 0.63 0.11 0.07 0.07 0.05 0.00 0.00 0.00 0.00 0.02 0.01 0.03 0.07 0.12 0.27 0.26 0.22 0.39 0.53 0.47 0.44 0.15 0.03 0.02 0.01 0.02 0.02 0.00 0.00 0.00 0.00 0.00 0.00 0.00 0.00 0.00 0.00 0.00 0.00 0.00 0.00 0.00 0.00 0.00 0.00 0.00 0.00 0.00
0.57 0.31 0.18 0.14 0.10 0.04 0.01 0.02 0.00 0.01 0.00 0.00 0.02 0.09 0.13 0.23 0.21 0.33 0.25 0.32 0.53 0.46 0.27 0.10 0.02 0.03 0.02 0.01 0.00 0.00 0.00 0.00 0.00 0.00 0.00 0.00 0.00 0.00 0.00 0.00 0.00 0.00 0.00 0.00 0.00 0.00 0.00 0.00 0.00
0.39 0.35 0.32 0.36 0.24 0.12 0.03 0.06 0.01 0.00 0.00 0.00 0.01 0.03 0.08 0.14 0.18 0.35 0.34 0.25 0.28 0.44 0.37 0.19 0.08 0.02 0.01 0.01 0.02 0.01 0.00 0.00 0.00 0.00 0.00 0.00 0.00 0.00 0.00 0.00 0.00 0.00 0.00 0.00 0.00 0.00 0.00 0.00 0.00
0.40 0.44 0.43 0.49 0.39 0.24 0.07 0.04 0.12 0.01 0.00 0.00 0.01 0.02 0.12 0.20 0.17 0.21 0.22 0.19 0.33 0.31 0.30 0.23 0.12 0.07 0.02 0.02 0.02 0.00 0.00 0.00 0.00 0.00 0.00 0.00 0.00 0.00 0.00 0.00 0.00 0.00 0.00 0.00 0.00 0.00 0.00 0.00 0.00
0.39 0.45 0.73 0.68 0.48 0.40 0.18 0.17 0.21 0.01 0.00 0.00 0.03 0.04 0.03 0.12 0.13 0.09 0.26 0.35 0.27 0.29 0.31 0.20 0.13 0.15 0.10 0.03 0.01 0.00 0.00 0.00 0.00 0.00 0.00 0.00 0.00 0.00 0.00 0.00 0.00 0.00 0.00 0.00 0.00 0.00 0.00 0.00 0.00
0.35 0.78 0.80 0.67 0.67 0.47 0.34 0.15 0.03 0.03 0.00 0.00 0.00 0.00 0.00 0.00 0.06 0.11 0.13 0.16 0.27 0.30 0.20 0.14 0.06 0.09 0.06 0.03 0.01 0.01 0.01 0.00 0.00 0.00 0.00 0.00 0.00 0.00 0.00 0.00 0.00 0.00 0.00 0.00 0.00 0.00 0.00 0.00 0.00
0.31 0.50 0.56 0.59 0.44 0.52 0.36 0.10 0.01 0.04 0.05 0.00 0.00 0.00 0.00 0.00 0.00 0.00 0.02 0.14 0.11 0.13 0.18 0.15 0.14 0.13 0.04 0.03 0.01 0.02 0.03 0.01 0.01 0.01 0.00 0.00 0.00 0.00 0.00 0.00 0.00 0.00 0.00 0.00 0.00 0.00 0.00 0.00 0.01
0.08 0.12 0.24 0.37 0.30 0.35 0.24 0.12 0.02 0.02 0.04 0.00 0.00 0.00 0.00 0.00 0.00 0.00 0.00 0.02 0.13 0.14 0.18 0.27 0.11 0.07 0.08 0.04 0.01 0.02 0.02 0.03 0.01 0.01 0.00 0.00 0.01 0.00 0.00 0.00 0.00 0.00 0.00 0.00 0.01 0.02 0.02 0.01 0.01
0.00 0.01 0.04 0.10 0.21 0.24 0.16 0.05 0.02 0.01 0.03 0.03 0.00 0.00 0.00 0.00 0.00 0.00 0.00 0.00 0.03 0.13 0.26 0.25 0.21 0.10 0.02 0.00 0.00 0.00 0.00 0.00 0.00 0.00 0.01 0.03 0.04 0.04 0.01 0.00 0.00 0.01 0.01 0.01 0.02 0.04 0.07 0.09 0.14
0.02 0.01 0.03 0.09 0.13 0.18 0.15 0.03 0.00 0.00 0.00 0.01 0.00 0.00 0.00 0.00 0.00 0.00 0.00 0.00 0.00 0.08 0.15 0.18 0.18 0.20 0.02 0.00 0.00 0.00 0.00 0.01 0.00 0.00 0.00 0.01 0.01 0.03 0.03 0.03 0.03 0.02 0.01 0.01 0.03 0.04 0.05 0.05 0.12
0.02 0.00 0.05 0.06 0.13 0.12 0.09 0.07 0.00 0.00 0.00 0.00 0.00 0.00 0.00 0.00 0.00 0.00 0.00 0.00 0.00 0.00 0.03 0.07 0.09 0.07 0.12 0.09 0.15 0.05 0.04 0.03 0.04 0.04 0.00 0.01 0.02 0.02 0.02 0.02 0.01 0.00 0.02 0.01 0.02 0.04 0.06 0.09 0.07
0.00 0.00 0.03 0.10 0.09 0.08 0.03 0.00 0.00 0.00 0.00 0.00 0.00 0.00 0.00 0.00 0.00 0.00 0.00 0.00 0.00 0.00 0.00 0.03 0.20 0.23 0.21 0.18 0.32 0.44 0.43 0.35 0.27 0.20 0.06 0.02 0.03 0.03 0.02 0.00 0.00 0.00 0.00 0.00 0.00 0.00 0.01 0.03 0.02
0.02 0.00 0.07 0.11 0.07 0.04 0.03 0.00 0.00 0.00 0.00 0.00 0.00 0.00 0.00 0.00 0.00 0.00 0.00 0.00 0.00 0.00 0.00 0.02 0.16 0.19 0.25 0.34 0.37 0.37 0.25 0.18 0.18 0.17 0.21 0.21 0.19 0.14 0.09 0.05 0.01 0.00 0.00 0.00 0.00 0.00 0.00 0.01 0.04
0.01 0.00 0.11 0.08 0.05 0.03 0.00 0.00 0.00 0.00 0.00 0.00 0.00 0.00 0.00 0.00 0.00 0.00 0.00 0.00 0.00 0.00 0.00 0.00 0.05 0.08 0.10 0.14 0.18 0.23 0.19 0.16 0.13 0.14 0.14 0.11 0.07 0.05 0.04 0.02 0.00 0.00 0.00 0.01 0.01 0.01 0.02 0.03 0.04
0.00 0.00 0.22 0.19 0.12 0.01 0.00 0.00 0.00 0.00 0.00 0.00 0.00 0.00 0.00 0.00 0.00 0.00 0.00 0.00 0.00 0.00 0.00 0.00 0.00 0.02 0.04 0.12 0.10 0.11 0.09 0.06 0.07 0.06 0.04 0.02 0.01 0.01 0.00 0.00 0.00 0.00 0.00 0.00 0.00 0.01 0.02 0.02 0.03
0.00 0.00 0.05 0.05 0.01 0.00 0.00 0.00 0.00 0.00 0.00 0.00 0.00 0.00 0.00 0.00 0.00 0.00 0.00 0.00 0.00 0.00 0.00 0.00 0.00 0.00 0.00 0.02 0.03 0.12 0.10 0.05 0.03 0.03 0.01 0.01 0.00 0.00 0.00 0.00 0.00 0.00 0.00 0.00 0.00 0.01 0.01 0.01 0.02
0.01 0.01 0.00 0.00 0.00 0.00 0.00 0.00 0.00 0.00 0.00 0.00 0.00 0.00 0.00 0.00 0.00 0.00 0.00 0.00 0.00 0.00 0.00 0.00 0.00 0.00 0.00 0.00 0.00 0.00 0.02 0.03 0.01 0.00 0.00 0.00 0.00 0.00 0.00 0.00 0.00 0.00 0.00 0.00 0.00 0.00 0.00 0.00 0.01
0.00 0.00 0.00 0.00 0.00 0.00 0.00 0.00 0.00 0.00 0.00 0.00 0.00 0.00 0.00 0.00 0.00 0.00 0.00 0.00 0.00 0.00 0.00 0.00 0.00 0.00 0.00 0.00 0.00 0.00 0.00 0.00 0.00 0.00 0.00 0.00 0.00 0.00 0.00 0.00 0.00 0.00 0.00 0.00 0.00 0.00 0.00 0.00 0.00
0.00 0.00 0.00 0.00 0.00 0.00 0.00 0.00 0.00 0.00 0.00 0.00 0.00 0.00 0.00 0.00 0.00 0.00 0.00 0.00 0.00 0.00 0.00 0.00 0.00 0.00 0.00 0.00 0.00 0.00 0.00 0.00 0.00 0.00 0.00 0.00 0.00 0.00 0.00 0.00 0.00 0.00 0.00 0.00 0.00 0.00 0.00 0.00 0.00
0.00 0.00 0.00 0.00 0.00 0.00 0.00 0.00 0.00 0.00 0.00 0.00 0.00 0.00 0.00 0.00 0.00 0.00 0.00 0.00 0.00 0.00 0.00 0.00 0.00 0.00 0.00 0.00 0.00 0.00 0.00 0.00 0.00 0.00 0.00 0.00 0.00 0.00 0.00 0.00 0.00 0.00 0.00 0.00 0.00 0.00 0.00 0.00 0.00

GFSSGP_prec_precacc24_069.txt.gz
Total_Precipitation_Accumulation
0.01 0.01 0.00 0.01 0.00 0.01 0.00 0.00 0.00 0.01 0.01 0.00 0.00 0.00 0.03 0.01 0.00 0.01 0.00 0.00 0.00 0.00 0.01 0.01 0.03 0.04 0.05 0.04 0.03 0.02 0.04 0.05 0.01 0.01 0.02 0.02 0.01 0.02 0.01 0.01 0.00 0.01 0.01 0.01 0.01 0.00 0.00 0.00 0.00
0.03 0.04 0.03 0.06 0.01 0.00 0.00 0.00 0.00 0.04 0.02 0.00 0.00 0.03 0.08 0.02 0.00 0.01 0.01 0.00 0.00 0.00 0.01 0.01 0.03 0.04 0.04 0.02 0.01 0.01 0.02 0.01 0.00 0.01 0.02 0.02 0.01 0.01 0.01 0.01 0.00 0.00 0.01 0.00 0.00 0.00 0.00 0.00 0.00
0.12 0.24 0.09 0.05 0.01 0.00 0.00 0.00 0.00 0.00 0.00 0.00 0.00 0.05 0.18 0.07 0.02 0.00 0.00 0.01 0.00 0.00 0.01 0.02 0.03 0.05 0.02 0.00 0.00 0.01 0.01 0.00 0.00 0.01 0.02 0.02 0.02 0.02 0.02 0.01 0.00 0.00 0.00 0.00 0.00 0.00 0.00 0.00 0.00
0.37 0.35 0.16 0.01 0.00 0.00 0.00 0.00 0.00 0.01 0.05 0.03 0.00 0.08 0.30 0.32 0.06 0.04 0.00 0.00 0.00 0.01 0.02 0.03 0.05 0.03 0.01 0.01 0.01 0.02 0.00 0.00 0.00 0.01 0.02 0.04 0.04 0.04 0.02 0.00 0.00 0.00 0.00 0.00 0.00 0.00 0.00 0.00 0.00
0.59 0.26 0.10 0.03 0.00 0.00 0.00 0.00 0.00 0.01 0.03 0.04 0.00 0.08 0.42 0.37 0.09 0.06 0.01 0.00 0.00 0.01 0.03 0.03 0.06 0.03 0.01 0.01 0.03 0.01 0.01 0.01 0.01 0.01 0.03 0.05 0.05 0.03 0.01 0.00 0.00 0.00 0.00 0.00 0.00 0.00 0.00 0.00 0.00
0.56 0.24 0.16 0.09 0.00 0.00 0.00 0.00 0.00 0.00 0.01 0.03 0.01 0.07 0.43 0.60 0.34 0.13 0.02 0.00 0.00 0.01 0.04 0.04 0.06 0.02 0.01 0.03 0.02 0.00 0.01 0.02 0.01 0.02 0.05 0.07 0.04 0.02 0.00 0.00 0.00 0.00 0.00 0.00 0.00 0.00 0.00 0.00 0.00
0.43 0.25 0.18 0.04 0.00 0.00 0.00 0.00 0.00 0.00 0.00 0.01 0.01 0.02 0.26 0.92 0.56 0.30 0.20 0.11 0.00 0.01 0.03 0.04 0.04 0.01 0.01 0.04 0.01 0.00 0.01 0.02 0.02 0.01 0.03 0.02 0.00 0.01 0.01 0.00 0.00 0.00 0.00 0.00 0.00 0.00 0.00 0.00 0.00
0.36 0.33 0.14 0.01 0.00 0.00 0.00 0.00 0.00 0.00 0.00 0.00 0.01 0.08 0.14 0.53 0.68 0.44 0.46 0.37 0.08 0.02 0.01 0.02 0.02 0.01 0.01 0.04 0.02 0.01 0.00 0.01 0.01 0.00 0.00 0.00 0.00 0.00 0.00 0.00 0.00 0.00 0.00 0.00 0.00 0.00 0.00 0.00 0.00
0.56 0.64 0.22 0.02 0.00 0.00 0.00 0.00 0.00 0.01 0.00 0.00 0.00 0.06 0.07 0.06 0.32 0.56 0.59 0.55 0.19 0.07 0.03 0.02 0.02 0.00 0.01 0.03 0.01 0.01 0.00 0.00 0.00 0.00 0.00 0.00 0.00 0.00 0.00 0.00 0.00 0.00 0.00 0.00 0.00 0.00 0.00 0.00 0.00
0.89 1.06 0.24 0.03 0.02 0.01 0.00 0.00 0.00 0.00 0.01 0.07 0.06 0.05 0.03 0.17 0.26 0.47 0.81 0.67 0.53 0.11 0.05 0.03 0.02 0.00 0.01 0.02 0.00 0.01 0.00 0.00 0.00 0.00 0.00 0.00 0.00 0.00 0.00 0.00 0.00 0.00 0.00 0.00 0.00 0.00 0.00 0.00 0.00
1.09 0.73 0.13 0.08 0.07 0.01 0.00 0.00 0.00 0.00 0.04 0.02 0.05 0.07 0.09 0.24 0.26 0.27 0.56 0.76 0.80 0.75 0.19 0.04 0.02 0.01 0.02 0.02 0.00 0.00 0.00 0.00 0.00 0.00 0.00 0.00 0.00 0.00 0.00 0.00 0.00 0.00 0.00 0.00 0.00 0.00 0.00 0.00 0.00
0.86 0.40 0.22 0.16 0.13 0.05 0.01 0.00 0.00 0.01 0.00 0.00 0.07 0.07 0.10 0.22 0.20 0.33 0.28 0.41 0.67 0.84 0.60 0.29 0.04 0.03 0.02 0.01 0.00 0.00 0.00 0.00 0.00 0.00 0.00 0.00 0.00 0.00 0.00 0.00 0.00 0.00 0.00 0.00 0.00 0.00 0.00 0.00 0.00
0.61 0.50 0.37 0.38 0.26 0.14 0.02 0.01 0.00 0.00 0.00 0.00 0.00 0.06 0.11 0.17 0.19 0.36 0.34 0.27 0.32 0.66 0.75 0.55 0.35 0.08 0.03 0.01 0.02 0.01 0.00 0.00 0.00 0.00 0.00 0.00 0.00 0.00 0.00 0.00 0.00 0.00 0.00 0.00 0.00 0.00 0.00 0.00 0.00
0.59 0.68 0.47 0.54 0.42 0.27 0.08 0.02 0.02 0.00 0.00 0.00 0.01 0.08 0.20 0.21 0.18 0.20 0.22 0.20 0.33 0.32 0.38 0.54 0.47 0.37 0.13 0.05 0.09 0.06 0.01 0.00 0.00 0.00 0.00 0.00 0.00 0.00 0.00 0.00 0.00 0.00 0.00 0.00 0.00 0.00 0.00 0.00 0.00
0.63 0.70 0.86 0.74 0.53 0.43 0.20 0.11 0.06 0.00 0.00 0.00 0.00 0.02 0.15 0.18 0.19 0.14 0.27 0.36 0.27 0.29 0.34 0.28 0.35 0.42 0.34 0.24 0.20 0.12 0.06 0.01 0.00 0.00 0.00 0.00 0.00 0.00 0.00 0.00 0.00 0.00 0.00 0.00 0.00 0.00 0.00 0.00 0.00
0.58 1.10 0.92 0.75 0.92 0.70 0.36 0.14 0.01 0.02 0.00 0.00 0.00 0.01 0.08 0.11 0.20 0.20 0.18 0.22 0.34 0.35 0.23 0.17 0.09 0.17 0.18 0.28 0.22 0.15 0.08 0.01 0.00 0.00 0.00 0.00 0.00 0.00 0.00 0.00 0.00 0.00 0.00 0.00 0.00 0.00 0.00 0.00 0.00
0.46 0.91 0.64 0.66 0.64 1.01 0.52 0.12 0.01 0.04 0.05 0.00 0.00 0.00 0.00 0.02 0.02 0.03 0.14 0.24 0.17 0.18 0.27 0.26 0.16 0.19 0.12 0.18 0.14 0.11 0.13 0.04 0.01 0.01 0.00 0.00 0.00 0.00 0.00 0.00 0.00 0.00 0.00 0.00 0.00 0.00 0.00 0.00 0.01
0.11 0.33 0.29 0.41 0.42 0.57 0.50 0.22 0.02 0.01 0.04 0.00 0.00 0.00 0.00 0.00 0.01 0.01 0.04 0.15 0.19 0.16 0.25 0.33 0.16 0.17 0.21 0.22 0.19 0.14 0.08 0.08 0.05 0.01 0.03 0.02 0.00 0.00 0.00 0.00 0.00 0.00 0.00 0.00 0.01 0.02 0.02 0.01 0.01
0.01 0.07 0.13 0.17 0.34 0.33 0.36 0.22 0.14 0.01 0.03 0.03 0.00 0.00 0.00 0.00 0.00 0.00 0.01 0.05 0.14 0.18 0.40 0.32 0.31 0.23 0.16 0.16 0.12 0.08 0.07 0.04 0.03 0.04 0.02 0.01 0.00 0.00 0.00 0.00 0.00 0.00 0.01 0.00 0.01 0.01 0.01 0.02 0.06
0.03 0.03 0.22 0.29 0.25 0.29 0.26 0.14 0.15 0.09 0.01 0.01 0.00 0.00 0.00 0.00 0.00 0.00 0.00 0.00 0.01 0.13 0.25 0.19 0.20 0.23 0.04 0.03 0.03 0.04 0.10 0.08 0.01 0.01 0.00 0.01 0.00 0.01 0.01 0.01 0.01 0.01 0.01 0.01 0.01 0.02 0.03 0.02 0.03
0.03 0.01 0.11 0.16 0.21 0.20 0.16 0.09 0.07 0.12 0.02 0.00 0.00 0.00 0.00 0.00 0.00 0.00 0.00 0.00 0.00 0.02 0.08 0.12 0.10 0.07 0.12 0.10 0.21 0.14 0.16 0.07 0.06 0.05 0.00 0.01 0.02 0.04 0.04 0.03 0.03 0.03 0.04 0.02 0.02 0.03 0.05 0.06 0.02
0.00 0.00 0.03 0.11 0.11 0.11 0.06 0.02 0.00 0.01 0.00 0.00 0.00 0.00 0.00 0.00 0.00 0.00 0.00 0.00 0.00 0.00 0.01 0.07 0.30 0.37 0.38 0.40 0.56 0.62 0.65 0.54 0.39 0.34 0.19 0.13 0.15 0.19 0.18 0.14 0.11 0.08 0.04 0.01 0.00 0.00 0.00 0.01 0.01
0.03 0.00 0.11 0.12 0.08 0.05 0.04 0.00 0.00 0.00 0.00 0.00 0.00 0.00 0.00 0.00 0.00 0.00 0.00 0.00 0.00 0.00 0.00 0.04 0.20 0.26 0.31 0.40 0.48 0.57 0.49 0.40 0.29 0.24 0.30 0.32 0.35 0.33 0.29 0.26 0.13 0.07 0.03 0.02 0.01 0.00 0.00 0.00 0.01
0.01 0.01 0.21 0.11 0.11 0.06 0.00 0.00 0.00 0.00 0.00 0.00 0.00 0.00 0.00 0.00 0.00 0.00 0.00 0.00 0.00 0.00 0.00 0.00 0.05 0.08 0.11 0.16 0.22 0.31 0.25 0.28 0.25 0.23 0.23 0.20 0.17 0.13 0.10 0.06 0.02 0.00 0.00 0.00 0.00 0.00 0.00 0.01 0.03
0.00 0.00 0.29 0.24 0.23 0.07 0.00 0.00 0.00 0.00 0.00 0.00 0.00 0.00 0.00 0.00 0.00 0.00 0.00 0.00 0.00 0.00 0.00 0.00 0.00 0.02 0.05 0.17 0.19 0.25 0.17 0.14 0.16 0.16 0.15 0.10 0.08 0.05 0.02 0.01 0.00 0.00 0.00 0.00 0.00 0.01 0.02 0.02 0.03
0.01 0.00 0.05 0.05 0.04 0.01 0.00 0.00 0.00 0.00 0.00 0.00 0.00 0.00 0.00 0.00 0.00 0.00 0.00 0.00 0.00 0.00 0.00 0.00 0.00 0.00 0.00 0.05 0.10 0.17 0.21 0.16 0.14 0.14 0.10 0.07 0.04 0.02 0.02 0.01 0.00 0.00 0.00 0.00 0.00 0.01 0.01 0.01 0.02
0.02 0.01 0.00 0.00 0.00 0.00 0.00 0.00 0.00 0.00 0.00 0.00 0.00 0.00 0.00 0.00 0.00 0.00 0.00 0.00 0.00 0.00 0.00 0.00 0.00 0.00 0.00 0.00 0.00 0.01 0.04 0.09 0.09 0.07 0.04 0.03 0.03 0.02 0.00 0.00 0.00 0.00 0.00 0.00 0.00 0.00 0.00 0.00 0.01
0.00 0.00 0.00 0.00 0.00 0.00 0.00 0.00 0.00 0.00 0.00 0.00 0.00 0.00 0.00 0.00 0.00 0.00 0.00 0.00 0.00 0.00 0.00 0.00 0.00 0.00 0.00 0.00 0.00 0.00 0.00 0.00 0.01 0.01 0.01 0.00 0.00 0.00 0.00 0.00 0.00 0.00 0.00 0.00 0.00 0.00 0.00 0.00 0.00
0.00 0.00 0.00 0.00 0.00 0.00 0.00 0.00 0.00 0.00 0.00 0.00 0.00 0.00 0.00 0.00 0.00 0.00 0.00 0.00 0.00 0.00 0.00 0.00 0.00 0.00 0.00 0.00 0.00 0.00 0.00 0.00 0.00 0.00 0.00 0.00 0.00 0.00 0.00 0.00 0.00 0.00 0.00 0.00 0.00 0.00 0.00 0.00 0.00
0.00 0.00 0.00 0.00 0.00 0.00 0.00 0.00 0.00 0.00 0.00 0.00 0.00 0.00 0.00 0.00 0.00 0.00 0.00 0.00 0.00 0.00 0.00 0.00 0.00 0.00 0.00 0.00 0.00 0.00 0.00 0.00 0.00 0.00 0.00 0.00 0.00 0.00 0.00 0.00 0.00 0.00 0.00 0.00 0.00 0.00 0.00 0.00 0.00

GFSSGP_prec_precacc24_072.txt.gz
Total_Precipitation_Accumulation
0.08 0.06 0.00 0.02 0.03 0.01 0.00 0.00 0.00 0.02 0.02 0.00 0.00 0.01 0.03 0.01 0.00 0.01 0.00 0.00 0.00 0.00 0.00 0.01 0.04 0.05 0.07 0.04 0.03 0.03 0.04 0.04 0.01 0.01 0.03 0.05 0.06 0.04 0.01 0.00 0.00 0.01 0.01 0.01 0.01 0.00 0.00 0.00 0.00
0.10 0.18 0.11 0.12 0.04 0.00 0.00 0.00 0.00 0.04 0.05 0.00 0.00 0.06 0.09 0.03 0.00 0.02 0.02 0.01 0.00 0.00 0.01 0.01 0.04 0.04 0.04 0.02 0.01 0.02 0.01 0.00 0.00 0.01 0.02 0.03 0.04 0.01 0.01 0.00 0.00 0.00 0.01 0.00 0.00 0.00 0.00 0.00 0.00
0.24 0.46 0.24 0.09 0.02 0.00 0.00 0.00 0.00 0.00 0.00 0.01 0.00 0.08 0.25 0.10 0.04 0.01 0.01 0.02 0.00 0.00 0.01 0.02 0.05 0.06 0.03 0.00 0.01 0.01 0.01 0.00 0.00 0.01 0.02 0.02 0.03 0.02 0.02 0.00 0.00 0.00 0.00 0.00 0.00 0.00 0.00 0.00 0.00
0.47 0.63 0.34 0.06 0.02 0.00 0.00 0.00 0.00 0.01 0.07 0.13 0.03 0.08 0.37 0.39 0.08 0.05 0.01 0.01 0.00 0.01 0.03 0.04 0.08 0.04 0.02 0.01 0.02 0.01 0.00 0.00 0.00 0.01 0.02 0.04 0.03 0.02 0.01 0.00 0.00 0.00 0.00 0.00 0.00 0.00 0.00 0.00 0.00
0.67 0.43 0.22 0.14 0.01 0.00 0.00 0.00 0.00 0.01 0.03 0.06 0.04 0.09 0.45 0.47 0.17 0.08 0.02 0.00 0.00 0.02 0.05 0.04 0.09 0.04 0.01 0.00 0.02 0.02 0.01 0.01 0.01 0.01 0.03 0.05 0.05 0.02 0.00 0.00 0.00 0.00 0.00 0.00 0.00 0.00 0.00 0.00 0.00
0.64 0.36 0.29 0.24 0.05 0.00 0.00 0.00 0.00 0.00 0.01 0.04 0.16 0.10 0.45 0.74 0.54 0.27 0.04 0.00 0.01 0.02 0.05 0.05 0.09 0.03 0.01 0.02 0.02 0.02 0.02 0.02 0.01 0.02 0.05 0.07 0.03 0.01 0.00 0.00 0.00 0.00 0.00 0.00 0.00 0.00 0.00 0.00 0.00
0.47 0.33 0.28 0.08 0.03 0.00 0.00 0.00 0.00 0.00 0.00 0.01 0.04 0.03 0.28 1.07 0.88 0.56 0.29 0.13 0.02 0.04 0.05 0.06 0.05 0.01 0.01 0.03 0.01 0.02 0.02 0.02 0.02 0.01 0.03 0.02 0.00 0.00 0.00 0.00 0.00 0.00 0.00 0.00 0.00 0.00 0.00 0.00 0.00
0.36 0.41 0.21 0.04 0.00 0.00 0.00 0.00 0.00 0.00 0.00 0.00 0.02 0.12 0.15 0.63 0.99 0.74 0.69 0.46 0.12 0.10 0.05 0.04 0.03 0.01 0.01 0.03 0.02 0.02 0.03 0.02 0.01 0.00 0.00 0.00 0.00 0.00 0.00 0.00 0.00 0.00 0.00 0.00 0.00 0.00 0.00 0.00 0.00
0.54 0.68 0.27 0.04 0.00 0.00 0.00 0.00 0.00 0.01 0.00 0.00 0.00 0.06 0.08 0.08 0.56 0.94 0.84 0.65 0.24 0.13 0.07 0.04 0.02 0.00 0.01 0.03 0.01 0.01 0.02 0.02 0.00 0.00 0.00 0.00 0.00 0.00 0.00 0.00 0.00 0.00 0.00 0.00 0.00 0.00 0.00 0.00 0.00
0.79 0.95 0.24 0.03 0.02 0.01 0.00 0.00 0.00 0.01 0.01 0.06 0.03 0.01 0.02 0.19 0.35 0.88 1.49 0.85 0.59 0.14 0.07 0.04 0.02 0.00 0.01 0.02 0.00 0.01 0.00 0.01 0.00 0.00 0.00 0.00 0.00 0.00 0.00 0.00 0.00 0.00 0.00 0.00 0.00 0.00 0.00 0.00 0.00
0.88 0.64 0.13 0.08 0.07 0.01 0.00 0.00 0.00 0.03 0.08 0.02 0.04 0.01 0.02 0.17 0.21 0.34 1.12 1.46 1.04 0.86 0.25 0.06 0.03 0.01 0.02 0.02 0.00 0.00 0.00 0.00 0.00 0.00 0.00 0.00 0.00 0.00 0.00 0.00 0.00 0.00 0.00 0.00 0.00 0.00 0.00 0.00 0.00
0.87 0.36 0.22 0.16 0.16 0.09 0.02 0.01 0.00 0.01 0.01 0.00 0.08 0.04 0.01 0.15 0.16 0.33 0.41 1.16 1.09 1.20 0.91 0.39 0.08 0.03 0.02 0.01 0.00 0.00 0.00 0.00 0.00 0.00 0.00 0.00 0.00 0.00 0.00 0.00 0.00 0.00 0.00 0.00 0.00 0.00 0.00 0.00 0.00
0.68 0.51 0.39 0.39 0.30 0.20 0.05 0.02 0.01 0.00 0.00 0.01 0.08 0.08 0.09 0.12 0.12 0.33 0.33 0.34 0.46 0.82 1.01 0.90 0.61 0.22 0.06 0.02 0.02 0.01 0.00 0.00 0.00 0.00 0.00 0.00 0.00 0.00 0.00 0.00 0.00 0.00 0.00 0.00 0.00 0.00 0.00 0.00 0.00
0.63 0.69 0.49 0.66 0.50 0.34 0.14 0.05 0.03 0.02 0.02 0.07 0.16 0.22 0.25 0.15 0.12 0.22 0.22 0.22 0.41 0.41 0.43 0.60 0.57 0.58 0.33 0.20 0.13 0.07 0.01 0.00 0.00 0.00 0.00 0.00 0.00 0.00 0.00 0.00 0.00 0.00 0.00 0.00 0.00 0.00 0.00 0.00 0.00
0.65 0.68 0.86 0.85 0.68 0.55 0.26 0.12 0.06 0.04 0.04 0.05 0.10 0.07 0.22 0.20 0.20 0.15 0.38 0.44 0.30 0.32 0.37 0.28 0.36 0.48 0.46 0.47 0.39 0.23 0.15 0.07 0.01 0.00 0.00 0.00 0.00 0.00 0.00 0.00 0.00 0.00 0.00 0.00 0.00 0.00 0.00 0.00 0.00
0.59 1.10 1.12 0.92 1.18 0.85 0.34 0.17 0.04 0.06 0.07 0.02 0.08 0.13 0.18 0.28 0.34 0.29 0.21 0.24 0.39 0.35 0.23 0.19 0.09 0.18 0.19 0.43 0.51 0.24 0.20 0.21 0.09 0.03 0.00 0.00 0.00 0.00 0.00 0.00 0.00 0.00 0.00 0.00 0.00 0.00 0.00 0.00 0.00
0.47 0.95 0.93 0.85 0.95 1.19 0.59 0.16 0.05 0.04 0.08 0.02 0.03 0.05 0.06 0.08 0.07 0.08 0.16 0.26 0.17 0.18 0.27 0.33 0.32 0.25 0.15 0.25 0.26 0.27 0.28 0.31 0.21 0.16 0.04 0.00 0.00 0.00 0.00 0.00 0.00 0.00 0.00 0.00 0.00 0.00 0.00 0.00 0.01
0.11 0.41 0.61 0.59 0.60 0.69 0.75 0.26 0.04 0.02 0.02 0.02 0.01 0.01 0.04 0.05 0.06 0.07 0.14 0.27 0.28 0.19 0.27 0.37 0.22 0.24 0.23 0.31 0.26 0.24 0.17 0.17 0.11 0.09 0.05 0.03 0.01 0.00 0.00 0.00 0.00 0.00 0.00 0.00 0.01 0.01 0.02 0.01 0.01
0.01 0.08 0.48 0.40 0.43 0.40 0.52 0.40 0.16 0.02 0.01 0.02 0.01 0.00 0.01 0.04 0.06 0.11 0.15 0.19 0.18 0.24 0.50 0.37 0.33 0.26 0.20 0.22 0.15 0.17 0.12 0.13 0.09 0.07 0.04 0.04 0.02 0.02 0.00 0.00 0.00 0.00 0.01 0.00 0.01 0.01 0.01 0.01 0.02
0.04 0.05 0.41 0.52 0.36 0.33 0.34 0.45 0.28 0.11 0.01 0.01 0.01 0.00 0.00 0.00 0.00 0.01 0.03 0.04 0.05 0.22 0.66 0.53 0.40 0.35 0.10 0.03 0.04 0.07 0.16 0.17 0.12 0.11 0.07 0.02 0.02 0.02 0.02 0.01 0.01 0.01 0.01 0.01 0.02 0.02 0.04 0.02 0.02
0.04 0.01 0.16 0.47 0.39 0.26 0.23 0.25 0.33 0.17 0.04 0.00 0.00 0.00 0.00 0.00 0.00 0.00 0.00 0.00 0.01 0.05 0.21 0.25 0.21 0.32 0.49 0.47 0.58 0.45 0.42 0.31 0.26 0.17 0.08 0.03 0.03 0.07 0.09 0.07 0.07 0.06 0.11 0.11 0.08 0.04 0.06 0.05 0.02
0.01 0.00 0.03 0.17 0.14 0.18 0.09 0.08 0.08 0.11 0.08 0.01 0.00 0.00 0.00 0.00 0.00 0.00 0.00 0.00 0.00 0.00 0.02 0.10 0.41 0.56 0.69 0.72 0.98 1.07 1.04 0.90 0.77 0.66 0.41 0.24 0.20 0.22 0.29 0.33 0.35 0.32 0.30 0.17 0.08 0.02 0.00 0.01 0.00
0.04 0.01 0.11 0.12 0.08 0.06 0.05 0.02 0.00 0.01 0.02 0.02 0.00 0.00 0.00 0.00 0.00 0.00 0.00 0.00 0.00 0.00 0.00 0.04 0.21 0.30 0.35 0.44 0.51 0.64 0.59 0.49 0.46 0.44 0.53 0.53 0.52 0.47 0.45 0.46 0.36 0.23 0.10 0.05 0.03 0.02 0.00 0.00 0.01
0.01 0.01 0.22 0.11 0.11 0.07 0.01 0.00 0.00 0.00 0.00 0.00 0.00 0.00 0.00 0.00 0.00 0.00 0.00 0.00 0.00 0.00 0.00 0.00 0.05 0.08 0.15 0.24 0.30 0.37 0.36 0.42 0.37 0.31 0.31 0.29 0.24 0.22 0.22 0.16 0.10 0.04 0.02 0.01 0.00 0.00 0.00 0.00 0.02
0.01 0.02 0.41 0.32 0.33 0.09 0.00 0.00 0.00 0.00 0.00 0.00 0.00 0.00 0.00 0.00 0.00 0.00 0.00 0.00 0.00 0.00 0.00 0.00 0.00 0.02 0.07 0.21 0.24 0.31 0.27 0.21 0.22 0.26 0.26 0.26 0.19 0.16 0.15 0.11 0.05 0.02 0.01 0.01 0.00 0.00 0.00 0.01 0.02
0.01 0.01 0.06 0.06 0.07 0.05 0.01 0.00 0.00 0.00 0.00 0.00 0.00 0.00 0.00 0.00 0.00 0.00 0.00 0.00 0.00 0.00 0.00 0.00 0.00 0.00 0.00 0.06 0.11 0.17 0.21 0.17 0.18 0.23 0.20 0.19 0.18 0.19 0.26 0.30 0.15 0.03 0.00 0.00 0.00 0.01 0.01 0.01 0.02
0.02 0.01 0.00 0.00 0.00 0.01 0.01 0.00 0.00 0.00 0.00 0.00 0.00 0.00 0.00 0.00 0.00 0.00 0.00 0.00 0.00 0.00 0.00 0.00 0.00 0.00 0.00 0.00 0.00 0.01 0.04 0.09 0.10 0.10 0.09 0.10 0.12 0.09 0.07 0.04 0.02 0.00 0.00 0.00 0.00 0.00 0.00 0.00 0.01
0.00 0.00 0.00 0.00 0.00 0.00 0.00 0.00 0.00 0.00 0.00 0.00 0.00 0.00 0.00 0.00 0.00 0.00 0.00 0.00 0.00 0.00 0.00 0.00 0.00 0.00 0.00 0.00 0.00 0.00 0.00 0.00 0.01 0.02 0.03 0.04 0.03 0.01 0.00 0.00 0.00 0.00 0.00 0.00 0.00 0.00 0.00 0.00 0.00
0.00 0.00 0.00 0.00 0.00 0.00 0.00 0.00 0.00 0.00 0.00 0.00 0.00 0.00 0.00 0.00 0.00 0.00 0.00 0.00 0.00 0.00 0.00 0.00 0.00 0.00 0.00 0.00 0.00 0.00 0.00 0.00 0.00 0.00 0.00 0.00 0.00 0.00 0.00 0.00 0.00 0.00 0.00 0.00 0.00 0.00 0.00 0.00 0.00
0.00 0.00 0.00 0.00 0.00 0.00 0.00 0.00 0.00 0.00 0.00 0.00 0.00 0.00 0.00 0.00 0.00 0.00 0.00 0.00 0.00 0.00 0.00 0.00 0.00 0.00 0.00 0.00 0.00 0.00 0.00 0.00 0.00 0.00 0.00 0.00 0.00 0.00 0.00 0.00 0.00 0.00 0.00 0.00 0.00 0.00 0.00 0.00 0.00

GFSSGP_prec_precacc24_075.txt.gz
Total_Precipitation_Accumulation
0.09 0.10 0.04 0.05 0.05 0.02 0.00 0.00 0.00 0.02 0.03 0.01 0.00 0.02 0.03 0.02 0.00 0.01 0.00 0.00 0.00 0.00 0.00 0.02 0.05 0.06 0.07 0.03 0.03 0.03 0.03 0.04 0.02 0.07 0.10 0.11 0.11 0.04 0.01 0.00 0.00 0.01 0.01 0.01 0.01 0.00 0.00 0.00 0.00
0.10 0.22 0.19 0.17 0.06 0.01 0.00 0.00 0.00 0.04 0.05 0.02 0.01 0.07 0.12 0.07 0.01 0.03 0.04 0.02 0.00 0.00 0.01 0.01 0.05 0.05 0.04 0.02 0.01 0.02 0.01 0.00 0.00 0.04 0.08 0.11 0.08 0.01 0.01 0.00 0.00 0.00 0.01 0.00 0.00 0.00 0.00 0.00 0.00
0.24 0.51 0.36 0.16 0.03 0.00 0.00 0.00 0.00 0.00 0.00 0.02 0.03 0.09 0.32 0.13 0.05 0.02 0.03 0.04 0.01 0.00 0.01 0.02 0.07 0.08 0.03 0.00 0.01 0.01 0.00 0.00 0.00 0.03 0.08 0.10 0.05 0.02 0.01 0.00 0.00 0.00 0.00 0.00 0.00 0.00 0.00 0.00 0.00
0.47 0.70 0.43 0.11 0.03 0.00 0.00 0.00 0.00 0.01 0.07 0.14 0.13 0.11 0.39 0.42 0.12 0.08 0.03 0.03 0.01 0.01 0.03 0.04 0.10 0.06 0.01 0.01 0.03 0.01 0.00 0.00 0.00 0.01 0.03 0.06 0.04 0.02 0.00 0.00 0.00 0.00 0.00 0.00 0.00 0.00 0.00 0.00 0.00
0.68 0.48 0.28 0.20 0.03 0.00 0.00 0.00 0.00 0.01 0.03 0.06 0.09 0.21 0.45 0.48 0.26 0.19 0.06 0.02 0.00 0.03 0.06 0.04 0.13 0.05 0.01 0.01 0.02 0.01 0.01 0.01 0.01 0.01 0.03 0.04 0.03 0.01 0.00 0.00 0.00 0.00 0.00 0.00 0.00 0.00 0.00 0.00 0.00
0.65 0.39 0.33 0.31 0.07 0.00 0.00 0.00 0.00 0.00 0.01 0.04 0.17 0.25 0.51 0.77 0.69 0.47 0.19 0.02 0.02 0.03 0.07 0.06 0.13 0.04 0.01 0.02 0.02 0.02 0.02 0.02 0.01 0.02 0.05 0.06 0.02 0.01 0.00 0.00 0.00 0.00 0.00 0.00 0.00 0.00 0.00 0.00 0.00
0.48 0.35 0.30 0.10 0.04 0.00 0.00 0.00 0.00 0.00 0.00 0.01 0.04 0.06 0.33 1.09 1.07 0.85 0.55 0.26 0.04 0.07 0.06 0.07 0.08 0.02 0.01 0.02 0.02 0.02 0.02 0.02 0.02 0.01 0.03 0.02 0.00 0.00 0.00 0.00 0.00 0.00 0.00 0.00 0.00 0.00 0.00 0.00 0.00
0.34 0.44 0.21 0.05 0.02 0.01 0.00 0.00 0.00 0.00 0.00 0.00 0.02 0.12 0.17 0.66 1.11 1.37 1.10 0.67 0.22 0.16 0.10 0.05 0.05 0.01 0.01 0.02 0.02 0.03 0.03 0.02 0.01 0.00 0.00 0.00 0.00 0.00 0.00 0.00 0.00 0.00 0.00 0.00 0.00 0.00 0.00 0.00 0.00
0.47 0.62 0.27 0.04 0.00 0.00 0.00 0.01 0.00 0.01 0.00 0.00 0.00 0.06 0.08 0.09 0.64 1.72 2.03 1.06 0.35 0.22 0.15 0.06 0.03 0.00 0.01 0.03 0.01 0.03 0.03 0.03 0.00 0.00 0.00 0.00 0.00 0.00 0.00 0.00 0.00 0.00 0.00 0.00 0.00 0.00 0.00 0.00 0.00
0.62 0.71 0.20 0.03 0.02 0.01 0.00 0.01 0.01 0.03 0.01 0.07 0.03 0.00 0.02 0.15 0.38 1.27 2.42 1.73 0.74 0.21 0.13 0.09 0.02 0.00 0.01 0.02 0.00 0.01 0.02 0.02 0.00 0.00 0.00 0.00 0.00 0.00 0.00 0.00 0.00 0.00 0.00 0.00 0.00 0.00 0.00 0.00 0.00
0.66 0.48 0.12 0.08 0.07 0.01 0.01 0.02 0.01 0.08 0.10 0.02 0.04 0.01 0.01 0.11 0.16 0.55 1.45 2.11 1.38 1.02 0.30 0.10 0.04 0.01 0.02 0.02 0.00 0.00 0.00 0.01 0.00 0.00 0.00 0.00 0.00 0.00 0.00 0.00 0.00 0.00 0.00 0.00 0.00 0.00 0.00 0.00 0.00
0.83 0.30 0.19 0.15 0.15 0.09 0.02 0.02 0.01 0.04 0.02 0.00 0.08 0.04 0.01 0.14 0.14 0.37 0.59 1.44 1.33 1.48 1.13 0.44 0.09 0.03 0.02 0.01 0.00 0.00 0.00 0.00 0.00 0.00 0.00 0.00 0.00 0.00 0.00 0.00 0.00 0.00 0.00 0.00 0.00 0.00 0.00 0.00 0.00
0.68 0.51 0.34 0.37 0.29 0.21 0.10 0.04 0.02 0.01 0.02 0.03 0.11 0.08 0.09 0.11 0.10 0.28 0.32 0.44 0.74 1.07 1.40 1.20 0.75 0.27 0.06 0.02 0.02 0.01 0.00 0.00 0.00 0.00 0.00 0.00 0.00 0.00 0.00 0.00 0.00 0.00 0.00 0.00 0.00 0.00 0.00 0.00 0.00
0.62 0.69 0.48 0.65 0.47 0.35 0.17 0.08 0.04 0.03 0.06 0.15 0.23 0.28 0.26 0.14 0.11 0.19 0.18 0.19 0.54 0.67 0.56 0.78 0.79 0.76 0.39 0.24 0.13 0.07 0.01 0.00 0.00 0.00 0.00 0.00 0.00 0.00 0.00 0.00 0.00 0.00 0.00 0.00 0.00 0.00 0.00 0.00 0.00
0.63 0.67 0.84 0.81 0.68 0.57 0.31 0.17 0.09 0.05 0.10 0.17 0.21 0.17 0.31 0.26 0.24 0.16 0.31 0.36 0.27 0.44 0.49 0.33 0.38 0.53 0.51 0.54 0.43 0.24 0.16 0.07 0.01 0.00 0.00 0.00 0.00 0.00 0.00 0.00 0.00 0.00 0.00 0.00 0.00 0.00 0.00 0.00 0.00
0.59 1.10 1.15 0.88 1.20 0.93 0.44 0.19 0.06 0.08 0.13 0.11 0.18 0.27 0.38 0.46 0.39 0.37 0.23 0.19 0.36 0.35 0.28 0.23 0.10 0.19 0.21 0.47 0.68 0.30 0.23 0.23 0.11 0.04 0.00 0.00 0.00 0.00 0.00 0.00 0.00 0.00 0.00 0.00 0.00 0.00 0.00 0.00 0.00
0.55 1.05 0.94 0.84 0.99 1.37 0.68 0.20 0.08 0.08 0.12 0.08 0.10 0.20 0.28 0.29 0.24 0.22 0.29 0.34 0.15 0.18 0.27 0.35 0.34 0.26 0.17 0.27 0.34 0.30 0.29 0.40 0.27 0.20 0.10 0.06 0.02 0.00 0.00 0.00 0.00 0.00 0.00 0.00 0.00 0.00 0.00 0.00 0.01
0.17 0.45 0.62 0.60 0.63 0.94 0.99 0.31 0.08 0.06 0.10 0.06 0.03 0.07 0.19 0.28 0.20 0.18 0.24 0.38 0.40 0.24 0.29 0.37 0.23 0.24 0.24 0.33 0.29 0.26 0.18 0.19 0.16 0.14 0.12 0.12 0.07 0.02 0.00 0.00 0.00 0.00 0.00 0.00 0.01 0.01 0.02 0.01 0.01
0.05 0.09 0.49 0.45 0.45 0.49 0.81 0.60 0.19 0.05 0.06 0.03 0.03 0.02 0.06 0.14 0.20 0.28 0.29 0.37 0.43 0.37 0.53 0.40 0.35 0.27 0.20 0.23 0.16 0.18 0.14 0.14 0.11 0.08 0.10 0.16 0.20 0.12 0.03 0.00 0.00 0.00 0.01 0.00 0.01 0.01 0.01 0.01 0.02
0.04 0.06 0.44 0.61 0.54 0.52 0.50 0.72 0.34 0.12 0.04 0.03 0.02 0.02 0.01 0.02 0.03 0.07 0.10 0.16 0.19 0.40 0.87 0.76 0.51 0.45 0.18 0.14 0.09 0.08 0.17 0.20 0.13 0.13 0.12 0.17 0.24 0.21 0.07 0.02 0.02 0.01 0.01 0.02 0.02 0.03 0.04 0.03 0.02
0.04 0.01 0.18 0.65 0.63 0.46 0.35 0.43 0.44 0.20 0.06 0.03 0.02 0.02 0.01 0.01 0.01 0.00 0.01 0.03 0.04 0.14 0.32 0.34 0.25 0.41 0.66 0.56 0.79 0.63 0.57 0.44 0.42 0.34 0.25 0.25 0.22 0.23 0.19 0.14 0.14 0.10 0.16 0.17 0.18 0.14 0.14 0.08 0.02
0.02 0.00 0.03 0.24 0.23 0.30 0.20 0.22 0.14 0.15 0.13 0.03 0.03 0.02 0.01 0.00 0.00 0.00 0.00 0.00 0.00 0.01 0.06 0.20 0.57 0.80 0.90 0.97 1.34 1.77 1.93 1.69 1.34 1.19 0.86 0.64 0.52 0.51 0.54 0.58 0.59 0.56 0.53 0.37 0.22 0.13 0.09 0.06 0.02
0.05 0.01 0.11 0.12 0.09 0.10 0.10 0.06 0.02 0.05 0.09 0.07 0.02 0.03 0.02 0.01 0.00 0.00 0.00 0.00 0.00 0.00 0.00 0.04 0.22 0.34 0.53 0.69 0.73 0.89 0.83 0.76 0.72 0.63 0.66 0.67 0.70 0.71 0.74 0.77 0.67 0.49 0.31 0.16 0.07 0.03 0.01 0.00 0.01
0.02 0.01 0.23 0.12 0.13 0.11 0.06 0.01 0.00 0.00 0.03 0.08 0.05 0.01 0.00 0.00 0.00 0.00 0.00 0.00 0.00 0.00 0.00 0.00 0.05 0.09 0.19 0.29 0.36 0.52 0.57 0.61 0.55 0.45 0.40 0.40 0.34 0.29 0.31 0.31 0.30 0.22 0.15 0.08 0.03 0.01 0.01 0.00 0.01
0.01 0.02 0.44 0.36 0.36 0.16 0.03 0.00 0.00 0.00 0.00 0.03 0.04 0.02 0.00 0.00 0.00 0.00 0.00 0.00 0.00 0.00 0.00 0.00 0.00 0.02 0.07 0.22 0.25 0.33 0.33 0.27 0.29 0.34 0.32 0.35 0.31 0.23 0.23 0.21 0.19 0.18 0.14 0.08 0.03 0.01 0.01 0.01 0.01
0.04 0.01 0.06 0.07 0.09 0.13 0.02 0.00 0.00 0.00 0.00 0.00 0.00 0.01 0.01 0.00 0.00 0.00 0.00 0.00 0.00 0.00 0.00 0.00 0.00 0.00 0.00 0.06 0.11 0.17 0.21 0.17 0.18 0.23 0.22 0.20 0.22 0.26 0.36 0.47 0.43 0.31 0.26 0.20 0.06 0.02 0.01 0.01 0.02
0.02 0.01 0.00 0.01 0.02 0.05 0.04 0.00 0.00 0.00 0.00 0.00 0.00 0.00 0.00 0.00 0.00 0.00 0.00 0.00 0.00 0.00 0.00 0.00 0.00 0.00 0.00 0.00 0.00 0.01 0.04 0.09 0.10 0.10 0.09 0.10 0.13 0.15 0.15 0.12 0.09 0.08 0.06 0.05 0.03 0.00 0.00 0.00 0.01
0.00 0.00 0.00 0.00 0.00 0.01 0.00 0.00 0.00 0.00 0.00 0.00 0.00 0.00 0.00 0.00 0.00 0.00 0.00 0.00 0.00 0.00 0.00 0.00 0.00 0.00 0.00 0.00 0.00 0.00 0.00 0.00 0.01 0.02 0.03 0.04 0.03 0.02 0.02 0.00 0.00 0.00 0.00 0.00 0.00 0.00 0.00 0.00 0.00
0.00 0.00 0.00 0.00 0.00 0.00 0.00 0.00 0.00 0.00 0.00 0.00 0.00 0.00 0.00 0.00 0.00 0.00 0.00 0.00 0.00 0.00 0.00 0.00 0.00 0.00 0.00 0.00 0.00 0.00 0.00 0.00 0.00 0.00 0.00 0.00 0.00 0.00 0.00 0.00 0.00 0.00 0.00 0.00 0.00 0.00 0.00 0.00 0.00
0.00 0.00 0.00 0.00 0.00 0.00 0.00 0.00 0.00 0.00 0.00 0.00 0.00 0.00 0.00 0.00 0.00 0.00 0.00 0.00 0.00 0.00 0.00 0.00 0.00 0.00 0.00 0.00 0.00 0.00 0.00 0.00 0.00 0.00 0.00 0.00 0.00 0.00 0.00 0.00 0.00 0.00 0.00 0.00 0.00 0.00 0.00 0.00 0.00

GFSSGP_prec_precacc24_078.txt.gz
Total_Precipitation_Accumulation
0.09 0.10 0.06 0.08 0.05 0.02 0.00 0.00 0.00 0.02 0.03 0.02 0.00 0.03 0.03 0.02 0.00 0.01 0.00 0.00 0.00 0.00 0.00 0.02 0.07 0.05 0.06 0.02 0.02 0.02 0.03 0.04 0.04 0.09 0.12 0.12 0.12 0.04 0.01 0.00 0.00 0.01 0.01 0.02 0.01 0.01 0.00 0.00 0.00
0.11 0.22 0.21 0.20 0.06 0.01 0.00 0.00 0.00 0.04 0.05 0.03 0.03 0.07 0.15 0.11 0.01 0.03 0.04 0.03 0.01 0.00 0.01 0.02 0.06 0.05 0.03 0.01 0.01 0.02 0.01 0.01 0.07 0.12 0.13 0.17 0.11 0.01 0.01 0.00 0.00 0.00 0.01 0.00 0.00 0.00 0.00 0.00 0.00
0.24 0.51 0.39 0.19 0.03 0.00 0.00 0.00 0.00 0.00 0.00 0.02 0.04 0.11 0.38 0.17 0.07 0.03 0.03 0.04 0.03 0.01 0.02 0.03 0.08 0.09 0.02 0.00 0.02 0.01 0.00 0.01 0.06 0.16 0.23 0.19 0.07 0.01 0.00 0.00 0.00 0.00 0.00 0.00 0.00 0.00 0.00 0.00 0.00
0.47 0.72 0.46 0.13 0.03 0.00 0.00 0.00 0.00 0.01 0.07 0.14 0.13 0.13 0.43 0.46 0.14 0.10 0.05 0.04 0.03 0.03 0.04 0.05 0.12 0.07 0.01 0.01 0.02 0.01 0.00 0.01 0.04 0.09 0.16 0.12 0.04 0.01 0.00 0.00 0.00 0.00 0.00 0.00 0.00 0.00 0.00 0.00 0.00
0.69 0.50 0.29 0.21 0.03 0.00 0.00 0.00 0.00 0.01 0.03 0.06 0.10 0.23 0.51 0.49 0.27 0.21 0.16 0.04 0.02 0.04 0.08 0.05 0.16 0.06 0.01 0.02 0.02 0.01 0.01 0.01 0.02 0.06 0.11 0.08 0.02 0.00 0.00 0.00 0.00 0.00 0.00 0.00 0.00 0.00 0.00 0.00 0.00
0.66 0.40 0.34 0.31 0.07 0.00 0.00 0.00 0.00 0.00 0.01 0.04 0.17 0.25 0.54 0.80 0.71 0.53 0.30 0.09 0.06 0.05 0.09 0.07 0.20 0.10 0.01 0.02 0.02 0.02 0.02 0.02 0.01 0.03 0.08 0.05 0.01 0.00 0.00 0.00 0.00 0.00 0.00 0.00 0.00 0.00 0.00 0.00 0.00
0.48 0.36 0.30 0.10 0.04 0.01 0.00 0.00 0.00 0.00 0.00 0.01 0.04 0.06 0.34 1.10 1.08 0.92 0.75 0.38 0.12 0.12 0.10 0.10 0.12 0.04 0.02 0.01 0.01 0.02 0.02 0.02 0.02 0.02 0.04 0.02 0.01 0.00 0.00 0.00 0.00 0.00 0.00 0.00 0.00 0.00 0.00 0.00 0.00
0.34 0.44 0.22 0.05 0.03 0.01 0.00 0.00 0.00 0.00 0.00 0.00 0.02 0.14 0.17 0.67 1.11 1.45 1.45 1.08 0.39 0.29 0.16 0.08 0.10 0.02 0.01 0.02 0.01 0.02 0.02 0.02 0.01 0.01 0.00 0.00 0.00 0.00 0.00 0.00 0.00 0.00 0.00 0.00 0.00 0.00 0.00 0.00 0.00
0.45 0.62 0.27 0.04 0.00 0.00 0.00 0.01 0.01 0.01 0.00 0.00 0.00 0.06 0.08 0.09 0.65 1.78 2.40 2.31 0.74 0.40 0.26 0.12 0.06 0.02 0.00 0.03 0.02 0.03 0.03 0.03 0.00 0.00 0.00 0.00 0.00 0.00 0.00 0.00 0.00 0.00 0.00 0.00 0.00 0.00 0.00 0.00 0.00
0.60 0.68 0.19 0.03 0.02 0.01 0.00 0.01 0.01 0.03 0.01 0.07 0.03 0.00 0.02 0.14 0.37 1.36 2.74 2.71 1.58 0.48 0.25 0.17 0.06 0.01 0.01 0.02 0.03 0.03 0.03 0.02 0.00 0.00 0.00 0.00 0.00 0.00 0.00 0.00 0.00 0.00 0.00 0.00 0.00 0.00 0.00 0.00 0.00
0.59 0.46 0.11 0.08 0.07 0.01 0.01 0.02 0.01 0.08 0.11 0.02 0.04 0.01 0.01 0.10 0.15 0.56 1.67 2.83 2.54 1.72 0.64 0.19 0.09 0.01 0.01 0.01 0.02 0.04 0.03 0.02 0.00 0.00 0.00 0.00 0.00 0.00 0.00 0.00 0.00 0.00 0.00 0.00 0.00 0.00 0.00 0.00 0.00
0.74 0.24 0.18 0.14 0.15 0.10 0.02 0.02 0.02 0.04 0.02 0.00 0.08 0.05 0.03 0.12 0.13 0.35 0.63 1.74 1.85 2.07 1.74 0.60 0.13 0.04 0.02 0.01 0.01 0.01 0.02 0.01 0.00 0.00 0.00 0.00 0.00 0.00 0.00 0.00 0.00 0.00 0.00 0.00 0.00 0.00 0.00 0.00 0.00
0.67 0.47 0.32 0.33 0.24 0.21 0.11 0.05 0.03 0.01 0.02 0.03 0.11 0.08 0.11 0.12 0.10 0.27 0.33 0.54 1.03 1.44 2.26 1.72 0.84 0.28 0.06 0.02 0.02 0.01 0.01 0.01 0.00 0.00 0.00 0.00 0.00 0.00 0.00 0.00 0.00 0.00 0.00 0.00 0.00 0.00 0.00 0.00 0.00
0.61 0.67 0.47 0.61 0.39 0.32 0.18 0.10 0.08 0.03 0.06 0.15 0.25 0.28 0.26 0.15 0.11 0.20 0.19 0.22 0.60 0.82 1.04 1.54 1.26 0.86 0.40 0.24 0.13 0.07 0.01 0.01 0.02 0.01 0.01 0.00 0.00 0.00 0.00 0.00 0.00 0.00 0.00 0.00 0.00 0.00 0.00 0.00 0.00
0.61 0.66 0.79 0.79 0.65 0.53 0.32 0.18 0.10 0.05 0.10 0.18 0.25 0.24 0.41 0.26 0.24 0.17 0.31 0.35 0.26 0.45 0.59 0.66 0.58 0.70 0.68 0.57 0.43 0.25 0.16 0.07 0.02 0.01 0.01 0.00 0.00 0.00 0.00 0.00 0.00 0.00 0.00 0.00 0.00 0.00 0.00 0.00 0.00
0.60 1.09 1.12 0.86 1.18 0.90 0.46 0.19 0.07 0.08 0.13 0.11 0.20 0.38 0.55 0.52 0.39 0.37 0.22 0.19 0.35 0.33 0.29 0.29 0.19 0.23 0.27 0.56 0.70 0.31 0.23 0.23 0.11 0.04 0.00 0.00 0.01 0.00 0.00 0.00 0.00 0.00 0.00 0.00 0.00 0.00 0.00 0.00 0.00
0.64 1.08 0.94 0.82 0.97 1.38 0.72 0.22 0.09 0.08 0.12 0.09 0.11 0.31 0.46 0.52 0.33 0.24 0.30 0.33 0.15 0.16 0.23 0.33 0.35 0.26 0.16 0.28 0.35 0.30 0.29 0.40 0.27 0.20 0.10 0.06 0.02 0.00 0.00 0.00 0.00 0.00 0.00 0.00 0.00 0.00 0.00 0.00 0.01
0.38 0.46 0.63 0.63 0.62 0.94 1.04 0.35 0.12 0.06 0.10 0.07 0.04 0.11 0.36 0.50 0.57 0.37 0.28 0.41 0.41 0.23 0.28 0.35 0.23 0.23 0.21 0.39 0.39 0.33 0.26 0.21 0.16 0.14 0.12 0.12 0.07 0.03 0.01 0.01 0.00 0.00 0.00 0.00 0.01 0.01 0.01 0.01 0.01
0.28 0.17 0.51 0.49 0.47 0.49 0.88 0.65 0.22 0.06 0.07 0.04 0.03 0.05 0.18 0.36 0.64 0.82 0.51 0.45 0.47 0.41 0.55 0.39 0.35 0.27 0.21 0.26 0.22 0.25 0.17 0.15 0.11 0.08 0.10 0.16 0.21 0.17 0.13 0.07 0.01 0.00 0.00 0.00 0.01 0.01 0.01 0.01 0.02
0.17 0.11 0.51 0.65 0.56 0.51 0.51 0.82 0.41 0.13 0.07 0.05 0.03 0.04 0.08 0.16 0.31 0.51 0.89 0.41 0.43 0.95 1.24 0.91 0.62 0.53 0.24 0.16 0.11 0.12 0.20 0.21 0.13 0.13 0.12 0.17 0.24 0.25 0.20 0.15 0.14 0.06 0.02 0.01 0.02 0.04 0.06 0.05 0.05
0.11 0.03 0.20 0.73 0.72 0.45 0.38 0.51 0.64 0.24 0.10 0.06 0.06 0.03 0.04 0.08 0.09 0.16 0.35 0.19 0.26 0.64 0.87 0.64 0.45 0.45 0.68 0.58 0.87 0.69 0.63 0.48 0.49 0.41 0.27 0.27 0.23 0.28 0.40 0.41 0.37 0.31 0.26 0.22 0.23 0.23 0.23 0.17 0.08
0.04 0.01 0.10 0.43 0.36 0.34 0.26 0.37 0.39 0.28 0.19 0.10 0.07 0.03 0.03 0.05 0.03 0.03 0.03 0.04 0.03 0.05 0.14 0.37 0.77 0.88 1.03 1.08 1.51 1.94 2.20 2.03 1.68 1.48 1.09 0.80 0.68 0.73 0.96 1.15 1.20 1.07 0.77 0.54 0.38 0.30 0.20 0.16 0.12
0.07 0.03 0.15 0.17 0.10 0.11 0.19 0.18 0.15 0.17 0.17 0.16 0.04 0.05 0.05 0.03 0.01 0.00 0.00 0.00 0.00 0.00 0.00 0.08 0.28 0.42 0.64 0.85 0.86 1.09 1.19 1.15 1.04 0.91 0.94 0.99 0.99 0.91 0.93 1.09 1.07 0.83 0.63 0.63 0.53 0.22 0.07 0.03 0.02
0.06 0.02 0.24 0.12 0.13 0.15 0.16 0.05 0.05 0.06 0.05 0.10 0.06 0.03 0.05 0.02 0.01 0.00 0.00 0.00 0.00 0.00 0.00 0.00 0.05 0.09 0.23 0.35 0.42 0.64 0.77 0.84 0.76 0.66 0.62 0.60 0.48 0.47 0.52 0.51 0.48 0.43 0.32 0.28 0.32 0.31 0.16 0.04 0.02
0.03 0.03 0.45 0.36 0.37 0.25 0.09 0.01 0.02 0.00 0.00 0.04 0.07 0.06 0.04 0.02 0.00 0.00 0.00 0.00 0.00 0.00 0.00 0.00 0.00 0.02 0.07 0.23 0.28 0.37 0.36 0.31 0.32 0.36 0.36 0.38 0.34 0.29 0.29 0.28 0.27 0.26 0.25 0.22 0.19 0.18 0.19 0.12 0.05
0.04 0.01 0.07 0.07 0.12 0.23 0.06 0.02 0.02 0.00 0.00 0.00 0.04 0.09 0.04 0.02 0.00 0.00 0.00 0.00 0.00 0.00 0.00 0.00 0.00 0.00 0.00 0.06 0.11 0.17 0.22 0.19 0.21 0.26 0.26 0.23 0.25 0.29 0.39 0.50 0.46 0.37 0.33 0.34 0.30 0.18 0.09 0.08 0.07
0.02 0.00 0.00 0.01 0.04 0.07 0.05 0.00 0.00 0.00 0.00 0.00 0.01 0.07 0.07 0.02 0.00 0.00 0.00 0.00 0.00 0.00 0.00 0.00 0.00 0.00 0.00 0.00 0.00 0.01 0.04 0.09 0.10 0.10 0.09 0.10 0.14 0.17 0.18 0.14 0.12 0.10 0.08 0.08 0.08 0.08 0.06 0.04 0.03
0.00 0.00 0.00 0.00 0.00 0.02 0.02 0.00 0.00 0.00 0.00 0.00 0.00 0.01 0.03 0.01 0.00 0.00 0.00 0.00 0.00 0.00 0.00 0.00 0.00 0.00 0.00 0.00 0.00 0.00 0.00 0.00 0.01 0.02 0.03 0.04 0.03 0.02 0.02 0.01 0.00 0.00 0.00 0.00 0.00 0.00 0.00 0.00 0.00
0.00 0.00 0.00 0.00 0.00 0.00 0.00 0.00 0.00 0.00 0.00 0.00 0.00 0.00 0.00 0.00 0.00 0.00 0.00 0.00 0.00 0.00 0.00 0.00 0.00 0.00 0.00 0.00 0.00 0.00 0.00 0.00 0.00 0.00 0.00 0.00 0.00 0.00 0.00 0.00 0.00 0.00 0.00 0.00 0.00 0.00 0.00 0.00 0.00
0.00 0.00 0.00 0.00 0.00 0.00 0.00 0.00 0.00 0.00 0.00 0.00 0.00 0.00 0.00 0.00 0.00 0.00 0.00 0.00 0.00 0.00 0.00 0.00 0.00 0.00 0.00 0.00 0.00 0.00 0.00 0.00 0.00 0.00 0.00 0.00 0.00 0.00 0.00 0.01 0.00 0.00 0.00 0.00 0.00 0.00 0.00 0.00 0.00

GFSSGP_prec_precacc24_081.txt.gz
Total_Precipitation_Accumulation
0.09 0.10 0.06 0.08 0.05 0.02 0.00 0.00 0.00 0.02 0.03 0.02 0.00 0.02 0.03 0.02 0.00 0.05 0.01 0.00 0.00 0.00 0.00 0.02 0.08 0.05 0.05 0.01 0.01 0.01 0.02 0.04 0.04 0.10 0.12 0.10 0.12 0.06 0.01 0.00 0.00 0.01 0.02 0.02 0.01 0.00 0.00 0.00 0.00
0.11 0.22 0.21 0.21 0.06 0.01 0.00 0.00 0.00 0.04 0.05 0.03 0.03 0.07 0.15 0.12 0.01 0.03 0.05 0.03 0.01 0.00 0.01 0.02 0.07 0.05 0.03 0.00 0.01 0.01 0.01 0.02 0.07 0.13 0.14 0.18 0.13 0.02 0.01 0.00 0.00 0.00 0.01 0.01 0.00 0.00 0.00 0.00 0.00
0.24 0.51 0.39 0.19 0.03 0.00 0.00 0.00 0.00 0.00 0.00 0.02 0.05 0.11 0.39 0.24 0.09 0.03 0.04 0.04 0.03 0.01 0.02 0.03 0.08 0.09 0.02 0.00 0.02 0.00 0.00 0.03 0.10 0.20 0.25 0.24 0.11 0.00 0.00 0.00 0.00 0.00 0.00 0.00 0.00 0.00 0.00 0.00 0.00
0.47 0.73 0.47 0.13 0.03 0.00 0.00 0.00 0.00 0.01 0.07 0.14 0.14 0.14 0.43 0.47 0.16 0.11 0.07 0.04 0.03 0.03 0.05 0.07 0.13 0.07 0.01 0.01 0.02 0.01 0.00 0.03 0.11 0.17 0.28 0.28 0.08 0.00 0.00 0.00 0.00 0.00 0.00 0.00 0.00 0.00 0.00 0.00 0.00
0.69 0.50 0.29 0.21 0.03 0.00 0.00 0.00 0.00 0.01 0.03 0.06 0.10 0.24 0.52 0.49 0.27 0.27 0.19 0.08 0.03 0.05 0.11 0.09 0.20 0.07 0.01 0.02 0.02 0.01 0.01 0.02 0.07 0.18 0.30 0.19 0.02 0.00 0.00 0.00 0.00 0.00 0.00 0.00 0.00 0.00 0.00 0.00 0.00
0.66 0.40 0.34 0.31 0.07 0.00 0.00 0.00 0.00 0.00 0.01 0.04 0.17 0.25 0.55 0.80 0.72 0.58 0.40 0.18 0.12 0.07 0.16 0.13 0.26 0.19 0.03 0.02 0.02 0.02 0.02 0.02 0.04 0.14 0.29 0.13 0.00 0.00 0.00 0.00 0.00 0.00 0.00 0.00 0.00 0.00 0.00 0.00 0.00
0.48 0.36 0.30 0.10 0.04 0.01 0.00 0.00 0.00 0.00 0.00 0.01 0.04 0.06 0.34 1.09 1.08 0.95 0.86 0.55 0.28 0.19 0.15 0.17 0.16 0.11 0.05 0.01 0.01 0.02 0.02 0.02 0.03 0.06 0.13 0.04 0.00 0.00 0.00 0.00 0.00 0.00 0.00 0.00 0.00 0.00 0.00 0.00 0.00
0.34 0.44 0.21 0.05 0.03 0.01 0.00 0.00 0.00 0.00 0.00 0.00 0.02 0.14 0.17 0.66 1.11 1.47 1.58 1.38 0.74 0.46 0.26 0.19 0.16 0.04 0.02 0.03 0.01 0.02 0.02 0.02 0.01 0.01 0.01 0.00 0.00 0.00 0.00 0.00 0.00 0.00 0.00 0.00 0.00 0.00 0.00 0.00 0.00
0.44 0.59 0.25 0.04 0.00 0.00 0.00 0.01 0.01 0.01 0.00 0.00 0.00 0.06 0.07 0.09 0.64 1.77 2.55 2.58 1.14 0.52 0.39 0.30 0.17 0.05 0.01 0.07 0.03 0.03 0.03 0.03 0.00 0.00 0.00 0.00 0.00 0.00 0.00 0.00 0.00 0.00 0.00 0.00 0.00 0.00 0.00 0.00 0.00
0.56 0.65 0.18 0.02 0.02 0.01 0.00 0.01 0.01 0.03 0.01 0.07 0.03 0.00 0.02 0.11 0.35 1.35 2.77 2.97 2.00 0.81 0.47 0.48 0.32 0.10 0.01 0.06 0.08 0.03 0.03 0.02 0.00 0.00 0.00 0.00 0.00 0.00 0.00 0.00 0.00 0.00 0.00 0.00 0.00 0.00 0.00 0.00 0.00
0.55 0.45 0.09 0.07 0.07 0.01 0.01 0.02 0.01 0.08 0.11 0.02 0.04 0.02 0.02 0.08 0.14 0.55 1.67 2.91 2.82 2.05 1.05 0.61 0.48 0.24 0.02 0.02 0.08 0.07 0.03 0.02 0.00 0.00 0.00 0.00 0.00 0.00 0.00 0.00 0.00 0.00 0.00 0.00 0.00 0.00 0.00 0.00 0.00
0.69 0.23 0.17 0.11 0.14 0.10 0.02 0.02 0.02 0.04 0.02 0.00 0.08 0.06 0.05 0.10 0.11 0.32 0.62 1.79 1.98 2.30 2.03 1.27 0.68 0.42 0.05 0.01 0.04 0.05 0.04 0.01 0.00 0.00 0.00 0.00 0.00 0.00 0.00 0.00 0.00 0.00 0.00 0.00 0.00 0.00 0.00 0.00 0.00
0.59 0.45 0.30 0.30 0.22 0.20 0.11 0.05 0.03 0.01 0.02 0.03 0.12 0.10 0.14 0.24 0.14 0.24 0.32 0.53 1.05 1.57 2.50 2.26 1.52 0.83 0.17 0.02 0.04 0.05 0.04 0.03 0.01 0.00 0.00 0.00 0.00 0.00 0.00 0.00 0.00 0.00 0.00 0.00 0.00 0.00 0.00 0.00 0.00
0.52 0.62 0.43 0.60 0.39 0.32 0.17 0.09 0.08 0.03 0.06 0.15 0.25 0.28 0.27 0.22 0.18 0.22 0.19 0.22 0.60 0.86 1.16 1.96 1.96 1.76 0.75 0.24 0.14 0.11 0.06 0.05 0.03 0.02 0.01 0.00 0.00 0.00 0.00 0.00 0.00 0.00 0.00 0.00 0.00 0.00 0.00 0.00 0.00
0.56 0.60 0.74 0.78 0.65 0.53 0.31 0.17 0.10 0.05 0.10 0.18 0.25 0.24 0.42 0.33 0.32 0.18 0.31 0.35 0.26 0.46 0.65 0.83 1.18 1.88 1.36 0.59 0.43 0.27 0.19 0.11 0.05 0.01 0.01 0.00 0.00 0.00 0.00 0.00 0.00 0.00 0.00 0.00 0.00 0.00 0.00 0.00 0.00
0.58 0.99 1.07 0.85 1.17 0.90 0.45 0.17 0.07 0.08 0.13 0.11 0.20 0.38 0.55 0.60 0.52 0.41 0.23 0.19 0.35 0.33 0.32 0.40 0.49 0.87 0.73 0.67 0.72 0.31 0.23 0.25 0.15 0.06 0.01 0.00 0.01 0.00 0.00 0.00 0.00 0.00 0.00 0.00 0.00 0.00 0.00 0.00 0.00
0.64 1.05 0.90 0.81 0.97 1.37 0.72 0.22 0.09 0.08 0.12 0.09 0.11 0.31 0.46 0.63 0.53 0.38 0.33 0.33 0.15 0.16 0.24 0.36 0.50 0.51 0.31 0.33 0.43 0.32 0.29 0.40 0.27 0.20 0.10 0.06 0.02 0.00 0.00 0.00 0.00 0.00 0.00 0.00 0.00 0.00 0.00 0.00 0.00
0.45 0.55 0.64 0.62 0.61 0.92 1.03 0.35 0.17 0.11 0.12 0.07 0.04 0.11 0.37 0.57 0.91 0.54 0.32 0.41 0.41 0.23 0.29 0.36 0.27 0.32 0.25 0.43 0.54 0.47 0.36 0.25 0.16 0.14 0.12 0.12 0.07 0.03 0.01 0.01 0.00 0.00 0.00 0.00 0.00 0.00 0.00 0.00 0.00
0.34 0.28 0.57 0.50 0.45 0.46 0.87 0.65 0.23 0.07 0.07 0.05 0.03 0.05 0.19 0.45 0.99 1.17 0.68 0.48 0.50 0.43 0.56 0.43 0.37 0.31 0.25 0.30 0.30 0.36 0.31 0.33 0.24 0.14 0.15 0.19 0.28 0.23 0.16 0.10 0.05 0.01 0.00 0.00 0.00 0.00 0.01 0.01 0.01
0.20 0.16 0.60 0.79 0.63 0.49 0.49 0.83 0.42 0.14 0.07 0.06 0.05 0.05 0.14 0.24 0.69 1.07 1.28 0.56 0.49 1.07 1.34 1.01 0.72 0.66 0.33 0.27 0.24 0.18 0.31 0.31 0.18 0.15 0.13 0.18 0.26 0.30 0.24 0.18 0.17 0.11 0.05 0.03 0.03 0.03 0.05 0.05 0.06
0.12 0.05 0.37 0.97 0.79 0.51 0.39 0.53 0.64 0.24 0.11 0.07 0.06 0.04 0.08 0.15 0.22 0.52 1.11 0.73 0.53 1.12 1.30 0.93 0.81 0.78 0.83 0.62 0.97 0.81 0.77 0.62 0.58 0.43 0.27 0.28 0.24 0.28 0.40 0.41 0.38 0.35 0.40 0.45 0.41 0.30 0.28 0.21 0.16
0.13 0.08 0.17 0.55 0.42 0.38 0.28 0.40 0.41 0.30 0.20 0.12 0.14 0.07 0.07 0.10 0.12 0.20 0.37 0.47 0.38 0.32 0.36 0.63 1.20 1.23 1.17 1.15 1.66 2.10 2.34 2.16 1.80 1.55 1.11 0.82 0.70 0.73 0.97 1.16 1.22 1.19 1.05 0.78 0.77 0.68 0.45 0.33 0.24
0.21 0.08 0.21 0.25 0.16 0.13 0.19 0.22 0.20 0.23 0.22 0.25 0.22 0.13 0.10 0.05 0.15 0.16 0.19 0.14 0.10 0.07 0.09 0.17 0.41 0.55 0.82 1.04 1.13 1.40 1.36 1.30 1.18 1.04 1.03 1.05 1.12 1.03 1.00 1.12 1.12 0.95 0.87 0.94 0.92 0.86 0.85 0.56 0.21
0.10 0.05 0.27 0.16 0.18 0.23 0.20 0.08 0.13 0.19 0.17 0.31 0.22 0.12 0.08 0.02 0.05 0.17 0.05 0.01 0.00 0.00 0.00 0.01 0.08 0.15 0.35 0.46 0.52 0.91 1.15 1.22 1.11 0.85 0.77 0.71 0.61 0.61 0.67 0.62 0.59 0.54 0.47 0.47 0.62 0.74 0.68 0.54 0.27
0.05 0.07 0.49 0.42 0.47 0.38 0.17 0.04 0.07 0.09 0.03 0.19 0.25 0.11 0.05 0.06 0.02 0.07 0.05 0.01 0.00 0.00 0.00 0.00 0.00 0.02 0.09 0.27 0.36 0.49 0.50 0.51 0.41 0.41 0.38 0.38 0.35 0.31 0.31 0.31 0.35 0.38 0.37 0.32 0.31 0.33 0.38 0.39 0.33
0.07 0.04 0.10 0.13 0.17 0.28 0.07 0.07 0.08 0.06 0.04 0.10 0.12 0.10 0.06 0.12 0.05 0.04 0.01 0.01 0.00 0.00 0.00 0.00 0.00 0.00 0.00 0.06 0.12 0.19 0.28 0.27 0.27 0.30 0.26 0.23 0.26 0.30 0.40 0.51 0.49 0.41 0.38 0.39 0.35 0.31 0.26 0.23 0.19
0.02 0.00 0.00 0.02 0.04 0.08 0.07 0.02 0.01 0.01 0.02 0.02 0.02 0.08 0.08 0.07 0.10 0.02 0.02 0.00 0.00 0.00 0.00 0.00 0.00 0.00 0.00 0.00 0.00 0.01 0.04 0.09 0.13 0.13 0.11 0.11 0.14 0.19 0.23 0.20 0.17 0.15 0.10 0.10 0.12 0.12 0.10 0.06 0.04
0.00 0.00 0.00 0.01 0.01 0.03 0.02 0.00 0.00 0.00 0.01 0.03 0.03 0.07 0.07 0.06 0.03 0.01 0.00 0.00 0.00 0.00 0.00 0.00 0.00 0.00 0.00 0.00 0.00 0.00 0.00 0.00 0.01 0.02 0.03 0.04 0.03 0.02 0.02 0.01 0.01 0.00 0.00 0.01 0.01 0.01 0.00 0.00 0.00
0.00 0.00 0.00 0.00 0.00 0.00 0.00 0.00 0.00 0.00 0.00 0.00 0.01 0.03 0.02 0.02 0.01 0.00 0.00 0.00 0.00 0.00 0.00 0.00 0.00 0.00 0.00 0.00 0.00 0.00 0.00 0.00 0.00 0.00 0.00 0.00 0.00 0.00 0.00 0.00 0.00 0.00 0.01 0.00 0.00 0.00 0.00 0.00 0.00
0.00 0.00 0.00 0.00 0.00 0.00 0.00 0.00 0.00 0.00 0.00 0.00 0.00 0.00 0.00 0.00 0.00 0.00 0.00 0.00 0.00 0.00 0.00 0.00 0.00 0.00 0.00 0.00 0.00 0.00 0.00 0.00 0.00 0.00 0.00 0.00 0.00 0.00 0.00 0.01 0.01 0.01 0.02 0.01 0.00 0.00 0.00 0.00 0.00

GFSSGP_prec_precacc24_084.txt.gz
Total_Precipitation_Accumulation
0.09 0.10 0.06 0.09 0.06 0.02 0.00 0.00 0.00 0.02 0.03 0.02 0.00 0.02 0.02 0.02 0.00 0.06 0.01 0.00 0.00 0.00 0.00 0.02 0.09 0.05 0.04 0.00 0.00 0.01 0.02 0.04 0.04 0.10 0.10 0.10 0.13 0.06 0.01 0.00 0.00 0.01 0.01 0.01 0.01 0.01 0.01 0.00 0.00
0.11 0.22 0.22 0.22 0.07 0.01 0.00 0.00 0.00 0.04 0.05 0.03 0.03 0.06 0.14 0.12 0.02 0.04 0.05 0.03 0.01 0.00 0.01 0.02 0.09 0.05 0.02 0.00 0.00 0.01 0.01 0.02 0.07 0.14 0.13 0.18 0.15 0.02 0.01 0.00 0.00 0.01 0.01 0.01 0.00 0.00 0.00 0.01 0.00
0.24 0.51 0.40 0.20 0.03 0.00 0.00 0.00 0.00 0.00 0.00 0.02 0.05 0.11 0.40 0.24 0.12 0.04 0.05 0.04 0.03 0.02 0.02 0.03 0.10 0.10 0.02 0.01 0.02 0.00 0.00 0.03 0.10 0.22 0.26 0.25 0.14 0.01 0.00 0.00 0.00 0.01 0.01 0.00 0.00 0.00 0.00 0.00 0.00
0.47 0.73 0.48 0.13 0.03 0.00 0.00 0.00 0.00 0.01 0.07 0.14 0.14 0.14 0.42 0.41 0.16 0.10 0.08 0.05 0.04 0.04 0.05 0.08 0.16 0.10 0.01 0.02 0.02 0.01 0.01 0.04 0.11 0.19 0.29 0.31 0.13 0.01 0.00 0.00 0.00 0.01 0.00 0.00 0.01 0.01 0.00 0.00 0.00
0.68 0.50 0.29 0.21 0.03 0.00 0.00 0.00 0.00 0.01 0.03 0.06 0.10 0.25 0.52 0.49 0.27 0.29 0.26 0.10 0.04 0.07 0.12 0.13 0.27 0.10 0.01 0.03 0.02 0.01 0.01 0.05 0.09 0.22 0.35 0.31 0.07 0.00 0.00 0.00 0.00 0.00 0.00 0.00 0.00 0.00 0.00 0.00 0.00
0.63 0.39 0.34 0.31 0.07 0.00 0.00 0.00 0.00 0.00 0.01 0.04 0.17 0.19 0.49 0.80 0.71 0.57 0.53 0.30 0.19 0.19 0.27 0.23 0.34 0.31 0.06 0.03 0.02 0.02 0.02 0.04 0.08 0.20 0.40 0.26 0.03 0.00 0.00 0.00 0.00 0.00 0.00 0.00 0.00 0.00 0.00 0.00 0.00
0.42 0.35 0.30 0.10 0.04 0.01 0.00 0.00 0.00 0.00 0.00 0.01 0.04 0.06 0.31 1.09 1.08 0.95 0.91 0.67 0.50 0.52 0.31 0.38 0.24 0.19 0.13 0.06 0.01 0.02 0.02 0.03 0.10 0.14 0.24 0.10 0.01 0.00 0.00 0.01 0.00 0.00 0.00 0.00 0.00 0.00 0.00 0.00 0.00
0.32 0.43 0.21 0.05 0.03 0.01 0.00 0.00 0.00 0.00 0.00 0.00 0.01 0.08 0.11 0.65 1.09 1.46 1.58 1.43 1.05 0.93 0.86 0.56 0.33 0.09 0.04 0.06 0.01 0.02 0.02 0.02 0.07 0.09 0.07 0.01 0.00 0.00 0.01 0.01 0.01 0.00 0.00 0.00 0.00 0.00 0.00 0.00 0.00
0.41 0.55 0.25 0.04 0.00 0.00 0.00 0.01 0.01 0.01 0.00 0.00 0.00 0.02 0.01 0.09 0.62 1.76 2.54 2.60 1.45 1.12 1.07 1.08 0.57 0.16 0.08 0.12 0.03 0.03 0.03 0.03 0.03 0.06 0.03 0.00 0.00 0.00 0.00 0.00 0.00 0.00 0.00 0.00 0.00 0.00 0.00 0.00 0.00
0.46 0.50 0.17 0.02 0.01 0.01 0.00 0.01 0.01 0.03 0.01 0.07 0.03 0.00 0.01 0.09 0.34 1.34 2.77 2.97 2.14 1.23 0.95 0.82 0.89 0.45 0.17 0.19 0.11 0.03 0.03 0.02 0.00 0.02 0.01 0.00 0.00 0.00 0.00 0.00 0.00 0.00 0.00 0.00 0.00 0.00 0.00 0.00 0.00
0.47 0.41 0.08 0.05 0.04 0.01 0.01 0.02 0.01 0.08 0.10 0.02 0.04 0.02 0.02 0.05 0.16 0.54 1.66 2.91 2.82 2.20 1.28 0.77 0.74 0.80 0.26 0.40 0.23 0.08 0.03 0.02 0.00 0.00 0.01 0.00 0.00 0.00 0.00 0.00 0.00 0.00 0.00 0.00 0.00 0.00 0.00 0.00 0.00
0.62 0.22 0.15 0.07 0.10 0.08 0.02 0.02 0.02 0.03 0.02 0.00 0.08 0.06 0.04 0.09 0.20 0.38 0.60 1.74 1.96 2.32 2.09 1.33 0.75 0.81 0.49 0.52 0.42 0.11 0.04 0.01 0.00 0.00 0.00 0.00 0.00 0.00 0.00 0.00 0.00 0.00 0.00 0.00 0.00 0.00 0.00 0.00 0.00
0.53 0.42 0.24 0.21 0.17 0.16 0.11 0.05 0.03 0.01 0.02 0.03 0.12 0.11 0.15 0.25 0.17 0.33 0.32 0.50 1.01 1.54 2.49 2.27 1.54 0.94 0.71 0.42 0.58 0.18 0.05 0.03 0.01 0.00 0.00 0.00 0.00 0.00 0.00 0.00 0.00 0.00 0.00 0.00 0.00 0.00 0.00 0.00 0.00
0.45 0.55 0.37 0.49 0.36 0.26 0.16 0.09 0.08 0.03 0.06 0.15 0.25 0.28 0.28 0.23 0.26 0.38 0.23 0.20 0.56 0.81 1.10 1.94 1.97 1.83 1.29 0.83 0.83 0.38 0.15 0.07 0.03 0.02 0.01 0.00 0.00 0.00 0.00 0.00 0.00 0.00 0.00 0.00 0.00 0.00 0.00 0.00 0.00
0.51 0.53 0.62 0.67 0.59 0.51 0.30 0.17 0.10 0.05 0.10 0.18 0.25 0.24 0.42 0.33 0.32 0.22 0.31 0.32 0.25 0.45 0.62 0.79 1.19 1.96 1.95 1.19 0.86 0.58 0.37 0.21 0.07 0.01 0.01 0.00 0.00 0.00 0.00 0.00 0.00 0.00 0.00 0.00 0.00 0.00 0.00 0.00 0.00
0.55 0.86 0.94 0.76 1.08 0.87 0.46 0.18 0.07 0.08 0.13 0.11 0.20 0.38 0.55 0.60 0.52 0.42 0.27 0.22 0.38 0.31 0.31 0.39 0.48 0.99 1.43 1.06 0.85 0.47 0.44 0.46 0.30 0.08 0.01 0.00 0.01 0.00 0.00 0.00 0.00 0.00 0.00 0.00 0.00 0.00 0.00 0.00 0.00
0.59 0.93 0.71 0.73 0.95 1.36 0.73 0.22 0.09 0.08 0.12 0.09 0.11 0.31 0.46 0.63 0.53 0.39 0.41 0.46 0.19 0.17 0.23 0.36 0.50 0.56 0.63 0.59 0.55 0.44 0.35 0.51 0.35 0.32 0.13 0.06 0.02 0.00 0.00 0.00 0.00 0.00 0.00 0.00 0.00 0.00 0.00 0.00 0.00
0.43 0.56 0.59 0.55 0.60 0.93 1.03 0.35 0.18 0.13 0.13 0.07 0.04 0.11 0.37 0.57 0.91 0.56 0.41 0.57 0.49 0.26 0.29 0.36 0.27 0.34 0.32 0.61 0.67 0.57 0.42 0.30 0.24 0.17 0.15 0.14 0.09 0.06 0.02 0.01 0.00 0.00 0.00 0.00 0.00 0.00 0.00 0.00 0.00
0.35 0.29 0.58 0.49 0.44 0.53 0.88 0.65 0.24 0.14 0.13 0.10 0.04 0.05 0.20 0.48 0.99 1.18 0.77 0.62 0.70 0.48 0.57 0.44 0.38 0.33 0.30 0.42 0.41 0.44 0.49 0.50 0.34 0.21 0.24 0.24 0.33 0.29 0.17 0.10 0.05 0.02 0.00 0.00 0.00 0.00 0.00 0.01 0.00
0.20 0.17 0.60 0.76 0.60 0.55 0.50 0.83 0.43 0.17 0.14 0.08 0.09 0.09 0.18 0.35 0.70 1.15 1.53 0.72 0.65 1.18 1.35 1.06 0.78 0.73 0.45 0.45 0.40 0.27 0.42 0.46 0.37 0.35 0.24 0.26 0.31 0.33 0.26 0.21 0.20 0.13 0.11 0.04 0.03 0.03 0.05 0.04 0.05
0.13 0.07 0.35 1.15 0.82 0.52 0.43 0.55 0.69 0.26 0.11 0.07 0.09 0.08 0.16 0.29 0.24 0.71 1.55 1.18 1.03 1.36 1.44 1.05 1.03 0.94 0.97 0.80 1.07 0.88 0.79 0.66 0.65 0.53 0.47 0.43 0.32 0.34 0.41 0.41 0.38 0.36 0.45 0.53 0.47 0.38 0.35 0.27 0.21
0.16 0.09 0.35 0.71 0.43 0.43 0.31 0.43 0.41 0.30 0.20 0.12 0.16 0.07 0.08 0.18 0.16 0.29 0.60 1.08 1.09 0.52 0.49 0.86 1.44 1.50 1.26 1.29 1.78 2.13 2.34 2.25 1.92 1.70 1.23 0.91 0.74 0.74 0.97 1.16 1.22 1.19 1.05 0.79 0.79 0.74 0.59 0.61 0.54
0.34 0.08 0.26 0.31 0.19 0.16 0.20 0.28 0.21 0.23 0.22 0.28 0.26 0.14 0.13 0.09 0.18 0.21 0.33 0.50 0.39 0.27 0.27 0.33 0.56 0.70 0.89 1.15 1.23 1.51 1.47 1.42 1.28 1.14 1.14 1.13 1.17 1.04 1.00 1.12 1.12 0.95 0.87 0.94 0.92 0.87 0.92 0.89 0.70
0.13 0.06 0.31 0.26 0.28 0.28 0.21 0.11 0.14 0.20 0.20 0.39 0.30 0.14 0.24 0.14 0.08 0.25 0.19 0.21 0.18 0.16 0.16 0.13 0.18 0.30 0.58 0.65 0.70 1.01 1.29 1.49 1.34 1.02 0.90 0.82 0.66 0.62 0.68 0.63 0.60 0.56 0.48 0.48 0.62 0.75 0.76 0.69 0.71
0.06 0.16 0.62 0.58 0.70 0.46 0.19 0.05 0.09 0.11 0.09 0.21 0.29 0.20 0.19 0.20 0.05 0.12 0.26 0.12 0.07 0.05 0.02 0.01 0.01 0.05 0.24 0.41 0.49 0.68 0.61 0.69 0.52 0.56 0.48 0.40 0.37 0.31 0.31 0.32 0.35 0.38 0.39 0.36 0.37 0.39 0.42 0.44 0.44
0.13 0.14 0.29 0.32 0.21 0.33 0.11 0.11 0.14 0.15 0.11 0.15 0.23 0.27 0.19 0.28 0.07 0.05 0.12 0.10 0.03 0.01 0.00 0.00 0.00 0.00 0.00 0.07 0.17 0.26 0.43 0.49 0.38 0.39 0.33 0.31 0.26 0.30 0.41 0.52 0.49 0.41 0.38 0.40 0.38 0.39 0.35 0.31 0.28
0.03 0.01 0.04 0.06 0.04 0.11 0.16 0.11 0.16 0.14 0.16 0.15 0.21 0.30 0.17 0.12 0.16 0.06 0.04 0.02 0.01 0.00 0.00 0.00 0.00 0.00 0.00 0.00 0.00 0.01 0.05 0.10 0.20 0.25 0.20 0.22 0.22 0.22 0.26 0.33 0.24 0.17 0.13 0.13 0.15 0.15 0.13 0.08 0.05
0.00 0.00 0.01 0.02 0.03 0.04 0.05 0.02 0.07 0.10 0.10 0.10 0.09 0.14 0.13 0.10 0.10 0.04 0.01 0.01 0.00 0.00 0.00 0.00 0.00 0.00 0.00 0.00 0.00 0.00 0.00 0.00 0.01 0.02 0.03 0.04 0.06 0.04 0.04 0.04 0.02 0.01 0.01 0.02 0.03 0.03 0.04 0.02 0.05
0.00 0.00 0.00 0.00 0.00 0.00 0.01 0.02 0.00 0.01 0.03 0.03 0.04 0.08 0.05 0.04 0.01 0.00 0.00 0.00 0.00 0.00 0.00 0.00 0.00 0.00 0.00 0.00 0.00 0.00 0.00 0.00 0.00 0.00 0.00 0.00 0.00 0.00 0.00 0.00 0.00 0.01 0.01 0.01 0.02 0.02 0.02 0.02 0.02
0.00 0.00 0.00 0.00 0.00 0.00 0.00 0.00 0.00 0.00 0.00 0.00 0.00 0.01 0.00 0.00 0.00 0.00 0.00 0.00 0.00 0.00 0.00 0.00 0.00 0.00 0.00 0.00 0.00 0.00 0.00 0.00 0.00 0.00 0.00 0.00 0.00 0.00 0.00 0.01 0.01 0.02 0.04 0.04 0.03 0.03 0.02 0.01 0.00

GFSSGP_prec_precacc24_087.txt.gz
Total_Precipitation_Accumulation
0.09 0.10 0.06 0.09 0.06 0.02 0.00 0.00 0.00 0.01 0.03 0.02 0.00 0.02 0.01 0.00 0.00 0.06 0.01 0.00 0.00 0.00 0.00 0.02 0.09 0.05 0.04 0.00 0.00 0.01 0.02 0.04 0.04 0.10 0.11 0.10 0.13 0.06 0.01 0.00 0.00 0.00 0.00 0.01 0.01 0.01 0.01 0.00 0.00
0.10 0.22 0.22 0.22 0.07 0.01 0.00 0.00 0.00 0.04 0.05 0.03 0.03 0.06 0.08 0.11 0.02 0.04 0.05 0.03 0.01 0.00 0.01 0.02 0.09 0.05 0.02 0.00 0.00 0.01 0.01 0.02 0.08 0.13 0.14 0.19 0.16 0.02 0.01 0.00 0.00 0.01 0.01 0.01 0.00 0.01 0.01 0.01 0.00
0.22 0.48 0.40 0.20 0.03 0.00 0.00 0.00 0.00 0.00 0.00 0.02 0.05 0.10 0.28 0.20 0.12 0.04 0.05 0.05 0.03 0.02 0.02 0.03 0.09 0.10 0.02 0.01 0.02 0.00 0.00 0.03 0.11 0.22 0.26 0.26 0.17 0.01 0.01 0.00 0.01 0.01 0.01 0.01 0.00 0.01 0.01 0.00 0.00
0.41 0.67 0.47 0.13 0.03 0.00 0.00 0.00 0.00 0.01 0.07 0.14 0.14 0.13 0.30 0.24 0.14 0.09 0.08 0.05 0.05 0.04 0.05 0.08 0.15 0.12 0.02 0.04 0.03 0.01 0.01 0.04 0.11 0.19 0.28 0.32 0.17 0.02 0.00 0.00 0.01 0.01 0.00 0.00 0.01 0.01 0.01 0.00 0.00
0.53 0.47 0.28 0.21 0.03 0.00 0.00 0.00 0.00 0.01 0.03 0.06 0.10 0.23 0.45 0.32 0.23 0.29 0.28 0.12 0.11 0.10 0.13 0.16 0.28 0.16 0.04 0.04 0.02 0.01 0.02 0.08 0.09 0.22 0.34 0.33 0.13 0.04 0.01 0.00 0.00 0.00 0.01 0.01 0.01 0.00 0.01 0.00 0.00
0.47 0.33 0.34 0.31 0.07 0.00 0.00 0.00 0.00 0.00 0.01 0.04 0.17 0.19 0.44 0.69 0.67 0.56 0.56 0.36 0.30 0.25 0.29 0.26 0.37 0.41 0.12 0.05 0.03 0.02 0.02 0.09 0.09 0.22 0.42 0.32 0.12 0.02 0.01 0.00 0.00 0.01 0.01 0.01 0.00 0.00 0.00 0.00 0.00
0.31 0.32 0.30 0.10 0.04 0.01 0.00 0.00 0.00 0.00 0.00 0.01 0.04 0.05 0.24 0.98 1.00 0.95 0.91 0.72 0.60 0.69 0.47 0.41 0.34 0.33 0.24 0.12 0.04 0.02 0.02 0.07 0.15 0.16 0.28 0.18 0.07 0.01 0.00 0.01 0.01 0.01 0.00 0.00 0.00 0.00 0.00 0.00 0.00
0.21 0.37 0.21 0.05 0.03 0.01 0.00 0.00 0.00 0.00 0.00 0.00 0.01 0.06 0.08 0.60 1.04 1.46 1.57 1.40 1.12 1.12 1.10 0.71 0.58 0.27 0.16 0.18 0.11 0.05 0.03 0.03 0.16 0.13 0.11 0.04 0.01 0.00 0.01 0.01 0.02 0.01 0.00 0.00 0.00 0.00 0.00 0.00 0.00
0.28 0.48 0.25 0.04 0.00 0.00 0.00 0.01 0.01 0.01 0.00 0.00 0.00 0.00 0.00 0.09 0.61 1.69 2.49 2.52 1.43 1.17 1.25 1.50 0.97 0.42 0.18 0.28 0.16 0.09 0.07 0.03 0.12 0.15 0.08 0.03 0.00 0.00 0.00 0.00 0.01 0.00 0.00 0.00 0.00 0.00 0.00 0.00 0.00
0.33 0.43 0.16 0.02 0.00 0.00 0.00 0.01 0.01 0.03 0.01 0.07 0.03 0.00 0.01 0.08 0.34 1.25 2.53 2.85 2.01 1.20 0.96 1.29 1.50 0.76 0.36 0.33 0.23 0.13 0.10 0.05 0.04 0.11 0.08 0.03 0.00 0.00 0.00 0.00 0.01 0.00 0.00 0.00 0.00 0.00 0.00 0.00 0.00
0.31 0.32 0.06 0.01 0.02 0.01 0.01 0.02 0.01 0.08 0.09 0.02 0.04 0.02 0.01 0.03 0.11 0.47 1.54 2.72 2.70 2.04 1.22 0.81 1.09 1.11 0.49 0.65 0.39 0.21 0.09 0.07 0.01 0.07 0.07 0.03 0.00 0.00 0.00 0.00 0.00 0.00 0.00 0.00 0.00 0.00 0.00 0.00 0.00
0.41 0.15 0.10 0.05 0.09 0.08 0.02 0.02 0.01 0.03 0.02 0.00 0.08 0.06 0.04 0.06 0.18 0.28 0.55 1.70 1.81 2.25 2.06 1.31 0.80 0.96 0.63 0.67 0.54 0.19 0.08 0.06 0.01 0.01 0.08 0.03 0.00 0.00 0.00 0.00 0.00 0.00 0.00 0.00 0.00 0.00 0.00 0.00 0.00
0.39 0.20 0.15 0.11 0.14 0.14 0.11 0.05 0.03 0.01 0.02 0.03 0.12 0.11 0.15 0.24 0.14 0.19 0.22 0.41 0.90 1.44 2.46 2.26 1.53 0.97 0.78 0.50 0.69 0.29 0.08 0.04 0.02 0.00 0.03 0.04 0.01 0.00 0.00 0.00 0.00 0.00 0.00 0.00 0.00 0.00 0.00 0.00 0.00
0.38 0.34 0.22 0.30 0.23 0.22 0.15 0.08 0.08 0.03 0.06 0.15 0.25 0.28 0.28 0.22 0.23 0.31 0.15 0.19 0.44 0.69 1.09 1.94 1.96 1.83 1.32 0.89 1.03 0.68 0.21 0.07 0.04 0.02 0.01 0.01 0.01 0.00 0.00 0.00 0.00 0.00 0.00 0.00 0.00 0.00 0.00 0.00 0.00
0.45 0.43 0.48 0.42 0.42 0.41 0.27 0.17 0.10 0.05 0.10 0.18 0.25 0.24 0.42 0.33 0.32 0.22 0.24 0.25 0.23 0.40 0.54 0.78 1.19 1.96 1.96 1.21 1.10 1.31 0.72 0.23 0.07 0.01 0.01 0.00 0.00 0.00 0.00 0.00 0.00 0.00 0.00 0.00 0.00 0.00 0.00 0.00 0.00
0.51 0.72 0.73 0.64 0.78 0.83 0.45 0.17 0.07 0.08 0.13 0.11 0.20 0.38 0.55 0.60 0.52 0.40 0.24 0.19 0.34 0.31 0.29 0.35 0.47 0.93 1.44 1.09 0.94 1.05 1.06 0.69 0.31 0.08 0.01 0.00 0.01 0.00 0.00 0.00 0.00 0.00 0.00 0.00 0.00 0.00 0.00 0.00 0.00
0.57 0.85 0.64 0.62 0.75 1.16 0.72 0.22 0.09 0.08 0.12 0.09 0.11 0.31 0.46 0.63 0.53 0.39 0.42 0.43 0.22 0.24 0.27 0.34 0.49 0.51 0.63 0.62 0.59 0.61 0.79 0.89 0.51 0.34 0.13 0.06 0.02 0.00 0.00 0.00 0.00 0.00 0.00 0.00 0.00 0.00 0.00 0.00 0.00
0.42 0.56 0.59 0.51 0.50 0.93 1.05 0.35 0.18 0.14 0.14 0.07 0.04 0.11 0.37 0.57 0.91 0.56 0.43 0.60 0.47 0.30 0.35 0.34 0.27 0.34 0.32 0.62 0.70 0.65 0.71 0.72 0.64 0.27 0.19 0.14 0.09 0.06 0.02 0.01 0.00 0.00 0.00 0.00 0.00 0.00 0.00 0.00 0.00
0.35 0.29 0.58 0.49 0.40 0.48 0.89 0.65 0.24 0.16 0.17 0.14 0.07 0.05 0.21 0.49 1.00 1.20 0.79 0.64 0.75 0.61 0.56 0.38 0.31 0.31 0.31 0.44 0.43 0.47 0.64 0.94 0.84 0.68 0.44 0.31 0.39 0.33 0.20 0.10 0.05 0.02 0.00 0.00 0.00 0.00 0.00 0.01 0.00
0.21 0.19 0.60 0.76 0.59 0.55 0.55 0.84 0.43 0.17 0.16 0.14 0.16 0.12 0.20 0.43 0.82 1.19 1.57 0.74 0.65 1.25 1.40 1.03 0.70 0.68 0.47 0.53 0.48 0.32 0.47 0.62 0.66 0.70 0.65 0.54 0.50 0.44 0.33 0.25 0.21 0.13 0.13 0.05 0.03 0.02 0.04 0.04 0.04
0.13 0.08 0.33 1.13 0.78 0.49 0.45 0.56 0.69 0.27 0.15 0.12 0.13 0.12 0.22 0.41 0.44 0.92 1.68 1.21 1.06 1.48 1.53 1.21 1.11 0.96 0.94 0.85 1.14 0.90 0.80 0.72 0.73 0.61 0.72 0.81 0.63 0.50 0.57 0.53 0.44 0.38 0.51 0.65 0.60 0.47 0.38 0.28 0.22
0.22 0.09 0.35 0.64 0.42 0.43 0.30 0.43 0.41 0.31 0.21 0.14 0.20 0.13 0.16 0.29 0.27 0.42 0.66 1.10 1.25 0.78 0.70 1.15 1.96 2.04 1.30 1.34 1.82 2.15 2.27 2.22 1.93 1.76 1.29 1.02 0.92 0.89 1.07 1.24 1.29 1.24 1.06 0.80 0.80 0.78 0.65 0.66 0.63
0.38 0.09 0.25 0.26 0.19 0.19 0.20 0.41 0.21 0.23 0.22 0.28 0.28 0.16 0.14 0.10 0.22 0.25 0.34 0.54 0.50 0.38 0.40 0.54 0.95 1.37 1.13 1.24 1.29 1.53 1.49 1.39 1.32 1.21 1.21 1.16 1.22 1.12 1.04 1.13 1.16 1.01 0.90 0.94 0.92 0.87 0.92 0.89 0.70
0.16 0.09 0.29 0.25 0.31 0.32 0.21 0.20 0.17 0.20 0.20 0.39 0.31 0.15 0.25 0.20 0.11 0.27 0.20 0.26 0.32 0.38 0.44 0.36 0.45 0.59 0.87 0.95 0.87 1.06 1.31 1.51 1.37 1.02 0.93 0.86 0.69 0.64 0.69 0.64 0.61 0.57 0.48 0.48 0.63 0.75 0.76 0.69 0.71
0.16 0.33 0.83 0.80 0.95 0.55 0.20 0.05 0.10 0.11 0.09 0.22 0.34 0.23 0.33 0.46 0.19 0.15 0.31 0.22 0.28 0.31 0.19 0.14 0.28 0.33 0.52 0.57 0.61 0.90 0.73 0.83 0.61 0.60 0.50 0.42 0.38 0.32 0.32 0.32 0.36 0.39 0.40 0.37 0.38 0.39 0.42 0.46 0.46
0.19 0.28 0.51 0.51 0.25 0.37 0.12 0.12 0.15 0.16 0.15 0.16 0.29 0.33 0.49 0.66 0.21 0.13 0.17 0.18 0.12 0.04 0.01 0.01 0.02 0.02 0.06 0.14 0.26 0.42 0.58 0.75 0.64 0.57 0.44 0.37 0.29 0.32 0.41 0.52 0.50 0.41 0.39 0.41 0.39 0.41 0.40 0.41 0.43
0.05 0.12 0.12 0.16 0.06 0.14 0.26 0.20 0.28 0.23 0.28 0.20 0.24 0.38 0.30 0.30 0.25 0.13 0.07 0.09 0.06 0.00 0.00 0.00 0.00 0.00 0.00 0.00 0.00 0.02 0.08 0.15 0.26 0.33 0.35 0.45 0.45 0.28 0.28 0.41 0.40 0.24 0.17 0.15 0.16 0.16 0.15 0.12 0.10
0.00 0.00 0.01 0.07 0.07 0.10 0.15 0.07 0.24 0.30 0.28 0.24 0.23 0.30 0.31 0.19 0.29 0.12 0.05 0.03 0.02 0.00 0.00 0.00 0.00 0.00 0.00 0.00 0.00 0.00 0.00 0.00 0.02 0.04 0.05 0.08 0.14 0.13 0.11 0.14 0.15 0.09 0.04 0.04 0.05 0.04 0.06 0.05 0.06
0.00 0.00 0.00 0.00 0.00 0.00 0.01 0.07 0.09 0.10 0.10 0.12 0.11 0.15 0.12 0.14 0.10 0.02 0.00 0.00 0.00 0.00 0.00 0.00 0.00 0.00 0.00 0.00 0.00 0.00 0.00 0.00 0.00 0.00 0.00 0.00 0.00 0.00 0.00 0.00 0.00 0.01 0.01 0.01 0.02 0.02 0.02 0.04 0.03
0.00 0.00 0.00 0.00 0.00 0.00 0.00 0.02 0.00 0.00 0.01 0.02 0.02 0.02 0.00 0.00 0.00 0.00 0.00 0.00 0.00 0.00 0.00 0.00 0.00 0.00 0.00 0.00 0.00 0.00 0.00 0.00 0.00 0.00 0.00 0.00 0.00 0.00 0.00 0.01 0.01 0.02 0.04 0.04 0.04 0.03 0.03 0.04 0.03

GFSSGP_prec_precacc24_090.txt.gz
Total_Precipitation_Accumulation
0.09 0.10 0.06 0.09 0.06 0.02 0.00 0.00 0.00 0.01 0.03 0.02 0.00 0.02 0.01 0.00 0.00 0.06 0.01 0.00 0.00 0.00 0.00 0.02 0.08 0.04 0.03 0.00 0.00 0.01 0.02 0.03 0.04 0.10 0.11 0.10 0.14 0.06 0.01 0.00 0.00 0.00 0.01 0.02 0.02 0.01 0.01 0.00 0.00
0.10 0.21 0.21 0.22 0.07 0.01 0.00 0.00 0.00 0.02 0.04 0.03 0.03 0.05 0.08 0.10 0.02 0.04 0.05 0.03 0.01 0.00 0.01 0.02 0.08 0.04 0.01 0.00 0.00 0.01 0.01 0.03 0.09 0.14 0.15 0.20 0.17 0.02 0.01 0.00 0.00 0.01 0.01 0.02 0.01 0.01 0.01 0.01 0.00
0.19 0.39 0.39 0.19 0.03 0.00 0.00 0.00 0.00 0.00 0.00 0.02 0.04 0.09 0.26 0.20 0.12 0.04 0.05 0.05 0.03 0.02 0.02 0.03 0.09 0.09 0.02 0.01 0.02 0.00 0.00 0.03 0.11 0.22 0.28 0.28 0.20 0.02 0.00 0.00 0.01 0.02 0.02 0.01 0.01 0.01 0.01 0.00 0.00
0.33 0.52 0.43 0.14 0.03 0.00 0.00 0.00 0.00 0.01 0.07 0.14 0.14 0.11 0.24 0.20 0.14 0.08 0.08 0.05 0.05 0.05 0.05 0.10 0.21 0.15 0.02 0.05 0.03 0.01 0.01 0.04 0.11 0.20 0.31 0.35 0.21 0.04 0.01 0.00 0.01 0.01 0.00 0.01 0.01 0.02 0.01 0.00 0.00
0.39 0.36 0.27 0.21 0.03 0.00 0.00 0.00 0.00 0.01 0.03 0.06 0.10 0.19 0.29 0.23 0.20 0.25 0.27 0.14 0.14 0.11 0.13 0.21 0.46 0.31 0.05 0.06 0.05 0.02 0.02 0.09 0.09 0.23 0.37 0.36 0.17 0.09 0.01 0.01 0.00 0.00 0.01 0.01 0.02 0.01 0.01 0.00 0.00
0.32 0.26 0.32 0.31 0.07 0.00 0.00 0.00 0.00 0.00 0.01 0.04 0.17 0.18 0.19 0.39 0.53 0.51 0.57 0.37 0.36 0.29 0.33 0.37 0.57 0.58 0.26 0.14 0.08 0.02 0.02 0.12 0.10 0.22 0.45 0.37 0.17 0.11 0.01 0.01 0.00 0.01 0.01 0.01 0.01 0.00 0.00 0.00 0.00
0.23 0.26 0.28 0.10 0.04 0.01 0.00 0.00 0.00 0.00 0.00 0.01 0.04 0.05 0.11 0.73 0.78 0.91 0.93 0.71 0.64 0.79 0.61 0.44 0.36 0.36 0.31 0.18 0.09 0.03 0.02 0.09 0.17 0.17 0.32 0.25 0.15 0.09 0.01 0.01 0.01 0.02 0.01 0.01 0.00 0.00 0.00 0.00 0.00
0.16 0.30 0.21 0.05 0.03 0.01 0.00 0.00 0.00 0.00 0.00 0.00 0.01 0.06 0.04 0.53 0.95 1.37 1.39 1.30 1.12 1.18 1.22 0.87 0.60 0.31 0.21 0.19 0.11 0.06 0.04 0.05 0.27 0.16 0.17 0.12 0.08 0.04 0.01 0.01 0.03 0.02 0.01 0.01 0.00 0.00 0.00 0.00 0.00
0.20 0.33 0.22 0.04 0.00 0.00 0.00 0.01 0.01 0.01 0.00 0.00 0.00 0.00 0.00 0.08 0.56 1.60 2.26 2.32 1.37 1.18 1.31 1.67 1.17 0.54 0.24 0.29 0.16 0.09 0.08 0.03 0.22 0.23 0.13 0.09 0.03 0.00 0.00 0.00 0.02 0.01 0.00 0.00 0.00 0.00 0.00 0.00 0.00
0.20 0.21 0.12 0.02 0.00 0.00 0.00 0.01 0.01 0.02 0.00 0.05 0.03 0.00 0.02 0.08 0.34 1.09 2.29 2.62 1.83 1.18 0.98 1.33 1.63 0.94 0.49 0.41 0.25 0.13 0.11 0.08 0.09 0.23 0.15 0.08 0.05 0.00 0.00 0.00 0.01 0.01 0.00 0.00 0.00 0.00 0.00 0.00 0.00
0.20 0.15 0.03 0.01 0.02 0.01 0.01 0.02 0.01 0.08 0.09 0.02 0.04 0.02 0.02 0.05 0.14 0.48 1.34 2.39 2.36 1.77 1.15 0.81 1.10 1.14 0.54 0.73 0.48 0.23 0.09 0.09 0.07 0.17 0.26 0.10 0.06 0.06 0.00 0.00 0.00 0.00 0.00 0.00 0.00 0.00 0.00 0.00 0.00
0.36 0.10 0.04 0.02 0.07 0.06 0.02 0.02 0.01 0.03 0.02 0.00 0.08 0.05 0.04 0.07 0.20 0.30 0.55 1.55 1.47 1.86 1.83 1.24 0.80 0.96 0.63 0.69 0.66 0.24 0.09 0.06 0.05 0.07 0.31 0.24 0.08 0.12 0.09 0.00 0.00 0.00 0.00 0.00 0.00 0.00 0.00 0.00 0.00
0.33 0.17 0.09 0.07 0.08 0.11 0.10 0.05 0.02 0.01 0.02 0.03 0.12 0.11 0.12 0.20 0.14 0.18 0.20 0.38 0.80 1.14 2.13 2.09 1.47 0.97 0.78 0.51 0.76 0.35 0.10 0.05 0.03 0.05 0.09 0.39 0.19 0.12 0.04 0.00 0.00 0.00 0.00 0.00 0.00 0.00 0.00 0.00 0.00
0.26 0.29 0.12 0.22 0.15 0.17 0.14 0.08 0.07 0.02 0.06 0.15 0.25 0.28 0.20 0.12 0.19 0.29 0.12 0.18 0.42 0.60 0.89 1.75 1.86 1.77 1.32 0.89 1.03 0.73 0.24 0.08 0.04 0.03 0.03 0.06 0.33 0.11 0.08 0.00 0.00 0.00 0.00 0.00 0.00 0.00 0.00 0.00 0.00
0.32 0.38 0.27 0.23 0.26 0.26 0.25 0.16 0.09 0.05 0.10 0.18 0.25 0.24 0.39 0.27 0.24 0.18 0.22 0.21 0.18 0.30 0.41 0.66 1.08 1.83 1.87 1.19 1.10 1.33 0.77 0.26 0.07 0.02 0.02 0.02 0.07 0.13 0.01 0.00 0.00 0.00 0.00 0.00 0.00 0.00 0.00 0.00 0.00
0.40 0.58 0.53 0.29 0.59 0.54 0.31 0.15 0.06 0.08 0.13 0.11 0.20 0.38 0.55 0.60 0.47 0.35 0.20 0.14 0.24 0.19 0.19 0.31 0.45 0.91 1.39 1.07 0.94 1.06 1.14 0.81 0.32 0.08 0.01 0.01 0.01 0.02 0.02 0.00 0.00 0.00 0.00 0.00 0.00 0.00 0.00 0.00 0.00
0.40 0.64 0.44 0.31 0.58 0.88 0.41 0.13 0.08 0.08 0.12 0.09 0.11 0.31 0.46 0.63 0.53 0.39 0.41 0.40 0.20 0.18 0.19 0.29 0.42 0.45 0.61 0.64 0.62 0.64 0.94 1.15 0.70 0.39 0.14 0.06 0.02 0.00 0.02 0.02 0.00 0.00 0.00 0.00 0.00 0.00 0.00 0.00 0.00
0.37 0.46 0.44 0.33 0.37 0.67 0.87 0.24 0.17 0.14 0.14 0.07 0.04 0.11 0.37 0.57 0.91 0.56 0.43 0.60 0.44 0.25 0.23 0.19 0.20 0.30 0.29 0.64 0.81 0.80 0.85 0.91 0.88 0.45 0.25 0.15 0.09 0.06 0.02 0.01 0.00 0.00 0.00 0.00 0.00 0.00 0.00 0.00 0.00
0.34 0.28 0.55 0.44 0.32 0.38 0.78 0.62 0.22 0.16 0.17 0.14 0.07 0.05 0.21 0.49 1.00 1.21 0.84 0.69 0.75 0.57 0.46 0.25 0.20 0.25 0.30 0.46 0.46 0.59 0.78 1.03 1.15 0.86 0.55 0.35 0.41 0.34 0.20 0.10 0.05 0.02 0.00 0.00 0.00 0.00 0.00 0.00 0.00
0.21 0.20 0.60 0.74 0.57 0.51 0.48 0.83 0.43 0.17 0.16 0.14 0.17 0.13 0.21 0.45 0.86 1.25 1.64 0.81 0.72 1.25 1.39 0.95 0.63 0.56 0.48 0.56 0.50 0.37 0.58 0.80 1.00 1.14 0.92 0.80 0.62 0.45 0.33 0.24 0.20 0.13 0.13 0.06 0.03 0.03 0.04 0.04 0.04
0.12 0.08 0.34 1.15 0.78 0.48 0.40 0.51 0.69 0.27 0.15 0.12 0.15 0.18 0.28 0.45 0.47 0.92 1.74 1.30 1.13 1.53 1.53 1.22 1.11 0.97 0.97 0.86 1.06 0.91 0.87 0.82 1.08 1.23 1.16 1.19 1.04 0.82 0.75 0.64 0.48 0.40 0.53 0.69 0.63 0.54 0.46 0.36 0.27
0.23 0.09 0.36 0.66 0.42 0.39 0.28 0.43 0.41 0.31 0.21 0.15 0.22 0.20 0.22 0.33 0.27 0.45 0.77 1.17 1.32 0.81 0.71 1.14 2.02 2.24 1.32 1.30 1.94 2.19 2.12 2.06 1.81 1.89 1.56 1.29 1.20 1.17 1.34 1.52 1.54 1.45 1.24 0.97 0.93 0.89 0.75 0.77 0.75
0.40 0.10 0.23 0.24 0.15 0.17 0.18 0.47 0.21 0.23 0.22 0.28 0.28 0.16 0.15 0.10 0.22 0.26 0.44 0.65 0.53 0.40 0.41 0.53 0.91 1.67 1.68 1.41 1.79 1.94 1.77 1.49 1.30 1.19 1.20 1.15 1.25 1.25 1.24 1.27 1.29 1.14 1.05 1.10 1.06 0.96 0.98 0.92 0.71
0.16 0.11 0.32 0.25 0.29 0.34 0.21 0.25 0.18 0.20 0.20 0.39 0.31 0.15 0.26 0.21 0.13 0.29 0.22 0.28 0.32 0.38 0.46 0.41 0.51 0.81 1.58 1.44 1.37 1.39 1.62 1.84 1.55 1.11 1.02 0.98 0.80 0.78 0.87 0.78 0.71 0.68 0.63 0.61 0.75 0.88 0.83 0.73 0.72
0.21 0.47 0.85 0.79 0.87 0.59 0.20 0.06 0.11 0.11 0.10 0.22 0.35 0.24 0.34 0.47 0.28 0.29 0.40 0.36 0.37 0.40 0.29 0.25 0.43 0.55 0.78 0.80 0.81 1.03 0.84 1.01 0.84 0.73 0.60 0.55 0.50 0.42 0.41 0.40 0.42 0.44 0.47 0.45 0.45 0.45 0.48 0.51 0.48
0.26 0.44 0.65 0.57 0.29 0.39 0.13 0.13 0.15 0.17 0.16 0.17 0.32 0.43 0.68 0.94 0.49 0.32 0.33 0.37 0.34 0.18 0.11 0.09 0.15 0.14 0.14 0.20 0.36 0.45 0.63 0.88 0.79 0.68 0.55 0.45 0.35 0.36 0.45 0.54 0.51 0.43 0.41 0.43 0.41 0.43 0.42 0.42 0.43
0.13 0.20 0.18 0.18 0.06 0.15 0.30 0.25 0.31 0.25 0.30 0.22 0.29 0.51 0.67 0.73 0.62 0.37 0.23 0.27 0.22 0.07 0.03 0.02 0.03 0.02 0.01 0.00 0.01 0.02 0.08 0.16 0.29 0.39 0.41 0.51 0.55 0.39 0.40 0.48 0.46 0.33 0.24 0.19 0.18 0.17 0.17 0.14 0.11
0.00 0.00 0.03 0.11 0.11 0.15 0.21 0.15 0.36 0.39 0.40 0.38 0.35 0.43 0.48 0.40 0.52 0.33 0.19 0.18 0.09 0.01 0.00 0.00 0.00 0.00 0.00 0.00 0.00 0.00 0.00 0.01 0.04 0.07 0.08 0.10 0.19 0.21 0.17 0.21 0.26 0.23 0.17 0.12 0.10 0.10 0.13 0.09 0.09
0.00 0.00 0.00 0.00 0.01 0.03 0.02 0.10 0.22 0.23 0.22 0.28 0.25 0.28 0.29 0.36 0.28 0.12 0.09 0.06 0.03 0.00 0.00 0.00 0.00 0.00 0.00 0.00 0.00 0.00 0.00 0.00 0.00 0.00 0.00 0.00 0.00 0.00 0.00 0.00 0.00 0.01 0.02 0.02 0.02 0.03 0.04 0.05 0.05
0.00 0.00 0.00 0.00 0.00 0.00 0.00 0.03 0.04 0.06 0.06 0.09 0.06 0.05 0.03 0.06 0.04 0.02 0.01 0.00 0.00 0.00 0.00 0.00 0.00 0.00 0.00 0.00 0.00 0.00 0.00 0.00 0.00 0.00 0.00 0.00 0.00 0.00 0.00 0.01 0.01 0.02 0.04 0.04 0.04 0.04 0.04 0.05 0.05

GFSSGP_prec_precacc24_093.txt.gz
Total_Precipitation_Accumulation
0.08 0.09 0.06 0.07 0.06 0.01 0.00 0.00 0.00 0.00 0.03 0.02 0.00 0.02 0.01 0.00 0.00 0.06 0.01 0.00 0.00 0.00 0.00 0.01 0.07 0.03 0.03 0.01 0.01 0.01 0.02 0.02 0.04 0.10 0.11 0.11 0.14 0.05 0.00 0.00 0.00 0.00 0.02 0.04 0.02 0.01 0.01 0.00 0.00
0.08 0.18 0.19 0.16 0.05 0.01 0.00 0.00 0.00 0.00 0.03 0.03 0.02 0.04 0.07 0.10 0.02 0.03 0.04 0.02 0.01 0.00 0.00 0.02 0.08 0.04 0.01 0.00 0.01 0.02 0.01 0.03 0.10 0.15 0.15 0.21 0.17 0.02 0.00 0.00 0.00 0.01 0.03 0.03 0.01 0.01 0.01 0.01 0.00
0.12 0.28 0.31 0.15 0.03 0.00 0.00 0.00 0.00 0.00 0.00 0.02 0.04 0.06 0.22 0.18 0.10 0.04 0.05 0.04 0.03 0.01 0.01 0.02 0.09 0.08 0.01 0.01 0.02 0.00 0.00 0.03 0.12 0.23 0.29 0.30 0.23 0.02 0.00 0.00 0.01 0.02 0.03 0.02 0.01 0.01 0.01 0.00 0.00
0.10 0.38 0.32 0.12 0.02 0.00 0.00 0.00 0.00 0.00 0.02 0.11 0.14 0.06 0.13 0.16 0.13 0.08 0.08 0.05 0.05 0.04 0.04 0.09 0.22 0.16 0.03 0.08 0.04 0.00 0.01 0.04 0.11 0.21 0.31 0.36 0.24 0.07 0.01 0.00 0.01 0.01 0.01 0.01 0.02 0.02 0.01 0.00 0.00
0.10 0.25 0.18 0.18 0.03 0.00 0.00 0.00 0.00 0.00 0.00 0.01 0.10 0.16 0.15 0.14 0.18 0.24 0.27 0.14 0.15 0.11 0.11 0.25 0.52 0.39 0.07 0.07 0.07 0.01 0.00 0.08 0.09 0.23 0.37 0.39 0.18 0.16 0.02 0.01 0.00 0.00 0.01 0.02 0.02 0.01 0.01 0.00 0.00
0.11 0.16 0.18 0.22 0.07 0.00 0.00 0.00 0.00 0.00 0.00 0.01 0.16 0.18 0.13 0.22 0.39 0.50 0.61 0.43 0.46 0.34 0.31 0.38 0.58 0.63 0.39 0.24 0.13 0.04 0.01 0.11 0.11 0.23 0.47 0.41 0.24 0.15 0.06 0.02 0.00 0.01 0.01 0.02 0.02 0.00 0.00 0.00 0.00
0.06 0.11 0.12 0.06 0.04 0.01 0.00 0.00 0.00 0.00 0.00 0.00 0.03 0.04 0.08 0.19 0.55 0.78 0.86 0.78 0.78 0.95 0.69 0.44 0.34 0.36 0.32 0.18 0.09 0.03 0.03 0.09 0.18 0.18 0.34 0.30 0.25 0.13 0.07 0.03 0.01 0.02 0.01 0.02 0.01 0.00 0.00 0.00 0.00
0.04 0.11 0.08 0.03 0.03 0.01 0.00 0.00 0.00 0.00 0.00 0.00 0.00 0.06 0.04 0.14 0.45 1.09 1.19 1.16 1.18 1.28 1.40 1.07 0.73 0.35 0.25 0.20 0.12 0.06 0.04 0.04 0.27 0.18 0.18 0.14 0.11 0.07 0.05 0.02 0.03 0.02 0.02 0.01 0.00 0.00 0.00 0.00 0.00
0.11 0.14 0.06 0.02 0.00 0.00 0.00 0.01 0.01 0.00 0.00 0.00 0.00 0.00 0.00 0.05 0.40 1.27 1.99 2.09 1.32 1.16 1.33 1.74 1.36 0.75 0.39 0.33 0.17 0.10 0.08 0.03 0.21 0.24 0.13 0.11 0.05 0.01 0.00 0.00 0.02 0.02 0.01 0.01 0.00 0.00 0.00 0.00 0.00
0.07 0.07 0.01 0.00 0.00 0.00 0.00 0.01 0.01 0.02 0.00 0.01 0.00 0.00 0.01 0.07 0.28 1.01 2.02 2.32 1.63 1.16 0.97 1.34 1.65 1.01 0.58 0.49 0.30 0.14 0.11 0.08 0.09 0.23 0.17 0.10 0.07 0.01 0.00 0.00 0.01 0.01 0.01 0.01 0.00 0.00 0.00 0.00 0.00
0.04 0.02 0.00 0.01 0.01 0.01 0.01 0.02 0.01 0.08 0.06 0.00 0.00 0.00 0.02 0.05 0.14 0.42 1.17 2.17 2.03 1.46 1.11 0.80 1.11 1.16 0.55 0.75 0.50 0.25 0.10 0.09 0.07 0.17 0.28 0.14 0.10 0.07 0.00 0.00 0.00 0.00 0.00 0.00 0.00 0.00 0.00 0.00 0.00
0.06 0.01 0.01 0.00 0.02 0.04 0.02 0.01 0.01 0.03 0.02 0.00 0.01 0.02 0.04 0.07 0.20 0.29 0.51 1.45 1.32 1.48 1.50 1.06 0.78 0.96 0.63 0.69 0.66 0.24 0.09 0.06 0.05 0.07 0.32 0.28 0.15 0.15 0.14 0.01 0.00 0.00 0.00 0.00 0.00 0.00 0.00 0.00 0.00
0.09 0.02 0.03 0.03 0.05 0.07 0.09 0.05 0.02 0.01 0.02 0.03 0.12 0.04 0.06 0.17 0.13 0.17 0.19 0.36 0.77 0.92 1.76 1.73 1.20 0.92 0.77 0.51 0.76 0.35 0.10 0.05 0.03 0.05 0.09 0.41 0.29 0.21 0.16 0.20 0.06 0.00 0.00 0.00 0.00 0.00 0.00 0.00 0.00
0.06 0.05 0.06 0.14 0.10 0.12 0.11 0.08 0.07 0.02 0.06 0.15 0.23 0.21 0.11 0.10 0.17 0.29 0.12 0.16 0.42 0.60 0.81 1.43 1.50 1.48 1.21 0.85 0.96 0.67 0.23 0.08 0.04 0.03 0.03 0.07 0.36 0.33 0.37 0.21 0.16 0.05 0.00 0.00 0.00 0.00 0.00 0.00 0.00
0.07 0.10 0.11 0.16 0.18 0.20 0.21 0.13 0.08 0.05 0.10 0.18 0.25 0.23 0.28 0.20 0.18 0.13 0.21 0.19 0.17 0.29 0.38 0.59 0.86 1.55 1.63 0.98 0.90 1.22 0.72 0.25 0.07 0.02 0.02 0.02 0.08 0.35 0.32 0.56 0.25 0.03 0.00 0.00 0.00 0.00 0.00 0.00 0.00
0.16 0.24 0.40 0.21 0.32 0.29 0.26 0.14 0.06 0.08 0.13 0.11 0.20 0.37 0.48 0.49 0.33 0.26 0.15 0.07 0.17 0.14 0.16 0.28 0.42 0.83 1.28 0.82 0.73 0.93 1.07 0.81 0.33 0.09 0.01 0.01 0.01 0.05 0.25 0.27 0.35 0.11 0.01 0.00 0.00 0.00 0.00 0.00 0.00
0.25 0.23 0.36 0.24 0.37 0.39 0.25 0.11 0.08 0.08 0.12 0.09 0.11 0.31 0.46 0.61 0.51 0.36 0.28 0.30 0.14 0.13 0.10 0.17 0.39 0.39 0.53 0.49 0.49 0.55 0.85 1.14 0.71 0.40 0.15 0.06 0.02 0.00 0.05 0.13 0.14 0.08 0.03 0.00 0.00 0.00 0.00 0.00 0.00
0.34 0.25 0.40 0.29 0.25 0.46 0.61 0.14 0.16 0.13 0.14 0.07 0.04 0.10 0.37 0.57 0.90 0.55 0.39 0.46 0.38 0.23 0.17 0.13 0.15 0.19 0.16 0.46 0.63 0.68 0.82 0.89 0.86 0.47 0.25 0.14 0.10 0.07 0.03 0.06 0.08 0.03 0.00 0.00 0.00 0.00 0.00 0.00 0.00
0.34 0.22 0.47 0.37 0.19 0.29 0.57 0.45 0.10 0.15 0.17 0.14 0.07 0.05 0.21 0.49 1.00 1.21 0.84 0.67 0.69 0.54 0.33 0.20 0.11 0.12 0.16 0.30 0.34 0.51 0.74 1.03 1.15 0.85 0.61 0.42 0.43 0.35 0.22 0.14 0.08 0.07 0.01 0.00 0.00 0.00 0.00 0.00 0.00
0.19 0.17 0.41 0.54 0.45 0.41 0.36 0.72 0.28 0.09 0.15 0.14 0.17 0.13 0.21 0.45 0.87 1.25 1.65 0.84 0.75 1.23 1.29 0.95 0.63 0.54 0.47 0.53 0.47 0.33 0.50 0.80 1.08 1.19 0.96 0.87 0.69 0.52 0.37 0.27 0.22 0.14 0.14 0.06 0.03 0.03 0.03 0.04 0.04
0.12 0.08 0.28 1.06 0.70 0.41 0.32 0.48 0.62 0.15 0.13 0.12 0.18 0.21 0.30 0.48 0.49 0.94 1.74 1.30 1.14 1.52 1.49 1.18 1.11 0.97 0.98 0.85 1.00 0.83 0.75 0.83 1.24 1.40 1.26 1.22 1.06 0.87 0.80 0.66 0.50 0.39 0.52 0.69 0.64 0.54 0.46 0.37 0.27
0.23 0.09 0.36 0.68 0.43 0.36 0.25 0.41 0.41 0.30 0.20 0.15 0.24 0.25 0.27 0.39 0.29 0.46 0.77 1.17 1.32 0.81 0.70 1.10 1.93 2.11 1.15 1.09 1.70 2.03 1.92 1.90 1.78 2.14 1.83 1.33 1.15 1.06 1.26 1.45 1.52 1.47 1.28 1.03 1.00 0.95 0.82 0.84 0.81
0.39 0.10 0.20 0.23 0.15 0.17 0.17 0.47 0.21 0.23 0.22 0.28 0.28 0.16 0.15 0.12 0.23 0.27 0.44 0.65 0.53 0.42 0.43 0.53 0.90 1.63 1.63 1.39 1.77 2.06 1.76 1.38 1.28 1.38 1.64 1.42 1.42 1.20 1.13 1.18 1.30 1.22 1.16 1.24 1.20 1.12 1.15 1.09 0.85
0.16 0.11 0.22 0.25 0.28 0.32 0.21 0.25 0.18 0.20 0.20 0.39 0.31 0.15 0.27 0.22 0.14 0.30 0.23 0.30 0.34 0.39 0.48 0.43 0.54 0.89 1.65 1.72 1.60 1.82 2.15 2.23 1.80 1.44 1.55 1.30 1.09 1.09 1.06 0.95 0.87 0.82 0.76 0.73 0.87 0.98 0.93 0.84 0.84
0.21 0.48 0.81 0.78 0.78 0.55 0.22 0.06 0.11 0.11 0.10 0.22 0.35 0.24 0.35 0.48 0.29 0.34 0.51 0.48 0.53 0.53 0.33 0.36 0.46 0.56 0.83 1.05 1.12 1.15 1.01 1.27 1.36 1.21 1.15 1.15 0.93 0.76 0.87 0.72 0.68 0.67 0.65 0.62 0.59 0.58 0.58 0.61 0.57
0.28 0.50 0.71 0.63 0.28 0.39 0.15 0.16 0.15 0.17 0.16 0.17 0.33 0.44 0.70 0.96 0.52 0.44 0.66 0.69 0.66 0.39 0.24 0.18 0.19 0.19 0.20 0.27 0.42 0.57 0.67 0.97 0.94 0.83 0.79 0.71 0.62 0.61 0.69 0.76 0.69 0.60 0.57 0.59 0.57 0.55 0.53 0.51 0.52
0.15 0.24 0.23 0.22 0.06 0.15 0.31 0.27 0.32 0.25 0.31 0.23 0.32 0.63 0.84 0.92 0.75 0.56 0.47 0.61 0.51 0.26 0.18 0.12 0.09 0.10 0.05 0.03 0.07 0.12 0.13 0.17 0.33 0.47 0.50 0.63 0.78 0.69 0.66 0.71 0.64 0.49 0.36 0.28 0.28 0.26 0.24 0.20 0.17
0.02 0.05 0.07 0.15 0.17 0.17 0.23 0.18 0.42 0.45 0.46 0.45 0.48 0.61 0.70 0.60 0.75 0.59 0.44 0.43 0.27 0.09 0.03 0.00 0.00 0.00 0.00 0.00 0.00 0.00 0.00 0.01 0.06 0.08 0.10 0.14 0.24 0.32 0.34 0.41 0.39 0.34 0.37 0.33 0.29 0.23 0.25 0.18 0.15
0.02 0.03 0.02 0.01 0.02 0.06 0.03 0.11 0.26 0.32 0.33 0.39 0.39 0.47 0.50 0.56 0.46 0.30 0.24 0.15 0.04 0.00 0.00 0.00 0.00 0.00 0.00 0.00 0.00 0.00 0.00 0.00 0.00 0.00 0.00 0.00 0.00 0.00 0.01 0.02 0.04 0.04 0.05 0.13 0.19 0.15 0.12 0.12 0.11
0.00 0.00 0.00 0.00 0.00 0.00 0.00 0.03 0.05 0.08 0.11 0.16 0.15 0.19 0.15 0.19 0.15 0.09 0.04 0.02 0.00 0.00 0.00 0.00 0.00 0.00 0.00 0.00 0.00 0.00 0.00 0.00 0.00 0.00 0.00 0.00 0.00 0.00 0.00 0.01 0.01 0.02 0.04 0.04 0.04 0.04 0.04 0.05 0.05

GFSSGP_prec_precacc24_096.txt.gz
Total_Precipitation_Accumulation
0.01 0.04 0.06 0.06 0.03 0.01 0.00 0.00 0.00 0.00 0.01 0.02 0.00 0.02 0.01 0.00 0.00 0.06 0.01 0.00 0.00 0.00 0.00 0.01 0.06 0.02 0.03 0.02 0.03 0.02 0.01 0.03 0.05 0.10 0.10 0.08 0.10 0.04 0.00 0.00 0.00 0.01 0.04 0.05 0.03 0.02 0.01 0.01 0.00
0.00 0.04 0.11 0.10 0.02 0.00 0.00 0.00 0.00 0.00 0.00 0.02 0.02 0.01 0.05 0.10 0.02 0.02 0.03 0.02 0.01 0.00 0.00 0.01 0.07 0.03 0.01 0.01 0.03 0.04 0.02 0.05 0.11 0.15 0.15 0.20 0.15 0.02 0.00 0.00 0.00 0.03 0.04 0.04 0.01 0.01 0.01 0.01 0.00
0.00 0.05 0.16 0.11 0.01 0.00 0.00 0.00 0.00 0.00 0.00 0.01 0.04 0.03 0.15 0.16 0.09 0.03 0.04 0.03 0.02 0.01 0.00 0.01 0.07 0.07 0.01 0.01 0.01 0.01 0.01 0.04 0.13 0.25 0.30 0.31 0.22 0.02 0.00 0.00 0.01 0.05 0.05 0.02 0.01 0.01 0.01 0.00 0.00
0.00 0.10 0.14 0.07 0.01 0.00 0.00 0.00 0.00 0.00 0.00 0.01 0.11 0.06 0.06 0.09 0.10 0.07 0.07 0.04 0.05 0.03 0.02 0.08 0.21 0.15 0.03 0.08 0.03 0.00 0.01 0.04 0.11 0.22 0.34 0.39 0.25 0.10 0.01 0.00 0.01 0.03 0.02 0.01 0.02 0.02 0.01 0.00 0.00
0.01 0.07 0.06 0.07 0.03 0.00 0.00 0.00 0.00 0.00 0.00 0.00 0.06 0.16 0.12 0.04 0.11 0.24 0.27 0.15 0.17 0.10 0.11 0.25 0.50 0.39 0.07 0.07 0.06 0.01 0.00 0.08 0.09 0.23 0.37 0.40 0.19 0.19 0.03 0.01 0.01 0.01 0.01 0.02 0.02 0.01 0.01 0.00 0.00
0.02 0.04 0.05 0.07 0.01 0.00 0.00 0.00 0.00 0.00 0.00 0.00 0.02 0.15 0.11 0.07 0.19 0.37 0.62 0.50 0.62 0.47 0.42 0.41 0.59 0.68 0.43 0.26 0.13 0.05 0.02 0.11 0.12 0.25 0.47 0.41 0.28 0.17 0.08 0.03 0.00 0.01 0.02 0.02 0.02 0.00 0.00 0.00 0.00
0.02 0.02 0.02 0.01 0.01 0.01 0.00 0.00 0.00 0.00 0.00 0.00 0.00 0.03 0.06 0.04 0.23 0.52 0.78 0.80 0.87 1.09 0.82 0.46 0.34 0.37 0.33 0.19 0.09 0.02 0.02 0.09 0.18 0.19 0.35 0.32 0.28 0.17 0.10 0.06 0.01 0.02 0.02 0.03 0.02 0.00 0.00 0.00 0.00
0.03 0.03 0.01 0.01 0.02 0.00 0.00 0.00 0.00 0.00 0.00 0.00 0.00 0.02 0.03 0.04 0.14 0.78 0.96 1.08 1.16 1.26 1.49 1.19 0.91 0.46 0.28 0.21 0.12 0.05 0.02 0.03 0.27 0.18 0.18 0.16 0.14 0.10 0.08 0.04 0.03 0.02 0.02 0.02 0.02 0.00 0.00 0.00 0.00
0.05 0.06 0.01 0.00 0.00 0.00 0.00 0.01 0.01 0.00 0.00 0.00 0.00 0.00 0.00 0.03 0.17 0.89 1.74 2.00 1.27 1.11 1.33 1.83 1.50 0.90 0.54 0.42 0.21 0.11 0.07 0.01 0.21 0.24 0.13 0.12 0.07 0.04 0.02 0.01 0.02 0.02 0.01 0.02 0.01 0.00 0.00 0.00 0.00
0.03 0.01 0.00 0.00 0.00 0.00 0.00 0.01 0.01 0.01 0.00 0.00 0.00 0.00 0.00 0.05 0.18 0.59 1.33 2.15 1.57 1.13 0.97 1.33 1.68 1.06 0.65 0.54 0.33 0.16 0.11 0.07 0.09 0.23 0.17 0.10 0.09 0.03 0.02 0.00 0.01 0.01 0.01 0.01 0.01 0.00 0.00 0.00 0.00
0.01 0.00 0.00 0.00 0.00 0.00 0.00 0.01 0.01 0.05 0.02 0.00 0.00 0.00 0.02 0.04 0.13 0.32 0.59 1.46 1.79 1.36 1.07 0.79 1.11 1.18 0.58 0.76 0.51 0.25 0.10 0.09 0.07 0.17 0.28 0.14 0.12 0.11 0.03 0.00 0.00 0.00 0.01 0.01 0.01 0.00 0.00 0.00 0.00
0.02 0.00 0.00 0.00 0.00 0.01 0.00 0.00 0.01 0.02 0.01 0.00 0.00 0.01 0.04 0.07 0.20 0.26 0.37 0.70 0.90 1.12 1.20 0.98 0.77 0.98 0.64 0.70 0.66 0.24 0.09 0.06 0.05 0.07 0.32 0.28 0.16 0.17 0.17 0.03 0.01 0.00 0.00 0.00 0.00 0.00 0.00 0.00 0.00
0.02 0.00 0.00 0.00 0.00 0.01 0.06 0.03 0.01 0.01 0.02 0.02 0.05 0.03 0.06 0.16 0.12 0.16 0.18 0.28 0.64 0.76 1.50 1.38 0.94 0.78 0.75 0.50 0.76 0.35 0.10 0.05 0.03 0.05 0.09 0.41 0.30 0.23 0.20 0.23 0.07 0.01 0.01 0.00 0.00 0.00 0.00 0.00 0.00
0.01 0.01 0.01 0.01 0.02 0.03 0.05 0.05 0.05 0.01 0.04 0.08 0.09 0.06 0.03 0.09 0.16 0.21 0.09 0.15 0.33 0.51 0.76 1.38 1.41 1.26 1.00 0.70 0.92 0.66 0.22 0.08 0.04 0.03 0.03 0.07 0.36 0.33 0.40 0.26 0.17 0.09 0.03 0.02 0.00 0.00 0.00 0.00 0.00
0.02 0.05 0.05 0.01 0.03 0.07 0.13 0.08 0.04 0.01 0.07 0.13 0.15 0.18 0.20 0.14 0.13 0.08 0.06 0.11 0.14 0.25 0.35 0.58 0.85 1.49 1.51 0.75 0.72 1.10 0.62 0.20 0.06 0.01 0.02 0.02 0.08 0.35 0.33 0.66 0.44 0.13 0.09 0.06 0.02 0.00 0.00 0.00 0.00
0.11 0.17 0.13 0.02 0.05 0.10 0.20 0.06 0.03 0.02 0.06 0.09 0.12 0.25 0.37 0.32 0.18 0.14 0.10 0.05 0.12 0.14 0.16 0.26 0.41 0.82 1.27 0.67 0.44 0.83 0.94 0.61 0.24 0.05 0.01 0.01 0.01 0.05 0.25 0.28 0.58 0.53 0.35 0.22 0.07 0.04 0.01 0.00 0.00
0.24 0.18 0.07 0.05 0.06 0.21 0.16 0.06 0.04 0.04 0.07 0.07 0.08 0.27 0.40 0.55 0.46 0.31 0.26 0.28 0.14 0.13 0.09 0.11 0.23 0.33 0.50 0.40 0.37 0.39 0.70 0.87 0.50 0.25 0.11 0.07 0.03 0.01 0.05 0.14 0.16 0.28 0.30 0.25 0.13 0.06 0.01 0.00 0.00
0.34 0.17 0.08 0.11 0.07 0.33 0.36 0.10 0.14 0.12 0.11 0.05 0.03 0.09 0.33 0.52 0.85 0.49 0.30 0.35 0.29 0.20 0.15 0.09 0.09 0.13 0.13 0.36 0.56 0.57 0.73 0.80 0.80 0.39 0.23 0.13 0.09 0.08 0.06 0.09 0.12 0.10 0.12 0.13 0.09 0.04 0.01 0.00 0.00
0.34 0.20 0.12 0.15 0.11 0.22 0.41 0.27 0.08 0.14 0.16 0.14 0.06 0.05 0.19 0.45 0.94 1.10 0.70 0.53 0.65 0.48 0.24 0.15 0.09 0.09 0.12 0.25 0.31 0.43 0.69 0.95 1.09 0.81 0.59 0.42 0.43 0.34 0.25 0.18 0.14 0.13 0.05 0.04 0.06 0.04 0.02 0.00 0.00
0.19 0.16 0.22 0.31 0.34 0.36 0.29 0.40 0.15 0.06 0.15 0.13 0.16 0.13 0.21 0.45 0.87 1.24 1.62 0.80 0.73 1.16 0.90 0.62 0.43 0.41 0.40 0.52 0.47 0.31 0.44 0.71 0.98 1.09 0.90 0.90 0.86 0.71 0.44 0.33 0.28 0.19 0.18 0.07 0.05 0.05 0.05 0.04 0.04
0.11 0.08 0.23 0.75 0.53 0.34 0.26 0.33 0.36 0.10 0.10 0.12 0.17 0.22 0.34 0.53 0.55 0.99 1.78 1.32 1.14 1.51 1.40 1.06 1.00 0.73 0.61 0.48 0.62 0.51 0.49 0.59 1.03 1.29 1.20 1.21 1.09 0.96 1.04 0.92 0.66 0.47 0.49 0.62 0.60 0.54 0.46 0.37 0.27
0.23 0.09 0.36 0.62 0.43 0.31 0.23 0.35 0.33 0.20 0.13 0.14 0.24 0.27 0.31 0.41 0.34 0.52 0.83 1.20 1.35 0.83 0.70 1.08 1.82 1.93 0.84 0.76 1.28 1.58 1.54 1.54 1.40 1.83 1.66 1.25 1.12 1.09 1.25 1.42 1.57 1.51 1.19 0.91 0.95 0.95 0.82 0.84 0.81
0.39 0.10 0.21 0.24 0.17 0.20 0.16 0.46 0.21 0.22 0.20 0.26 0.28 0.17 0.16 0.16 0.28 0.31 0.47 0.67 0.54 0.43 0.43 0.54 0.90 1.59 1.59 1.36 1.75 2.00 1.68 1.30 1.12 1.18 1.54 1.51 1.43 1.18 1.11 1.15 1.28 1.31 1.34 1.43 1.33 1.17 1.19 1.13 0.89
0.16 0.11 0.21 0.26 0.31 0.35 0.20 0.25 0.18 0.20 0.20 0.39 0.30 0.15 0.27 0.23 0.15 0.30 0.25 0.31 0.35 0.40 0.49 0.44 0.56 0.91 1.65 1.68 1.58 1.79 2.07 2.19 1.80 1.45 1.64 1.60 1.27 1.23 1.15 1.04 0.98 0.98 0.96 0.97 1.15 1.21 1.07 0.97 0.97
0.21 0.49 0.70 0.71 0.70 0.53 0.21 0.07 0.11 0.11 0.10 0.23 0.36 0.24 0.35 0.48 0.29 0.35 0.55 0.50 0.54 0.54 0.36 0.39 0.50 0.57 0.86 1.07 1.21 1.16 0.98 1.40 1.52 1.32 1.32 1.52 1.57 1.22 1.06 0.91 0.88 0.83 0.80 0.77 0.73 0.74 0.72 0.73 0.68
0.29 0.51 0.73 0.64 0.27 0.35 0.15 0.19 0.16 0.17 0.16 0.18 0.34 0.45 0.71 0.96 0.53 0.47 0.73 0.83 0.83 0.56 0.50 0.32 0.36 0.26 0.24 0.26 0.42 0.57 0.70 1.00 0.97 0.84 0.93 0.99 0.97 1.07 0.93 0.80 0.80 0.76 0.73 0.74 0.71 0.68 0.70 0.69 0.69
0.17 0.28 0.25 0.27 0.10 0.17 0.31 0.28 0.33 0.26 0.31 0.23 0.33 0.64 0.88 0.97 0.82 0.65 0.61 0.81 0.71 0.46 0.39 0.30 0.19 0.17 0.07 0.03 0.07 0.13 0.19 0.20 0.34 0.49 0.55 0.70 0.94 0.87 0.91 0.94 0.85 0.66 0.52 0.41 0.40 0.39 0.34 0.36 0.38
0.05 0.09 0.12 0.22 0.22 0.19 0.24 0.20 0.49 0.51 0.50 0.51 0.57 0.75 0.82 0.69 0.87 0.75 0.62 0.58 0.42 0.20 0.09 0.05 0.02 0.01 0.00 0.00 0.00 0.00 0.00 0.02 0.06 0.09 0.10 0.14 0.27 0.39 0.44 0.51 0.52 0.51 0.54 0.59 0.53 0.40 0.38 0.33 0.28
0.02 0.04 0.03 0.04 0.05 0.10 0.04 0.13 0.31 0.36 0.36 0.44 0.48 0.59 0.62 0.68 0.61 0.48 0.41 0.25 0.08 0.01 0.00 0.00 0.00 0.00 0.00 0.00 0.00 0.00 0.00 0.00 0.00 0.00 0.00 0.00 0.00 0.01 0.02 0.03 0.05 0.06 0.10 0.20 0.32 0.38 0.36 0.33 0.30
0.00 0.00 0.00 0.00 0.00 0.00 0.00 0.04 0.05 0.09 0.12 0.19 0.23 0.25 0.24 0.31 0.27 0.21 0.11 0.03 0.00 0.00 0.00 0.00 0.00 0.00 0.00 0.00 0.00 0.00 0.00 0.00 0.00 0.00 0.00 0.00 0.00 0.00 0.00 0.01 0.01 0.02 0.04 0.05 0.04 0.05 0.06 0.07 0.07

GFSSGP_prec_precacc24_099.txt.gz
Total_Precipitation_Accumulation
0.00 0.00 0.02 0.04 0.01 0.00 0.00 0.00 0.00 0.00 0.00 0.01 0.00 0.00 0.00 0.00 0.00 0.06 0.00 0.00 0.00 0.00 0.00 0.01 0.06 0.03 0.04 0.04 0.04 0.02 0.01 0.03 0.04 0.05 0.04 0.04 0.06 0.03 0.00 0.00 0.00 0.01 0.05 0.05 0.03 0.02 0.01 0.01 0.00
0.00 0.00 0.03 0.05 0.01 0.00 0.00 0.00 0.00 0.00 0.00 0.01 0.02 0.00 0.03 0.05 0.01 0.01 0.01 0.00 0.01 0.00 0.01 0.02 0.06 0.03 0.02 0.03 0.03 0.04 0.02 0.05 0.12 0.11 0.09 0.12 0.11 0.02 0.00 0.00 0.00 0.04 0.06 0.04 0.01 0.01 0.01 0.01 0.00
0.00 0.00 0.04 0.04 0.01 0.00 0.00 0.00 0.00 0.00 0.00 0.00 0.02 0.02 0.08 0.13 0.07 0.02 0.02 0.01 0.01 0.01 0.00 0.01 0.05 0.07 0.03 0.03 0.01 0.01 0.02 0.04 0.14 0.24 0.23 0.24 0.21 0.02 0.00 0.01 0.03 0.10 0.06 0.02 0.01 0.01 0.01 0.00 0.00
0.00 0.03 0.05 0.03 0.00 0.00 0.00 0.00 0.00 0.00 0.00 0.00 0.01 0.03 0.05 0.06 0.06 0.04 0.05 0.03 0.05 0.04 0.02 0.08 0.18 0.16 0.06 0.09 0.04 0.02 0.02 0.04 0.12 0.22 0.34 0.39 0.27 0.10 0.01 0.02 0.05 0.04 0.02 0.01 0.02 0.02 0.01 0.00 0.00
0.01 0.02 0.01 0.01 0.00 0.00 0.00 0.00 0.00 0.00 0.00 0.00 0.01 0.03 0.12 0.03 0.02 0.13 0.22 0.14 0.22 0.13 0.11 0.26 0.48 0.40 0.10 0.09 0.09 0.04 0.05 0.10 0.11 0.24 0.37 0.40 0.24 0.21 0.03 0.02 0.03 0.03 0.02 0.02 0.02 0.01 0.01 0.00 0.00
0.01 0.01 0.01 0.00 0.00 0.00 0.00 0.00 0.00 0.00 0.00 0.00 0.00 0.00 0.05 0.04 0.03 0.17 0.47 0.49 0.64 0.61 0.58 0.50 0.58 0.71 0.46 0.25 0.12 0.05 0.03 0.13 0.15 0.26 0.48 0.42 0.31 0.24 0.12 0.04 0.02 0.04 0.03 0.02 0.02 0.00 0.00 0.00 0.00
0.01 0.00 0.00 0.00 0.00 0.00 0.00 0.00 0.00 0.00 0.00 0.00 0.00 0.00 0.01 0.01 0.04 0.23 0.52 0.66 0.85 1.11 0.92 0.55 0.35 0.37 0.35 0.21 0.09 0.02 0.02 0.09 0.18 0.19 0.36 0.33 0.31 0.22 0.16 0.11 0.03 0.04 0.04 0.03 0.02 0.00 0.00 0.00 0.00
0.01 0.01 0.00 0.00 0.00 0.00 0.00 0.00 0.00 0.00 0.00 0.00 0.00 0.02 0.00 0.01 0.01 0.15 0.55 0.87 1.06 1.20 1.49 1.27 0.99 0.54 0.29 0.22 0.11 0.03 0.02 0.03 0.27 0.18 0.18 0.16 0.14 0.10 0.13 0.08 0.05 0.05 0.04 0.03 0.02 0.00 0.00 0.00 0.00
0.02 0.03 0.01 0.00 0.00 0.00 0.00 0.00 0.00 0.00 0.00 0.00 0.00 0.00 0.00 0.01 0.04 0.10 0.55 1.59 1.17 1.02 1.26 1.81 1.56 0.98 0.66 0.50 0.23 0.11 0.05 0.01 0.21 0.24 0.13 0.12 0.07 0.04 0.03 0.02 0.02 0.02 0.02 0.03 0.03 0.00 0.00 0.00 0.00
0.01 0.01 0.00 0.00 0.00 0.00 0.00 0.00 0.00 0.00 0.00 0.00 0.00 0.00 0.00 0.02 0.06 0.14 0.38 1.26 1.43 1.06 0.91 1.29 1.68 1.06 0.70 0.64 0.44 0.23 0.12 0.07 0.09 0.23 0.17 0.10 0.09 0.03 0.03 0.00 0.01 0.01 0.01 0.01 0.03 0.02 0.00 0.00 0.00
0.00 0.00 0.00 0.00 0.00 0.00 0.00 0.00 0.00 0.00 0.00 0.00 0.00 0.00 0.02 0.04 0.10 0.09 0.24 0.81 1.46 1.19 1.01 0.76 1.11 1.18 0.58 0.77 0.52 0.26 0.10 0.08 0.07 0.17 0.28 0.14 0.12 0.11 0.03 0.01 0.01 0.00 0.01 0.01 0.01 0.02 0.00 0.00 0.00
0.01 0.00 0.00 0.00 0.00 0.00 0.00 0.00 0.00 0.00 0.00 0.00 0.00 0.01 0.04 0.07 0.18 0.16 0.11 0.37 0.65 0.85 0.98 0.94 0.77 0.99 0.65 0.70 0.67 0.24 0.09 0.06 0.05 0.07 0.32 0.28 0.16 0.17 0.17 0.03 0.01 0.00 0.00 0.01 0.01 0.00 0.00 0.00 0.00
0.00 0.00 0.00 0.00 0.00 0.00 0.02 0.01 0.00 0.00 0.00 0.01 0.02 0.02 0.06 0.16 0.12 0.14 0.09 0.14 0.34 0.51 1.12 1.09 0.80 0.73 0.75 0.50 0.76 0.35 0.10 0.05 0.03 0.05 0.09 0.41 0.30 0.23 0.20 0.24 0.07 0.01 0.01 0.01 0.02 0.00 0.00 0.00 0.00
0.00 0.00 0.00 0.00 0.00 0.00 0.01 0.02 0.04 0.00 0.00 0.00 0.01 0.00 0.02 0.09 0.16 0.21 0.08 0.09 0.12 0.23 0.63 1.20 1.19 1.09 0.94 0.67 0.92 0.66 0.22 0.08 0.04 0.03 0.03 0.07 0.36 0.33 0.40 0.26 0.17 0.11 0.03 0.03 0.02 0.03 0.02 0.00 0.00
0.01 0.01 0.01 0.00 0.00 0.00 0.04 0.03 0.01 0.00 0.00 0.00 0.04 0.07 0.10 0.08 0.09 0.06 0.06 0.09 0.08 0.09 0.23 0.54 0.83 1.44 1.46 0.68 0.68 1.09 0.62 0.19 0.06 0.01 0.02 0.02 0.08 0.35 0.33 0.66 0.44 0.14 0.10 0.08 0.05 0.05 0.04 0.02 0.00
0.08 0.08 0.04 0.00 0.00 0.00 0.08 0.02 0.00 0.00 0.00 0.00 0.01 0.11 0.17 0.14 0.13 0.05 0.06 0.04 0.10 0.10 0.10 0.21 0.41 0.82 1.25 0.63 0.27 0.78 0.92 0.58 0.23 0.04 0.01 0.01 0.01 0.05 0.25 0.28 0.58 0.54 0.36 0.25 0.17 0.14 0.13 0.07 0.01
0.13 0.06 0.02 0.02 0.00 0.02 0.06 0.02 0.00 0.00 0.00 0.00 0.01 0.12 0.18 0.34 0.30 0.17 0.13 0.16 0.10 0.11 0.08 0.08 0.21 0.32 0.48 0.38 0.29 0.36 0.69 0.78 0.45 0.21 0.05 0.00 0.01 0.01 0.05 0.14 0.17 0.29 0.31 0.29 0.29 0.22 0.15 0.11 0.05
0.28 0.13 0.06 0.08 0.03 0.09 0.11 0.05 0.10 0.08 0.04 0.01 0.01 0.03 0.18 0.29 0.71 0.38 0.20 0.24 0.17 0.15 0.13 0.09 0.08 0.13 0.12 0.34 0.53 0.56 0.72 0.78 0.76 0.34 0.16 0.04 0.03 0.06 0.05 0.09 0.12 0.11 0.14 0.15 0.11 0.11 0.12 0.07 0.03
0.30 0.19 0.11 0.10 0.08 0.12 0.13 0.07 0.05 0.10 0.11 0.11 0.04 0.03 0.15 0.35 0.80 0.93 0.56 0.35 0.40 0.36 0.21 0.12 0.07 0.08 0.12 0.23 0.30 0.41 0.67 0.94 1.07 0.80 0.52 0.30 0.25 0.24 0.22 0.18 0.15 0.16 0.07 0.05 0.07 0.06 0.04 0.02 0.02
0.18 0.15 0.19 0.23 0.16 0.17 0.13 0.14 0.09 0.05 0.12 0.11 0.14 0.11 0.20 0.42 0.85 1.19 1.55 0.68 0.59 0.98 0.71 0.41 0.32 0.32 0.34 0.42 0.41 0.30 0.43 0.68 0.97 1.07 0.84 0.75 0.64 0.51 0.40 0.33 0.28 0.21 0.20 0.09 0.06 0.07 0.07 0.04 0.05
0.10 0.08 0.21 0.57 0.28 0.14 0.14 0.15 0.26 0.07 0.08 0.09 0.16 0.20 0.34 0.53 0.56 1.01 1.78 1.31 1.14 1.46 1.33 1.04 1.02 0.68 0.46 0.39 0.42 0.33 0.35 0.47 0.87 1.12 1.04 1.00 0.90 0.80 0.95 1.01 0.75 0.47 0.46 0.56 0.50 0.46 0.40 0.35 0.28
0.22 0.09 0.36 0.55 0.35 0.19 0.12 0.23 0.27 0.15 0.08 0.12 0.22 0.25 0.30 0.42 0.37 0.56 0.89 1.25 1.39 0.86 0.71 1.02 1.67 1.69 0.63 0.52 0.92 0.88 0.65 0.76 0.83 1.30 1.21 0.85 0.80 0.80 0.99 1.19 1.50 1.79 1.53 1.00 0.87 0.87 0.77 0.83 0.84
0.38 0.10 0.21 0.24 0.17 0.19 0.12 0.44 0.19 0.18 0.13 0.21 0.26 0.14 0.14 0.16 0.32 0.32 0.52 0.72 0.58 0.46 0.46 0.57 0.90 1.55 1.41 1.10 1.53 1.76 1.44 1.04 0.86 0.99 1.41 1.37 1.25 0.94 0.82 0.85 0.99 1.10 1.47 1.93 1.67 1.34 1.30 1.20 0.92
0.15 0.11 0.21 0.26 0.33 0.34 0.15 0.25 0.18 0.20 0.17 0.31 0.26 0.14 0.26 0.23 0.16 0.31 0.26 0.34 0.37 0.41 0.49 0.45 0.56 0.90 1.62 1.64 1.53 1.67 1.88 2.01 1.63 1.34 1.61 1.53 1.20 1.19 1.11 0.95 0.85 0.88 0.94 1.09 1.50 1.48 1.19 1.06 1.05
0.21 0.51 0.68 0.67 0.67 0.47 0.19 0.08 0.10 0.11 0.09 0.21 0.33 0.23 0.35 0.49 0.30 0.35 0.57 0.52 0.56 0.55 0.37 0.39 0.51 0.57 0.87 1.13 1.36 1.29 0.99 1.36 1.45 1.25 1.28 1.45 1.49 1.38 1.26 0.99 0.96 0.84 0.81 0.87 0.97 1.14 1.09 0.90 0.79
0.29 0.52 0.74 0.63 0.25 0.28 0.15 0.21 0.17 0.18 0.16 0.18 0.34 0.44 0.70 0.97 0.54 0.48 0.75 0.90 0.88 0.60 0.57 0.38 0.47 0.32 0.24 0.27 0.46 0.63 0.77 1.02 0.99 0.85 0.93 0.98 0.99 1.12 1.28 0.96 0.78 0.79 0.77 0.75 0.81 0.84 0.93 0.92 0.88
0.19 0.30 0.27 0.28 0.09 0.16 0.30 0.30 0.36 0.34 0.36 0.26 0.35 0.67 0.93 1.02 0.88 0.71 0.72 0.94 0.83 0.60 0.57 0.54 0.38 0.40 0.16 0.08 0.11 0.14 0.19 0.21 0.34 0.49 0.56 0.72 0.98 0.91 0.96 1.03 0.94 0.80 0.72 0.62 0.58 0.54 0.48 0.53 0.59
0.05 0.09 0.14 0.26 0.25 0.19 0.24 0.23 0.57 0.59 0.56 0.57 0.64 0.84 0.92 0.83 1.02 0.87 0.73 0.63 0.50 0.33 0.22 0.18 0.12 0.05 0.01 0.00 0.00 0.00 0.00 0.02 0.06 0.09 0.10 0.14 0.28 0.43 0.55 0.62 0.60 0.62 0.66 0.71 0.69 0.60 0.62 0.60 0.50
0.02 0.04 0.03 0.05 0.07 0.12 0.05 0.14 0.36 0.45 0.41 0.46 0.52 0.65 0.71 0.79 0.74 0.61 0.49 0.31 0.15 0.05 0.01 0.00 0.00 0.00 0.00 0.00 0.00 0.00 0.00 0.00 0.00 0.00 0.00 0.00 0.00 0.01 0.02 0.04 0.06 0.08 0.13 0.27 0.42 0.48 0.54 0.56 0.56
0.00 0.00 0.00 0.00 0.00 0.00 0.00 0.04 0.05 0.11 0.14 0.20 0.25 0.28 0.29 0.38 0.34 0.27 0.13 0.03 0.00 0.00 0.00 0.00 0.00 0.00 0.00 0.00 0.00 0.00 0.00 0.00 0.00 0.00 0.00 0.00 0.00 0.00 0.00 0.01 0.01 0.02 0.04 0.05 0.05 0.06 0.08 0.10 0.13

GFSSGP_prec_precacc24_102.txt.gz
Total_Precipitation_Accumulation
0.00 0.00 0.00 0.00 0.00 0.00 0.00 0.00 0.00 0.00 0.00 0.00 0.00 0.00 0.00 0.00 0.00 0.06 0.00 0.00 0.01 0.01 0.02 0.02 0.08 0.06 0.06 0.05 0.05 0.02 0.01 0.02 0.02 0.03 0.03 0.04 0.05 0.03 0.00 0.00 0.00 0.01 0.08 0.05 0.03 0.02 0.01 0.01 0.01
0.00 0.00 0.01 0.02 0.00 0.00 0.00 0.00 0.00 0.00 0.00 0.00 0.00 0.00 0.00 0.01 0.01 0.01 0.01 0.00 0.01 0.02 0.04 0.04 0.09 0.09 0.09 0.06 0.04 0.04 0.02 0.04 0.05 0.04 0.04 0.07 0.08 0.02 0.00 0.00 0.00 0.05 0.10 0.04 0.01 0.01 0.01 0.01 0.00
0.00 0.00 0.01 0.01 0.00 0.00 0.00 0.00 0.00 0.00 0.00 0.00 0.00 0.00 0.02 0.08 0.06 0.01 0.02 0.00 0.00 0.02 0.07 0.04 0.08 0.09 0.08 0.07 0.03 0.02 0.02 0.03 0.09 0.10 0.09 0.16 0.19 0.02 0.01 0.02 0.03 0.12 0.10 0.03 0.01 0.01 0.01 0.00 0.00
0.00 0.01 0.01 0.01 0.00 0.00 0.00 0.00 0.00 0.00 0.00 0.00 0.01 0.01 0.01 0.02 0.04 0.02 0.02 0.02 0.04 0.04 0.09 0.11 0.22 0.19 0.13 0.15 0.08 0.04 0.02 0.04 0.09 0.16 0.22 0.33 0.27 0.10 0.02 0.05 0.07 0.06 0.02 0.01 0.02 0.02 0.01 0.00 0.00
0.00 0.00 0.00 0.00 0.00 0.00 0.00 0.00 0.00 0.00 0.00 0.00 0.00 0.02 0.06 0.01 0.01 0.10 0.12 0.12 0.20 0.13 0.16 0.33 0.52 0.45 0.18 0.19 0.17 0.09 0.09 0.13 0.12 0.21 0.30 0.36 0.24 0.22 0.05 0.06 0.06 0.05 0.02 0.02 0.02 0.01 0.01 0.00 0.00
0.00 0.00 0.00 0.00 0.00 0.00 0.00 0.00 0.00 0.00 0.00 0.00 0.00 0.00 0.01 0.01 0.02 0.11 0.35 0.42 0.60 0.60 0.59 0.59 0.60 0.72 0.52 0.31 0.17 0.12 0.09 0.23 0.24 0.31 0.47 0.42 0.32 0.26 0.15 0.08 0.05 0.07 0.03 0.02 0.02 0.00 0.00 0.00 0.00
0.00 0.00 0.00 0.00 0.00 0.00 0.00 0.00 0.00 0.00 0.00 0.00 0.00 0.00 0.00 0.01 0.01 0.15 0.31 0.54 0.77 1.06 0.87 0.55 0.37 0.42 0.37 0.23 0.10 0.02 0.02 0.09 0.20 0.24 0.40 0.35 0.33 0.26 0.20 0.15 0.09 0.12 0.08 0.03 0.02 0.00 0.00 0.00 0.00
0.00 0.00 0.00 0.00 0.00 0.00 0.00 0.00 0.00 0.00 0.00 0.00 0.00 0.00 0.00 0.00 0.00 0.06 0.19 0.46 0.89 1.07 1.42 1.23 0.95 0.59 0.31 0.21 0.11 0.03 0.02 0.03 0.27 0.17 0.19 0.16 0.14 0.11 0.14 0.10 0.07 0.14 0.11 0.04 0.02 0.00 0.00 0.00 0.00
0.00 0.01 0.00 0.00 0.00 0.00 0.00 0.00 0.00 0.00 0.00 0.00 0.00 0.00 0.00 0.01 0.03 0.02 0.17 0.34 0.78 0.84 1.15 1.76 1.52 0.96 0.69 0.52 0.26 0.12 0.06 0.01 0.21 0.24 0.13 0.12 0.07 0.04 0.03 0.02 0.02 0.04 0.07 0.06 0.03 0.00 0.00 0.00 0.00
0.00 0.00 0.00 0.00 0.00 0.00 0.00 0.00 0.00 0.00 0.00 0.00 0.00 0.00 0.00 0.02 0.06 0.05 0.06 0.28 0.58 0.79 0.79 1.21 1.64 1.06 0.70 0.64 0.45 0.24 0.15 0.08 0.09 0.23 0.17 0.11 0.09 0.03 0.03 0.01 0.01 0.02 0.02 0.04 0.06 0.04 0.00 0.00 0.00
0.00 0.00 0.00 0.00 0.00 0.00 0.00 0.00 0.00 0.00 0.00 0.00 0.00 0.00 0.02 0.04 0.10 0.07 0.03 0.09 0.30 0.49 0.67 0.66 1.06 1.18 0.58 0.77 0.51 0.23 0.08 0.07 0.07 0.17 0.29 0.16 0.12 0.11 0.04 0.01 0.01 0.01 0.01 0.01 0.01 0.03 0.01 0.00 0.00
0.00 0.00 0.00 0.00 0.00 0.00 0.00 0.00 0.00 0.00 0.00 0.00 0.00 0.01 0.02 0.07 0.18 0.16 0.05 0.06 0.14 0.25 0.37 0.78 0.72 0.98 0.65 0.70 0.66 0.23 0.07 0.05 0.05 0.07 0.32 0.28 0.16 0.17 0.17 0.03 0.03 0.02 0.00 0.01 0.01 0.00 0.01 0.00 0.00
0.00 0.00 0.00 0.00 0.00 0.00 0.00 0.00 0.00 0.00 0.00 0.00 0.01 0.02 0.04 0.16 0.12 0.14 0.08 0.03 0.04 0.14 0.25 0.57 0.71 0.73 0.76 0.51 0.76 0.34 0.09 0.04 0.03 0.05 0.09 0.41 0.30 0.23 0.20 0.24 0.07 0.03 0.03 0.01 0.02 0.00 0.00 0.00 0.00
0.00 0.00 0.00 0.00 0.00 0.00 0.00 0.00 0.00 0.00 0.00 0.00 0.00 0.00 0.01 0.09 0.16 0.20 0.08 0.06 0.02 0.06 0.15 0.44 0.72 0.98 0.94 0.67 0.92 0.66 0.22 0.07 0.02 0.02 0.02 0.07 0.36 0.33 0.40 0.26 0.17 0.11 0.03 0.03 0.02 0.03 0.02 0.00 0.00
0.00 0.01 0.00 0.00 0.00 0.00 0.00 0.00 0.00 0.00 0.00 0.00 0.00 0.00 0.01 0.08 0.09 0.05 0.06 0.08 0.06 0.04 0.09 0.20 0.62 1.27 1.28 0.65 0.67 1.09 0.62 0.20 0.06 0.01 0.01 0.01 0.08 0.35 0.33 0.67 0.44 0.14 0.12 0.12 0.08 0.07 0.06 0.05 0.02
0.03 0.03 0.02 0.00 0.00 0.00 0.03 0.01 0.00 0.00 0.00 0.00 0.00 0.00 0.00 0.08 0.13 0.05 0.06 0.04 0.10 0.09 0.05 0.13 0.31 0.77 1.18 0.53 0.25 0.77 0.92 0.59 0.23 0.04 0.01 0.01 0.00 0.05 0.25 0.28 0.59 0.54 0.37 0.28 0.20 0.16 0.15 0.14 0.09
0.02 0.02 0.01 0.00 0.00 0.01 0.02 0.00 0.00 0.00 0.00 0.00 0.00 0.00 0.00 0.10 0.21 0.16 0.13 0.15 0.09 0.10 0.07 0.05 0.16 0.30 0.48 0.37 0.28 0.36 0.69 0.78 0.45 0.21 0.05 0.00 0.01 0.01 0.05 0.14 0.17 0.29 0.32 0.30 0.31 0.25 0.18 0.15 0.10
0.07 0.11 0.05 0.03 0.01 0.06 0.06 0.01 0.06 0.07 0.04 0.00 0.00 0.00 0.01 0.07 0.34 0.19 0.15 0.20 0.16 0.15 0.12 0.06 0.05 0.11 0.11 0.27 0.43 0.48 0.63 0.77 0.76 0.34 0.16 0.04 0.03 0.04 0.04 0.08 0.12 0.12 0.15 0.16 0.12 0.14 0.14 0.10 0.06
0.07 0.11 0.08 0.04 0.02 0.10 0.04 0.01 0.02 0.09 0.11 0.10 0.03 0.00 0.03 0.13 0.36 0.39 0.33 0.27 0.35 0.31 0.19 0.12 0.06 0.07 0.10 0.20 0.24 0.34 0.64 0.93 1.07 0.80 0.52 0.30 0.24 0.19 0.12 0.12 0.15 0.16 0.08 0.06 0.08 0.08 0.05 0.04 0.04
0.05 0.10 0.12 0.18 0.11 0.13 0.10 0.04 0.01 0.05 0.09 0.09 0.14 0.09 0.13 0.29 0.57 0.75 0.76 0.44 0.36 0.44 0.34 0.27 0.22 0.25 0.28 0.41 0.40 0.26 0.40 0.67 0.97 1.07 0.84 0.75 0.64 0.47 0.27 0.20 0.17 0.16 0.20 0.09 0.07 0.08 0.07 0.05 0.03
0.03 0.06 0.19 0.49 0.19 0.13 0.11 0.07 0.06 0.03 0.04 0.06 0.12 0.19 0.30 0.47 0.48 0.85 1.44 1.14 0.92 0.97 0.81 0.76 0.86 0.68 0.50 0.42 0.35 0.27 0.29 0.42 0.81 1.06 1.01 0.97 0.88 0.76 0.75 0.74 0.53 0.28 0.37 0.52 0.44 0.38 0.31 0.27 0.24
0.20 0.08 0.30 0.36 0.22 0.16 0.06 0.08 0.02 0.02 0.02 0.05 0.18 0.25 0.28 0.38 0.34 0.53 0.87 1.21 1.37 0.85 0.69 0.93 1.56 1.70 0.57 0.44 0.76 0.72 0.38 0.41 0.49 1.01 0.98 0.70 0.64 0.59 0.57 0.63 0.90 1.31 1.33 0.87 0.76 0.74 0.69 0.76 0.77
0.36 0.07 0.16 0.19 0.16 0.19 0.03 0.33 0.07 0.06 0.05 0.12 0.24 0.12 0.11 0.14 0.32 0.33 0.53 0.73 0.59 0.48 0.50 0.58 0.91 1.54 1.35 0.96 1.40 1.56 1.09 0.65 0.55 0.72 1.14 1.06 0.95 0.75 0.63 0.54 0.61 0.79 1.17 1.48 1.29 1.26 1.40 1.32 0.99
0.11 0.10 0.20 0.26 0.33 0.32 0.05 0.22 0.14 0.14 0.15 0.29 0.26 0.11 0.22 0.21 0.15 0.31 0.26 0.34 0.38 0.42 0.50 0.48 0.59 0.93 1.59 1.59 1.47 1.55 1.70 1.80 1.43 1.14 1.40 1.33 1.05 1.01 0.90 0.77 0.69 0.69 0.78 0.92 1.22 1.22 1.12 1.16 1.25
0.20 0.51 0.67 0.66 0.67 0.37 0.13 0.06 0.09 0.11 0.10 0.21 0.31 0.18 0.32 0.47 0.30 0.36 0.58 0.53 0.56 0.56 0.37 0.39 0.51 0.57 0.86 1.12 1.39 1.40 1.11 1.42 1.46 1.24 1.24 1.43 1.47 1.32 1.24 1.07 1.05 0.89 0.83 0.85 0.92 1.10 1.01 0.85 0.82
0.30 0.54 0.75 0.63 0.23 0.18 0.12 0.19 0.16 0.20 0.19 0.18 0.30 0.36 0.67 0.95 0.55 0.50 0.79 0.96 0.92 0.62 0.58 0.38 0.49 0.33 0.25 0.28 0.51 0.82 1.06 1.35 1.13 0.95 0.94 0.95 0.98 1.10 1.29 1.08 1.04 1.02 0.89 0.79 0.78 0.87 1.03 1.01 0.93
0.21 0.32 0.28 0.29 0.08 0.15 0.29 0.30 0.37 0.38 0.39 0.27 0.35 0.61 0.88 1.02 0.91 0.78 0.83 1.08 0.95 0.70 0.63 0.61 0.50 0.47 0.18 0.09 0.12 0.16 0.20 0.24 0.40 0.51 0.56 0.72 0.98 0.90 0.98 1.11 1.03 0.93 0.85 0.75 0.71 0.66 0.63 0.73 0.72
0.05 0.10 0.15 0.27 0.25 0.18 0.23 0.24 0.60 0.64 0.59 0.58 0.65 0.86 0.95 0.89 1.09 0.94 0.84 0.76 0.60 0.48 0.38 0.37 0.28 0.09 0.03 0.02 0.02 0.01 0.01 0.02 0.06 0.09 0.10 0.14 0.28 0.43 0.56 0.67 0.66 0.68 0.71 0.79 0.81 0.73 0.75 0.79 0.74
0.02 0.04 0.03 0.05 0.07 0.13 0.05 0.14 0.38 0.49 0.43 0.47 0.54 0.68 0.76 0.85 0.81 0.68 0.54 0.34 0.17 0.10 0.02 0.02 0.01 0.00 0.00 0.00 0.00 0.00 0.00 0.00 0.00 0.00 0.00 0.00 0.00 0.01 0.02 0.04 0.06 0.08 0.15 0.30 0.46 0.56 0.62 0.69 0.72
0.00 0.00 0.00 0.00 0.00 0.00 0.01 0.04 0.05 0.11 0.14 0.20 0.25 0.28 0.30 0.39 0.36 0.28 0.14 0.04 0.01 0.00 0.00 0.00 0.00 0.00 0.00 0.00 0.00 0.00 0.00 0.00 0.00 0.00 0.00 0.00 0.00 0.00 0.00 0.00 0.01 0.02 0.04 0.05 0.05 0.07 0.09 0.12 0.17

GFSSGP_prec_precacc24_105.txt.gz
Total_Precipitation_Accumulation
0.00 0.00 0.00 0.00 0.00 0.00 0.00 0.00 0.00 0.00 0.00 0.00 0.00 0.00 0.00 0.00 0.00 0.02 0.00 0.00 0.01 0.01 0.04 0.04 0.07 0.08 0.07 0.05 0.05 0.02 0.02 0.03 0.02 0.03 0.04 0.04 0.06 0.02 0.00 0.00 0.00 0.02 0.13 0.11 0.04 0.03 0.02 0.01 0.00
0.00 0.00 0.00 0.01 0.00 0.00 0.00 0.00 0.00 0.00 0.00 0.00 0.00 0.00 0.00 0.00 0.01 0.01 0.00 0.00 0.01 0.03 0.07 0.09 0.10 0.12 0.13 0.09 0.05 0.04 0.03 0.04 0.05 0.04 0.04 0.06 0.07 0.03 0.00 0.00 0.00 0.07 0.16 0.11 0.02 0.01 0.01 0.01 0.00
0.00 0.00 0.00 0.00 0.00 0.00 0.00 0.00 0.00 0.00 0.00 0.00 0.00 0.00 0.01 0.02 0.04 0.01 0.01 0.00 0.00 0.02 0.10 0.11 0.11 0.14 0.15 0.14 0.09 0.04 0.04 0.02 0.04 0.06 0.07 0.10 0.15 0.03 0.01 0.02 0.03 0.14 0.14 0.07 0.01 0.01 0.01 0.00 0.00
0.00 0.00 0.00 0.00 0.00 0.00 0.00 0.00 0.00 0.00 0.00 0.00 0.00 0.00 0.00 0.01 0.02 0.01 0.01 0.01 0.03 0.04 0.10 0.16 0.23 0.22 0.22 0.25 0.15 0.09 0.04 0.02 0.03 0.07 0.11 0.17 0.21 0.10 0.03 0.06 0.08 0.06 0.06 0.04 0.02 0.01 0.00 0.00 0.00
0.00 0.00 0.00 0.00 0.00 0.00 0.00 0.00 0.00 0.00 0.00 0.00 0.00 0.01 0.05 0.01 0.00 0.05 0.09 0.08 0.20 0.12 0.14 0.31 0.49 0.46 0.22 0.27 0.26 0.17 0.14 0.16 0.11 0.13 0.15 0.25 0.23 0.23 0.08 0.08 0.08 0.06 0.03 0.03 0.02 0.01 0.00 0.00 0.00
0.00 0.00 0.00 0.00 0.00 0.00 0.00 0.00 0.00 0.00 0.00 0.00 0.00 0.00 0.01 0.01 0.01 0.06 0.26 0.33 0.54 0.57 0.52 0.54 0.54 0.62 0.51 0.33 0.22 0.16 0.15 0.27 0.25 0.23 0.29 0.35 0.34 0.29 0.21 0.11 0.08 0.08 0.03 0.02 0.02 0.00 0.00 0.00 0.00
0.00 0.00 0.00 0.00 0.00 0.00 0.00 0.00 0.00 0.00 0.00 0.00 0.00 0.00 0.00 0.01 0.01 0.11 0.20 0.38 0.61 0.99 0.82 0.47 0.35 0.36 0.34 0.23 0.11 0.03 0.02 0.09 0.21 0.23 0.35 0.37 0.36 0.28 0.23 0.18 0.14 0.21 0.12 0.04 0.02 0.00 0.00 0.00 0.00
0.00 0.00 0.00 0.00 0.00 0.00 0.00 0.00 0.00 0.00 0.00 0.00 0.00 0.00 0.00 0.00 0.00 0.04 0.06 0.16 0.53 0.90 1.31 1.12 0.90 0.61 0.34 0.22 0.12 0.04 0.03 0.03 0.27 0.17 0.21 0.19 0.16 0.11 0.14 0.11 0.07 0.18 0.20 0.09 0.02 0.00 0.00 0.00 0.00
0.00 0.00 0.00 0.00 0.00 0.00 0.00 0.00 0.00 0.00 0.00 0.00 0.00 0.00 0.00 0.01 0.03 0.01 0.02 0.06 0.38 0.72 1.01 1.57 1.41 0.94 0.70 0.52 0.27 0.13 0.07 0.02 0.22 0.24 0.13 0.13 0.07 0.04 0.03 0.02 0.02 0.04 0.09 0.12 0.05 0.01 0.00 0.00 0.00
0.00 0.00 0.00 0.00 0.00 0.00 0.00 0.00 0.00 0.00 0.00 0.00 0.00 0.00 0.00 0.02 0.06 0.05 0.02 0.02 0.16 0.46 0.57 0.89 1.37 0.96 0.70 0.61 0.41 0.24 0.15 0.08 0.09 0.23 0.17 0.11 0.09 0.03 0.04 0.02 0.02 0.02 0.03 0.05 0.08 0.06 0.01 0.00 0.00
0.00 0.00 0.00 0.00 0.00 0.00 0.00 0.00 0.00 0.00 0.00 0.00 0.00 0.00 0.01 0.04 0.10 0.07 0.02 0.01 0.02 0.16 0.26 0.25 0.66 0.95 0.56 0.75 0.45 0.20 0.08 0.07 0.07 0.17 0.30 0.20 0.13 0.13 0.06 0.02 0.03 0.01 0.01 0.01 0.02 0.04 0.02 0.00 0.00
0.00 0.00 0.00 0.00 0.00 0.00 0.00 0.00 0.00 0.00 0.00 0.00 0.00 0.00 0.00 0.05 0.17 0.16 0.05 0.01 0.00 0.02 0.07 0.11 0.17 0.60 0.61 0.70 0.62 0.20 0.05 0.05 0.05 0.07 0.32 0.29 0.16 0.17 0.17 0.03 0.03 0.06 0.04 0.01 0.01 0.00 0.01 0.00 0.00
0.00 0.00 0.00 0.00 0.00 0.00 0.00 0.00 0.00 0.00 0.00 0.00 0.00 0.01 0.01 0.02 0.06 0.14 0.08 0.03 0.01 0.00 0.01 0.02 0.04 0.18 0.64 0.51 0.73 0.31 0.07 0.02 0.03 0.05 0.09 0.41 0.30 0.23 0.20 0.24 0.10 0.09 0.10 0.04 0.06 0.02 0.00 0.01 0.00
0.00 0.00 0.00 0.00 0.00 0.00 0.00 0.00 0.00 0.00 0.00 0.00 0.00 0.00 0.00 0.01 0.08 0.18 0.08 0.06 0.02 0.00 0.00 0.01 0.02 0.08 0.59 0.66 0.92 0.64 0.18 0.03 0.01 0.02 0.02 0.07 0.36 0.33 0.40 0.26 0.17 0.12 0.08 0.06 0.03 0.03 0.02 0.01 0.01
0.00 0.00 0.00 0.00 0.00 0.00 0.00 0.00 0.00 0.00 0.00 0.00 0.00 0.00 0.00 0.00 0.00 0.05 0.06 0.08 0.06 0.03 0.00 0.02 0.03 0.09 0.61 0.63 0.67 1.07 0.59 0.17 0.03 0.00 0.01 0.01 0.08 0.35 0.33 0.67 0.44 0.14 0.12 0.15 0.14 0.10 0.10 0.10 0.06
0.00 0.00 0.00 0.00 0.00 0.00 0.02 0.01 0.00 0.00 0.00 0.00 0.00 0.00 0.00 0.00 0.00 0.01 0.05 0.04 0.10 0.09 0.01 0.01 0.01 0.14 0.73 0.43 0.23 0.77 0.92 0.57 0.20 0.03 0.00 0.00 0.00 0.05 0.25 0.28 0.59 0.54 0.37 0.29 0.22 0.20 0.21 0.20 0.17
0.01 0.01 0.00 0.00 0.00 0.01 0.01 0.00 0.00 0.00 0.00 0.00 0.00 0.00 0.00 0.00 0.00 0.01 0.09 0.15 0.09 0.10 0.06 0.02 0.00 0.06 0.33 0.31 0.20 0.35 0.70 0.78 0.45 0.21 0.04 0.00 0.01 0.01 0.05 0.14 0.17 0.29 0.32 0.30 0.31 0.28 0.22 0.19 0.12
0.00 0.03 0.02 0.02 0.01 0.06 0.06 0.00 0.01 0.03 0.01 0.00 0.00 0.00 0.00 0.00 0.00 0.02 0.11 0.20 0.16 0.15 0.11 0.06 0.02 0.02 0.07 0.23 0.27 0.34 0.54 0.72 0.76 0.34 0.16 0.04 0.03 0.04 0.04 0.08 0.12 0.12 0.15 0.16 0.13 0.15 0.16 0.13 0.08
0.00 0.01 0.01 0.00 0.01 0.10 0.03 0.00 0.01 0.08 0.10 0.09 0.03 0.00 0.01 0.05 0.01 0.04 0.16 0.24 0.33 0.30 0.17 0.08 0.03 0.03 0.07 0.16 0.16 0.24 0.49 0.75 0.94 0.74 0.47 0.26 0.16 0.13 0.09 0.09 0.11 0.15 0.08 0.06 0.08 0.08 0.07 0.06 0.06
0.03 0.05 0.02 0.02 0.02 0.11 0.08 0.01 0.00 0.04 0.09 0.08 0.12 0.07 0.07 0.22 0.19 0.19 0.38 0.30 0.30 0.32 0.25 0.17 0.13 0.12 0.19 0.30 0.28 0.20 0.31 0.58 0.92 1.05 0.83 0.75 0.62 0.43 0.22 0.17 0.14 0.11 0.17 0.07 0.06 0.09 0.09 0.06 0.05
0.03 0.04 0.02 0.24 0.09 0.04 0.07 0.03 0.05 0.03 0.04 0.05 0.11 0.18 0.26 0.41 0.35 0.49 0.69 0.61 0.66 0.50 0.38 0.50 0.51 0.37 0.37 0.42 0.30 0.19 0.20 0.32 0.72 1.04 1.01 0.97 0.88 0.76 0.75 0.74 0.52 0.24 0.22 0.30 0.28 0.32 0.27 0.23 0.17
0.11 0.01 0.22 0.24 0.17 0.12 0.04 0.05 0.01 0.01 0.01 0.02 0.11 0.21 0.25 0.32 0.26 0.37 0.53 0.78 1.02 0.59 0.48 0.69 1.18 1.40 0.48 0.46 0.73 0.68 0.31 0.29 0.37 0.94 0.96 0.68 0.63 0.58 0.57 0.62 0.89 1.20 1.07 0.65 0.40 0.40 0.49 0.63 0.67
0.21 0.03 0.10 0.12 0.10 0.17 0.03 0.30 0.01 0.00 0.00 0.03 0.06 0.04 0.07 0.11 0.18 0.17 0.34 0.59 0.49 0.42 0.44 0.54 0.84 1.48 1.25 0.88 1.23 1.31 0.96 0.53 0.42 0.60 1.06 1.00 0.83 0.62 0.57 0.52 0.58 0.70 0.99 1.23 0.95 0.65 0.65 0.82 0.87
0.07 0.07 0.17 0.22 0.28 0.24 0.01 0.18 0.06 0.01 0.03 0.08 0.10 0.02 0.19 0.21 0.11 0.14 0.21 0.33 0.37 0.42 0.50 0.48 0.60 0.91 1.51 1.52 1.40 1.32 1.36 1.45 1.09 0.95 1.25 1.22 0.93 0.88 0.76 0.65 0.58 0.61 0.68 0.77 0.97 0.84 0.63 0.68 1.01
0.18 0.46 0.62 0.60 0.57 0.24 0.04 0.04 0.04 0.02 0.07 0.06 0.13 0.14 0.31 0.43 0.28 0.29 0.53 0.53 0.58 0.57 0.37 0.39 0.51 0.56 0.84 1.08 1.31 1.29 0.97 1.24 1.40 1.21 1.25 1.45 1.48 1.33 1.23 1.05 0.99 0.82 0.79 0.82 0.87 1.01 0.87 0.63 0.57
0.27 0.51 0.71 0.58 0.17 0.13 0.10 0.15 0.11 0.14 0.15 0.08 0.23 0.36 0.65 0.85 0.49 0.47 0.78 0.97 0.98 0.69 0.60 0.38 0.49 0.33 0.25 0.28 0.50 0.80 1.01 1.36 1.33 1.15 1.14 1.11 1.02 1.12 1.30 1.10 1.06 1.14 1.09 1.03 1.01 1.05 1.13 1.07 0.98
0.21 0.32 0.29 0.30 0.08 0.15 0.27 0.28 0.36 0.37 0.37 0.25 0.34 0.60 0.86 0.98 0.81 0.77 0.82 1.12 1.00 0.74 0.69 0.64 0.51 0.48 0.19 0.09 0.12 0.16 0.23 0.27 0.45 0.56 0.59 0.73 0.98 0.88 0.94 1.08 1.00 0.98 1.01 0.93 0.93 0.89 0.85 0.90 0.94
0.05 0.10 0.15 0.28 0.25 0.18 0.22 0.24 0.60 0.64 0.58 0.55 0.62 0.80 0.91 0.84 1.07 0.93 0.85 0.78 0.62 0.54 0.42 0.43 0.32 0.11 0.05 0.03 0.02 0.01 0.02 0.03 0.06 0.09 0.10 0.14 0.28 0.43 0.55 0.67 0.68 0.72 0.74 0.86 0.92 0.87 0.90 0.94 0.94
0.02 0.04 0.03 0.05 0.07 0.13 0.05 0.14 0.38 0.49 0.43 0.47 0.53 0.65 0.75 0.83 0.81 0.69 0.56 0.34 0.17 0.11 0.02 0.02 0.01 0.00 0.00 0.00 0.00 0.00 0.00 0.00 0.00 0.00 0.00 0.00 0.00 0.01 0.02 0.04 0.06 0.08 0.14 0.31 0.50 0.62 0.67 0.75 0.81
0.00 0.00 0.00 0.00 0.00 0.00 0.01 0.04 0.05 0.11 0.14 0.20 0.25 0.28 0.30 0.39 0.36 0.28 0.14 0.04 0.01 0.00 0.00 0.00 0.00 0.00 0.00 0.00 0.00 0.00 0.00 0.00 0.00 0.00 0.00 0.00 0.00 0.00 0.00 0.00 0.00 0.00 0.02 0.04 0.05 0.07 0.09 0.12 0.17

GFSSGP_prec_precacc24_108.txt.gz
Total_Precipitation_Accumulation
0.00 0.00 0.00 0.00 0.00 0.00 0.00 0.00 0.00 0.00 0.00 0.00 0.00 0.00 0.00 0.00 0.00 0.01 0.01 0.00 0.01 0.02 0.05 0.04 0.08 0.10 0.07 0.05 0.07 0.04 0.04 0.05 0.04 0.07 0.06 0.05 0.06 0.02 0.00 0.00 0.00 0.02 0.17 0.21 0.06 0.04 0.02 0.01 0.00
0.00 0.00 0.00 0.00 0.00 0.00 0.00 0.00 0.00 0.00 0.00 0.00 0.00 0.00 0.00 0.00 0.00 0.00 0.00 0.00 0.01 0.03 0.08 0.10 0.09 0.16 0.18 0.12 0.08 0.07 0.05 0.06 0.07 0.04 0.08 0.09 0.08 0.03 0.00 0.00 0.00 0.08 0.22 0.27 0.07 0.02 0.01 0.00 0.00
0.00 0.00 0.00 0.00 0.00 0.00 0.00 0.00 0.00 0.00 0.00 0.00 0.00 0.00 0.00 0.00 0.00 0.00 0.00 0.00 0.00 0.02 0.11 0.11 0.09 0.15 0.19 0.20 0.14 0.08 0.08 0.05 0.06 0.05 0.08 0.12 0.14 0.05 0.01 0.02 0.03 0.14 0.16 0.12 0.04 0.01 0.00 0.00 0.00
0.00 0.00 0.00 0.00 0.00 0.00 0.00 0.00 0.00 0.00 0.00 0.00 0.00 0.00 0.00 0.00 0.00 0.00 0.00 0.00 0.03 0.03 0.10 0.15 0.21 0.21 0.23 0.27 0.17 0.12 0.08 0.06 0.04 0.06 0.10 0.14 0.17 0.12 0.03 0.07 0.08 0.06 0.07 0.07 0.02 0.01 0.00 0.00 0.00
0.00 0.00 0.00 0.00 0.00 0.00 0.00 0.00 0.00 0.00 0.00 0.00 0.00 0.00 0.00 0.00 0.00 0.01 0.02 0.06 0.18 0.11 0.12 0.28 0.44 0.43 0.22 0.28 0.28 0.21 0.20 0.18 0.11 0.10 0.09 0.11 0.17 0.23 0.10 0.09 0.09 0.07 0.04 0.05 0.03 0.00 0.00 0.00 0.00
0.00 0.00 0.00 0.00 0.00 0.00 0.00 0.00 0.00 0.00 0.00 0.00 0.00 0.00 0.00 0.00 0.01 0.04 0.13 0.21 0.47 0.46 0.41 0.44 0.48 0.51 0.48 0.33 0.23 0.17 0.16 0.26 0.21 0.17 0.16 0.21 0.32 0.29 0.21 0.11 0.08 0.09 0.06 0.04 0.02 0.00 0.00 0.00 0.00
0.00 0.00 0.00 0.00 0.00 0.00 0.00 0.00 0.00 0.00 0.00 0.00 0.00 0.00 0.00 0.00 0.01 0.11 0.16 0.25 0.39 0.65 0.65 0.27 0.28 0.29 0.26 0.19 0.11 0.04 0.03 0.09 0.15 0.18 0.24 0.31 0.39 0.29 0.23 0.18 0.13 0.22 0.17 0.07 0.03 0.00 0.00 0.00 0.00
0.00 0.00 0.00 0.00 0.00 0.00 0.00 0.00 0.00 0.00 0.00 0.00 0.00 0.00 0.00 0.00 0.00 0.04 0.06 0.10 0.23 0.42 0.71 0.74 0.72 0.57 0.35 0.24 0.13 0.06 0.06 0.09 0.26 0.12 0.15 0.18 0.16 0.11 0.14 0.10 0.07 0.18 0.21 0.11 0.03 0.01 0.00 0.00 0.00
0.00 0.00 0.00 0.00 0.00 0.00 0.00 0.00 0.00 0.00 0.00 0.00 0.00 0.00 0.00 0.00 0.01 0.01 0.02 0.04 0.06 0.11 0.33 0.78 1.01 0.83 0.64 0.48 0.30 0.15 0.07 0.02 0.20 0.17 0.10 0.13 0.07 0.04 0.03 0.02 0.02 0.04 0.10 0.13 0.06 0.03 0.01 0.00 0.00
0.00 0.00 0.00 0.00 0.00 0.00 0.00 0.00 0.00 0.00 0.00 0.00 0.00 0.00 0.00 0.01 0.04 0.03 0.02 0.01 0.02 0.03 0.06 0.54 0.80 0.62 0.53 0.48 0.40 0.28 0.16 0.09 0.09 0.21 0.16 0.11 0.09 0.03 0.04 0.02 0.02 0.01 0.03 0.06 0.08 0.08 0.03 0.00 0.00
0.00 0.00 0.00 0.00 0.00 0.00 0.00 0.00 0.00 0.00 0.00 0.00 0.00 0.00 0.00 0.02 0.04 0.04 0.02 0.01 0.00 0.01 0.01 0.08 0.40 0.39 0.32 0.37 0.30 0.20 0.10 0.09 0.07 0.17 0.29 0.19 0.14 0.13 0.06 0.02 0.03 0.01 0.01 0.02 0.02 0.04 0.02 0.00 0.00
0.00 0.00 0.00 0.00 0.00 0.00 0.00 0.00 0.00 0.00 0.00 0.00 0.00 0.00 0.00 0.01 0.03 0.03 0.03 0.01 0.00 0.01 0.01 0.04 0.10 0.20 0.16 0.18 0.25 0.15 0.06 0.06 0.06 0.07 0.32 0.29 0.16 0.17 0.17 0.03 0.05 0.11 0.06 0.01 0.02 0.00 0.01 0.00 0.00
0.00 0.00 0.00 0.00 0.00 0.00 0.00 0.00 0.00 0.00 0.00 0.00 0.00 0.00 0.00 0.00 0.00 0.01 0.03 0.03 0.01 0.00 0.00 0.00 0.01 0.06 0.10 0.10 0.19 0.18 0.06 0.05 0.03 0.05 0.09 0.41 0.30 0.23 0.20 0.24 0.10 0.10 0.12 0.08 0.11 0.06 0.03 0.04 0.01
0.00 0.00 0.00 0.00 0.00 0.00 0.00 0.00 0.00 0.00 0.00 0.00 0.00 0.00 0.00 0.00 0.00 0.00 0.01 0.03 0.02 0.00 0.00 0.00 0.01 0.01 0.05 0.07 0.22 0.36 0.09 0.02 0.01 0.02 0.02 0.07 0.36 0.33 0.40 0.26 0.17 0.12 0.09 0.08 0.11 0.10 0.07 0.04 0.06
0.00 0.00 0.00 0.00 0.00 0.00 0.00 0.00 0.00 0.00 0.00 0.00 0.00 0.00 0.00 0.00 0.00 0.00 0.04 0.05 0.04 0.03 0.00 0.00 0.00 0.00 0.01 0.03 0.24 0.76 0.42 0.07 0.02 0.01 0.01 0.01 0.08 0.35 0.33 0.67 0.44 0.14 0.12 0.15 0.17 0.15 0.17 0.15 0.08
0.00 0.00 0.00 0.00 0.00 0.00 0.00 0.00 0.00 0.00 0.00 0.00 0.00 0.00 0.00 0.00 0.00 0.00 0.00 0.00 0.06 0.08 0.01 0.00 0.00 0.00 0.02 0.03 0.09 0.61 0.72 0.37 0.06 0.02 0.02 0.01 0.00 0.05 0.25 0.28 0.59 0.54 0.37 0.29 0.22 0.21 0.23 0.21 0.21
0.00 0.00 0.00 0.00 0.00 0.00 0.00 0.00 0.00 0.00 0.00 0.00 0.00 0.00 0.00 0.00 0.00 0.00 0.01 0.02 0.04 0.08 0.06 0.02 0.00 0.00 0.01 0.06 0.08 0.24 0.65 0.70 0.39 0.12 0.04 0.01 0.01 0.01 0.05 0.14 0.17 0.29 0.32 0.30 0.31 0.29 0.23 0.21 0.15
0.00 0.00 0.00 0.01 0.00 0.05 0.05 0.00 0.00 0.01 0.00 0.00 0.00 0.00 0.00 0.00 0.00 0.00 0.03 0.05 0.07 0.12 0.11 0.05 0.01 0.00 0.00 0.05 0.14 0.24 0.51 0.73 0.74 0.35 0.17 0.07 0.04 0.04 0.05 0.08 0.12 0.12 0.15 0.16 0.13 0.15 0.16 0.14 0.09
0.00 0.00 0.00 0.00 0.00 0.03 0.02 0.00 0.00 0.01 0.04 0.04 0.02 0.00 0.00 0.01 0.01 0.03 0.08 0.10 0.12 0.23 0.16 0.07 0.02 0.01 0.01 0.05 0.05 0.16 0.31 0.59 0.87 0.73 0.45 0.28 0.18 0.10 0.09 0.09 0.11 0.14 0.08 0.06 0.08 0.08 0.07 0.06 0.07
0.02 0.03 0.01 0.00 0.00 0.05 0.06 0.01 0.00 0.00 0.02 0.05 0.08 0.04 0.03 0.10 0.18 0.11 0.13 0.14 0.15 0.19 0.19 0.12 0.06 0.05 0.07 0.12 0.11 0.12 0.21 0.45 0.78 0.92 0.79 0.72 0.60 0.43 0.22 0.14 0.10 0.08 0.11 0.06 0.05 0.08 0.09 0.06 0.07
0.01 0.02 0.01 0.04 0.03 0.02 0.02 0.01 0.00 0.01 0.03 0.05 0.09 0.14 0.18 0.26 0.34 0.30 0.25 0.16 0.16 0.26 0.22 0.31 0.28 0.21 0.24 0.26 0.23 0.19 0.25 0.40 0.80 1.10 0.98 0.93 0.85 0.73 0.74 0.74 0.52 0.23 0.17 0.22 0.21 0.23 0.20 0.17 0.13
0.08 0.01 0.04 0.07 0.15 0.05 0.01 0.02 0.00 0.00 0.01 0.02 0.08 0.21 0.24 0.24 0.22 0.28 0.30 0.17 0.31 0.39 0.35 0.45 0.85 1.08 0.36 0.31 0.62 0.65 0.36 0.35 0.45 0.95 0.98 0.66 0.61 0.59 0.57 0.62 0.89 1.20 1.07 0.65 0.41 0.37 0.39 0.44 0.39
0.09 0.02 0.04 0.03 0.07 0.15 0.02 0.23 0.00 0.00 0.00 0.00 0.02 0.03 0.04 0.08 0.15 0.13 0.20 0.23 0.20 0.22 0.27 0.39 0.69 1.35 1.20 0.78 1.17 1.29 1.02 0.54 0.47 0.62 1.02 0.95 0.79 0.62 0.57 0.52 0.57 0.70 1.00 1.25 0.99 0.68 0.64 0.56 0.44
0.04 0.06 0.12 0.12 0.19 0.19 0.00 0.16 0.05 0.00 0.00 0.00 0.02 0.01 0.03 0.09 0.08 0.06 0.07 0.13 0.19 0.27 0.35 0.37 0.51 0.78 1.30 1.38 1.31 1.30 1.27 1.25 0.95 0.82 1.13 1.11 0.88 0.87 0.75 0.65 0.58 0.59 0.67 0.78 0.99 0.86 0.61 0.60 0.63
0.16 0.37 0.49 0.43 0.33 0.16 0.02 0.03 0.02 0.00 0.01 0.04 0.08 0.05 0.17 0.29 0.25 0.24 0.32 0.42 0.51 0.53 0.36 0.39 0.51 0.54 0.70 0.94 1.19 1.14 0.90 1.08 1.31 1.11 1.15 1.43 1.47 1.33 1.24 1.05 1.00 0.83 0.79 0.83 0.84 0.99 0.90 0.68 0.54
0.21 0.41 0.53 0.39 0.13 0.09 0.07 0.11 0.05 0.05 0.08 0.04 0.11 0.19 0.53 0.70 0.47 0.46 0.68 0.88 0.96 0.69 0.62 0.39 0.49 0.33 0.25 0.26 0.45 0.73 0.86 1.14 1.23 1.06 1.07 1.06 1.05 1.14 1.32 1.10 1.08 1.19 1.14 1.09 1.09 1.09 1.18 1.13 1.04
0.20 0.32 0.25 0.26 0.07 0.12 0.17 0.19 0.21 0.25 0.24 0.12 0.15 0.39 0.78 0.93 0.75 0.73 0.80 1.10 0.98 0.74 0.71 0.67 0.52 0.48 0.19 0.09 0.12 0.16 0.22 0.26 0.37 0.44 0.53 0.64 0.91 0.85 0.90 0.94 0.94 0.97 1.00 0.94 0.98 0.98 1.01 1.16 1.20
0.06 0.10 0.15 0.27 0.24 0.17 0.19 0.22 0.52 0.54 0.48 0.48 0.56 0.73 0.85 0.81 1.00 0.90 0.83 0.77 0.62 0.54 0.43 0.43 0.32 0.11 0.06 0.03 0.02 0.01 0.02 0.03 0.06 0.09 0.10 0.13 0.25 0.41 0.53 0.64 0.67 0.71 0.74 0.86 0.94 0.96 1.06 1.13 1.07
0.02 0.04 0.03 0.05 0.08 0.13 0.04 0.12 0.38 0.47 0.40 0.45 0.50 0.60 0.72 0.81 0.80 0.69 0.56 0.34 0.17 0.11 0.02 0.02 0.01 0.00 0.00 0.00 0.00 0.00 0.00 0.00 0.00 0.00 0.00 0.00 0.00 0.01 0.02 0.04 0.06 0.08 0.14 0.30 0.48 0.60 0.68 0.79 0.88
0.00 0.00 0.00 0.00 0.00 0.00 0.01 0.04 0.05 0.11 0.14 0.20 0.25 0.28 0.30 0.39 0.36 0.28 0.14 0.04 0.01 0.00 0.00 0.00 0.00 0.00 0.00 0.00 0.00 0.00 0.00 0.00 0.00 0.00 0.00 0.00 0.00 0.00 0.00 0.00 0.00 0.00 0.00 0.00 0.01 0.04 0.07 0.11 0.17

GFSSGP_prec_precacc24_111.txt.gz
Total_Precipitation_Accumulation
0.00 0.00 0.00 0.00 0.00 0.00 0.00 0.00 0.00 0.00 0.00 0.00 0.00 0.00 0.00 0.00 0.00 0.01 0.01 0.00 0.01 0.02 0.05 0.05 0.10 0.12 0.08 0.05 0.08 0.06 0.05 0.08 0.06 0.10 0.12 0.08 0.06 0.01 0.00 0.00 0.00 0.02 0.17 0.25 0.08 0.07 0.04 0.01 0.00
0.00 0.00 0.00 0.00 0.00 0.00 0.00 0.00 0.00 0.00 0.00 0.00 0.00 0.00 0.00 0.00 0.00 0.00 0.00 0.00 0.01 0.03 0.08 0.10 0.11 0.18 0.21 0.13 0.09 0.09 0.07 0.07 0.08 0.06 0.10 0.12 0.09 0.03 0.00 0.00 0.00 0.08 0.28 0.35 0.12 0.04 0.01 0.00 0.00
0.00 0.00 0.00 0.00 0.00 0.00 0.00 0.00 0.00 0.00 0.00 0.00 0.00 0.00 0.00 0.00 0.00 0.00 0.00 0.00 0.00 0.02 0.11 0.12 0.11 0.18 0.26 0.24 0.15 0.08 0.08 0.08 0.08 0.06 0.07 0.11 0.11 0.06 0.02 0.02 0.03 0.13 0.16 0.13 0.11 0.03 0.00 0.00 0.00
0.00 0.00 0.00 0.00 0.00 0.00 0.00 0.00 0.00 0.00 0.00 0.00 0.00 0.00 0.00 0.00 0.00 0.00 0.00 0.00 0.02 0.03 0.10 0.16 0.23 0.21 0.27 0.29 0.20 0.14 0.10 0.07 0.05 0.05 0.08 0.12 0.12 0.11 0.04 0.07 0.08 0.06 0.07 0.07 0.06 0.01 0.00 0.00 0.00
0.00 0.00 0.00 0.00 0.00 0.00 0.00 0.00 0.00 0.00 0.00 0.00 0.00 0.00 0.00 0.00 0.00 0.01 0.00 0.04 0.12 0.07 0.12 0.26 0.43 0.39 0.22 0.29 0.30 0.24 0.24 0.20 0.14 0.09 0.08 0.08 0.12 0.20 0.10 0.09 0.09 0.07 0.04 0.05 0.05 0.01 0.00 0.00 0.00
0.00 0.00 0.00 0.00 0.00 0.00 0.00 0.00 0.00 0.00 0.00 0.00 0.00 0.00 0.00 0.00 0.01 0.04 0.10 0.15 0.36 0.39 0.39 0.41 0.46 0.41 0.43 0.32 0.25 0.20 0.19 0.23 0.21 0.15 0.15 0.14 0.24 0.29 0.22 0.11 0.08 0.09 0.05 0.04 0.02 0.00 0.00 0.00 0.00
0.00 0.00 0.00 0.00 0.00 0.00 0.00 0.00 0.00 0.00 0.00 0.00 0.00 0.00 0.00 0.00 0.01 0.11 0.14 0.19 0.28 0.48 0.49 0.24 0.18 0.16 0.16 0.14 0.10 0.07 0.06 0.09 0.13 0.19 0.21 0.23 0.35 0.30 0.25 0.18 0.13 0.21 0.17 0.07 0.04 0.00 0.00 0.00 0.00
0.00 0.00 0.00 0.00 0.00 0.00 0.00 0.00 0.00 0.00 0.00 0.00 0.00 0.00 0.00 0.00 0.00 0.04 0.05 0.06 0.14 0.24 0.47 0.59 0.48 0.38 0.24 0.11 0.04 0.04 0.09 0.12 0.20 0.09 0.12 0.15 0.16 0.11 0.15 0.10 0.06 0.17 0.21 0.11 0.03 0.02 0.00 0.00 0.00
0.00 0.00 0.00 0.00 0.00 0.00 0.00 0.00 0.00 0.00 0.00 0.00 0.00 0.00 0.00 0.00 0.01 0.01 0.01 0.02 0.03 0.06 0.14 0.36 0.60 0.58 0.54 0.33 0.16 0.09 0.04 0.03 0.11 0.09 0.06 0.10 0.07 0.04 0.03 0.02 0.01 0.04 0.10 0.13 0.06 0.03 0.01 0.00 0.00
0.00 0.00 0.00 0.00 0.00 0.00 0.00 0.00 0.00 0.00 0.00 0.00 0.00 0.00 0.00 0.01 0.04 0.03 0.02 0.01 0.01 0.02 0.04 0.07 0.19 0.31 0.35 0.34 0.28 0.17 0.09 0.06 0.05 0.12 0.09 0.08 0.08 0.03 0.04 0.02 0.01 0.01 0.03 0.06 0.09 0.09 0.04 0.00 0.00
0.00 0.00 0.00 0.00 0.00 0.00 0.00 0.00 0.00 0.00 0.00 0.00 0.00 0.00 0.00 0.02 0.03 0.03 0.01 0.01 0.00 0.01 0.01 0.02 0.03 0.07 0.09 0.12 0.14 0.07 0.05 0.04 0.07 0.11 0.24 0.18 0.14 0.13 0.06 0.02 0.03 0.02 0.01 0.02 0.02 0.04 0.02 0.00 0.00
0.00 0.00 0.00 0.00 0.00 0.00 0.00 0.00 0.00 0.00 0.00 0.00 0.00 0.00 0.00 0.01 0.02 0.02 0.01 0.00 0.00 0.01 0.01 0.03 0.03 0.03 0.02 0.04 0.13 0.06 0.02 0.01 0.05 0.08 0.27 0.29 0.18 0.18 0.17 0.03 0.05 0.11 0.06 0.01 0.02 0.00 0.01 0.00 0.00
0.00 0.00 0.00 0.00 0.00 0.00 0.00 0.00 0.00 0.00 0.00 0.00 0.00 0.00 0.00 0.00 0.00 0.00 0.00 0.00 0.01 0.00 0.00 0.00 0.01 0.01 0.02 0.02 0.08 0.07 0.03 0.03 0.02 0.05 0.06 0.37 0.29 0.23 0.20 0.24 0.11 0.10 0.13 0.09 0.11 0.06 0.03 0.04 0.01
0.00 0.00 0.00 0.00 0.00 0.00 0.00 0.00 0.00 0.00 0.00 0.00 0.00 0.00 0.00 0.00 0.00 0.00 0.00 0.00 0.00 0.00 0.00 0.00 0.00 0.00 0.00 0.00 0.02 0.06 0.03 0.02 0.01 0.03 0.02 0.06 0.36 0.33 0.40 0.26 0.18 0.13 0.09 0.11 0.20 0.17 0.11 0.08 0.10
0.00 0.00 0.00 0.00 0.00 0.00 0.00 0.00 0.00 0.00 0.00 0.00 0.00 0.00 0.00 0.00 0.00 0.00 0.00 0.00 0.00 0.00 0.00 0.00 0.00 0.00 0.00 0.00 0.00 0.02 0.07 0.05 0.02 0.03 0.04 0.01 0.08 0.35 0.33 0.67 0.44 0.14 0.12 0.16 0.18 0.19 0.21 0.20 0.16
0.00 0.00 0.00 0.00 0.00 0.00 0.00 0.00 0.00 0.00 0.00 0.00 0.00 0.00 0.00 0.00 0.00 0.00 0.00 0.00 0.00 0.00 0.00 0.00 0.00 0.00 0.00 0.00 0.00 0.03 0.10 0.15 0.05 0.03 0.06 0.05 0.02 0.07 0.25 0.28 0.59 0.54 0.37 0.29 0.22 0.21 0.23 0.22 0.22
0.00 0.00 0.00 0.00 0.00 0.00 0.00 0.00 0.00 0.00 0.00 0.00 0.00 0.00 0.00 0.00 0.00 0.00 0.00 0.00 0.00 0.00 0.01 0.01 0.00 0.00 0.00 0.02 0.04 0.06 0.20 0.31 0.23 0.10 0.07 0.05 0.06 0.04 0.06 0.14 0.18 0.30 0.32 0.30 0.31 0.29 0.23 0.21 0.16
0.00 0.00 0.00 0.00 0.00 0.00 0.00 0.00 0.00 0.00 0.00 0.00 0.00 0.00 0.00 0.00 0.00 0.00 0.00 0.01 0.02 0.01 0.02 0.03 0.01 0.00 0.00 0.04 0.12 0.16 0.21 0.31 0.35 0.28 0.16 0.13 0.16 0.17 0.12 0.14 0.19 0.14 0.15 0.16 0.13 0.15 0.16 0.14 0.09
0.00 0.00 0.00 0.00 0.00 0.00 0.00 0.00 0.00 0.00 0.00 0.00 0.00 0.00 0.00 0.00 0.00 0.02 0.05 0.08 0.07 0.04 0.02 0.02 0.01 0.01 0.01 0.02 0.03 0.12 0.17 0.14 0.37 0.28 0.29 0.36 0.26 0.23 0.21 0.15 0.13 0.14 0.08 0.06 0.08 0.08 0.07 0.06 0.07
0.00 0.01 0.00 0.00 0.00 0.01 0.00 0.00 0.00 0.00 0.00 0.00 0.00 0.01 0.01 0.03 0.06 0.07 0.09 0.12 0.14 0.09 0.07 0.05 0.03 0.03 0.05 0.04 0.03 0.06 0.16 0.30 0.50 0.60 0.50 0.63 0.64 0.49 0.28 0.17 0.14 0.12 0.10 0.05 0.05 0.08 0.09 0.06 0.07
0.00 0.01 0.00 0.03 0.01 0.01 0.00 0.00 0.00 0.00 0.00 0.00 0.05 0.10 0.13 0.14 0.13 0.10 0.11 0.14 0.13 0.13 0.13 0.15 0.13 0.14 0.20 0.19 0.15 0.16 0.24 0.35 0.73 1.10 0.86 0.68 0.71 0.72 0.65 0.67 0.49 0.23 0.12 0.10 0.08 0.15 0.16 0.16 0.12
0.01 0.00 0.02 0.05 0.11 0.04 0.01 0.02 0.00 0.00 0.00 0.00 0.05 0.15 0.15 0.14 0.11 0.15 0.24 0.16 0.15 0.14 0.14 0.16 0.26 0.42 0.28 0.22 0.52 0.51 0.34 0.36 0.46 0.98 1.02 0.68 0.55 0.53 0.51 0.56 0.82 1.15 1.06 0.64 0.40 0.33 0.35 0.41 0.30
0.01 0.01 0.02 0.02 0.05 0.10 0.01 0.11 0.00 0.00 0.00 0.00 0.00 0.01 0.03 0.07 0.12 0.09 0.19 0.19 0.10 0.11 0.13 0.18 0.25 0.59 0.79 0.47 0.89 1.11 0.91 0.56 0.49 0.67 1.17 1.22 0.94 0.64 0.57 0.52 0.54 0.64 0.97 1.25 0.99 0.68 0.64 0.57 0.47
0.00 0.03 0.06 0.09 0.15 0.15 0.00 0.07 0.02 0.00 0.00 0.00 0.01 0.00 0.02 0.03 0.04 0.04 0.06 0.09 0.06 0.04 0.06 0.13 0.23 0.49 0.96 1.01 1.07 1.18 1.19 1.21 0.91 0.82 1.14 1.11 0.90 0.89 0.75 0.64 0.57 0.58 0.66 0.78 0.98 0.86 0.61 0.61 0.66
0.06 0.20 0.21 0.18 0.09 0.07 0.02 0.03 0.01 0.00 0.00 0.03 0.03 0.02 0.03 0.03 0.11 0.21 0.28 0.32 0.30 0.26 0.19 0.26 0.24 0.26 0.41 0.75 1.04 0.89 0.77 0.91 1.20 1.08 1.15 1.42 1.45 1.32 1.24 1.05 0.99 0.82 0.78 0.82 0.85 1.01 0.91 0.68 0.57
0.15 0.27 0.30 0.20 0.09 0.05 0.05 0.10 0.03 0.04 0.04 0.02 0.06 0.13 0.23 0.31 0.33 0.38 0.63 0.79 0.87 0.66 0.61 0.38 0.47 0.31 0.19 0.20 0.36 0.58 0.71 0.89 0.96 0.88 0.97 1.00 1.02 1.12 1.31 1.10 1.07 1.18 1.13 1.09 1.09 1.10 1.16 1.06 0.94
0.17 0.21 0.17 0.16 0.06 0.09 0.08 0.10 0.09 0.16 0.12 0.07 0.12 0.30 0.65 0.75 0.65 0.66 0.77 1.04 0.94 0.74 0.71 0.67 0.52 0.48 0.19 0.09 0.12 0.15 0.19 0.22 0.31 0.36 0.37 0.42 0.68 0.79 0.89 0.86 0.78 0.90 0.95 0.92 0.97 0.99 1.00 1.15 1.20
0.06 0.10 0.15 0.21 0.19 0.11 0.10 0.16 0.36 0.34 0.31 0.34 0.42 0.57 0.67 0.71 0.82 0.82 0.80 0.75 0.60 0.54 0.43 0.43 0.32 0.11 0.06 0.03 0.02 0.01 0.02 0.02 0.05 0.07 0.08 0.09 0.18 0.32 0.47 0.54 0.54 0.63 0.71 0.84 0.92 0.95 1.03 1.12 1.11
0.02 0.04 0.03 0.05 0.08 0.13 0.04 0.07 0.29 0.39 0.33 0.36 0.44 0.53 0.65 0.71 0.71 0.68 0.55 0.34 0.17 0.11 0.02 0.02 0.01 0.00 0.00 0.00 0.00 0.00 0.00 0.00 0.00 0.00 0.00 0.00 0.00 0.01 0.02 0.04 0.06 0.07 0.14 0.30 0.48 0.60 0.68 0.77 0.87
0.00 0.00 0.00 0.00 0.00 0.00 0.01 0.01 0.05 0.11 0.12 0.18 0.24 0.27 0.30 0.39 0.36 0.28 0.14 0.04 0.01 0.00 0.00 0.00 0.00 0.00 0.00 0.00 0.00 0.00 0.00 0.00 0.00 0.00 0.00 0.00 0.00 0.00 0.00 0.00 0.00 0.00 0.00 0.00 0.01 0.03 0.05 0.08 0.14

GFSSGP_prec_precacc24_117.txt.gz
Total_Precipitation_Accumulation
0.00 0.00 0.00 0.00 0.00 0.00 0.00 0.00 0.00 0.00 0.00 0.00 0.00 0.00 0.00 0.00 0.00 0.01 0.01 0.00 0.01 0.02 0.06 0.07 0.14 0.18 0.14 0.09 0.10 0.08 0.08 0.11 0.10 0.13 0.18 0.11 0.08 0.01 0.00 0.00 0.00 0.02 0.16 0.24 0.19 0.17 0.07 0.01 0.01
0.00 0.00 0.00 0.00 0.00 0.00 0.00 0.00 0.00 0.00 0.00 0.00 0.00 0.00 0.00 0.00 0.00 0.00 0.00 0.00 0.00 0.02 0.09 0.12 0.17 0.24 0.28 0.16 0.09 0.09 0.08 0.08 0.08 0.06 0.09 0.12 0.11 0.02 0.00 0.00 0.00 0.08 0.29 0.39 0.23 0.13 0.02 0.00 0.00
0.00 0.00 0.00 0.00 0.00 0.00 0.00 0.00 0.00 0.00 0.00 0.00 0.00 0.00 0.00 0.00 0.00 0.00 0.00 0.00 0.00 0.02 0.11 0.15 0.25 0.25 0.31 0.28 0.16 0.10 0.12 0.10 0.08 0.05 0.04 0.07 0.07 0.09 0.06 0.02 0.03 0.12 0.14 0.14 0.18 0.14 0.01 0.00 0.00
0.00 0.00 0.00 0.00 0.00 0.00 0.00 0.00 0.00 0.00 0.00 0.00 0.00 0.00 0.00 0.00 0.00 0.00 0.00 0.00 0.02 0.02 0.10 0.15 0.24 0.25 0.28 0.27 0.22 0.17 0.12 0.09 0.08 0.07 0.09 0.09 0.06 0.06 0.06 0.10 0.07 0.06 0.06 0.07 0.09 0.08 0.00 0.00 0.00
0.00 0.00 0.00 0.00 0.00 0.00 0.00 0.00 0.00 0.00 0.00 0.00 0.00 0.00 0.00 0.00 0.00 0.01 0.00 0.02 0.07 0.06 0.11 0.16 0.21 0.20 0.24 0.30 0.30 0.27 0.28 0.22 0.16 0.13 0.11 0.05 0.07 0.09 0.12 0.12 0.09 0.07 0.03 0.04 0.04 0.05 0.00 0.00 0.00
0.00 0.00 0.00 0.00 0.00 0.00 0.00 0.00 0.00 0.00 0.00 0.00 0.00 0.00 0.00 0.00 0.00 0.01 0.03 0.07 0.20 0.30 0.34 0.27 0.23 0.19 0.17 0.17 0.20 0.24 0.24 0.24 0.22 0.19 0.17 0.10 0.15 0.21 0.25 0.13 0.10 0.10 0.05 0.03 0.01 0.03 0.02 0.00 0.00
0.00 0.00 0.00 0.00 0.00 0.00 0.00 0.00 0.00 0.00 0.00 0.00 0.00 0.00 0.00 0.00 0.00 0.00 0.01 0.03 0.10 0.21 0.26 0.18 0.16 0.13 0.08 0.07 0.05 0.07 0.08 0.08 0.14 0.25 0.20 0.14 0.20 0.22 0.26 0.20 0.14 0.22 0.18 0.09 0.04 0.03 0.03 0.01 0.00
0.00 0.00 0.00 0.00 0.00 0.00 0.00 0.00 0.00 0.00 0.00 0.00 0.00 0.00 0.00 0.00 0.00 0.00 0.00 0.01 0.02 0.06 0.17 0.23 0.31 0.30 0.15 0.09 0.03 0.04 0.09 0.11 0.09 0.05 0.04 0.05 0.05 0.05 0.13 0.11 0.09 0.17 0.20 0.11 0.07 0.05 0.04 0.03 0.00
0.00 0.00 0.00 0.00 0.00 0.00 0.00 0.00 0.00 0.00 0.00 0.00 0.00 0.00 0.00 0.00 0.00 0.00 0.00 0.00 0.01 0.01 0.05 0.12 0.21 0.24 0.33 0.28 0.15 0.09 0.04 0.03 0.01 0.00 0.00 0.02 0.02 0.03 0.03 0.02 0.02 0.04 0.09 0.12 0.08 0.07 0.08 0.07 0.01
0.00 0.00 0.00 0.00 0.00 0.00 0.00 0.00 0.00 0.00 0.00 0.00 0.00 0.00 0.00 0.00 0.00 0.00 0.00 0.00 0.00 0.01 0.01 0.02 0.03 0.06 0.13 0.18 0.21 0.16 0.09 0.03 0.01 0.00 0.00 0.01 0.02 0.02 0.04 0.02 0.01 0.00 0.02 0.06 0.09 0.11 0.06 0.02 0.00
0.00 0.00 0.00 0.00 0.00 0.00 0.00 0.00 0.00 0.00 0.00 0.00 0.00 0.00 0.00 0.00 0.00 0.00 0.00 0.00 0.00 0.00 0.01 0.02 0.02 0.02 0.02 0.02 0.03 0.04 0.04 0.02 0.01 0.01 0.03 0.07 0.04 0.06 0.06 0.02 0.03 0.02 0.01 0.01 0.03 0.07 0.02 0.00 0.00
0.00 0.00 0.00 0.00 0.00 0.00 0.00 0.00 0.00 0.00 0.00 0.00 0.00 0.00 0.00 0.00 0.00 0.00 0.00 0.00 0.00 0.00 0.01 0.03 0.03 0.03 0.01 0.01 0.00 0.01 0.02 0.01 0.01 0.02 0.03 0.03 0.04 0.04 0.03 0.01 0.05 0.11 0.07 0.03 0.05 0.03 0.03 0.01 0.00
0.00 0.00 0.00 0.00 0.00 0.00 0.00 0.00 0.00 0.00 0.00 0.00 0.00 0.00 0.00 0.00 0.00 0.00 0.00 0.00 0.00 0.00 0.00 0.00 0.01 0.01 0.02 0.01 0.00 0.00 0.01 0.03 0.01 0.00 0.00 0.00 0.00 0.02 0.05 0.05 0.06 0.11 0.17 0.13 0.16 0.15 0.17 0.12 0.05
0.00 0.00 0.00 0.00 0.00 0.00 0.00 0.00 0.00 0.00 0.00 0.00 0.00 0.00 0.00 0.00 0.00 0.00 0.00 0.00 0.00 0.00 0.00 0.00 0.00 0.00 0.00 0.00 0.01 0.01 0.01 0.01 0.01 0.01 0.00 0.00 0.00 0.01 0.02 0.05 0.03 0.08 0.10 0.17 0.31 0.34 0.36 0.29 0.24
0.00 0.00 0.00 0.00 0.00 0.00 0.00 0.00 0.00 0.00 0.00 0.00 0.00 0.00 0.00 0.00 0.00 0.00 0.00 0.00 0.00 0.00 0.00 0.00 0.00 0.00 0.00 0.00 0.00 0.01 0.01 0.02 0.01 0.03 0.03 0.00 0.01 0.01 0.01 0.12 0.20 0.11 0.12 0.17 0.22 0.25 0.30 0.29 0.34
0.00 0.00 0.00 0.00 0.00 0.00 0.00 0.00 0.00 0.00 0.00 0.00 0.00 0.00 0.00 0.00 0.00 0.00 0.00 0.00 0.00 0.00 0.00 0.00 0.00 0.00 0.00 0.00 0.00 0.00 0.01 0.02 0.03 0.02 0.06 0.05 0.03 0.04 0.03 0.03 0.25 0.46 0.36 0.29 0.23 0.25 0.30 0.25 0.26
0.00 0.00 0.00 0.00 0.00 0.00 0.00 0.00 0.00 0.00 0.00 0.00 0.00 0.00 0.00 0.00 0.00 0.00 0.00 0.00 0.00 0.00 0.00 0.00 0.00 0.00 0.00 0.00 0.00 0.02 0.02 0.03 0.03 0.03 0.05 0.06 0.09 0.10 0.07 0.05 0.12 0.35 0.41 0.38 0.36 0.30 0.24 0.22 0.17
0.00 0.00 0.00 0.00 0.00 0.00 0.00 0.00 0.00 0.00 0.00 0.00 0.00 0.00 0.00 0.00 0.00 0.00 0.00 0.00 0.00 0.00 0.00 0.00 0.00 0.00 0.00 0.00 0.00 0.00 0.03 0.07 0.07 0.07 0.07 0.12 0.18 0.26 0.23 0.20 0.30 0.29 0.28 0.28 0.20 0.18 0.18 0.15 0.09
0.00 0.00 0.00 0.00 0.00 0.00 0.00 0.00 0.00 0.00 0.00 0.00 0.00 0.00 0.00 0.00 0.00 0.00 0.00 0.00 0.00 0.00 0.00 0.00 0.00 0.00 0.00 0.00 0.00 0.00 0.00 0.01 0.04 0.08 0.11 0.25 0.26 0.27 0.29 0.23 0.24 0.26 0.21 0.17 0.15 0.13 0.11 0.10 0.10
0.00 0.00 0.00 0.00 0.00 0.00 0.00 0.00 0.00 0.00 0.00 0.00 0.00 0.00 0.00 0.01 0.01 0.01 0.01 0.01 0.03 0.04 0.04 0.03 0.02 0.02 0.02 0.01 0.01 0.01 0.03 0.04 0.07 0.11 0.20 0.31 0.47 0.46 0.30 0.24 0.26 0.26 0.32 0.31 0.28 0.21 0.18 0.15 0.10
0.00 0.00 0.00 0.00 0.00 0.00 0.00 0.00 0.00 0.00 0.00 0.00 0.00 0.01 0.04 0.07 0.09 0.07 0.05 0.04 0.05 0.08 0.11 0.13 0.12 0.11 0.11 0.10 0.10 0.11 0.16 0.20 0.22 0.31 0.34 0.26 0.28 0.38 0.52 0.83 0.77 0.44 0.32 0.32 0.38 0.47 0.42 0.29 0.14
0.00 0.00 0.00 0.00 0.05 0.02 0.00 0.02 0.00 0.00 0.00 0.00 0.00 0.03 0.04 0.04 0.08 0.11 0.13 0.09 0.08 0.10 0.12 0.15 0.15 0.15 0.13 0.14 0.16 0.21 0.23 0.27 0.31 0.31 0.32 0.27 0.21 0.22 0.20 0.26 0.75 1.39 1.28 0.74 0.46 0.37 0.36 0.41 0.28
0.00 0.00 0.00 0.01 0.04 0.08 0.01 0.04 0.00 0.00 0.00 0.00 0.00 0.00 0.01 0.05 0.10 0.07 0.09 0.08 0.06 0.07 0.11 0.15 0.16 0.18 0.18 0.17 0.17 0.19 0.28 0.27 0.30 0.32 0.56 0.77 0.48 0.26 0.21 0.23 0.30 0.43 0.77 1.11 0.89 0.58 0.49 0.43 0.37
0.00 0.00 0.00 0.02 0.08 0.09 0.00 0.01 0.00 0.00 0.00 0.00 0.01 0.00 0.00 0.01 0.02 0.01 0.03 0.04 0.04 0.03 0.03 0.06 0.09 0.12 0.13 0.15 0.19 0.20 0.18 0.25 0.27 0.23 0.37 0.56 0.43 0.43 0.38 0.32 0.31 0.32 0.39 0.52 0.75 0.63 0.45 0.47 0.54
0.01 0.05 0.02 0.01 0.03 0.01 0.00 0.02 0.00 0.00 0.00 0.03 0.02 0.01 0.01 0.01 0.01 0.02 0.07 0.05 0.05 0.05 0.05 0.03 0.06 0.01 0.05 0.13 0.37 0.42 0.33 0.35 0.32 0.32 0.36 0.60 0.82 0.84 0.67 0.64 0.66 0.54 0.53 0.58 0.64 0.82 0.76 0.54 0.45
0.06 0.06 0.05 0.02 0.03 0.01 0.02 0.05 0.03 0.02 0.03 0.01 0.01 0.01 0.01 0.02 0.02 0.07 0.14 0.29 0.32 0.31 0.38 0.20 0.30 0.14 0.04 0.02 0.09 0.25 0.41 0.50 0.53 0.48 0.52 0.59 0.64 0.80 1.02 0.85 0.88 1.00 0.95 0.90 0.92 0.96 1.03 0.96 0.84
0.06 0.09 0.05 0.09 0.05 0.07 0.02 0.04 0.04 0.13 0.09 0.04 0.04 0.06 0.11 0.13 0.16 0.23 0.38 0.52 0.49 0.48 0.52 0.55 0.43 0.38 0.15 0.06 0.05 0.04 0.10 0.10 0.15 0.15 0.18 0.20 0.31 0.36 0.49 0.56 0.54 0.65 0.76 0.79 0.86 0.88 0.91 1.06 1.12
0.03 0.05 0.09 0.14 0.09 0.04 0.02 0.06 0.18 0.19 0.13 0.14 0.17 0.26 0.29 0.31 0.35 0.35 0.41 0.36 0.35 0.45 0.40 0.43 0.32 0.11 0.06 0.03 0.01 0.01 0.02 0.01 0.01 0.01 0.02 0.03 0.07 0.14 0.24 0.28 0.30 0.38 0.37 0.55 0.68 0.76 0.84 0.99 1.03
0.00 0.01 0.01 0.04 0.05 0.07 0.02 0.03 0.12 0.16 0.10 0.08 0.16 0.22 0.26 0.29 0.36 0.39 0.32 0.19 0.13 0.11 0.02 0.02 0.01 0.00 0.00 0.00 0.00 0.00 0.00 0.00 0.00 0.00 0.00 0.00 0.00 0.00 0.01 0.02 0.02 0.04 0.09 0.18 0.31 0.48 0.58 0.69 0.79
0.00 0.00 0.00 0.00 0.00 0.00 0.01 0.01 0.00 0.03 0.03 0.05 0.10 0.10 0.15 0.20 0.21 0.19 0.10 0.02 0.01 0.00 0.00 0.00 0.00 0.00 0.00 0.00 0.00 0.00 0.00 0.00 0.00 0.00 0.00 0.00 0.00 0.00 0.00 0.00 0.00 0.00 0.00 0.00 0.01 0.03 0.04 0.07 0.12

GFSSGP_prec_precacc24_120.txt.gz
Total_Precipitation_Accumulation
0.00 0.00 0.00 0.00 0.00 0.00 0.00 0.00 0.00 0.00 0.00 0.00 0.00 0.00 0.00 0.00 0.00 0.01 0.01 0.00 0.01 0.02 0.07 0.10 0.18 0.19 0.13 0.08 0.08 0.08 0.11 0.15 0.12 0.17 0.21 0.12 0.08 0.01 0.00 0.00 0.00 0.02 0.14 0.24 0.33 0.31 0.07 0.01 0.01
0.00 0.00 0.00 0.00 0.00 0.00 0.00 0.00 0.00 0.00 0.00 0.00 0.00 0.00 0.00 0.00 0.00 0.00 0.00 0.00 0.00 0.02 0.09 0.14 0.21 0.27 0.29 0.16 0.07 0.08 0.10 0.10 0.08 0.07 0.10 0.14 0.12 0.03 0.00 0.00 0.00 0.06 0.27 0.40 0.35 0.22 0.03 0.00 0.00
0.00 0.00 0.00 0.00 0.00 0.00 0.00 0.00 0.00 0.00 0.00 0.00 0.00 0.00 0.00 0.00 0.00 0.00 0.00 0.00 0.00 0.02 0.11 0.16 0.27 0.29 0.33 0.30 0.17 0.09 0.12 0.13 0.09 0.06 0.08 0.10 0.09 0.11 0.07 0.02 0.02 0.09 0.12 0.14 0.24 0.26 0.11 0.00 0.00
0.00 0.00 0.00 0.00 0.00 0.00 0.00 0.00 0.00 0.00 0.00 0.00 0.00 0.00 0.00 0.00 0.00 0.00 0.00 0.00 0.02 0.02 0.10 0.15 0.24 0.29 0.34 0.31 0.23 0.18 0.13 0.11 0.09 0.08 0.11 0.09 0.07 0.07 0.11 0.12 0.09 0.04 0.05 0.07 0.10 0.11 0.02 0.00 0.00
0.00 0.00 0.00 0.00 0.00 0.00 0.00 0.00 0.00 0.00 0.00 0.00 0.00 0.00 0.00 0.00 0.00 0.00 0.00 0.00 0.05 0.05 0.09 0.15 0.20 0.19 0.24 0.31 0.31 0.31 0.31 0.23 0.17 0.14 0.14 0.08 0.07 0.07 0.14 0.15 0.11 0.06 0.03 0.04 0.04 0.07 0.01 0.00 0.00
0.00 0.00 0.00 0.00 0.00 0.00 0.00 0.00 0.00 0.00 0.00 0.00 0.00 0.00 0.00 0.00 0.00 0.00 0.00 0.00 0.04 0.16 0.22 0.22 0.19 0.14 0.14 0.15 0.18 0.23 0.26 0.27 0.25 0.20 0.18 0.12 0.13 0.19 0.23 0.13 0.11 0.10 0.04 0.02 0.02 0.06 0.05 0.01 0.00
0.00 0.00 0.00 0.00 0.00 0.00 0.00 0.00 0.00 0.00 0.00 0.00 0.00 0.00 0.00 0.00 0.00 0.00 0.00 0.00 0.00 0.04 0.11 0.13 0.15 0.11 0.07 0.06 0.04 0.07 0.08 0.09 0.17 0.27 0.21 0.14 0.19 0.20 0.24 0.19 0.15 0.22 0.18 0.09 0.06 0.05 0.06 0.05 0.04
0.00 0.00 0.00 0.00 0.00 0.00 0.00 0.00 0.00 0.00 0.00 0.00 0.00 0.00 0.00 0.00 0.00 0.00 0.00 0.00 0.00 0.00 0.04 0.09 0.12 0.19 0.12 0.08 0.03 0.04 0.09 0.11 0.09 0.05 0.05 0.04 0.03 0.02 0.11 0.11 0.09 0.18 0.22 0.12 0.06 0.06 0.06 0.06 0.04
0.00 0.00 0.00 0.00 0.00 0.00 0.00 0.00 0.00 0.00 0.00 0.00 0.00 0.00 0.00 0.00 0.00 0.00 0.00 0.00 0.00 0.00 0.00 0.01 0.07 0.09 0.18 0.19 0.12 0.07 0.03 0.03 0.02 0.00 0.00 0.01 0.00 0.00 0.01 0.01 0.02 0.04 0.10 0.15 0.10 0.08 0.10 0.10 0.03
0.00 0.00 0.00 0.00 0.00 0.00 0.00 0.00 0.00 0.00 0.00 0.00 0.00 0.00 0.00 0.00 0.00 0.00 0.00 0.00 0.00 0.00 0.00 0.00 0.00 0.01 0.05 0.13 0.18 0.15 0.08 0.03 0.01 0.00 0.00 0.00 0.00 0.00 0.01 0.02 0.01 0.00 0.02 0.05 0.10 0.12 0.08 0.02 0.00
0.00 0.00 0.00 0.00 0.00 0.00 0.00 0.00 0.00 0.00 0.00 0.00 0.00 0.00 0.00 0.00 0.00 0.00 0.00 0.00 0.00 0.00 0.00 0.01 0.01 0.01 0.00 0.01 0.02 0.04 0.04 0.02 0.01 0.01 0.03 0.07 0.02 0.03 0.03 0.02 0.03 0.02 0.00 0.00 0.02 0.07 0.03 0.01 0.00
0.00 0.00 0.00 0.00 0.00 0.00 0.00 0.00 0.00 0.00 0.00 0.00 0.00 0.00 0.00 0.00 0.00 0.00 0.00 0.00 0.00 0.00 0.00 0.00 0.01 0.01 0.00 0.01 0.00 0.01 0.02 0.01 0.01 0.02 0.03 0.03 0.03 0.02 0.00 0.00 0.05 0.11 0.08 0.03 0.05 0.04 0.05 0.09 0.04
0.00 0.00 0.00 0.00 0.00 0.00 0.00 0.00 0.00 0.00 0.00 0.00 0.00 0.00 0.00 0.00 0.00 0.00 0.00 0.00 0.00 0.00 0.00 0.00 0.00 0.01 0.01 0.01 0.00 0.00 0.01 0.03 0.01 0.00 0.00 0.00 0.00 0.00 0.01 0.01 0.05 0.10 0.18 0.16 0.21 0.18 0.20 0.17 0.17
0.00 0.00 0.00 0.00 0.00 0.00 0.00 0.00 0.00 0.00 0.00 0.00 0.00 0.00 0.00 0.00 0.00 0.00 0.00 0.00 0.00 0.00 0.00 0.00 0.00 0.00 0.00 0.00 0.01 0.01 0.01 0.01 0.01 0.01 0.00 0.00 0.00 0.00 0.00 0.00 0.01 0.04 0.07 0.16 0.37 0.40 0.40 0.36 0.32
0.00 0.00 0.00 0.00 0.00 0.00 0.00 0.00 0.00 0.00 0.00 0.00 0.00 0.00 0.00 0.00 0.00 0.00 0.00 0.00 0.00 0.00 0.00 0.00 0.00 0.00 0.00 0.00 0.00 0.01 0.01 0.02 0.01 0.03 0.03 0.00 0.01 0.01 0.01 0.01 0.00 0.01 0.04 0.10 0.21 0.29 0.35 0.33 0.42
0.00 0.00 0.00 0.00 0.00 0.00 0.00 0.00 0.00 0.00 0.00 0.00 0.00 0.00 0.00 0.00 0.00 0.00 0.00 0.00 0.00 0.00 0.00 0.00 0.00 0.00 0.00 0.00 0.00 0.00 0.01 0.02 0.03 0.02 0.06 0.05 0.02 0.04 0.03 0.02 0.01 0.03 0.02 0.08 0.17 0.22 0.31 0.28 0.32
0.00 0.00 0.00 0.00 0.00 0.00 0.00 0.00 0.00 0.00 0.00 0.00 0.00 0.00 0.00 0.00 0.00 0.00 0.00 0.00 0.00 0.00 0.00 0.00 0.00 0.00 0.00 0.00 0.00 0.02 0.02 0.03 0.03 0.03 0.06 0.05 0.09 0.09 0.07 0.05 0.09 0.15 0.15 0.14 0.25 0.26 0.24 0.23 0.19
0.00 0.00 0.00 0.00 0.00 0.00 0.00 0.00 0.00 0.00 0.00 0.00 0.00 0.00 0.00 0.00 0.00 0.00 0.00 0.00 0.00 0.00 0.00 0.00 0.00 0.00 0.00 0.00 0.00 0.00 0.03 0.07 0.07 0.07 0.07 0.12 0.18 0.24 0.20 0.17 0.26 0.23 0.17 0.17 0.16 0.20 0.23 0.20 0.12
0.00 0.00 0.00 0.00 0.00 0.00 0.00 0.00 0.00 0.00 0.00 0.00 0.00 0.00 0.00 0.00 0.00 0.00 0.00 0.00 0.00 0.00 0.00 0.00 0.00 0.00 0.00 0.00 0.00 0.00 0.00 0.01 0.04 0.08 0.11 0.24 0.25 0.26 0.27 0.19 0.19 0.20 0.19 0.17 0.12 0.13 0.17 0.22 0.23
0.00 0.00 0.00 0.00 0.00 0.00 0.00 0.00 0.00 0.00 0.00 0.00 0.00 0.00 0.00 0.00 0.00 0.00 0.00 0.01 0.01 0.01 0.03 0.02 0.02 0.02 0.02 0.01 0.01 0.01 0.03 0.05 0.08 0.11 0.20 0.26 0.29 0.27 0.22 0.17 0.20 0.22 0.28 0.31 0.30 0.26 0.25 0.29 0.36
0.00 0.00 0.00 0.00 0.00 0.00 0.00 0.00 0.00 0.00 0.00 0.00 0.00 0.00 0.00 0.02 0.02 0.02 0.01 0.02 0.03 0.06 0.08 0.11 0.11 0.11 0.11 0.10 0.10 0.11 0.16 0.20 0.22 0.30 0.31 0.25 0.25 0.25 0.23 0.54 0.57 0.34 0.28 0.30 0.37 0.51 0.57 0.48 0.40
0.00 0.00 0.00 0.00 0.01 0.01 0.00 0.01 0.00 0.00 0.00 0.00 0.00 0.00 0.01 0.01 0.03 0.05 0.07 0.05 0.05 0.08 0.12 0.15 0.15 0.15 0.13 0.14 0.16 0.21 0.23 0.26 0.31 0.30 0.27 0.23 0.18 0.17 0.11 0.10 0.46 1.10 1.11 0.71 0.46 0.36 0.37 0.43 0.35
0.00 0.00 0.00 0.00 0.01 0.04 0.01 0.03 0.00 0.00 0.00 0.00 0.00 0.00 0.00 0.01 0.05 0.03 0.06 0.06 0.05 0.06 0.11 0.15 0.16 0.18 0.18 0.16 0.17 0.18 0.27 0.26 0.30 0.31 0.44 0.47 0.31 0.15 0.09 0.06 0.09 0.18 0.53 0.89 0.80 0.56 0.47 0.40 0.33
0.00 0.00 0.00 0.00 0.04 0.05 0.00 0.01 0.00 0.00 0.00 0.00 0.01 0.00 0.00 0.00 0.01 0.01 0.01 0.03 0.03 0.02 0.02 0.05 0.08 0.10 0.10 0.12 0.14 0.17 0.15 0.16 0.15 0.13 0.21 0.17 0.16 0.19 0.16 0.13 0.12 0.12 0.17 0.27 0.46 0.41 0.30 0.34 0.41
0.00 0.03 0.01 0.00 0.01 0.00 0.00 0.01 0.00 0.00 0.00 0.01 0.02 0.01 0.01 0.01 0.01 0.01 0.03 0.03 0.04 0.03 0.02 0.01 0.01 0.00 0.01 0.06 0.23 0.35 0.27 0.16 0.09 0.11 0.08 0.07 0.07 0.26 0.34 0.36 0.42 0.36 0.37 0.42 0.49 0.66 0.62 0.42 0.35
0.04 0.04 0.02 0.01 0.00 0.01 0.01 0.02 0.02 0.02 0.03 0.01 0.01 0.01 0.01 0.02 0.02 0.05 0.08 0.15 0.16 0.14 0.12 0.06 0.13 0.08 0.01 0.01 0.09 0.25 0.38 0.46 0.45 0.38 0.28 0.19 0.16 0.18 0.54 0.53 0.62 0.81 0.79 0.75 0.78 0.83 0.87 0.77 0.67
0.04 0.05 0.03 0.05 0.01 0.04 0.01 0.03 0.04 0.12 0.08 0.04 0.03 0.04 0.07 0.08 0.09 0.14 0.24 0.32 0.29 0.29 0.31 0.37 0.32 0.31 0.13 0.06 0.05 0.03 0.04 0.07 0.13 0.10 0.08 0.07 0.08 0.10 0.19 0.30 0.31 0.47 0.61 0.66 0.73 0.76 0.80 0.91 0.92
0.01 0.01 0.04 0.07 0.04 0.02 0.00 0.03 0.11 0.14 0.09 0.07 0.09 0.13 0.17 0.21 0.23 0.19 0.23 0.20 0.19 0.34 0.34 0.39 0.30 0.10 0.06 0.03 0.01 0.01 0.02 0.01 0.00 0.00 0.00 0.00 0.01 0.05 0.13 0.17 0.16 0.21 0.21 0.29 0.44 0.59 0.71 0.84 0.90
0.00 0.01 0.00 0.01 0.02 0.03 0.01 0.01 0.07 0.13 0.07 0.04 0.06 0.10 0.14 0.17 0.21 0.21 0.15 0.09 0.09 0.10 0.02 0.02 0.01 0.00 0.00 0.00 0.00 0.00 0.00 0.00 0.00 0.00 0.00 0.00 0.00 0.00 0.00 0.01 0.01 0.02 0.05 0.11 0.18 0.24 0.34 0.48 0.60
0.00 0.00 0.00 0.00 0.00 0.00 0.00 0.00 0.00 0.02 0.02 0.01 0.02 0.04 0.06 0.08 0.09 0.07 0.03 0.01 0.01 0.00 0.00 0.00 0.00 0.00 0.00 0.00 0.00 0.00 0.00 0.00 0.00 0.00 0.00 0.00 0.00 0.00 0.00 0.00 0.00 0.00 0.00 0.00 0.00 0.02 0.03 0.05 0.10

GFSSGP_prec_precacc24_123.txt.gz
Total_Precipitation_Accumulation
0.00 0.00 0.00 0.00 0.00 0.00 0.00 0.00 0.00 0.00 0.00 0.00 0.00 0.00 0.00 0.00 0.00 0.01 0.01 0.00 0.01 0.02 0.08 0.11 0.19 0.20 0.14 0.07 0.06 0.07 0.11 0.16 0.16 0.26 0.28 0.12 0.07 0.01 0.00 0.00 0.00 0.02 0.13 0.24 0.42 0.38 0.07 0.01 0.01
0.00 0.00 0.00 0.00 0.00 0.00 0.00 0.00 0.00 0.00 0.00 0.00 0.00 0.00 0.00 0.00 0.00 0.00 0.00 0.00 0.00 0.02 0.09 0.14 0.23 0.28 0.29 0.16 0.07 0.08 0.09 0.09 0.10 0.11 0.14 0.15 0.11 0.02 0.00 0.00 0.00 0.05 0.25 0.40 0.45 0.29 0.04 0.01 0.00
0.00 0.00 0.00 0.00 0.00 0.00 0.00 0.00 0.00 0.00 0.00 0.00 0.00 0.00 0.00 0.00 0.00 0.00 0.00 0.00 0.00 0.02 0.11 0.16 0.27 0.30 0.33 0.30 0.17 0.09 0.12 0.13 0.09 0.06 0.08 0.09 0.09 0.11 0.08 0.02 0.00 0.05 0.11 0.14 0.25 0.37 0.16 0.05 0.00
0.00 0.00 0.00 0.00 0.00 0.00 0.00 0.00 0.00 0.00 0.00 0.00 0.00 0.00 0.00 0.00 0.00 0.00 0.00 0.00 0.01 0.02 0.10 0.14 0.23 0.27 0.34 0.33 0.22 0.17 0.13 0.12 0.11 0.08 0.11 0.07 0.04 0.07 0.11 0.11 0.05 0.03 0.05 0.07 0.10 0.12 0.06 0.01 0.00
0.00 0.00 0.00 0.00 0.00 0.00 0.00 0.00 0.00 0.00 0.00 0.00 0.00 0.00 0.00 0.00 0.00 0.00 0.00 0.00 0.00 0.01 0.08 0.14 0.17 0.17 0.21 0.28 0.28 0.28 0.28 0.24 0.18 0.15 0.18 0.13 0.07 0.11 0.16 0.15 0.09 0.04 0.03 0.04 0.04 0.07 0.03 0.01 0.00
0.00 0.00 0.00 0.00 0.00 0.00 0.00 0.00 0.00 0.00 0.00 0.00 0.00 0.00 0.00 0.00 0.00 0.00 0.00 0.00 0.00 0.00 0.03 0.12 0.14 0.10 0.10 0.15 0.18 0.22 0.25 0.27 0.23 0.20 0.21 0.16 0.16 0.20 0.26 0.16 0.12 0.07 0.03 0.02 0.02 0.06 0.05 0.02 0.01
0.00 0.00 0.00 0.00 0.00 0.00 0.00 0.00 0.00 0.00 0.00 0.00 0.00 0.00 0.00 0.00 0.00 0.00 0.00 0.00 0.00 0.00 0.00 0.03 0.11 0.11 0.05 0.04 0.03 0.06 0.08 0.09 0.17 0.28 0.22 0.14 0.17 0.17 0.21 0.20 0.17 0.23 0.20 0.13 0.09 0.07 0.08 0.07 0.08
0.00 0.00 0.00 0.00 0.00 0.00 0.00 0.00 0.00 0.00 0.00 0.00 0.00 0.00 0.00 0.00 0.00 0.00 0.00 0.00 0.00 0.00 0.00 0.00 0.02 0.11 0.11 0.08 0.03 0.04 0.09 0.11 0.09 0.05 0.05 0.04 0.02 0.01 0.06 0.07 0.08 0.19 0.24 0.17 0.11 0.09 0.10 0.09 0.08
0.00 0.00 0.00 0.00 0.00 0.00 0.00 0.00 0.00 0.00 0.00 0.00 0.00 0.00 0.00 0.00 0.00 0.00 0.00 0.00 0.00 0.00 0.00 0.00 0.00 0.02 0.07 0.11 0.09 0.05 0.03 0.03 0.02 0.00 0.00 0.01 0.00 0.00 0.00 0.00 0.01 0.03 0.10 0.15 0.12 0.12 0.14 0.12 0.04
0.00 0.00 0.00 0.00 0.00 0.00 0.00 0.00 0.00 0.00 0.00 0.00 0.00 0.00 0.00 0.00 0.00 0.00 0.00 0.00 0.00 0.00 0.00 0.00 0.00 0.00 0.00 0.03 0.07 0.07 0.06 0.02 0.00 0.00 0.00 0.00 0.00 0.00 0.01 0.02 0.01 0.00 0.02 0.05 0.08 0.12 0.10 0.05 0.00
0.00 0.00 0.00 0.00 0.00 0.00 0.00 0.00 0.00 0.00 0.00 0.00 0.00 0.00 0.00 0.00 0.00 0.00 0.00 0.00 0.00 0.00 0.00 0.00 0.00 0.00 0.00 0.00 0.01 0.02 0.04 0.02 0.01 0.01 0.03 0.07 0.02 0.03 0.03 0.01 0.02 0.02 0.00 0.00 0.02 0.05 0.04 0.05 0.04
0.00 0.00 0.00 0.00 0.00 0.00 0.00 0.00 0.00 0.00 0.00 0.00 0.00 0.00 0.00 0.00 0.00 0.00 0.00 0.00 0.00 0.00 0.00 0.00 0.00 0.00 0.00 0.00 0.00 0.01 0.02 0.01 0.01 0.02 0.03 0.03 0.03 0.02 0.00 0.00 0.04 0.11 0.08 0.03 0.05 0.03 0.05 0.12 0.13
0.00 0.00 0.00 0.00 0.00 0.00 0.00 0.00 0.00 0.00 0.00 0.00 0.00 0.00 0.00 0.00 0.00 0.00 0.00 0.00 0.00 0.00 0.00 0.00 0.00 0.00 0.01 0.01 0.00 0.00 0.01 0.03 0.01 0.00 0.00 0.00 0.00 0.00 0.01 0.01 0.05 0.10 0.17 0.15 0.19 0.18 0.20 0.18 0.20
0.00 0.00 0.00 0.00 0.00 0.00 0.00 0.00 0.00 0.00 0.00 0.00 0.00 0.00 0.00 0.00 0.00 0.00 0.00 0.00 0.00 0.00 0.00 0.00 0.00 0.00 0.00 0.00 0.01 0.01 0.01 0.01 0.01 0.01 0.00 0.00 0.00 0.00 0.00 0.00 0.01 0.02 0.06 0.16 0.35 0.38 0.39 0.37 0.32
0.00 0.00 0.00 0.00 0.00 0.00 0.00 0.00 0.00 0.00 0.00 0.00 0.00 0.00 0.00 0.00 0.00 0.00 0.00 0.00 0.00 0.00 0.00 0.00 0.00 0.00 0.00 0.00 0.00 0.01 0.01 0.02 0.01 0.03 0.03 0.00 0.01 0.01 0.01 0.01 0.00 0.00 0.02 0.08 0.17 0.24 0.31 0.32 0.42
0.00 0.00 0.00 0.00 0.00 0.00 0.00 0.00 0.00 0.00 0.00 0.00 0.00 0.00 0.00 0.00 0.00 0.00 0.00 0.00 0.00 0.00 0.00 0.00 0.00 0.00 0.00 0.00 0.00 0.00 0.01 0.02 0.03 0.02 0.06 0.05 0.02 0.04 0.03 0.02 0.01 0.03 0.02 0.04 0.07 0.12 0.18 0.21 0.32
0.00 0.00 0.00 0.00 0.00 0.00 0.00 0.00 0.00 0.00 0.00 0.00 0.00 0.00 0.00 0.00 0.00 0.00 0.00 0.00 0.00 0.00 0.00 0.00 0.00 0.00 0.00 0.00 0.00 0.02 0.02 0.03 0.03 0.03 0.06 0.05 0.09 0.09 0.07 0.04 0.09 0.15 0.14 0.11 0.09 0.12 0.13 0.14 0.21
0.00 0.00 0.00 0.00 0.00 0.00 0.00 0.00 0.00 0.00 0.00 0.00 0.00 0.00 0.00 0.00 0.00 0.00 0.00 0.00 0.00 0.00 0.00 0.00 0.00 0.00 0.00 0.00 0.00 0.00 0.03 0.07 0.07 0.07 0.07 0.12 0.18 0.24 0.20 0.17 0.26 0.21 0.16 0.16 0.15 0.13 0.15 0.17 0.14
0.00 0.00 0.00 0.00 0.00 0.00 0.00 0.00 0.00 0.00 0.00 0.00 0.00 0.00 0.00 0.00 0.00 0.00 0.00 0.00 0.00 0.00 0.00 0.00 0.00 0.00 0.00 0.00 0.00 0.00 0.00 0.01 0.04 0.08 0.11 0.24 0.25 0.26 0.26 0.18 0.17 0.17 0.17 0.16 0.11 0.11 0.16 0.22 0.24
0.00 0.00 0.00 0.00 0.00 0.00 0.00 0.00 0.00 0.00 0.00 0.00 0.00 0.00 0.00 0.00 0.00 0.00 0.00 0.01 0.01 0.01 0.01 0.00 0.00 0.00 0.01 0.01 0.01 0.01 0.03 0.05 0.08 0.11 0.20 0.26 0.29 0.27 0.21 0.16 0.18 0.20 0.26 0.29 0.29 0.24 0.23 0.28 0.36
0.00 0.00 0.00 0.00 0.00 0.00 0.00 0.00 0.00 0.00 0.00 0.00 0.00 0.00 0.00 0.00 0.00 0.00 0.00 0.00 0.01 0.01 0.03 0.05 0.06 0.07 0.09 0.10 0.09 0.11 0.16 0.20 0.22 0.30 0.31 0.25 0.25 0.25 0.21 0.38 0.41 0.29 0.27 0.30 0.36 0.48 0.54 0.47 0.40
0.00 0.00 0.00 0.00 0.00 0.00 0.00 0.00 0.00 0.00 0.00 0.00 0.00 0.00 0.00 0.00 0.00 0.00 0.01 0.01 0.01 0.04 0.07 0.11 0.14 0.15 0.13 0.14 0.16 0.21 0.22 0.26 0.31 0.30 0.27 0.23 0.18 0.17 0.11 0.08 0.30 0.59 0.54 0.42 0.39 0.33 0.33 0.39 0.31
0.00 0.00 0.00 0.00 0.00 0.01 0.00 0.02 0.00 0.00 0.00 0.00 0.00 0.00 0.00 0.00 0.01 0.02 0.01 0.01 0.01 0.04 0.08 0.12 0.14 0.18 0.18 0.16 0.16 0.17 0.26 0.25 0.30 0.31 0.44 0.47 0.31 0.15 0.08 0.05 0.07 0.12 0.19 0.29 0.42 0.38 0.36 0.33 0.30
0.00 0.00 0.00 0.00 0.01 0.02 0.00 0.00 0.00 0.00 0.00 0.00 0.01 0.00 0.00 0.00 0.00 0.00 0.00 0.00 0.00 0.01 0.02 0.05 0.07 0.09 0.08 0.11 0.13 0.15 0.14 0.15 0.14 0.10 0.14 0.13 0.15 0.17 0.12 0.07 0.05 0.05 0.06 0.08 0.08 0.13 0.17 0.25 0.32
0.00 0.00 0.01 0.00 0.01 0.00 0.00 0.00 0.00 0.00 0.00 0.01 0.01 0.00 0.01 0.00 0.00 0.01 0.01 0.02 0.02 0.02 0.01 0.00 0.00 0.00 0.00 0.00 0.07 0.20 0.20 0.14 0.09 0.10 0.05 0.04 0.03 0.03 0.06 0.17 0.19 0.20 0.23 0.24 0.23 0.24 0.24 0.24 0.23
0.02 0.02 0.01 0.01 0.00 0.00 0.00 0.00 0.01 0.01 0.02 0.00 0.00 0.01 0.01 0.01 0.01 0.03 0.05 0.08 0.11 0.10 0.05 0.01 0.02 0.01 0.01 0.00 0.05 0.19 0.30 0.44 0.44 0.37 0.26 0.18 0.09 0.06 0.08 0.19 0.36 0.49 0.49 0.54 0.62 0.66 0.63 0.54 0.48
0.02 0.03 0.01 0.03 0.01 0.01 0.00 0.00 0.01 0.04 0.03 0.01 0.01 0.02 0.02 0.03 0.03 0.08 0.12 0.19 0.17 0.14 0.14 0.13 0.14 0.08 0.04 0.01 0.01 0.02 0.04 0.06 0.13 0.10 0.07 0.05 0.01 0.01 0.05 0.12 0.15 0.26 0.34 0.40 0.53 0.60 0.66 0.73 0.71
0.00 0.01 0.01 0.03 0.01 0.01 0.00 0.00 0.03 0.05 0.03 0.02 0.01 0.03 0.06 0.08 0.08 0.07 0.12 0.15 0.12 0.20 0.21 0.25 0.20 0.07 0.05 0.03 0.01 0.01 0.02 0.01 0.00 0.00 0.00 0.00 0.00 0.00 0.01 0.06 0.09 0.10 0.09 0.17 0.28 0.40 0.47 0.57 0.68
0.00 0.00 0.00 0.00 0.00 0.01 0.00 0.00 0.02 0.03 0.02 0.02 0.02 0.03 0.05 0.06 0.08 0.09 0.06 0.02 0.02 0.05 0.01 0.01 0.00 0.00 0.00 0.00 0.00 0.00 0.00 0.00 0.00 0.00 0.00 0.00 0.00 0.00 0.00 0.00 0.00 0.00 0.02 0.04 0.09 0.14 0.16 0.25 0.34
0.00 0.00 0.00 0.00 0.00 0.00 0.00 0.00 0.00 0.00 0.00 0.00 0.01 0.01 0.01 0.01 0.02 0.01 0.00 0.00 0.00 0.00 0.00 0.00 0.00 0.00 0.00 0.00 0.00 0.00 0.00 0.00 0.00 0.00 0.00 0.00 0.00 0.00 0.00 0.00 0.00 0.00 0.00 0.00 0.00 0.00 0.01 0.02 0.04

GFSSGP_prec_precacc24_126.txt.gz
Total_Precipitation_Accumulation
0.00 0.00 0.00 0.00 0.00 0.00 0.00 0.00 0.00 0.00 0.00 0.00 0.00 0.00 0.00 0.00 0.00 0.01 0.01 0.00 0.00 0.01 0.06 0.10 0.19 0.17 0.14 0.09 0.08 0.08 0.11 0.16 0.16 0.28 0.29 0.12 0.06 0.00 0.00 0.00 0.00 0.01 0.10 0.24 0.46 0.41 0.07 0.01 0.01
0.00 0.00 0.00 0.00 0.00 0.00 0.00 0.00 0.00 0.00 0.00 0.00 0.00 0.00 0.00 0.00 0.00 0.00 0.00 0.00 0.00 0.00 0.05 0.11 0.21 0.25 0.22 0.14 0.06 0.08 0.10 0.10 0.10 0.13 0.15 0.14 0.11 0.02 0.00 0.00 0.00 0.04 0.21 0.39 0.47 0.33 0.06 0.06 0.00
0.00 0.00 0.00 0.00 0.00 0.00 0.00 0.00 0.00 0.00 0.00 0.00 0.00 0.00 0.00 0.00 0.00 0.00 0.00 0.00 0.00 0.00 0.04 0.13 0.24 0.27 0.32 0.29 0.16 0.09 0.13 0.13 0.10 0.09 0.10 0.10 0.09 0.11 0.07 0.01 0.00 0.02 0.06 0.13 0.25 0.37 0.19 0.10 0.03
0.00 0.00 0.00 0.00 0.00 0.00 0.00 0.00 0.00 0.00 0.00 0.00 0.00 0.00 0.00 0.00 0.00 0.00 0.00 0.00 0.00 0.00 0.02 0.09 0.16 0.22 0.28 0.29 0.17 0.15 0.13 0.12 0.11 0.09 0.14 0.10 0.05 0.13 0.14 0.09 0.05 0.00 0.05 0.07 0.10 0.12 0.06 0.02 0.01
0.00 0.00 0.00 0.00 0.00 0.00 0.00 0.00 0.00 0.00 0.00 0.00 0.00 0.00 0.00 0.00 0.00 0.00 0.00 0.00 0.00 0.00 0.00 0.04 0.09 0.11 0.12 0.17 0.19 0.23 0.24 0.21 0.16 0.13 0.18 0.13 0.08 0.15 0.19 0.16 0.09 0.03 0.03 0.04 0.04 0.07 0.03 0.02 0.00
0.00 0.00 0.00 0.00 0.00 0.00 0.00 0.00 0.00 0.00 0.00 0.00 0.00 0.00 0.00 0.00 0.00 0.00 0.00 0.00 0.00 0.00 0.00 0.01 0.04 0.03 0.04 0.08 0.13 0.16 0.18 0.17 0.15 0.14 0.18 0.14 0.14 0.18 0.23 0.15 0.11 0.06 0.05 0.06 0.06 0.08 0.11 0.06 0.03
0.00 0.00 0.00 0.00 0.00 0.00 0.00 0.00 0.00 0.00 0.00 0.00 0.00 0.00 0.00 0.00 0.00 0.00 0.00 0.00 0.00 0.00 0.00 0.00 0.04 0.03 0.01 0.01 0.02 0.06 0.08 0.09 0.16 0.23 0.17 0.12 0.14 0.13 0.18 0.17 0.13 0.16 0.17 0.15 0.12 0.10 0.13 0.12 0.13
0.00 0.00 0.00 0.00 0.00 0.00 0.00 0.00 0.00 0.00 0.00 0.00 0.00 0.00 0.00 0.00 0.00 0.00 0.00 0.00 0.00 0.00 0.00 0.00 0.00 0.04 0.08 0.08 0.03 0.04 0.09 0.11 0.09 0.05 0.04 0.03 0.02 0.00 0.04 0.05 0.06 0.09 0.18 0.16 0.12 0.11 0.12 0.12 0.12
0.00 0.00 0.00 0.00 0.00 0.00 0.00 0.00 0.00 0.00 0.00 0.00 0.00 0.00 0.00 0.00 0.00 0.00 0.00 0.00 0.00 0.00 0.00 0.00 0.00 0.00 0.04 0.06 0.05 0.03 0.02 0.02 0.02 0.00 0.00 0.01 0.00 0.00 0.00 0.00 0.01 0.02 0.05 0.11 0.12 0.13 0.16 0.14 0.05
0.00 0.00 0.00 0.00 0.00 0.00 0.00 0.00 0.00 0.00 0.00 0.00 0.00 0.00 0.00 0.00 0.00 0.00 0.00 0.00 0.00 0.00 0.00 0.00 0.00 0.00 0.00 0.02 0.03 0.04 0.02 0.01 0.00 0.00 0.00 0.00 0.00 0.00 0.00 0.01 0.00 0.00 0.01 0.02 0.05 0.10 0.12 0.06 0.01
0.00 0.00 0.00 0.00 0.00 0.00 0.00 0.00 0.00 0.00 0.00 0.00 0.00 0.00 0.00 0.00 0.00 0.00 0.00 0.00 0.00 0.00 0.00 0.00 0.00 0.00 0.00 0.00 0.00 0.02 0.03 0.02 0.01 0.01 0.02 0.04 0.02 0.03 0.03 0.01 0.02 0.01 0.00 0.00 0.02 0.05 0.05 0.06 0.06
0.00 0.00 0.00 0.00 0.00 0.00 0.00 0.00 0.00 0.00 0.00 0.00 0.00 0.00 0.00 0.00 0.00 0.00 0.00 0.00 0.00 0.00 0.00 0.00 0.00 0.00 0.00 0.00 0.00 0.01 0.01 0.01 0.01 0.02 0.03 0.03 0.03 0.02 0.00 0.00 0.03 0.10 0.07 0.03 0.05 0.04 0.06 0.14 0.18
0.00 0.00 0.00 0.00 0.00 0.00 0.00 0.00 0.00 0.00 0.00 0.00 0.00 0.00 0.00 0.00 0.00 0.00 0.00 0.00 0.00 0.00 0.00 0.00 0.00 0.00 0.00 0.00 0.00 0.00 0.01 0.03 0.01 0.00 0.00 0.00 0.00 0.00 0.01 0.01 0.04 0.08 0.15 0.15 0.18 0.18 0.20 0.17 0.21
0.00 0.00 0.00 0.00 0.00 0.00 0.00 0.00 0.00 0.00 0.00 0.00 0.00 0.00 0.00 0.00 0.00 0.00 0.00 0.00 0.00 0.00 0.00 0.00 0.00 0.00 0.00 0.00 0.00 0.01 0.01 0.01 0.01 0.01 0.00 0.00 0.00 0.00 0.00 0.00 0.01 0.02 0.06 0.15 0.35 0.38 0.39 0.37 0.32
0.00 0.00 0.00 0.00 0.00 0.00 0.00 0.00 0.00 0.00 0.00 0.00 0.00 0.00 0.00 0.00 0.00 0.00 0.00 0.00 0.00 0.00 0.00 0.00 0.00 0.00 0.00 0.00 0.00 0.01 0.01 0.01 0.01 0.03 0.03 0.00 0.01 0.01 0.01 0.00 0.00 0.00 0.01 0.05 0.15 0.22 0.29 0.29 0.41
0.00 0.00 0.00 0.00 0.00 0.00 0.00 0.00 0.00 0.00 0.00 0.00 0.00 0.00 0.00 0.00 0.00 0.00 0.00 0.00 0.00 0.00 0.00 0.00 0.00 0.00 0.00 0.00 0.00 0.00 0.01 0.01 0.02 0.02 0.06 0.05 0.02 0.04 0.03 0.02 0.01 0.03 0.01 0.01 0.04 0.10 0.17 0.15 0.25
0.00 0.00 0.00 0.00 0.00 0.00 0.00 0.00 0.00 0.00 0.00 0.00 0.00 0.00 0.00 0.00 0.00 0.00 0.00 0.00 0.00 0.00 0.00 0.00 0.00 0.00 0.00 0.00 0.00 0.02 0.02 0.03 0.03 0.03 0.06 0.05 0.09 0.09 0.07 0.04 0.09 0.14 0.13 0.10 0.07 0.09 0.11 0.11 0.17
0.00 0.00 0.00 0.00 0.00 0.00 0.00 0.00 0.00 0.00 0.00 0.00 0.00 0.00 0.00 0.00 0.00 0.00 0.00 0.00 0.00 0.00 0.00 0.00 0.00 0.00 0.00 0.00 0.00 0.00 0.03 0.07 0.07 0.07 0.07 0.12 0.18 0.24 0.20 0.17 0.26 0.21 0.14 0.15 0.13 0.11 0.14 0.15 0.12
0.00 0.00 0.00 0.00 0.00 0.00 0.00 0.00 0.00 0.00 0.00 0.00 0.00 0.00 0.00 0.00 0.00 0.00 0.00 0.00 0.00 0.00 0.00 0.00 0.00 0.00 0.00 0.00 0.00 0.00 0.00 0.01 0.04 0.08 0.11 0.24 0.25 0.26 0.26 0.18 0.17 0.17 0.16 0.15 0.10 0.10 0.15 0.20 0.22
0.00 0.00 0.00 0.00 0.00 0.00 0.00 0.00 0.00 0.00 0.00 0.00 0.00 0.00 0.00 0.00 0.00 0.00 0.00 0.00 0.00 0.00 0.00 0.00 0.00 0.00 0.00 0.00 0.00 0.01 0.03 0.05 0.08 0.11 0.20 0.26 0.29 0.27 0.21 0.16 0.18 0.19 0.25 0.28 0.28 0.22 0.21 0.26 0.35
0.00 0.00 0.00 0.00 0.00 0.00 0.00 0.00 0.00 0.00 0.00 0.00 0.00 0.00 0.00 0.00 0.00 0.00 0.00 0.00 0.00 0.00 0.00 0.02 0.02 0.02 0.03 0.06 0.08 0.11 0.16 0.20 0.22 0.30 0.31 0.25 0.25 0.25 0.21 0.38 0.40 0.28 0.25 0.28 0.36 0.48 0.53 0.45 0.37
0.00 0.00 0.00 0.00 0.00 0.00 0.00 0.00 0.00 0.00 0.00 0.00 0.00 0.00 0.00 0.00 0.00 0.00 0.00 0.00 0.00 0.01 0.02 0.02 0.05 0.06 0.07 0.10 0.16 0.21 0.22 0.26 0.31 0.30 0.27 0.22 0.18 0.16 0.11 0.07 0.28 0.56 0.50 0.38 0.33 0.30 0.30 0.36 0.29
0.00 0.00 0.00 0.00 0.00 0.00 0.00 0.00 0.00 0.00 0.00 0.00 0.00 0.00 0.00 0.00 0.00 0.00 0.00 0.00 0.00 0.01 0.04 0.06 0.07 0.10 0.13 0.15 0.16 0.17 0.25 0.25 0.29 0.31 0.43 0.46 0.31 0.15 0.07 0.03 0.05 0.09 0.17 0.27 0.34 0.27 0.20 0.18 0.21
0.00 0.00 0.00 0.00 0.00 0.00 0.00 0.00 0.00 0.00 0.00 0.00 0.00 0.00 0.00 0.00 0.00 0.00 0.00 0.00 0.00 0.00 0.00 0.02 0.04 0.07 0.07 0.09 0.13 0.14 0.11 0.13 0.13 0.10 0.14 0.13 0.15 0.16 0.11 0.06 0.03 0.03 0.04 0.06 0.06 0.08 0.09 0.10 0.12
0.00 0.00 0.00 0.00 0.00 0.00 0.00 0.00 0.00 0.00 0.00 0.00 0.00 0.00 0.00 0.00 0.00 0.00 0.00 0.00 0.01 0.02 0.01 0.00 0.00 0.00 0.00 0.00 0.02 0.05 0.04 0.03 0.05 0.09 0.05 0.03 0.02 0.02 0.02 0.02 0.03 0.07 0.10 0.12 0.11 0.11 0.14 0.17 0.17
0.00 0.00 0.00 0.00 0.00 0.00 0.00 0.00 0.00 0.00 0.00 0.00 0.00 0.00 0.00 0.00 0.00 0.00 0.01 0.02 0.07 0.08 0.04 0.00 0.00 0.00 0.00 0.00 0.00 0.00 0.01 0.10 0.27 0.24 0.21 0.18 0.08 0.05 0.04 0.05 0.07 0.21 0.29 0.36 0.42 0.47 0.44 0.38 0.37
0.01 0.01 0.00 0.01 0.00 0.01 0.00 0.00 0.00 0.00 0.00 0.00 0.00 0.00 0.00 0.00 0.00 0.00 0.01 0.05 0.04 0.04 0.08 0.06 0.01 0.01 0.01 0.00 0.00 0.01 0.02 0.03 0.07 0.07 0.07 0.05 0.01 0.00 0.00 0.02 0.04 0.11 0.20 0.24 0.34 0.40 0.45 0.49 0.55
0.00 0.00 0.01 0.02 0.01 0.00 0.00 0.00 0.00 0.00 0.00 0.00 0.00 0.00 0.00 0.01 0.01 0.00 0.01 0.03 0.02 0.05 0.05 0.06 0.04 0.02 0.03 0.01 0.00 0.00 0.00 0.00 0.00 0.00 0.00 0.00 0.00 0.00 0.00 0.00 0.02 0.04 0.04 0.09 0.16 0.26 0.34 0.38 0.44
0.00 0.00 0.00 0.00 0.00 0.00 0.00 0.00 0.00 0.00 0.00 0.00 0.00 0.00 0.00 0.00 0.00 0.01 0.01 0.00 0.00 0.01 0.00 0.00 0.00 0.00 0.00 0.00 0.00 0.00 0.00 0.00 0.00 0.00 0.00 0.00 0.00 0.00 0.00 0.00 0.00 0.00 0.00 0.01 0.04 0.06 0.08 0.12 0.18
0.00 0.00 0.00 0.00 0.00 0.00 0.00 0.00 0.00 0.00 0.00 0.00 0.00 0.00 0.00 0.00 0.00 0.00 0.00 0.00 0.00 0.00 0.00 0.00 0.00 0.00 0.00 0.00 0.00 0.00 0.00 0.00 0.00 0.00 0.00 0.00 0.00 0.00 0.00 0.00 0.00 0.00 0.00 0.00 0.00 0.00 0.00 0.00 0.00

GFSSGP_prec_precacc24_129.txt.gz
Total_Precipitation_Accumulation
0.00 0.00 0.00 0.00 0.00 0.00 0.00 0.00 0.00 0.00 0.00 0.00 0.00 0.00 0.00 0.00 0.00 0.01 0.01 0.00 0.00 0.00 0.04 0.09 0.20 0.16 0.13 0.10 0.09 0.08 0.10 0.16 0.16 0.28 0.31 0.13 0.05 0.00 0.00 0.00 0.00 0.00 0.04 0.18 0.48 0.44 0.07 0.01 0.01
0.00 0.00 0.00 0.00 0.00 0.00 0.00 0.00 0.00 0.00 0.00 0.00 0.00 0.00 0.00 0.00 0.00 0.00 0.00 0.00 0.00 0.00 0.02 0.06 0.19 0.23 0.21 0.12 0.06 0.08 0.10 0.09 0.11 0.17 0.19 0.22 0.13 0.01 0.00 0.00 0.00 0.02 0.15 0.32 0.46 0.35 0.09 0.07 0.03
0.00 0.00 0.00 0.00 0.00 0.00 0.00 0.00 0.00 0.00 0.00 0.00 0.00 0.00 0.00 0.00 0.00 0.00 0.00 0.00 0.00 0.00 0.01 0.06 0.20 0.21 0.27 0.26 0.13 0.07 0.11 0.13 0.10 0.09 0.11 0.14 0.14 0.15 0.09 0.02 0.01 0.01 0.03 0.09 0.25 0.37 0.19 0.12 0.08
0.00 0.00 0.00 0.00 0.00 0.00 0.00 0.00 0.00 0.00 0.00 0.00 0.00 0.00 0.00 0.00 0.00 0.00 0.00 0.00 0.00 0.00 0.00 0.04 0.14 0.18 0.18 0.18 0.11 0.09 0.11 0.12 0.10 0.09 0.14 0.10 0.05 0.14 0.15 0.11 0.08 0.01 0.01 0.04 0.10 0.12 0.07 0.03 0.03
0.00 0.00 0.00 0.00 0.00 0.00 0.00 0.00 0.00 0.00 0.00 0.00 0.00 0.00 0.00 0.00 0.00 0.00 0.00 0.00 0.00 0.00 0.00 0.02 0.07 0.07 0.07 0.09 0.10 0.14 0.19 0.17 0.11 0.10 0.15 0.12 0.08 0.14 0.16 0.14 0.07 0.02 0.01 0.05 0.05 0.07 0.04 0.05 0.01
0.00 0.00 0.00 0.00 0.00 0.00 0.00 0.00 0.00 0.00 0.00 0.00 0.00 0.00 0.00 0.00 0.00 0.00 0.00 0.00 0.00 0.00 0.00 0.00 0.03 0.02 0.03 0.06 0.08 0.11 0.13 0.12 0.11 0.11 0.14 0.12 0.12 0.16 0.17 0.12 0.08 0.05 0.04 0.08 0.08 0.08 0.14 0.11 0.07
0.00 0.00 0.00 0.00 0.00 0.00 0.00 0.00 0.00 0.00 0.00 0.00 0.00 0.00 0.00 0.00 0.00 0.00 0.00 0.00 0.00 0.00 0.00 0.00 0.01 0.01 0.01 0.01 0.01 0.05 0.07 0.09 0.14 0.20 0.12 0.07 0.12 0.11 0.14 0.14 0.09 0.07 0.13 0.15 0.13 0.10 0.13 0.12 0.16
0.00 0.00 0.00 0.00 0.00 0.00 0.00 0.00 0.00 0.00 0.00 0.00 0.00 0.00 0.00 0.00 0.00 0.00 0.00 0.00 0.00 0.00 0.00 0.00 0.00 0.00 0.04 0.05 0.02 0.03 0.08 0.11 0.08 0.04 0.02 0.00 0.00 0.00 0.04 0.04 0.06 0.06 0.08 0.11 0.11 0.11 0.12 0.12 0.13
0.00 0.00 0.00 0.00 0.00 0.00 0.00 0.00 0.00 0.00 0.00 0.00 0.00 0.00 0.00 0.00 0.00 0.00 0.00 0.00 0.00 0.00 0.00 0.00 0.00 0.00 0.01 0.02 0.03 0.03 0.02 0.02 0.01 0.00 0.00 0.00 0.00 0.00 0.00 0.00 0.01 0.02 0.03 0.06 0.10 0.13 0.17 0.15 0.05
0.00 0.00 0.00 0.00 0.00 0.00 0.00 0.00 0.00 0.00 0.00 0.00 0.00 0.00 0.00 0.00 0.00 0.00 0.00 0.00 0.00 0.00 0.00 0.00 0.00 0.00 0.00 0.00 0.02 0.04 0.02 0.01 0.00 0.00 0.00 0.00 0.00 0.00 0.00 0.00 0.00 0.00 0.00 0.01 0.03 0.08 0.10 0.06 0.01
0.00 0.00 0.00 0.00 0.00 0.00 0.00 0.00 0.00 0.00 0.00 0.00 0.00 0.00 0.00 0.00 0.00 0.00 0.00 0.00 0.00 0.00 0.00 0.00 0.00 0.00 0.00 0.00 0.00 0.01 0.03 0.02 0.01 0.01 0.02 0.01 0.01 0.00 0.00 0.00 0.00 0.01 0.00 0.00 0.02 0.06 0.06 0.08 0.08
0.00 0.00 0.00 0.00 0.00 0.00 0.00 0.00 0.00 0.00 0.00 0.00 0.00 0.00 0.00 0.00 0.00 0.00 0.00 0.00 0.00 0.00 0.00 0.00 0.00 0.00 0.00 0.00 0.00 0.00 0.01 0.01 0.01 0.02 0.03 0.03 0.03 0.01 0.00 0.00 0.02 0.06 0.04 0.02 0.04 0.04 0.06 0.15 0.19
0.00 0.00 0.00 0.00 0.00 0.00 0.00 0.00 0.00 0.00 0.00 0.00 0.00 0.00 0.00 0.00 0.00 0.00 0.00 0.00 0.00 0.00 0.00 0.00 0.00 0.00 0.00 0.00 0.00 0.00 0.00 0.02 0.01 0.00 0.00 0.00 0.00 0.00 0.01 0.01 0.02 0.02 0.09 0.11 0.15 0.17 0.20 0.16 0.21
0.00 0.00 0.00 0.00 0.00 0.00 0.00 0.00 0.00 0.00 0.00 0.00 0.00 0.00 0.00 0.00 0.00 0.00 0.00 0.00 0.00 0.00 0.00 0.00 0.00 0.00 0.00 0.00 0.00 0.00 0.00 0.00 0.01 0.01 0.00 0.00 0.00 0.00 0.00 0.00 0.01 0.00 0.02 0.13 0.34 0.37 0.38 0.36 0.31
0.00 0.00 0.00 0.00 0.00 0.00 0.00 0.00 0.00 0.00 0.00 0.00 0.00 0.00 0.00 0.00 0.00 0.00 0.00 0.00 0.00 0.00 0.00 0.00 0.00 0.00 0.00 0.00 0.00 0.00 0.00 0.00 0.01 0.03 0.03 0.00 0.01 0.01 0.01 0.00 0.00 0.00 0.01 0.02 0.09 0.19 0.25 0.24 0.38
0.00 0.00 0.00 0.00 0.00 0.00 0.00 0.00 0.00 0.00 0.00 0.00 0.00 0.00 0.00 0.00 0.00 0.00 0.00 0.00 0.00 0.00 0.00 0.00 0.00 0.00 0.00 0.00 0.00 0.00 0.00 0.01 0.01 0.02 0.06 0.05 0.02 0.04 0.03 0.02 0.01 0.03 0.01 0.01 0.02 0.06 0.11 0.09 0.17
0.00 0.00 0.00 0.00 0.00 0.00 0.00 0.00 0.00 0.00 0.00 0.00 0.00 0.00 0.00 0.00 0.00 0.00 0.00 0.00 0.00 0.00 0.00 0.00 0.00 0.00 0.00 0.00 0.00 0.01 0.01 0.02 0.03 0.03 0.06 0.05 0.09 0.09 0.07 0.04 0.09 0.14 0.13 0.10 0.07 0.06 0.07 0.08 0.16
0.00 0.00 0.00 0.00 0.00 0.00 0.00 0.00 0.00 0.00 0.00 0.00 0.00 0.00 0.00 0.00 0.00 0.00 0.00 0.00 0.00 0.00 0.00 0.00 0.00 0.00 0.00 0.00 0.00 0.00 0.03 0.07 0.07 0.07 0.07 0.12 0.18 0.24 0.20 0.17 0.26 0.21 0.14 0.14 0.13 0.09 0.12 0.13 0.10
0.00 0.00 0.00 0.00 0.00 0.00 0.00 0.00 0.00 0.00 0.00 0.00 0.00 0.00 0.00 0.00 0.00 0.00 0.00 0.00 0.00 0.00 0.00 0.00 0.00 0.00 0.00 0.00 0.00 0.00 0.00 0.01 0.04 0.08 0.11 0.24 0.25 0.26 0.26 0.18 0.17 0.17 0.16 0.15 0.10 0.09 0.13 0.19 0.20
0.00 0.00 0.00 0.00 0.00 0.00 0.00 0.00 0.00 0.00 0.00 0.00 0.00 0.00 0.00 0.00 0.00 0.00 0.00 0.00 0.00 0.00 0.00 0.00 0.00 0.00 0.00 0.00 0.00 0.01 0.02 0.04 0.07 0.11 0.20 0.26 0.29 0.27 0.21 0.16 0.18 0.19 0.25 0.28 0.27 0.22 0.18 0.24 0.32
0.00 0.00 0.00 0.00 0.00 0.00 0.00 0.00 0.00 0.00 0.00 0.00 0.00 0.00 0.00 0.00 0.00 0.00 0.00 0.00 0.00 0.00 0.00 0.00 0.00 0.00 0.01 0.01 0.03 0.08 0.11 0.17 0.21 0.30 0.31 0.25 0.25 0.25 0.21 0.37 0.40 0.28 0.25 0.28 0.34 0.45 0.49 0.43 0.35
0.00 0.00 0.00 0.00 0.00 0.00 0.00 0.00 0.00 0.00 0.00 0.00 0.00 0.00 0.00 0.00 0.00 0.00 0.00 0.00 0.00 0.00 0.00 0.00 0.00 0.00 0.00 0.01 0.03 0.08 0.16 0.25 0.31 0.30 0.27 0.22 0.18 0.16 0.10 0.07 0.28 0.55 0.48 0.36 0.31 0.26 0.25 0.31 0.26
0.00 0.00 0.00 0.00 0.00 0.00 0.00 0.00 0.00 0.00 0.00 0.00 0.00 0.00 0.00 0.00 0.00 0.00 0.00 0.00 0.00 0.00 0.00 0.01 0.01 0.04 0.05 0.05 0.06 0.11 0.22 0.22 0.27 0.30 0.42 0.46 0.31 0.15 0.07 0.03 0.04 0.07 0.11 0.21 0.29 0.23 0.17 0.15 0.15
0.00 0.00 0.00 0.00 0.00 0.00 0.00 0.00 0.00 0.00 0.00 0.00 0.00 0.00 0.00 0.00 0.00 0.00 0.00 0.00 0.00 0.00 0.00 0.00 0.00 0.02 0.03 0.05 0.09 0.11 0.07 0.10 0.12 0.09 0.13 0.13 0.15 0.16 0.11 0.05 0.02 0.00 0.00 0.01 0.03 0.04 0.06 0.09 0.10
0.00 0.00 0.00 0.00 0.00 0.00 0.00 0.00 0.00 0.00 0.00 0.00 0.00 0.00 0.00 0.00 0.00 0.00 0.00 0.00 0.00 0.01 0.01 0.00 0.00 0.00 0.00 0.00 0.01 0.04 0.04 0.01 0.02 0.06 0.03 0.01 0.00 0.01 0.01 0.00 0.01 0.02 0.03 0.05 0.05 0.05 0.09 0.13 0.13
0.00 0.00 0.00 0.00 0.00 0.00 0.00 0.00 0.00 0.00 0.00 0.00 0.00 0.00 0.00 0.00 0.00 0.00 0.00 0.00 0.01 0.01 0.02 0.00 0.00 0.00 0.00 0.00 0.00 0.00 0.00 0.00 0.00 0.00 0.01 0.02 0.04 0.02 0.02 0.01 0.02 0.05 0.05 0.07 0.13 0.16 0.17 0.17 0.19
0.00 0.00 0.00 0.00 0.00 0.00 0.00 0.00 0.00 0.00 0.00 0.00 0.00 0.00 0.00 0.00 0.00 0.00 0.00 0.00 0.00 0.00 0.01 0.02 0.01 0.00 0.00 0.00 0.00 0.00 0.00 0.00 0.00 0.00 0.03 0.02 0.00 0.00 0.00 0.00 0.00 0.01 0.01 0.04 0.09 0.14 0.20 0.31 0.32
0.00 0.00 0.00 0.00 0.00 0.00 0.00 0.00 0.00 0.00 0.00 0.00 0.00 0.00 0.00 0.00 0.00 0.00 0.00 0.00 0.00 0.00 0.00 0.00 0.00 0.00 0.00 0.00 0.00 0.00 0.00 0.00 0.00 0.00 0.00 0.00 0.00 0.00 0.00 0.00 0.00 0.00 0.00 0.01 0.04 0.12 0.19 0.23 0.23
0.00 0.00 0.00 0.00 0.00 0.00 0.00 0.00 0.00 0.00 0.00 0.00 0.00 0.00 0.00 0.00 0.00 0.00 0.00 0.00 0.00 0.00 0.00 0.00 0.00 0.00 0.00 0.00 0.00 0.00 0.00 0.00 0.00 0.00 0.00 0.00 0.00 0.00 0.00 0.00 0.00 0.00 0.00 0.00 0.00 0.00 0.03 0.06 0.09
0.00 0.00 0.00 0.00 0.00 0.00 0.00 0.00 0.00 0.00 0.00 0.00 0.00 0.00 0.00 0.00 0.00 0.00 0.00 0.00 0.00 0.00 0.00 0.00 0.00 0.00 0.00 0.00 0.00 0.00 0.00 0.00 0.00 0.00 0.00 0.00 0.00 0.00 0.00 0.00 0.00 0.00 0.00 0.00 0.00 0.00 0.00 0.00 0.00

GFSSGP_prec_precacc24_135.txt.gz
Total_Precipitation_Accumulation
0.00 0.00 0.00 0.00 0.00 0.00 0.00 0.00 0.00 0.00 0.00 0.00 0.00 0.00 0.00 0.00 0.00 0.00 0.00 0.00 0.00 0.00 0.03 0.07 0.17 0.14 0.15 0.11 0.06 0.05 0.07 0.11 0.13 0.23 0.29 0.13 0.04 0.00 0.00 0.00 0.00 0.00 0.00 0.04 0.51 0.49 0.09 0.01 0.01
0.00 0.00 0.00 0.00 0.00 0.00 0.00 0.00 0.00 0.00 0.00 0.00 0.00 0.00 0.00 0.00 0.00 0.00 0.00 0.00 0.00 0.00 0.01 0.04 0.16 0.17 0.12 0.08 0.03 0.05 0.07 0.06 0.07 0.13 0.16 0.16 0.10 0.01 0.00 0.00 0.00 0.00 0.02 0.07 0.36 0.32 0.12 0.10 0.07
0.00 0.00 0.00 0.00 0.00 0.00 0.00 0.00 0.00 0.00 0.00 0.00 0.00 0.00 0.00 0.00 0.00 0.00 0.00 0.00 0.00 0.00 0.01 0.05 0.17 0.16 0.16 0.15 0.07 0.05 0.07 0.06 0.05 0.07 0.09 0.10 0.11 0.12 0.10 0.05 0.03 0.01 0.00 0.02 0.15 0.34 0.19 0.14 0.11
0.00 0.00 0.00 0.00 0.00 0.00 0.00 0.00 0.00 0.00 0.00 0.00 0.00 0.00 0.00 0.00 0.00 0.00 0.00 0.00 0.00 0.00 0.00 0.01 0.11 0.14 0.13 0.12 0.05 0.05 0.05 0.06 0.07 0.10 0.15 0.11 0.05 0.12 0.15 0.11 0.09 0.02 0.00 0.01 0.05 0.12 0.07 0.04 0.04
0.00 0.00 0.00 0.00 0.00 0.00 0.00 0.00 0.00 0.00 0.00 0.00 0.00 0.00 0.00 0.00 0.00 0.00 0.00 0.00 0.00 0.00 0.00 0.01 0.04 0.06 0.05 0.05 0.06 0.08 0.09 0.07 0.06 0.08 0.15 0.13 0.10 0.16 0.15 0.15 0.08 0.02 0.00 0.02 0.01 0.07 0.04 0.06 0.02
0.00 0.00 0.00 0.00 0.00 0.00 0.00 0.00 0.00 0.00 0.00 0.00 0.00 0.00 0.00 0.00 0.00 0.00 0.00 0.00 0.00 0.00 0.00 0.00 0.01 0.01 0.02 0.03 0.05 0.07 0.09 0.09 0.10 0.10 0.13 0.11 0.11 0.14 0.16 0.14 0.12 0.06 0.03 0.07 0.08 0.11 0.15 0.11 0.08
0.00 0.00 0.00 0.00 0.00 0.00 0.00 0.00 0.00 0.00 0.00 0.00 0.00 0.00 0.00 0.00 0.00 0.00 0.00 0.00 0.00 0.00 0.00 0.00 0.00 0.00 0.00 0.00 0.00 0.01 0.04 0.05 0.10 0.13 0.08 0.06 0.06 0.09 0.12 0.14 0.10 0.07 0.10 0.15 0.13 0.13 0.15 0.14 0.17
0.00 0.00 0.00 0.00 0.00 0.00 0.00 0.00 0.00 0.00 0.00 0.00 0.00 0.00 0.00 0.00 0.00 0.00 0.00 0.00 0.00 0.00 0.00 0.00 0.00 0.00 0.00 0.00 0.00 0.00 0.00 0.00 0.00 0.01 0.01 0.00 0.00 0.00 0.03 0.04 0.06 0.06 0.07 0.10 0.11 0.11 0.16 0.15 0.15
0.00 0.00 0.00 0.00 0.00 0.00 0.00 0.00 0.00 0.00 0.00 0.00 0.00 0.00 0.00 0.00 0.00 0.00 0.00 0.00 0.00 0.00 0.00 0.00 0.00 0.00 0.00 0.00 0.00 0.00 0.00 0.01 0.00 0.00 0.00 0.00 0.00 0.00 0.00 0.00 0.01 0.02 0.02 0.05 0.09 0.11 0.17 0.16 0.05
0.00 0.00 0.00 0.00 0.00 0.00 0.00 0.00 0.00 0.00 0.00 0.00 0.00 0.00 0.00 0.00 0.00 0.00 0.00 0.00 0.00 0.00 0.00 0.00 0.00 0.00 0.00 0.00 0.00 0.00 0.00 0.00 0.00 0.00 0.00 0.00 0.00 0.00 0.00 0.00 0.00 0.00 0.00 0.00 0.02 0.06 0.08 0.08 0.01
0.00 0.00 0.00 0.00 0.00 0.00 0.00 0.00 0.00 0.00 0.00 0.00 0.00 0.00 0.00 0.00 0.00 0.00 0.00 0.00 0.00 0.00 0.00 0.00 0.00 0.00 0.00 0.00 0.00 0.00 0.00 0.00 0.00 0.00 0.00 0.00 0.00 0.00 0.00 0.00 0.00 0.00 0.00 0.00 0.01 0.06 0.06 0.09 0.10
0.00 0.00 0.00 0.00 0.00 0.00 0.00 0.00 0.00 0.00 0.00 0.00 0.00 0.00 0.00 0.00 0.00 0.00 0.00 0.00 0.00 0.00 0.00 0.00 0.00 0.00 0.00 0.00 0.00 0.00 0.00 0.00 0.00 0.00 0.00 0.00 0.00 0.00 0.00 0.00 0.00 0.00 0.02 0.02 0.04 0.04 0.06 0.15 0.19
0.00 0.00 0.00 0.00 0.00 0.00 0.00 0.00 0.00 0.00 0.00 0.00 0.00 0.00 0.00 0.00 0.00 0.00 0.00 0.00 0.00 0.00 0.00 0.00 0.00 0.00 0.00 0.00 0.00 0.00 0.00 0.00 0.00 0.00 0.00 0.00 0.00 0.00 0.01 0.01 0.01 0.01 0.06 0.07 0.10 0.13 0.17 0.14 0.20
0.00 0.00 0.00 0.00 0.00 0.00 0.00 0.00 0.00 0.00 0.00 0.00 0.00 0.00 0.00 0.00 0.00 0.00 0.00 0.00 0.00 0.00 0.00 0.00 0.00 0.00 0.00 0.00 0.00 0.00 0.00 0.00 0.00 0.00 0.00 0.00 0.00 0.00 0.00 0.00 0.00 0.00 0.01 0.08 0.17 0.23 0.30 0.29 0.23
0.00 0.00 0.00 0.00 0.00 0.00 0.00 0.00 0.00 0.00 0.00 0.00 0.00 0.00 0.00 0.00 0.00 0.00 0.00 0.00 0.00 0.00 0.00 0.00 0.00 0.00 0.00 0.00 0.00 0.00 0.00 0.00 0.00 0.00 0.00 0.00 0.01 0.01 0.01 0.00 0.00 0.00 0.01 0.00 0.04 0.10 0.14 0.14 0.27
0.00 0.00 0.00 0.00 0.00 0.00 0.00 0.00 0.00 0.00 0.00 0.00 0.00 0.00 0.00 0.00 0.00 0.00 0.00 0.00 0.00 0.00 0.00 0.00 0.00 0.00 0.00 0.00 0.00 0.00 0.00 0.00 0.00 0.00 0.00 0.00 0.01 0.02 0.02 0.02 0.01 0.03 0.01 0.01 0.02 0.05 0.09 0.07 0.13
0.00 0.00 0.00 0.00 0.00 0.00 0.00 0.00 0.00 0.00 0.00 0.00 0.00 0.00 0.00 0.00 0.00 0.00 0.00 0.00 0.00 0.00 0.00 0.00 0.00 0.00 0.00 0.00 0.00 0.00 0.00 0.00 0.00 0.00 0.00 0.00 0.03 0.06 0.06 0.04 0.08 0.14 0.13 0.10 0.07 0.05 0.06 0.07 0.12
0.00 0.00 0.00 0.00 0.00 0.00 0.00 0.00 0.00 0.00 0.00 0.00 0.00 0.00 0.00 0.00 0.00 0.00 0.00 0.00 0.00 0.00 0.00 0.00 0.00 0.00 0.00 0.00 0.00 0.00 0.00 0.00 0.00 0.00 0.00 0.00 0.03 0.09 0.12 0.11 0.18 0.19 0.14 0.14 0.13 0.09 0.12 0.13 0.09
0.00 0.00 0.00 0.00 0.00 0.00 0.00 0.00 0.00 0.00 0.00 0.00 0.00 0.00 0.00 0.00 0.00 0.00 0.00 0.00 0.00 0.00 0.00 0.00 0.00 0.00 0.00 0.00 0.00 0.00 0.00 0.00 0.00 0.01 0.00 0.02 0.04 0.06 0.11 0.12 0.15 0.17 0.16 0.15 0.10 0.09 0.13 0.19 0.20
0.00 0.00 0.00 0.00 0.00 0.00 0.00 0.00 0.00 0.00 0.00 0.00 0.00 0.00 0.00 0.00 0.00 0.00 0.00 0.00 0.00 0.00 0.00 0.00 0.00 0.00 0.00 0.00 0.00 0.01 0.00 0.01 0.01 0.01 0.00 0.01 0.03 0.06 0.07 0.10 0.14 0.16 0.23 0.27 0.27 0.22 0.18 0.23 0.30
0.00 0.00 0.00 0.00 0.00 0.00 0.00 0.00 0.00 0.00 0.00 0.00 0.00 0.00 0.00 0.00 0.00 0.00 0.00 0.00 0.00 0.00 0.00 0.00 0.00 0.00 0.00 0.00 0.00 0.00 0.00 0.00 0.00 0.00 0.01 0.00 0.02 0.06 0.14 0.32 0.36 0.26 0.23 0.27 0.34 0.44 0.48 0.42 0.34
0.00 0.00 0.00 0.00 0.00 0.00 0.00 0.00 0.00 0.00 0.00 0.00 0.00 0.00 0.00 0.00 0.00 0.00 0.00 0.00 0.00 0.00 0.00 0.00 0.00 0.00 0.00 0.00 0.00 0.00 0.00 0.00 0.01 0.02 0.02 0.02 0.03 0.06 0.07 0.05 0.27 0.55 0.48 0.35 0.29 0.22 0.19 0.20 0.23
0.00 0.00 0.00 0.00 0.00 0.00 0.00 0.00 0.00 0.00 0.00 0.00 0.00 0.00 0.00 0.00 0.00 0.00 0.00 0.00 0.00 0.00 0.00 0.00 0.00 0.00 0.00 0.00 0.00 0.00 0.00 0.01 0.01 0.03 0.12 0.12 0.09 0.03 0.02 0.01 0.04 0.07 0.10 0.19 0.25 0.20 0.11 0.07 0.06
0.00 0.00 0.00 0.00 0.00 0.00 0.00 0.00 0.00 0.00 0.00 0.00 0.00 0.00 0.00 0.00 0.00 0.00 0.00 0.00 0.00 0.00 0.00 0.00 0.00 0.00 0.00 0.00 0.00 0.00 0.00 0.00 0.00 0.01 0.07 0.08 0.08 0.12 0.10 0.05 0.02 0.00 0.00 0.00 0.00 0.00 0.00 0.00 0.00
0.00 0.00 0.00 0.00 0.00 0.00 0.00 0.00 0.00 0.00 0.00 0.00 0.00 0.00 0.00 0.00 0.00 0.00 0.00 0.00 0.00 0.00 0.00 0.00 0.00 0.00 0.00 0.00 0.00 0.00 0.00 0.00 0.00 0.00 0.00 0.00 0.00 0.00 0.00 0.00 0.00 0.00 0.00 0.00 0.00 0.00 0.00 0.00 0.00
0.00 0.00 0.00 0.00 0.00 0.00 0.00 0.00 0.00 0.00 0.00 0.00 0.00 0.00 0.00 0.00 0.00 0.00 0.00 0.00 0.00 0.00 0.00 0.00 0.00 0.00 0.00 0.00 0.00 0.00 0.00 0.00 0.00 0.00 0.00 0.00 0.00 0.00 0.00 0.00 0.00 0.00 0.00 0.00 0.00 0.00 0.00 0.00 0.00
0.00 0.00 0.00 0.00 0.00 0.00 0.00 0.00 0.00 0.00 0.00 0.00 0.00 0.00 0.00 0.00 0.00 0.00 0.00 0.00 0.00 0.00 0.00 0.00 0.00 0.00 0.00 0.00 0.00 0.00 0.00 0.00 0.00 0.00 0.00 0.00 0.00 0.00 0.00 0.00 0.00 0.00 0.00 0.00 0.00 0.00 0.00 0.00 0.00
0.00 0.00 0.00 0.00 0.00 0.00 0.00 0.00 0.00 0.00 0.00 0.00 0.00 0.00 0.00 0.00 0.00 0.00 0.00 0.00 0.00 0.00 0.00 0.00 0.00 0.00 0.00 0.00 0.00 0.00 0.00 0.00 0.00 0.00 0.00 0.00 0.00 0.00 0.00 0.00 0.00 0.00 0.00 0.00 0.00 0.00 0.00 0.00 0.00
0.00 0.00 0.00 0.00 0.00 0.00 0.00 0.00 0.00 0.00 0.00 0.00 0.00 0.00 0.00 0.00 0.00 0.00 0.00 0.00 0.00 0.00 0.00 0.00 0.00 0.00 0.00 0.00 0.00 0.00 0.00 0.00 0.00 0.00 0.00 0.00 0.00 0.00 0.00 0.00 0.00 0.00 0.00 0.00 0.00 0.00 0.00 0.00 0.00
0.00 0.00 0.00 0.00 0.00 0.00 0.00 0.00 0.00 0.00 0.00 0.00 0.00 0.00 0.00 0.00 0.00 0.00 0.00 0.00 0.00 0.00 0.00 0.00 0.00 0.00 0.00 0.00 0.00 0.00 0.00 0.00 0.00 0.00 0.00 0.00 0.00 0.00 0.00 0.00 0.00 0.00 0.00 0.00 0.00 0.00 0.00 0.00 0.00

GFSSGP_prec_precacc24_138.txt.gz
Total_Precipitation_Accumulation
0.00 0.00 0.00 0.00 0.00 0.00 0.00 0.00 0.00 0.00 0.00 0.00 0.00 0.00 0.00 0.00 0.00 0.00 0.00 0.00 0.00 0.00 0.02 0.07 0.16 0.08 0.09 0.08 0.05 0.04 0.06 0.09 0.12 0.21 0.23 0.11 0.03 0.00 0.00 0.00 0.00 0.00 0.00 0.03 0.48 0.46 0.07 0.01 0.01
0.00 0.00 0.00 0.00 0.00 0.00 0.00 0.00 0.00 0.00 0.00 0.00 0.00 0.00 0.00 0.00 0.00 0.00 0.00 0.00 0.00 0.00 0.01 0.04 0.13 0.13 0.08 0.06 0.03 0.04 0.07 0.06 0.06 0.13 0.16 0.16 0.10 0.01 0.00 0.01 0.00 0.00 0.00 0.02 0.30 0.27 0.12 0.10 0.07
0.00 0.00 0.00 0.00 0.00 0.00 0.00 0.00 0.00 0.00 0.00 0.00 0.00 0.00 0.00 0.00 0.00 0.00 0.00 0.00 0.00 0.00 0.00 0.03 0.08 0.13 0.13 0.12 0.06 0.05 0.07 0.06 0.05 0.07 0.09 0.10 0.11 0.11 0.09 0.06 0.03 0.01 0.00 0.02 0.13 0.30 0.19 0.14 0.11
0.00 0.00 0.00 0.00 0.00 0.00 0.00 0.00 0.00 0.00 0.00 0.00 0.00 0.00 0.00 0.00 0.00 0.00 0.00 0.00 0.00 0.00 0.00 0.01 0.07 0.13 0.13 0.10 0.03 0.03 0.04 0.06 0.07 0.09 0.15 0.11 0.07 0.12 0.15 0.11 0.09 0.02 0.00 0.00 0.03 0.09 0.07 0.04 0.04
0.00 0.00 0.00 0.00 0.00 0.00 0.00 0.00 0.00 0.00 0.00 0.00 0.00 0.00 0.00 0.00 0.00 0.00 0.00 0.00 0.00 0.00 0.00 0.00 0.01 0.04 0.04 0.03 0.03 0.05 0.06 0.05 0.06 0.07 0.14 0.13 0.10 0.16 0.15 0.15 0.09 0.02 0.00 0.02 0.02 0.10 0.06 0.07 0.02
0.00 0.00 0.00 0.00 0.00 0.00 0.00 0.00 0.00 0.00 0.00 0.00 0.00 0.00 0.00 0.00 0.00 0.00 0.00 0.00 0.00 0.00 0.00 0.00 0.00 0.00 0.00 0.03 0.03 0.04 0.06 0.07 0.07 0.06 0.09 0.10 0.10 0.12 0.14 0.14 0.13 0.06 0.04 0.07 0.10 0.13 0.17 0.13 0.10
0.00 0.00 0.00 0.00 0.00 0.00 0.00 0.00 0.00 0.00 0.00 0.00 0.00 0.00 0.00 0.00 0.00 0.00 0.00 0.00 0.00 0.00 0.00 0.00 0.00 0.00 0.00 0.00 0.00 0.01 0.02 0.02 0.06 0.07 0.04 0.04 0.05 0.06 0.08 0.12 0.10 0.07 0.10 0.15 0.14 0.13 0.16 0.15 0.19
0.00 0.00 0.00 0.00 0.00 0.00 0.00 0.00 0.00 0.00 0.00 0.00 0.00 0.00 0.00 0.00 0.00 0.00 0.00 0.00 0.00 0.00 0.00 0.00 0.00 0.00 0.00 0.00 0.00 0.00 0.00 0.00 0.00 0.01 0.01 0.00 0.00 0.00 0.01 0.02 0.05 0.05 0.07 0.09 0.10 0.11 0.15 0.16 0.15
0.00 0.00 0.00 0.00 0.00 0.00 0.00 0.00 0.00 0.00 0.00 0.00 0.00 0.00 0.00 0.00 0.00 0.00 0.00 0.00 0.00 0.00 0.00 0.00 0.00 0.00 0.00 0.00 0.00 0.00 0.00 0.00 0.00 0.00 0.00 0.00 0.00 0.00 0.00 0.00 0.01 0.01 0.02 0.05 0.07 0.09 0.15 0.16 0.06
0.00 0.00 0.00 0.00 0.00 0.00 0.00 0.00 0.00 0.00 0.00 0.00 0.00 0.00 0.00 0.00 0.00 0.00 0.00 0.00 0.00 0.00 0.00 0.00 0.00 0.00 0.00 0.00 0.00 0.00 0.00 0.00 0.00 0.00 0.00 0.00 0.00 0.00 0.00 0.00 0.00 0.00 0.00 0.00 0.02 0.05 0.07 0.07 0.01
0.00 0.00 0.00 0.00 0.00 0.00 0.00 0.00 0.00 0.00 0.00 0.00 0.00 0.00 0.00 0.00 0.00 0.00 0.00 0.00 0.00 0.00 0.00 0.00 0.00 0.00 0.00 0.00 0.00 0.00 0.00 0.00 0.00 0.00 0.00 0.00 0.00 0.00 0.00 0.00 0.00 0.00 0.00 0.00 0.01 0.03 0.06 0.09 0.10
0.00 0.00 0.00 0.00 0.00 0.00 0.00 0.00 0.00 0.00 0.00 0.00 0.00 0.00 0.00 0.00 0.00 0.00 0.00 0.00 0.00 0.00 0.00 0.00 0.00 0.00 0.00 0.00 0.00 0.00 0.00 0.00 0.00 0.00 0.00 0.00 0.00 0.00 0.00 0.00 0.00 0.00 0.01 0.01 0.03 0.02 0.05 0.15 0.19
0.00 0.00 0.00 0.00 0.00 0.00 0.00 0.00 0.00 0.00 0.00 0.00 0.00 0.00 0.00 0.00 0.00 0.00 0.00 0.00 0.00 0.00 0.00 0.00 0.00 0.00 0.00 0.00 0.00 0.00 0.00 0.00 0.00 0.00 0.00 0.00 0.00 0.00 0.00 0.00 0.01 0.01 0.06 0.05 0.06 0.06 0.11 0.14 0.20
0.00 0.00 0.00 0.00 0.00 0.00 0.00 0.00 0.00 0.00 0.00 0.00 0.00 0.00 0.00 0.00 0.00 0.00 0.00 0.00 0.00 0.00 0.00 0.00 0.00 0.00 0.00 0.00 0.00 0.00 0.00 0.00 0.00 0.00 0.00 0.00 0.00 0.00 0.00 0.00 0.00 0.00 0.00 0.05 0.09 0.11 0.14 0.15 0.11
0.00 0.00 0.00 0.00 0.00 0.00 0.00 0.00 0.00 0.00 0.00 0.00 0.00 0.00 0.00 0.00 0.00 0.00 0.00 0.00 0.00 0.00 0.00 0.00 0.00 0.00 0.00 0.00 0.00 0.00 0.00 0.00 0.00 0.00 0.00 0.00 0.00 0.00 0.00 0.00 0.00 0.00 0.00 0.00 0.04 0.08 0.11 0.09 0.15
0.00 0.00 0.00 0.00 0.00 0.00 0.00 0.00 0.00 0.00 0.00 0.00 0.00 0.00 0.00 0.00 0.00 0.00 0.00 0.00 0.00 0.00 0.00 0.00 0.00 0.00 0.00 0.00 0.00 0.00 0.00 0.00 0.00 0.00 0.00 0.00 0.00 0.00 0.01 0.01 0.01 0.03 0.01 0.01 0.02 0.05 0.09 0.07 0.12
0.00 0.00 0.00 0.00 0.00 0.00 0.00 0.00 0.00 0.00 0.00 0.00 0.00 0.00 0.00 0.00 0.00 0.00 0.00 0.00 0.00 0.00 0.00 0.00 0.00 0.00 0.00 0.00 0.00 0.00 0.00 0.00 0.00 0.00 0.00 0.00 0.00 0.00 0.00 0.01 0.02 0.04 0.06 0.08 0.06 0.05 0.06 0.07 0.12
0.00 0.00 0.00 0.00 0.00 0.00 0.00 0.00 0.00 0.00 0.00 0.00 0.00 0.00 0.00 0.00 0.00 0.00 0.00 0.00 0.00 0.00 0.00 0.00 0.00 0.00 0.00 0.00 0.00 0.00 0.00 0.00 0.00 0.00 0.00 0.00 0.00 0.00 0.01 0.02 0.06 0.08 0.07 0.11 0.11 0.09 0.12 0.13 0.09
0.00 0.00 0.00 0.00 0.00 0.00 0.00 0.00 0.00 0.00 0.00 0.00 0.00 0.00 0.00 0.00 0.00 0.00 0.00 0.00 0.00 0.00 0.00 0.00 0.00 0.00 0.00 0.00 0.00 0.00 0.00 0.00 0.00 0.01 0.00 0.00 0.00 0.00 0.00 0.00 0.03 0.06 0.11 0.13 0.09 0.08 0.13 0.19 0.20
0.00 0.00 0.00 0.00 0.00 0.00 0.00 0.00 0.00 0.00 0.00 0.00 0.00 0.00 0.00 0.00 0.00 0.00 0.00 0.00 0.00 0.00 0.00 0.00 0.00 0.00 0.00 0.00 0.00 0.00 0.00 0.01 0.01 0.01 0.00 0.00 0.00 0.00 0.00 0.00 0.01 0.04 0.11 0.17 0.20 0.18 0.17 0.23 0.30
0.00 0.00 0.00 0.00 0.00 0.00 0.00 0.00 0.00 0.00 0.00 0.00 0.00 0.00 0.00 0.00 0.00 0.00 0.00 0.00 0.00 0.00 0.00 0.00 0.00 0.00 0.00 0.00 0.00 0.00 0.00 0.00 0.00 0.00 0.00 0.00 0.00 0.00 0.00 0.01 0.06 0.05 0.06 0.20 0.32 0.44 0.48 0.42 0.34
0.00 0.00 0.00 0.00 0.00 0.00 0.00 0.00 0.00 0.00 0.00 0.00 0.00 0.00 0.00 0.00 0.00 0.00 0.00 0.00 0.00 0.00 0.00 0.00 0.00 0.00 0.00 0.00 0.00 0.00 0.00 0.00 0.00 0.00 0.01 0.00 0.00 0.00 0.00 0.00 0.06 0.25 0.26 0.19 0.22 0.21 0.19 0.20 0.23
0.00 0.00 0.00 0.00 0.00 0.00 0.00 0.00 0.00 0.00 0.00 0.00 0.00 0.00 0.00 0.00 0.00 0.00 0.00 0.00 0.00 0.00 0.00 0.00 0.00 0.00 0.00 0.00 0.00 0.00 0.00 0.00 0.00 0.00 0.00 0.00 0.00 0.00 0.00 0.00 0.00 0.01 0.06 0.14 0.20 0.18 0.11 0.07 0.06
0.00 0.00 0.00 0.00 0.00 0.00 0.00 0.00 0.00 0.00 0.00 0.00 0.00 0.00 0.00 0.00 0.00 0.00 0.00 0.00 0.00 0.00 0.00 0.00 0.00 0.00 0.00 0.00 0.00 0.00 0.00 0.00 0.00 0.00 0.00 0.00 0.00 0.00 0.01 0.00 0.00 0.00 0.00 0.00 0.00 0.00 0.00 0.00 0.00
0.00 0.00 0.00 0.00 0.00 0.00 0.00 0.00 0.00 0.00 0.00 0.00 0.00 0.00 0.00 0.00 0.00 0.00 0.00 0.00 0.00 0.00 0.00 0.00 0.00 0.00 0.00 0.00 0.00 0.00 0.00 0.00 0.00 0.00 0.00 0.00 0.00 0.00 0.00 0.00 0.00 0.00 0.00 0.00 0.00 0.00 0.00 0.00 0.00
0.00 0.00 0.00 0.00 0.00 0.00 0.00 0.00 0.00 0.00 0.00 0.00 0.00 0.00 0.00 0.00 0.00 0.00 0.00 0.00 0.00 0.00 0.00 0.00 0.00 0.00 0.00 0.00 0.00 0.00 0.00 0.00 0.00 0.00 0.00 0.00 0.00 0.00 0.00 0.00 0.00 0.00 0.00 0.00 0.00 0.00 0.00 0.00 0.00
0.00 0.00 0.00 0.00 0.00 0.00 0.00 0.00 0.00 0.00 0.00 0.00 0.00 0.00 0.00 0.00 0.00 0.00 0.00 0.00 0.00 0.00 0.00 0.00 0.00 0.00 0.00 0.00 0.00 0.00 0.00 0.00 0.00 0.00 0.00 0.00 0.00 0.00 0.00 0.00 0.00 0.00 0.00 0.00 0.00 0.00 0.00 0.00 0.00
0.00 0.00 0.00 0.00 0.00 0.00 0.00 0.00 0.00 0.00 0.00 0.00 0.00 0.00 0.00 0.00 0.00 0.00 0.00 0.00 0.00 0.00 0.00 0.00 0.00 0.00 0.00 0.00 0.00 0.00 0.00 0.00 0.00 0.00 0.00 0.00 0.00 0.00 0.00 0.00 0.00 0.00 0.00 0.00 0.00 0.00 0.00 0.00 0.00
0.00 0.00 0.00 0.00 0.00 0.00 0.00 0.00 0.00 0.00 0.00 0.00 0.00 0.00 0.00 0.00 0.00 0.00 0.00 0.00 0.00 0.00 0.00 0.00 0.00 0.00 0.00 0.00 0.00 0.00 0.00 0.00 0.00 0.00 0.00 0.00 0.00 0.00 0.00 0.00 0.00 0.00 0.00 0.00 0.00 0.00 0.00 0.00 0.00
0.00 0.00 0.00 0.00 0.00 0.00 0.00 0.00 0.00 0.00 0.00 0.00 0.00 0.00 0.00 0.00 0.00 0.00 0.00 0.00 0.00 0.00 0.00 0.00 0.00 0.00 0.00 0.00 0.00 0.00 0.00 0.00 0.00 0.00 0.00 0.00 0.00 0.00 0.00 0.00 0.00 0.00 0.00 0.00 0.00 0.00 0.00 0.00 0.00

GFSSGP_prec_precacc24_141.txt.gz
Total_Precipitation_Accumulation
0.00 0.00 0.00 0.00 0.00 0.00 0.00 0.00 0.00 0.00 0.00 0.00 0.00 0.00 0.00 0.00 0.00 0.00 0.00 0.00 0.00 0.00 0.02 0.07 0.18 0.12 0.09 0.07 0.04 0.02 0.04 0.07 0.10 0.21 0.22 0.09 0.00 0.00 0.00 0.00 0.00 0.00 0.00 0.02 0.39 0.39 0.06 0.02 0.01
0.00 0.00 0.00 0.00 0.00 0.00 0.00 0.00 0.00 0.00 0.00 0.00 0.00 0.00 0.00 0.00 0.00 0.00 0.00 0.00 0.00 0.00 0.00 0.02 0.09 0.12 0.06 0.06 0.03 0.04 0.07 0.07 0.05 0.13 0.16 0.16 0.07 0.01 0.00 0.04 0.03 0.03 0.01 0.01 0.25 0.23 0.11 0.10 0.07
0.00 0.00 0.00 0.00 0.00 0.00 0.00 0.00 0.00 0.00 0.00 0.00 0.00 0.00 0.00 0.00 0.00 0.00 0.00 0.00 0.00 0.00 0.00 0.01 0.03 0.09 0.11 0.11 0.06 0.03 0.04 0.05 0.04 0.06 0.09 0.10 0.10 0.09 0.06 0.05 0.03 0.02 0.00 0.00 0.07 0.23 0.18 0.14 0.11
0.00 0.00 0.00 0.00 0.00 0.00 0.00 0.00 0.00 0.00 0.00 0.00 0.00 0.00 0.00 0.00 0.00 0.00 0.00 0.00 0.00 0.00 0.00 0.00 0.00 0.05 0.10 0.09 0.02 0.02 0.02 0.04 0.04 0.06 0.12 0.10 0.07 0.14 0.14 0.10 0.10 0.02 0.00 0.00 0.01 0.07 0.09 0.05 0.04
0.00 0.00 0.00 0.00 0.00 0.00 0.00 0.00 0.00 0.00 0.00 0.00 0.00 0.00 0.00 0.00 0.00 0.00 0.00 0.00 0.00 0.00 0.00 0.00 0.00 0.00 0.00 0.00 0.01 0.04 0.05 0.04 0.04 0.03 0.08 0.11 0.10 0.16 0.13 0.13 0.09 0.02 0.01 0.02 0.03 0.08 0.08 0.09 0.04
0.00 0.00 0.00 0.00 0.00 0.00 0.00 0.00 0.00 0.00 0.00 0.00 0.00 0.00 0.00 0.00 0.00 0.00 0.00 0.00 0.00 0.00 0.00 0.00 0.00 0.00 0.00 0.00 0.00 0.01 0.03 0.05 0.06 0.04 0.05 0.07 0.07 0.09 0.08 0.10 0.11 0.06 0.05 0.09 0.11 0.11 0.17 0.15 0.12
0.00 0.00 0.00 0.00 0.00 0.00 0.00 0.00 0.00 0.00 0.00 0.00 0.00 0.00 0.00 0.00 0.00 0.00 0.00 0.00 0.00 0.00 0.00 0.00 0.00 0.00 0.00 0.00 0.00 0.00 0.00 0.01 0.03 0.04 0.04 0.03 0.03 0.04 0.05 0.10 0.08 0.06 0.09 0.12 0.12 0.11 0.13 0.15 0.20
0.00 0.00 0.00 0.00 0.00 0.00 0.00 0.00 0.00 0.00 0.00 0.00 0.00 0.00 0.00 0.00 0.00 0.00 0.00 0.00 0.00 0.00 0.00 0.00 0.00 0.00 0.00 0.00 0.00 0.00 0.00 0.00 0.00 0.00 0.01 0.00 0.00 0.00 0.01 0.02 0.02 0.04 0.06 0.08 0.07 0.07 0.11 0.13 0.15
0.00 0.00 0.00 0.00 0.00 0.00 0.00 0.00 0.00 0.00 0.00 0.00 0.00 0.00 0.00 0.00 0.00 0.00 0.00 0.00 0.00 0.00 0.00 0.00 0.00 0.00 0.00 0.00 0.00 0.00 0.00 0.00 0.00 0.00 0.00 0.00 0.00 0.00 0.00 0.00 0.00 0.00 0.01 0.04 0.07 0.07 0.10 0.10 0.05
0.00 0.00 0.00 0.00 0.00 0.00 0.00 0.00 0.00 0.00 0.00 0.00 0.00 0.00 0.00 0.00 0.00 0.00 0.00 0.00 0.00 0.00 0.00 0.00 0.00 0.00 0.00 0.00 0.00 0.00 0.00 0.00 0.00 0.00 0.00 0.00 0.00 0.00 0.00 0.00 0.00 0.00 0.00 0.00 0.02 0.04 0.06 0.06 0.01
0.00 0.00 0.00 0.00 0.00 0.00 0.00 0.00 0.00 0.00 0.00 0.00 0.00 0.00 0.00 0.00 0.00 0.00 0.00 0.00 0.00 0.00 0.00 0.00 0.00 0.00 0.00 0.00 0.00 0.00 0.00 0.00 0.00 0.00 0.00 0.00 0.00 0.00 0.00 0.00 0.00 0.00 0.00 0.00 0.01 0.03 0.05 0.09 0.10
0.00 0.00 0.00 0.00 0.00 0.00 0.00 0.00 0.00 0.00 0.00 0.00 0.00 0.00 0.00 0.00 0.00 0.00 0.00 0.00 0.00 0.00 0.00 0.00 0.00 0.00 0.00 0.00 0.00 0.00 0.00 0.00 0.00 0.00 0.00 0.00 0.00 0.00 0.00 0.00 0.00 0.00 0.01 0.01 0.01 0.01 0.04 0.14 0.19
0.00 0.00 0.00 0.00 0.00 0.00 0.00 0.00 0.00 0.00 0.00 0.00 0.00 0.00 0.00 0.00 0.00 0.00 0.00 0.00 0.00 0.00 0.00 0.00 0.00 0.00 0.00 0.00 0.00 0.00 0.00 0.00 0.00 0.00 0.00 0.00 0.00 0.00 0.00 0.00 0.00 0.00 0.01 0.03 0.04 0.04 0.03 0.06 0.16
0.00 0.00 0.00 0.00 0.00 0.00 0.00 0.00 0.00 0.00 0.00 0.00 0.00 0.00 0.00 0.00 0.00 0.00 0.00 0.00 0.00 0.00 0.00 0.00 0.00 0.00 0.00 0.00 0.00 0.00 0.00 0.00 0.00 0.00 0.00 0.00 0.00 0.00 0.00 0.00 0.00 0.00 0.00 0.01 0.06 0.07 0.05 0.08 0.09
0.00 0.00 0.00 0.00 0.00 0.00 0.00 0.00 0.00 0.00 0.00 0.00 0.00 0.00 0.00 0.00 0.00 0.00 0.00 0.00 0.00 0.00 0.00 0.00 0.00 0.00 0.00 0.00 0.00 0.00 0.00 0.00 0.00 0.00 0.00 0.00 0.00 0.00 0.00 0.00 0.00 0.00 0.00 0.00 0.01 0.04 0.06 0.05 0.09
0.00 0.00 0.00 0.00 0.00 0.00 0.00 0.00 0.00 0.00 0.00 0.00 0.00 0.00 0.00 0.00 0.00 0.00 0.00 0.00 0.00 0.00 0.00 0.00 0.00 0.00 0.00 0.00 0.00 0.00 0.00 0.00 0.00 0.00 0.00 0.00 0.00 0.00 0.00 0.00 0.00 0.00 0.00 0.00 0.00 0.01 0.02 0.04 0.08
0.00 0.00 0.00 0.00 0.00 0.00 0.00 0.00 0.00 0.00 0.00 0.00 0.00 0.00 0.00 0.00 0.00 0.00 0.00 0.00 0.00 0.00 0.00 0.00 0.00 0.00 0.00 0.00 0.00 0.00 0.00 0.00 0.00 0.00 0.00 0.00 0.00 0.00 0.00 0.00 0.00 0.00 0.01 0.02 0.02 0.04 0.05 0.05 0.11
0.00 0.00 0.00 0.00 0.00 0.00 0.00 0.00 0.00 0.00 0.00 0.00 0.00 0.00 0.00 0.00 0.00 0.00 0.00 0.00 0.00 0.00 0.00 0.00 0.00 0.00 0.00 0.00 0.00 0.00 0.00 0.00 0.00 0.00 0.00 0.00 0.00 0.00 0.00 0.00 0.00 0.00 0.01 0.03 0.05 0.06 0.10 0.12 0.08
0.00 0.00 0.00 0.00 0.00 0.00 0.00 0.00 0.00 0.00 0.00 0.00 0.00 0.00 0.00 0.00 0.00 0.00 0.00 0.00 0.00 0.00 0.00 0.00 0.00 0.00 0.00 0.00 0.00 0.00 0.00 0.00 0.00 0.00 0.00 0.00 0.00 0.00 0.00 0.00 0.00 0.00 0.02 0.04 0.03 0.05 0.09 0.15 0.16
0.00 0.00 0.00 0.00 0.00 0.00 0.00 0.00 0.00 0.00 0.00 0.00 0.00 0.00 0.00 0.00 0.00 0.00 0.00 0.00 0.00 0.00 0.00 0.00 0.00 0.00 0.00 0.00 0.00 0.00 0.00 0.01 0.00 0.00 0.00 0.00 0.00 0.00 0.00 0.00 0.00 0.00 0.01 0.01 0.04 0.07 0.09 0.15 0.28
0.00 0.00 0.00 0.00 0.00 0.00 0.00 0.00 0.00 0.00 0.00 0.00 0.00 0.00 0.00 0.00 0.00 0.00 0.00 0.00 0.00 0.00 0.00 0.00 0.00 0.00 0.00 0.00 0.00 0.00 0.00 0.00 0.00 0.00 0.00 0.00 0.00 0.00 0.00 0.00 0.00 0.00 0.00 0.01 0.01 0.05 0.16 0.20 0.27
0.00 0.00 0.00 0.00 0.00 0.00 0.00 0.00 0.00 0.00 0.00 0.00 0.00 0.00 0.00 0.00 0.00 0.00 0.00 0.00 0.00 0.00 0.00 0.00 0.00 0.00 0.00 0.00 0.00 0.00 0.00 0.00 0.00 0.00 0.00 0.00 0.00 0.00 0.00 0.00 0.00 0.00 0.00 0.01 0.03 0.01 0.01 0.02 0.08
0.00 0.00 0.00 0.00 0.00 0.00 0.00 0.00 0.00 0.00 0.00 0.00 0.00 0.00 0.00 0.00 0.00 0.00 0.00 0.00 0.00 0.00 0.00 0.00 0.00 0.00 0.00 0.00 0.00 0.00 0.00 0.00 0.00 0.00 0.00 0.00 0.00 0.00 0.00 0.00 0.00 0.00 0.00 0.01 0.05 0.05 0.02 0.00 0.01
0.00 0.00 0.00 0.00 0.00 0.00 0.00 0.00 0.00 0.00 0.00 0.00 0.00 0.00 0.00 0.00 0.00 0.00 0.00 0.00 0.00 0.00 0.00 0.00 0.00 0.00 0.00 0.00 0.00 0.00 0.00 0.00 0.00 0.00 0.00 0.00 0.00 0.00 0.00 0.00 0.00 0.00 0.00 0.00 0.00 0.00 0.00 0.00 0.00
0.00 0.00 0.00 0.00 0.00 0.00 0.00 0.00 0.00 0.00 0.00 0.00 0.00 0.00 0.00 0.00 0.00 0.00 0.00 0.00 0.00 0.00 0.00 0.00 0.00 0.00 0.00 0.00 0.00 0.00 0.00 0.00 0.00 0.00 0.00 0.00 0.00 0.00 0.00 0.00 0.00 0.00 0.00 0.00 0.00 0.00 0.00 0.00 0.00
0.00 0.00 0.00 0.00 0.00 0.00 0.00 0.00 0.00 0.00 0.00 0.00 0.00 0.00 0.00 0.00 0.00 0.00 0.00 0.00 0.00 0.00 0.00 0.00 0.00 0.00 0.00 0.00 0.00 0.00 0.00 0.00 0.00 0.00 0.00 0.00 0.00 0.00 0.00 0.00 0.00 0.00 0.00 0.00 0.00 0.00 0.00 0.00 0.00
0.00 0.00 0.00 0.00 0.00 0.00 0.00 0.00 0.00 0.00 0.00 0.00 0.00 0.00 0.00 0.00 0.00 0.00 0.00 0.00 0.00 0.00 0.00 0.00 0.00 0.00 0.00 0.00 0.00 0.00 0.00 0.00 0.00 0.00 0.00 0.00 0.00 0.00 0.00 0.00 0.00 0.00 0.00 0.00 0.00 0.00 0.00 0.00 0.00
0.00 0.00 0.00 0.00 0.00 0.00 0.00 0.00 0.00 0.00 0.00 0.00 0.00 0.00 0.00 0.00 0.00 0.00 0.00 0.00 0.00 0.00 0.00 0.00 0.00 0.00 0.00 0.00 0.00 0.00 0.00 0.00 0.00 0.00 0.00 0.00 0.00 0.00 0.00 0.00 0.00 0.00 0.00 0.00 0.00 0.00 0.00 0.00 0.00
0.00 0.00 0.00 0.00 0.00 0.00 0.00 0.00 0.00 0.00 0.00 0.00 0.00 0.00 0.00 0.00 0.00 0.00 0.00 0.00 0.00 0.00 0.00 0.00 0.00 0.00 0.00 0.00 0.00 0.00 0.00 0.00 0.00 0.00 0.00 0.00 0.00 0.00 0.00 0.00 0.00 0.00 0.00 0.00 0.00 0.00 0.00 0.00 0.00
0.00 0.00 0.00 0.00 0.00 0.00 0.00 0.00 0.00 0.00 0.00 0.00 0.00 0.00 0.00 0.00 0.00 0.00 0.00 0.00 0.00 0.00 0.00 0.00 0.00 0.00 0.00 0.00 0.00 0.00 0.00 0.00 0.00 0.00 0.00 0.00 0.00 0.00 0.00 0.00 0.00 0.00 0.00 0.00 0.00 0.00 0.00 0.00 0.00

GFSSGP_prec_precacc24_144.txt.gz
Total_Precipitation_Accumulation
0.00 0.00 0.00 0.00 0.00 0.00 0.00 0.00 0.00 0.00 0.00 0.00 0.00 0.00 0.00 0.00 0.00 0.00 0.00 0.00 0.00 0.00 0.01 0.05 0.16 0.14 0.11 0.09 0.06 0.03 0.02 0.03 0.08 0.19 0.21 0.09 0.00 0.00 0.00 0.00 0.00 0.00 0.00 0.02 0.25 0.26 0.06 0.01 0.01
0.00 0.00 0.00 0.00 0.00 0.00 0.00 0.00 0.00 0.00 0.00 0.00 0.00 0.00 0.00 0.00 0.00 0.00 0.00 0.00 0.00 0.00 0.00 0.00 0.06 0.09 0.05 0.06 0.04 0.04 0.04 0.06 0.05 0.12 0.16 0.15 0.07 0.01 0.03 0.07 0.05 0.07 0.01 0.00 0.13 0.15 0.10 0.10 0.07
0.00 0.00 0.00 0.00 0.00 0.00 0.00 0.00 0.00 0.00 0.00 0.00 0.00 0.00 0.00 0.00 0.00 0.00 0.00 0.00 0.00 0.00 0.00 0.00 0.01 0.05 0.08 0.09 0.05 0.03 0.02 0.02 0.02 0.03 0.04 0.06 0.08 0.09 0.07 0.07 0.04 0.02 0.00 0.00 0.02 0.11 0.09 0.14 0.11
0.00 0.00 0.00 0.00 0.00 0.00 0.00 0.00 0.00 0.00 0.00 0.00 0.00 0.00 0.00 0.00 0.00 0.00 0.00 0.00 0.00 0.00 0.00 0.00 0.00 0.01 0.04 0.05 0.01 0.00 0.01 0.02 0.02 0.03 0.07 0.07 0.05 0.10 0.09 0.09 0.10 0.02 0.00 0.01 0.01 0.05 0.10 0.09 0.05
0.00 0.00 0.00 0.00 0.00 0.00 0.00 0.00 0.00 0.00 0.00 0.00 0.00 0.00 0.00 0.00 0.00 0.00 0.00 0.00 0.00 0.00 0.00 0.00 0.00 0.00 0.00 0.00 0.00 0.00 0.01 0.02 0.02 0.02 0.06 0.07 0.08 0.13 0.10 0.11 0.08 0.03 0.02 0.03 0.04 0.09 0.09 0.11 0.05
0.00 0.00 0.00 0.00 0.00 0.00 0.00 0.00 0.00 0.00 0.00 0.00 0.00 0.00 0.00 0.00 0.00 0.00 0.00 0.00 0.00 0.00 0.00 0.00 0.00 0.00 0.00 0.00 0.00 0.00 0.00 0.01 0.02 0.01 0.03 0.05 0.06 0.08 0.08 0.10 0.11 0.06 0.05 0.08 0.10 0.09 0.14 0.14 0.12
0.00 0.00 0.00 0.00 0.00 0.00 0.00 0.00 0.00 0.00 0.00 0.00 0.00 0.00 0.00 0.00 0.00 0.00 0.00 0.00 0.00 0.00 0.00 0.00 0.00 0.00 0.00 0.00 0.00 0.00 0.00 0.00 0.00 0.01 0.01 0.00 0.01 0.02 0.04 0.08 0.07 0.06 0.09 0.12 0.11 0.09 0.10 0.10 0.16
0.00 0.00 0.00 0.00 0.00 0.00 0.00 0.00 0.00 0.00 0.00 0.00 0.00 0.00 0.00 0.00 0.00 0.00 0.00 0.00 0.00 0.00 0.00 0.00 0.00 0.00 0.00 0.00 0.00 0.00 0.00 0.00 0.00 0.00 0.00 0.00 0.00 0.00 0.00 0.01 0.01 0.03 0.04 0.06 0.06 0.07 0.09 0.10 0.12
0.00 0.00 0.00 0.00 0.00 0.00 0.00 0.00 0.00 0.00 0.00 0.00 0.00 0.00 0.00 0.00 0.00 0.00 0.00 0.00 0.00 0.00 0.00 0.00 0.00 0.00 0.00 0.00 0.00 0.00 0.00 0.00 0.00 0.00 0.00 0.00 0.00 0.00 0.00 0.00 0.00 0.00 0.00 0.01 0.04 0.06 0.09 0.06 0.03
0.00 0.00 0.00 0.00 0.00 0.00 0.00 0.00 0.00 0.00 0.00 0.00 0.00 0.00 0.00 0.00 0.00 0.00 0.00 0.00 0.00 0.00 0.00 0.00 0.00 0.00 0.00 0.00 0.00 0.00 0.00 0.00 0.00 0.00 0.00 0.00 0.00 0.00 0.00 0.00 0.00 0.00 0.00 0.00 0.00 0.02 0.05 0.05 0.01
0.00 0.00 0.00 0.00 0.00 0.00 0.00 0.00 0.00 0.00 0.00 0.00 0.00 0.00 0.00 0.00 0.00 0.00 0.00 0.00 0.00 0.00 0.00 0.00 0.00 0.00 0.00 0.00 0.00 0.00 0.00 0.00 0.00 0.00 0.00 0.00 0.00 0.00 0.00 0.00 0.00 0.00 0.00 0.00 0.01 0.03 0.05 0.08 0.10
0.00 0.00 0.00 0.00 0.00 0.00 0.00 0.00 0.00 0.00 0.00 0.00 0.00 0.00 0.00 0.00 0.00 0.00 0.00 0.00 0.00 0.00 0.00 0.00 0.00 0.00 0.00 0.00 0.00 0.00 0.00 0.00 0.00 0.00 0.00 0.00 0.00 0.00 0.00 0.00 0.00 0.00 0.00 0.00 0.00 0.01 0.02 0.06 0.15
0.00 0.00 0.00 0.00 0.00 0.00 0.00 0.00 0.00 0.00 0.00 0.00 0.00 0.00 0.00 0.00 0.00 0.00 0.00 0.00 0.00 0.00 0.00 0.00 0.00 0.00 0.00 0.00 0.00 0.00 0.00 0.00 0.00 0.00 0.00 0.00 0.00 0.00 0.00 0.00 0.00 0.00 0.00 0.00 0.00 0.00 0.00 0.00 0.04
0.00 0.00 0.00 0.00 0.00 0.00 0.00 0.00 0.00 0.00 0.00 0.00 0.00 0.00 0.00 0.00 0.00 0.00 0.00 0.00 0.00 0.00 0.00 0.00 0.00 0.00 0.00 0.00 0.00 0.00 0.00 0.00 0.00 0.00 0.00 0.00 0.00 0.00 0.00 0.00 0.00 0.00 0.00 0.00 0.00 0.00 0.00 0.00 0.01
0.00 0.00 0.00 0.00 0.00 0.00 0.00 0.00 0.00 0.00 0.00 0.00 0.00 0.00 0.00 0.00 0.00 0.00 0.00 0.00 0.00 0.00 0.00 0.00 0.00 0.00 0.00 0.00 0.00 0.00 0.00 0.00 0.00 0.00 0.00 0.00 0.00 0.00 0.00 0.00 0.00 0.00 0.00 0.00 0.00 0.00 0.00 0.01 0.01
0.00 0.00 0.00 0.00 0.00 0.00 0.00 0.00 0.00 0.00 0.00 0.00 0.00 0.00 0.00 0.00 0.00 0.00 0.00 0.00 0.00 0.00 0.00 0.00 0.00 0.00 0.00 0.00 0.00 0.00 0.00 0.00 0.00 0.00 0.00 0.00 0.00 0.00 0.00 0.00 0.00 0.00 0.00 0.00 0.00 0.01 0.01 0.01 0.03
0.00 0.00 0.00 0.00 0.00 0.00 0.00 0.00 0.00 0.00 0.00 0.00 0.00 0.00 0.00 0.00 0.00 0.00 0.00 0.00 0.00 0.00 0.00 0.00 0.00 0.00 0.00 0.00 0.00 0.00 0.00 0.00 0.00 0.00 0.00 0.00 0.00 0.00 0.00 0.00 0.00 0.00 0.00 0.01 0.01 0.01 0.03 0.05 0.09
0.00 0.00 0.00 0.00 0.00 0.00 0.00 0.00 0.00 0.00 0.00 0.00 0.00 0.00 0.00 0.00 0.00 0.00 0.00 0.00 0.00 0.00 0.00 0.00 0.00 0.00 0.00 0.00 0.00 0.00 0.00 0.00 0.00 0.00 0.00 0.00 0.00 0.00 0.00 0.00 0.00 0.00 0.00 0.00 0.00 0.00 0.03 0.06 0.05
0.00 0.00 0.00 0.00 0.00 0.00 0.00 0.00 0.00 0.00 0.00 0.00 0.00 0.00 0.00 0.00 0.00 0.00 0.00 0.00 0.00 0.00 0.00 0.00 0.00 0.00 0.00 0.00 0.00 0.00 0.00 0.00 0.00 0.00 0.00 0.00 0.00 0.00 0.00 0.00 0.00 0.00 0.00 0.00 0.00 0.00 0.01 0.03 0.03
0.00 0.00 0.00 0.00 0.00 0.00 0.00 0.00 0.00 0.00 0.00 0.00 0.00 0.00 0.00 0.00 0.00 0.00 0.00 0.00 0.00 0.00 0.00 0.00 0.00 0.00 0.00 0.00 0.00 0.00 0.00 0.00 0.00 0.00 0.00 0.00 0.00 0.00 0.00 0.00 0.00 0.00 0.00 0.00 0.00 0.00 0.00 0.01 0.01
0.00 0.00 0.00 0.00 0.00 0.00 0.00 0.00 0.00 0.00 0.00 0.00 0.00 0.00 0.00 0.00 0.00 0.00 0.00 0.00 0.00 0.00 0.00 0.00 0.00 0.00 0.00 0.00 0.00 0.00 0.00 0.00 0.00 0.00 0.00 0.00 0.00 0.00 0.00 0.00 0.00 0.00 0.00 0.00 0.00 0.00 0.00 0.00 0.01
0.00 0.00 0.00 0.00 0.00 0.00 0.00 0.00 0.00 0.00 0.00 0.00 0.00 0.00 0.00 0.00 0.00 0.00 0.00 0.00 0.00 0.00 0.00 0.00 0.00 0.00 0.00 0.00 0.00 0.00 0.00 0.00 0.00 0.00 0.00 0.00 0.00 0.00 0.00 0.00 0.00 0.00 0.00 0.00 0.00 0.00 0.00 0.00 0.00
0.00 0.00 0.00 0.00 0.00 0.00 0.00 0.00 0.00 0.00 0.00 0.00 0.00 0.00 0.00 0.00 0.00 0.00 0.00 0.00 0.00 0.00 0.00 0.00 0.00 0.00 0.00 0.00 0.00 0.00 0.00 0.00 0.00 0.00 0.00 0.00 0.00 0.00 0.00 0.00 0.00 0.00 0.00 0.00 0.00 0.00 0.00 0.00 0.00
0.00 0.00 0.00 0.00 0.00 0.00 0.00 0.00 0.00 0.00 0.00 0.00 0.00 0.00 0.00 0.00 0.00 0.00 0.00 0.00 0.00 0.00 0.00 0.00 0.00 0.00 0.00 0.00 0.00 0.00 0.00 0.00 0.00 0.00 0.00 0.00 0.00 0.00 0.00 0.00 0.00 0.00 0.00 0.00 0.00 0.00 0.00 0.00 0.00
0.00 0.00 0.00 0.00 0.00 0.00 0.00 0.00 0.00 0.00 0.00 0.00 0.00 0.00 0.00 0.00 0.00 0.00 0.00 0.00 0.00 0.00 0.00 0.00 0.00 0.00 0.00 0.00 0.00 0.00 0.00 0.00 0.00 0.00 0.00 0.00 0.00 0.00 0.00 0.00 0.00 0.00 0.00 0.00 0.00 0.00 0.00 0.00 0.00
0.00 0.00 0.00 0.00 0.00 0.00 0.00 0.00 0.00 0.00 0.00 0.00 0.00 0.00 0.00 0.00 0.00 0.00 0.00 0.00 0.00 0.00 0.00 0.00 0.00 0.00 0.00 0.00 0.00 0.00 0.00 0.00 0.00 0.00 0.00 0.00 0.00 0.00 0.00 0.00 0.00 0.00 0.00 0.00 0.00 0.00 0.00 0.00 0.00
0.00 0.00 0.00 0.00 0.00 0.00 0.00 0.00 0.00 0.00 0.00 0.00 0.00 0.00 0.00 0.00 0.00 0.00 0.00 0.00 0.00 0.00 0.00 0.00 0.00 0.00 0.00 0.00 0.00 0.00 0.00 0.00 0.00 0.00 0.00 0.00 0.00 0.00 0.00 0.00 0.00 0.00 0.00 0.00 0.00 0.00 0.00 0.00 0.00
0.00 0.00 0.00 0.00 0.00 0.00 0.00 0.00 0.00 0.00 0.00 0.00 0.00 0.00 0.00 0.00 0.00 0.00 0.00 0.00 0.00 0.00 0.00 0.00 0.00 0.00 0.00 0.00 0.00 0.00 0.00 0.00 0.00 0.00 0.00 0.00 0.00 0.00 0.00 0.00 0.00 0.00 0.00 0.00 0.00 0.00 0.00 0.00 0.00
0.00 0.00 0.00 0.00 0.00 0.00 0.00 0.00 0.00 0.00 0.00 0.00 0.00 0.00 0.00 0.00 0.00 0.00 0.00 0.00 0.00 0.00 0.00 0.00 0.00 0.00 0.00 0.00 0.00 0.00 0.00 0.00 0.00 0.00 0.00 0.00 0.00 0.00 0.00 0.00 0.00 0.00 0.00 0.00 0.00 0.00 0.00 0.00 0.00
0.00 0.00 0.00 0.00 0.00 0.00 0.00 0.00 0.00 0.00 0.00 0.00 0.00 0.00 0.00 0.00 0.00 0.00 0.00 0.00 0.00 0.00 0.00 0.00 0.00 0.00 0.00 0.00 0.00 0.00 0.00 0.00 0.00 0.00 0.00 0.00 0.00 0.00 0.00 0.00 0.00 0.00 0.00 0.00 0.00 0.00 0.00 0.00 0.00